<?xml version="1.0" encoding="UTF-8" standalone="no" ?>
<gpx xmlns="http://www.topografix.com/GPX/1/1" xmlns:xsi="http://www.w3.org/2001/XMLSchema-instance" xsi:schemaLocation="http://www.topografix.com/GPX/1/1 http://www.topografix.com/GPX/1/1/gpx.xsd" version="1.1" creator="VisuGPX - https://www.visugpx.com">
  <metadata>
    <name>Ballade gym de marsannay jeudi 26 avril 2018</name>
    <desc><![CDATA[En partant sur le sentier du tacot puis retour par Morey]]></desc>
  </metadata>
  <trk>
    <name><![CDATA[Track]]></name>
    <trkseg>
      <trkpt lat="47.22045" lon="4.96342">
        <ele>306.35043334961</ele>
        <time>2018-04-26T09:16:40+0200</time>
      </trkpt>
      <trkpt lat="47.22044" lon="4.96341">
        <ele>306.25421142578</ele>
        <time>2018-04-26T09:16:44+0200</time>
      </trkpt>
      <trkpt lat="47.22043" lon="4.96341">
        <ele>306.15145874023</ele>
        <time>2018-04-26T09:16:47+0200</time>
      </trkpt>
      <trkpt lat="47.22044" lon="4.96341">
        <ele>305.53979492188</ele>
        <time>2018-04-26T09:16:50+0200</time>
      </trkpt>
      <trkpt lat="47.22044" lon="4.96339">
        <ele>305.4826965332</ele>
        <time>2018-04-26T09:16:53+0200</time>
      </trkpt>
      <trkpt lat="47.22044" lon="4.96339">
        <ele>305.78399658203</ele>
        <time>2018-04-26T09:16:56+0200</time>
      </trkpt>
      <trkpt lat="47.22044" lon="4.96339">
        <ele>305.95166015625</ele>
        <time>2018-04-26T09:16:59+0200</time>
      </trkpt>
      <trkpt lat="47.22044" lon="4.96339">
        <ele>306.48309326172</ele>
        <time>2018-04-26T09:17:02+0200</time>
      </trkpt>
      <trkpt lat="47.22044" lon="4.96339">
        <ele>306.82342529297</ele>
        <time>2018-04-26T09:17:05+0200</time>
      </trkpt>
      <trkpt lat="47.22044" lon="4.96339">
        <ele>306.94332885742</ele>
        <time>2018-04-26T09:17:08+0200</time>
      </trkpt>
      <trkpt lat="47.22046" lon="4.96334">
        <ele>306.9375</ele>
        <time>2018-04-26T09:17:11+0200</time>
      </trkpt>
      <trkpt lat="47.22046" lon="4.96334">
        <ele>306.99356079102</ele>
        <time>2018-04-26T09:17:14+0200</time>
      </trkpt>
      <trkpt lat="47.22046" lon="4.96334">
        <ele>307.09860229492</ele>
        <time>2018-04-26T09:17:17+0200</time>
      </trkpt>
      <trkpt lat="47.22049" lon="4.96332">
        <ele>307.25283813477</ele>
        <time>2018-04-26T09:17:20+0200</time>
      </trkpt>
      <trkpt lat="47.2205" lon="4.96327">
        <ele>307.45590209961</ele>
        <time>2018-04-26T09:17:23+0200</time>
      </trkpt>
      <trkpt lat="47.2205" lon="4.96324">
        <ele>307.67834472656</ele>
        <time>2018-04-26T09:17:26+0200</time>
      </trkpt>
      <trkpt lat="47.22051" lon="4.96323">
        <ele>307.93222045898</ele>
        <time>2018-04-26T09:17:29+0200</time>
      </trkpt>
      <trkpt lat="47.22047" lon="4.96318">
        <ele>308.03817749023</ele>
        <time>2018-04-26T09:17:32+0200</time>
      </trkpt>
      <trkpt lat="47.22047" lon="4.96317">
        <ele>308.02359008789</ele>
        <time>2018-04-26T09:17:35+0200</time>
      </trkpt>
      <trkpt lat="47.22047" lon="4.96316">
        <ele>307.9169921875</ele>
        <time>2018-04-26T09:17:38+0200</time>
      </trkpt>
      <trkpt lat="47.22047" lon="4.96316">
        <ele>307.88861083984</ele>
        <time>2018-04-26T09:17:41+0200</time>
      </trkpt>
      <trkpt lat="47.22047" lon="4.96318">
        <ele>307.85974121094</ele>
        <time>2018-04-26T09:17:44+0200</time>
      </trkpt>
      <trkpt lat="47.22046" lon="4.9632">
        <ele>307.82025146484</ele>
        <time>2018-04-26T09:17:47+0200</time>
      </trkpt>
      <trkpt lat="47.22045" lon="4.96322">
        <ele>307.80841064453</ele>
        <time>2018-04-26T09:17:50+0200</time>
      </trkpt>
      <trkpt lat="47.22042" lon="4.96325">
        <ele>307.89492797852</ele>
        <time>2018-04-26T09:17:53+0200</time>
      </trkpt>
      <trkpt lat="47.22042" lon="4.96326">
        <ele>308.03326416016</ele>
        <time>2018-04-26T09:17:56+0200</time>
      </trkpt>
      <trkpt lat="47.22042" lon="4.96324">
        <ele>308.06915283203</ele>
        <time>2018-04-26T09:17:59+0200</time>
      </trkpt>
      <trkpt lat="47.22043" lon="4.96323">
        <ele>308.21383666992</ele>
        <time>2018-04-26T09:18:02+0200</time>
      </trkpt>
      <trkpt lat="47.22042" lon="4.96325">
        <ele>308.24801635742</ele>
        <time>2018-04-26T09:18:05+0200</time>
      </trkpt>
      <trkpt lat="47.22042" lon="4.96325">
        <ele>308.29266357422</ele>
        <time>2018-04-26T09:18:08+0200</time>
      </trkpt>
      <trkpt lat="47.22041" lon="4.96328">
        <ele>308.34008789062</ele>
        <time>2018-04-26T09:18:10+0200</time>
      </trkpt>
      <trkpt lat="47.2204" lon="4.96331">
        <ele>308.40002441406</ele>
        <time>2018-04-26T09:18:13+0200</time>
      </trkpt>
      <trkpt lat="47.22039" lon="4.96332">
        <ele>308.46597290039</ele>
        <time>2018-04-26T09:18:16+0200</time>
      </trkpt>
      <trkpt lat="47.22039" lon="4.96333">
        <ele>308.53625488281</ele>
        <time>2018-04-26T09:18:19+0200</time>
      </trkpt>
      <trkpt lat="47.22038" lon="4.96334">
        <ele>308.84707641602</ele>
        <time>2018-04-26T09:18:22+0200</time>
      </trkpt>
      <trkpt lat="47.22037" lon="4.96335">
        <ele>309.16766357422</ele>
        <time>2018-04-26T09:18:25+0200</time>
      </trkpt>
      <trkpt lat="47.22038" lon="4.96335">
        <ele>309.24688720703</ele>
        <time>2018-04-26T09:18:28+0200</time>
      </trkpt>
      <trkpt lat="47.22039" lon="4.96332">
        <ele>309.51391601562</ele>
        <time>2018-04-26T09:18:31+0200</time>
      </trkpt>
      <trkpt lat="47.2204" lon="4.96331">
        <ele>309.95043945312</ele>
        <time>2018-04-26T09:18:34+0200</time>
      </trkpt>
      <trkpt lat="47.22041" lon="4.96329">
        <ele>310.0080871582</ele>
        <time>2018-04-26T09:18:37+0200</time>
      </trkpt>
      <trkpt lat="47.22042" lon="4.96326">
        <ele>310.05407714844</ele>
        <time>2018-04-26T09:18:40+0200</time>
      </trkpt>
      <trkpt lat="47.22043" lon="4.96324">
        <ele>310.08535766602</ele>
        <time>2018-04-26T09:18:43+0200</time>
      </trkpt>
      <trkpt lat="47.22043" lon="4.96324">
        <ele>310.10403442383</ele>
        <time>2018-04-26T09:18:46+0200</time>
      </trkpt>
      <trkpt lat="47.22043" lon="4.96323">
        <ele>310.22842407227</ele>
        <time>2018-04-26T09:18:49+0200</time>
      </trkpt>
      <trkpt lat="47.22043" lon="4.96321">
        <ele>310.22702026367</ele>
        <time>2018-04-26T09:18:52+0200</time>
      </trkpt>
      <trkpt lat="47.22045" lon="4.9632">
        <ele>310.17172241211</ele>
        <time>2018-04-26T09:18:55+0200</time>
      </trkpt>
      <trkpt lat="47.22046" lon="4.9632">
        <ele>310.15246582031</ele>
        <time>2018-04-26T09:18:58+0200</time>
      </trkpt>
      <trkpt lat="47.22047" lon="4.96321">
        <ele>310.13766479492</ele>
        <time>2018-04-26T09:19:01+0200</time>
      </trkpt>
      <trkpt lat="47.22047" lon="4.96322">
        <ele>310.13305664062</ele>
        <time>2018-04-26T09:19:04+0200</time>
      </trkpt>
      <trkpt lat="47.22047" lon="4.96322">
        <ele>310.13671875</ele>
        <time>2018-04-26T09:19:07+0200</time>
      </trkpt>
      <trkpt lat="47.22046" lon="4.9632">
        <ele>310.13482666016</ele>
        <time>2018-04-26T09:19:10+0200</time>
      </trkpt>
      <trkpt lat="47.22045" lon="4.96319">
        <ele>310.12576293945</ele>
        <time>2018-04-26T09:19:13+0200</time>
      </trkpt>
      <trkpt lat="47.22045" lon="4.96318">
        <ele>310.12225341797</ele>
        <time>2018-04-26T09:19:16+0200</time>
      </trkpt>
      <trkpt lat="47.22044" lon="4.96318">
        <ele>310.11968994141</ele>
        <time>2018-04-26T09:19:19+0200</time>
      </trkpt>
      <trkpt lat="47.22044" lon="4.96317">
        <ele>310.08795166016</ele>
        <time>2018-04-26T09:19:22+0200</time>
      </trkpt>
      <trkpt lat="47.22044" lon="4.96316">
        <ele>310.0771484375</ele>
        <time>2018-04-26T09:19:25+0200</time>
      </trkpt>
      <trkpt lat="47.22044" lon="4.96315">
        <ele>310.02880859375</ele>
        <time>2018-04-26T09:19:28+0200</time>
      </trkpt>
      <trkpt lat="47.22044" lon="4.96315">
        <ele>309.98080444336</ele>
        <time>2018-04-26T09:19:31+0200</time>
      </trkpt>
      <trkpt lat="47.22045" lon="4.96316">
        <ele>309.92126464844</ele>
        <time>2018-04-26T09:19:34+0200</time>
      </trkpt>
      <trkpt lat="47.22045" lon="4.96315">
        <ele>309.83901977539</ele>
        <time>2018-04-26T09:19:37+0200</time>
      </trkpt>
      <trkpt lat="47.22046" lon="4.96314">
        <ele>309.64837646484</ele>
        <time>2018-04-26T09:19:40+0200</time>
      </trkpt>
      <trkpt lat="47.22047" lon="4.96312">
        <ele>309.49353027344</ele>
        <time>2018-04-26T09:19:43+0200</time>
      </trkpt>
      <trkpt lat="47.22046" lon="4.96312">
        <ele>309.29583740234</ele>
        <time>2018-04-26T09:19:46+0200</time>
      </trkpt>
      <trkpt lat="47.22047" lon="4.96311">
        <ele>309.08932495117</ele>
        <time>2018-04-26T09:19:49+0200</time>
      </trkpt>
      <trkpt lat="47.22047" lon="4.9631">
        <ele>309.02572631836</ele>
        <time>2018-04-26T09:19:52+0200</time>
      </trkpt>
      <trkpt lat="47.22047" lon="4.9631">
        <ele>308.75411987305</ele>
        <time>2018-04-26T09:19:55+0200</time>
      </trkpt>
      <trkpt lat="47.22047" lon="4.96309">
        <ele>308.67977905273</ele>
        <time>2018-04-26T09:19:58+0200</time>
      </trkpt>
      <trkpt lat="47.22047" lon="4.9631">
        <ele>308.16647338867</ele>
        <time>2018-04-26T09:20:01+0200</time>
      </trkpt>
      <trkpt lat="47.22047" lon="4.96311">
        <ele>308.09503173828</ele>
        <time>2018-04-26T09:20:04+0200</time>
      </trkpt>
      <trkpt lat="47.22047" lon="4.96311">
        <ele>308.02291870117</ele>
        <time>2018-04-26T09:20:07+0200</time>
      </trkpt>
      <trkpt lat="47.22047" lon="4.96311">
        <ele>307.73919677734</ele>
        <time>2018-04-26T09:20:10+0200</time>
      </trkpt>
      <trkpt lat="47.22047" lon="4.96311">
        <ele>307.25988769531</ele>
        <time>2018-04-26T09:20:13+0200</time>
      </trkpt>
      <trkpt lat="47.22047" lon="4.96312">
        <ele>307.19390869141</ele>
        <time>2018-04-26T09:20:16+0200</time>
      </trkpt>
      <trkpt lat="47.22048" lon="4.96313">
        <ele>307.13101196289</ele>
        <time>2018-04-26T09:20:19+0200</time>
      </trkpt>
      <trkpt lat="47.22049" lon="4.96314">
        <ele>307.07443237305</ele>
        <time>2018-04-26T09:20:22+0200</time>
      </trkpt>
      <trkpt lat="47.22049" lon="4.96314">
        <ele>307.02261352539</ele>
        <time>2018-04-26T09:20:25+0200</time>
      </trkpt>
      <trkpt lat="47.22049" lon="4.96315">
        <ele>306.6960144043</ele>
        <time>2018-04-26T09:20:28+0200</time>
      </trkpt>
      <trkpt lat="47.22047" lon="4.96316">
        <ele>306.33270263672</ele>
        <time>2018-04-26T09:20:31+0200</time>
      </trkpt>
      <trkpt lat="47.22045" lon="4.96318">
        <ele>306.21697998047</ele>
        <time>2018-04-26T09:20:34+0200</time>
      </trkpt>
      <trkpt lat="47.22044" lon="4.96317">
        <ele>306.27551269531</ele>
        <time>2018-04-26T09:20:37+0200</time>
      </trkpt>
      <trkpt lat="47.2204" lon="4.9632">
        <ele>306.54516601562</ele>
        <time>2018-04-26T09:20:40+0200</time>
      </trkpt>
      <trkpt lat="47.22038" lon="4.96319">
        <ele>306.81997680664</ele>
        <time>2018-04-26T09:20:43+0200</time>
      </trkpt>
      <trkpt lat="47.22037" lon="4.96318">
        <ele>307.05880737305</ele>
        <time>2018-04-26T09:20:46+0200</time>
      </trkpt>
      <trkpt lat="47.22035" lon="4.96315">
        <ele>307.22830200195</ele>
        <time>2018-04-26T09:20:49+0200</time>
      </trkpt>
      <trkpt lat="47.22032" lon="4.96314">
        <ele>307.31506347656</ele>
        <time>2018-04-26T09:20:52+0200</time>
      </trkpt>
      <trkpt lat="47.22031" lon="4.96313">
        <ele>307.23001098633</ele>
        <time>2018-04-26T09:20:55+0200</time>
      </trkpt>
      <trkpt lat="47.22028" lon="4.96313">
        <ele>307.01559448242</ele>
        <time>2018-04-26T09:20:58+0200</time>
      </trkpt>
      <trkpt lat="47.22027" lon="4.96314">
        <ele>306.78665161133</ele>
        <time>2018-04-26T09:21:01+0200</time>
      </trkpt>
      <trkpt lat="47.22026" lon="4.96315">
        <ele>306.73129272461</ele>
        <time>2018-04-26T09:21:04+0200</time>
      </trkpt>
      <trkpt lat="47.22023" lon="4.96316">
        <ele>306.86273193359</ele>
        <time>2018-04-26T09:21:07+0200</time>
      </trkpt>
      <trkpt lat="47.22021" lon="4.96318">
        <ele>307.16064453125</ele>
        <time>2018-04-26T09:21:10+0200</time>
      </trkpt>
      <trkpt lat="47.22018" lon="4.96319">
        <ele>307.59530639648</ele>
        <time>2018-04-26T09:21:13+0200</time>
      </trkpt>
      <trkpt lat="47.22015" lon="4.96319">
        <ele>308.18151855469</ele>
        <time>2018-04-26T09:21:16+0200</time>
      </trkpt>
      <trkpt lat="47.22011" lon="4.9632">
        <ele>308.7463684082</ele>
        <time>2018-04-26T09:21:19+0200</time>
      </trkpt>
      <trkpt lat="47.22009" lon="4.9632">
        <ele>309.28265380859</ele>
        <time>2018-04-26T09:21:22+0200</time>
      </trkpt>
      <trkpt lat="47.22006" lon="4.9632">
        <ele>309.8327331543</ele>
        <time>2018-04-26T09:21:25+0200</time>
      </trkpt>
      <trkpt lat="47.22001" lon="4.96319">
        <ele>310.37878417969</ele>
        <time>2018-04-26T09:21:28+0200</time>
      </trkpt>
      <trkpt lat="47.21998" lon="4.96318">
        <ele>310.84503173828</ele>
        <time>2018-04-26T09:21:31+0200</time>
      </trkpt>
      <trkpt lat="47.21995" lon="4.96318">
        <ele>311.29162597656</ele>
        <time>2018-04-26T09:21:34+0200</time>
      </trkpt>
      <trkpt lat="47.21992" lon="4.96319">
        <ele>311.67987060547</ele>
        <time>2018-04-26T09:21:37+0200</time>
      </trkpt>
      <trkpt lat="47.21991" lon="4.96318">
        <ele>312.04461669922</ele>
        <time>2018-04-26T09:21:40+0200</time>
      </trkpt>
      <trkpt lat="47.21989" lon="4.96317">
        <ele>312.36938476562</ele>
        <time>2018-04-26T09:21:43+0200</time>
      </trkpt>
      <trkpt lat="47.21987" lon="4.96317">
        <ele>312.72134399414</ele>
        <time>2018-04-26T09:21:46+0200</time>
      </trkpt>
      <trkpt lat="47.21986" lon="4.96316">
        <ele>313.06546020508</ele>
        <time>2018-04-26T09:21:49+0200</time>
      </trkpt>
      <trkpt lat="47.21984" lon="4.96316">
        <ele>313.41641235352</ele>
        <time>2018-04-26T09:21:52+0200</time>
      </trkpt>
      <trkpt lat="47.21979" lon="4.96315">
        <ele>313.73986816406</ele>
        <time>2018-04-26T09:21:55+0200</time>
      </trkpt>
      <trkpt lat="47.21981" lon="4.96318">
        <ele>313.77157592773</ele>
        <time>2018-04-26T09:21:58+0200</time>
      </trkpt>
      <trkpt lat="47.21979" lon="4.96316">
        <ele>313.80706787109</ele>
        <time>2018-04-26T09:22:01+0200</time>
      </trkpt>
      <trkpt lat="47.21971" lon="4.96313">
        <ele>313.97296142578</ele>
        <time>2018-04-26T09:22:04+0200</time>
      </trkpt>
      <trkpt lat="47.21971" lon="4.96313">
        <ele>314.0032043457</ele>
        <time>2018-04-26T09:22:07+0200</time>
      </trkpt>
      <trkpt lat="47.21971" lon="4.96313">
        <ele>314.02346801758</ele>
        <time>2018-04-26T09:22:10+0200</time>
      </trkpt>
      <trkpt lat="47.21971" lon="4.96314">
        <ele>314.11770629883</ele>
        <time>2018-04-26T09:22:13+0200</time>
      </trkpt>
      <trkpt lat="47.21971" lon="4.96315">
        <ele>314.20178222656</ele>
        <time>2018-04-26T09:22:16+0200</time>
      </trkpt>
      <trkpt lat="47.21971" lon="4.96316">
        <ele>314.3092956543</ele>
        <time>2018-04-26T09:22:19+0200</time>
      </trkpt>
      <trkpt lat="47.2197" lon="4.96316">
        <ele>314.62579345703</ele>
        <time>2018-04-26T09:22:22+0200</time>
      </trkpt>
      <trkpt lat="47.21968" lon="4.96318">
        <ele>314.86367797852</ele>
        <time>2018-04-26T09:22:25+0200</time>
      </trkpt>
      <trkpt lat="47.21967" lon="4.96317">
        <ele>314.9655456543</ele>
        <time>2018-04-26T09:22:28+0200</time>
      </trkpt>
      <trkpt lat="47.21966" lon="4.96318">
        <ele>315.24603271484</ele>
        <time>2018-04-26T09:22:31+0200</time>
      </trkpt>
      <trkpt lat="47.21962" lon="4.96318">
        <ele>315.65280151367</ele>
        <time>2018-04-26T09:22:34+0200</time>
      </trkpt>
      <trkpt lat="47.21959" lon="4.96318">
        <ele>316.08584594727</ele>
        <time>2018-04-26T09:22:37+0200</time>
      </trkpt>
      <trkpt lat="47.21954" lon="4.96318">
        <ele>316.57952880859</ele>
        <time>2018-04-26T09:22:40+0200</time>
      </trkpt>
      <trkpt lat="47.21951" lon="4.96318">
        <ele>317.11401367188</ele>
        <time>2018-04-26T09:22:43+0200</time>
      </trkpt>
      <trkpt lat="47.21949" lon="4.96319">
        <ele>317.70266723633</ele>
        <time>2018-04-26T09:22:46+0200</time>
      </trkpt>
      <trkpt lat="47.21946" lon="4.96319">
        <ele>318.2624206543</ele>
        <time>2018-04-26T09:22:49+0200</time>
      </trkpt>
      <trkpt lat="47.21941" lon="4.96319">
        <ele>318.81039428711</ele>
        <time>2018-04-26T09:22:52+0200</time>
      </trkpt>
      <trkpt lat="47.21936" lon="4.96319">
        <ele>319.19879150391</ele>
        <time>2018-04-26T09:22:55+0200</time>
      </trkpt>
      <trkpt lat="47.21932" lon="4.96319">
        <ele>319.46054077148</ele>
        <time>2018-04-26T09:22:58+0200</time>
      </trkpt>
      <trkpt lat="47.21928" lon="4.96319">
        <ele>319.705078125</ele>
        <time>2018-04-26T09:23:01+0200</time>
      </trkpt>
      <trkpt lat="47.21924" lon="4.96319">
        <ele>319.89263916016</ele>
        <time>2018-04-26T09:23:04+0200</time>
      </trkpt>
      <trkpt lat="47.21921" lon="4.96318">
        <ele>320.00424194336</ele>
        <time>2018-04-26T09:23:07+0200</time>
      </trkpt>
      <trkpt lat="47.2192" lon="4.96316">
        <ele>320.03897094727</ele>
        <time>2018-04-26T09:23:10+0200</time>
      </trkpt>
      <trkpt lat="47.21919" lon="4.96311">
        <ele>319.96832275391</ele>
        <time>2018-04-26T09:23:13+0200</time>
      </trkpt>
      <trkpt lat="47.21915" lon="4.9631">
        <ele>319.8381652832</ele>
        <time>2018-04-26T09:23:16+0200</time>
      </trkpt>
      <trkpt lat="47.21913" lon="4.96309">
        <ele>319.75457763672</ele>
        <time>2018-04-26T09:23:19+0200</time>
      </trkpt>
      <trkpt lat="47.21909" lon="4.9631">
        <ele>319.72802734375</ele>
        <time>2018-04-26T09:23:22+0200</time>
      </trkpt>
      <trkpt lat="47.21906" lon="4.9631">
        <ele>319.65347290039</ele>
        <time>2018-04-26T09:23:25+0200</time>
      </trkpt>
      <trkpt lat="47.21903" lon="4.96309">
        <ele>319.46524047852</ele>
        <time>2018-04-26T09:23:28+0200</time>
      </trkpt>
      <trkpt lat="47.219" lon="4.96308">
        <ele>319.16668701172</ele>
        <time>2018-04-26T09:23:31+0200</time>
      </trkpt>
      <trkpt lat="47.21895" lon="4.96307">
        <ele>318.83609008789</ele>
        <time>2018-04-26T09:23:34+0200</time>
      </trkpt>
      <trkpt lat="47.21891" lon="4.96308">
        <ele>318.50225830078</ele>
        <time>2018-04-26T09:23:37+0200</time>
      </trkpt>
      <trkpt lat="47.21888" lon="4.96309">
        <ele>318.17138671875</ele>
        <time>2018-04-26T09:23:40+0200</time>
      </trkpt>
      <trkpt lat="47.21888" lon="4.96308">
        <ele>317.84872436523</ele>
        <time>2018-04-26T09:23:43+0200</time>
      </trkpt>
      <trkpt lat="47.21885" lon="4.96308">
        <ele>317.54119873047</ele>
        <time>2018-04-26T09:23:46+0200</time>
      </trkpt>
      <trkpt lat="47.21882" lon="4.96307">
        <ele>317.26092529297</ele>
        <time>2018-04-26T09:23:49+0200</time>
      </trkpt>
      <trkpt lat="47.21876" lon="4.96306">
        <ele>317.00979614258</ele>
        <time>2018-04-26T09:23:52+0200</time>
      </trkpt>
      <trkpt lat="47.21876" lon="4.96307">
        <ele>316.92691040039</ele>
        <time>2018-04-26T09:23:55+0200</time>
      </trkpt>
      <trkpt lat="47.21874" lon="4.96308">
        <ele>317.04016113281</ele>
        <time>2018-04-26T09:23:58+0200</time>
      </trkpt>
      <trkpt lat="47.2187" lon="4.96307">
        <ele>317.20175170898</ele>
        <time>2018-04-26T09:24:01+0200</time>
      </trkpt>
      <trkpt lat="47.21868" lon="4.96307">
        <ele>317.40344238281</ele>
        <time>2018-04-26T09:24:04+0200</time>
      </trkpt>
      <trkpt lat="47.21867" lon="4.96306">
        <ele>317.64617919922</ele>
        <time>2018-04-26T09:24:07+0200</time>
      </trkpt>
      <trkpt lat="47.21864" lon="4.96305">
        <ele>317.89822387695</ele>
        <time>2018-04-26T09:24:10+0200</time>
      </trkpt>
      <trkpt lat="47.21861" lon="4.96305">
        <ele>318.18685913086</ele>
        <time>2018-04-26T09:24:13+0200</time>
      </trkpt>
      <trkpt lat="47.21859" lon="4.96306">
        <ele>318.49169921875</ele>
        <time>2018-04-26T09:24:16+0200</time>
      </trkpt>
      <trkpt lat="47.21857" lon="4.96306">
        <ele>318.80718994141</ele>
        <time>2018-04-26T09:24:19+0200</time>
      </trkpt>
      <trkpt lat="47.21853" lon="4.96306">
        <ele>319.15100097656</ele>
        <time>2018-04-26T09:24:22+0200</time>
      </trkpt>
      <trkpt lat="47.2185" lon="4.96306">
        <ele>319.49566650391</ele>
        <time>2018-04-26T09:24:25+0200</time>
      </trkpt>
      <trkpt lat="47.21849" lon="4.96306">
        <ele>319.52359008789</ele>
        <time>2018-04-26T09:24:28+0200</time>
      </trkpt>
      <trkpt lat="47.21849" lon="4.96306">
        <ele>319.53860473633</ele>
        <time>2018-04-26T09:24:31+0200</time>
      </trkpt>
      <trkpt lat="47.21848" lon="4.96306">
        <ele>319.55093383789</ele>
        <time>2018-04-26T09:24:34+0200</time>
      </trkpt>
      <trkpt lat="47.21845" lon="4.96306">
        <ele>319.62170410156</ele>
        <time>2018-04-26T09:24:37+0200</time>
      </trkpt>
      <trkpt lat="47.21843" lon="4.96306">
        <ele>319.81442260742</ele>
        <time>2018-04-26T09:24:40+0200</time>
      </trkpt>
      <trkpt lat="47.2184" lon="4.96305">
        <ele>320.08432006836</ele>
        <time>2018-04-26T09:24:43+0200</time>
      </trkpt>
      <trkpt lat="47.2184" lon="4.96303">
        <ele>320.25814819336</ele>
        <time>2018-04-26T09:24:46+0200</time>
      </trkpt>
      <trkpt lat="47.21838" lon="4.96303">
        <ele>320.37295532227</ele>
        <time>2018-04-26T09:24:49+0200</time>
      </trkpt>
      <trkpt lat="47.21836" lon="4.96303">
        <ele>320.45074462891</ele>
        <time>2018-04-26T09:24:52+0200</time>
      </trkpt>
      <trkpt lat="47.21833" lon="4.96302">
        <ele>320.49252319336</ele>
        <time>2018-04-26T09:24:55+0200</time>
      </trkpt>
      <trkpt lat="47.2183" lon="4.96302">
        <ele>320.49172973633</ele>
        <time>2018-04-26T09:24:58+0200</time>
      </trkpt>
      <trkpt lat="47.21828" lon="4.96302">
        <ele>320.43334960938</ele>
        <time>2018-04-26T09:25:01+0200</time>
      </trkpt>
      <trkpt lat="47.21827" lon="4.96302">
        <ele>320.38513183594</ele>
        <time>2018-04-26T09:25:04+0200</time>
      </trkpt>
      <trkpt lat="47.21824" lon="4.96301">
        <ele>320.32717895508</ele>
        <time>2018-04-26T09:25:07+0200</time>
      </trkpt>
      <trkpt lat="47.2182" lon="4.963">
        <ele>320.25421142578</ele>
        <time>2018-04-26T09:25:10+0200</time>
      </trkpt>
      <trkpt lat="47.21815" lon="4.963">
        <ele>320.10223388672</ele>
        <time>2018-04-26T09:25:13+0200</time>
      </trkpt>
      <trkpt lat="47.21813" lon="4.963">
        <ele>319.97576904297</ele>
        <time>2018-04-26T09:25:16+0200</time>
      </trkpt>
      <trkpt lat="47.21811" lon="4.96299">
        <ele>319.83334350586</ele>
        <time>2018-04-26T09:25:19+0200</time>
      </trkpt>
      <trkpt lat="47.2181" lon="4.96298">
        <ele>319.60122680664</ele>
        <time>2018-04-26T09:25:22+0200</time>
      </trkpt>
      <trkpt lat="47.21809" lon="4.96297">
        <ele>319.41659545898</ele>
        <time>2018-04-26T09:25:25+0200</time>
      </trkpt>
      <trkpt lat="47.21806" lon="4.96296">
        <ele>319.43817138672</ele>
        <time>2018-04-26T09:25:28+0200</time>
      </trkpt>
      <trkpt lat="47.21801" lon="4.96295">
        <ele>319.50909423828</ele>
        <time>2018-04-26T09:25:31+0200</time>
      </trkpt>
      <trkpt lat="47.21799" lon="4.96294">
        <ele>319.54177856445</ele>
        <time>2018-04-26T09:25:34+0200</time>
      </trkpt>
      <trkpt lat="47.21799" lon="4.96294">
        <ele>319.53939819336</ele>
        <time>2018-04-26T09:25:37+0200</time>
      </trkpt>
      <trkpt lat="47.21797" lon="4.96295">
        <ele>319.55697631836</ele>
        <time>2018-04-26T09:25:40+0200</time>
      </trkpt>
      <trkpt lat="47.21796" lon="4.96295">
        <ele>319.5422668457</ele>
        <time>2018-04-26T09:25:43+0200</time>
      </trkpt>
      <trkpt lat="47.21793" lon="4.96293">
        <ele>319.52053833008</ele>
        <time>2018-04-26T09:25:46+0200</time>
      </trkpt>
      <trkpt lat="47.21791" lon="4.96292">
        <ele>319.51077270508</ele>
        <time>2018-04-26T09:25:49+0200</time>
      </trkpt>
      <trkpt lat="47.21789" lon="4.96292">
        <ele>319.56240844727</ele>
        <time>2018-04-26T09:25:52+0200</time>
      </trkpt>
      <trkpt lat="47.21787" lon="4.96292">
        <ele>319.80230712891</ele>
        <time>2018-04-26T09:25:55+0200</time>
      </trkpt>
      <trkpt lat="47.21786" lon="4.96291">
        <ele>320.09497070312</ele>
        <time>2018-04-26T09:25:58+0200</time>
      </trkpt>
      <trkpt lat="47.21784" lon="4.9629">
        <ele>320.46185302734</ele>
        <time>2018-04-26T09:26:01+0200</time>
      </trkpt>
      <trkpt lat="47.21781" lon="4.9629">
        <ele>320.87536621094</ele>
        <time>2018-04-26T09:26:04+0200</time>
      </trkpt>
      <trkpt lat="47.21778" lon="4.96289">
        <ele>321.32315063477</ele>
        <time>2018-04-26T09:26:07+0200</time>
      </trkpt>
      <trkpt lat="47.21775" lon="4.96288">
        <ele>321.74829101562</ele>
        <time>2018-04-26T09:26:10+0200</time>
      </trkpt>
      <trkpt lat="47.21773" lon="4.96287">
        <ele>322.11676025391</ele>
        <time>2018-04-26T09:26:13+0200</time>
      </trkpt>
      <trkpt lat="47.2177" lon="4.96286">
        <ele>322.39459228516</ele>
        <time>2018-04-26T09:26:16+0200</time>
      </trkpt>
      <trkpt lat="47.21768" lon="4.96284">
        <ele>322.75198364258</ele>
        <time>2018-04-26T09:26:19+0200</time>
      </trkpt>
      <trkpt lat="47.21764" lon="4.96283">
        <ele>323.22940063477</ele>
        <time>2018-04-26T09:26:22+0200</time>
      </trkpt>
      <trkpt lat="47.21761" lon="4.96282">
        <ele>323.72317504883</ele>
        <time>2018-04-26T09:26:25+0200</time>
      </trkpt>
      <trkpt lat="47.21757" lon="4.9628">
        <ele>324.1591796875</ele>
        <time>2018-04-26T09:26:28+0200</time>
      </trkpt>
      <trkpt lat="47.21754" lon="4.96279">
        <ele>324.58102416992</ele>
        <time>2018-04-26T09:26:31+0200</time>
      </trkpt>
      <trkpt lat="47.2175" lon="4.96279">
        <ele>325.02038574219</ele>
        <time>2018-04-26T09:26:34+0200</time>
      </trkpt>
      <trkpt lat="47.21749" lon="4.96278">
        <ele>325.4196472168</ele>
        <time>2018-04-26T09:26:37+0200</time>
      </trkpt>
      <trkpt lat="47.21747" lon="4.96276">
        <ele>325.75146484375</ele>
        <time>2018-04-26T09:26:40+0200</time>
      </trkpt>
      <trkpt lat="47.21744" lon="4.96275">
        <ele>326.10720825195</ele>
        <time>2018-04-26T09:26:43+0200</time>
      </trkpt>
      <trkpt lat="47.2174" lon="4.96274">
        <ele>326.4831237793</ele>
        <time>2018-04-26T09:26:46+0200</time>
      </trkpt>
      <trkpt lat="47.21735" lon="4.96272">
        <ele>326.84140014648</ele>
        <time>2018-04-26T09:26:49+0200</time>
      </trkpt>
      <trkpt lat="47.21728" lon="4.96273">
        <ele>327.15008544922</ele>
        <time>2018-04-26T09:26:52+0200</time>
      </trkpt>
      <trkpt lat="47.21725" lon="4.96274">
        <ele>327.36965942383</ele>
        <time>2018-04-26T09:26:55+0200</time>
      </trkpt>
      <trkpt lat="47.21723" lon="4.96273">
        <ele>327.50689697266</ele>
        <time>2018-04-26T09:26:58+0200</time>
      </trkpt>
      <trkpt lat="47.21723" lon="4.96273">
        <ele>327.52230834961</ele>
        <time>2018-04-26T09:27:01+0200</time>
      </trkpt>
      <trkpt lat="47.21722" lon="4.96273">
        <ele>327.60687255859</ele>
        <time>2018-04-26T09:27:04+0200</time>
      </trkpt>
      <trkpt lat="47.2172" lon="4.96273">
        <ele>327.90240478516</ele>
        <time>2018-04-26T09:27:07+0200</time>
      </trkpt>
      <trkpt lat="47.21716" lon="4.96272">
        <ele>328.38418579102</ele>
        <time>2018-04-26T09:27:10+0200</time>
      </trkpt>
      <trkpt lat="47.21713" lon="4.96272">
        <ele>328.96798706055</ele>
        <time>2018-04-26T09:27:13+0200</time>
      </trkpt>
      <trkpt lat="47.21712" lon="4.96271">
        <ele>329.54354858398</ele>
        <time>2018-04-26T09:27:16+0200</time>
      </trkpt>
      <trkpt lat="47.2171" lon="4.96271">
        <ele>330.03601074219</ele>
        <time>2018-04-26T09:27:19+0200</time>
      </trkpt>
      <trkpt lat="47.21706" lon="4.96271">
        <ele>330.29348754883</ele>
        <time>2018-04-26T09:27:22+0200</time>
      </trkpt>
      <trkpt lat="47.21702" lon="4.96271">
        <ele>330.46868896484</ele>
        <time>2018-04-26T09:27:25+0200</time>
      </trkpt>
      <trkpt lat="47.21694" lon="4.96269">
        <ele>330.65856933594</ele>
        <time>2018-04-26T09:27:28+0200</time>
      </trkpt>
      <trkpt lat="47.21689" lon="4.96268">
        <ele>330.74615478516</ele>
        <time>2018-04-26T09:27:31+0200</time>
      </trkpt>
      <trkpt lat="47.21688" lon="4.96267">
        <ele>330.70318603516</ele>
        <time>2018-04-26T09:27:34+0200</time>
      </trkpt>
      <trkpt lat="47.21685" lon="4.96267">
        <ele>330.84262084961</ele>
        <time>2018-04-26T09:27:37+0200</time>
      </trkpt>
      <trkpt lat="47.21684" lon="4.96266">
        <ele>331.19866943359</ele>
        <time>2018-04-26T09:27:40+0200</time>
      </trkpt>
      <trkpt lat="47.21682" lon="4.96266">
        <ele>331.65365600586</ele>
        <time>2018-04-26T09:27:43+0200</time>
      </trkpt>
      <trkpt lat="47.21679" lon="4.96267">
        <ele>332.25332641602</ele>
        <time>2018-04-26T09:27:46+0200</time>
      </trkpt>
      <trkpt lat="47.21675" lon="4.96267">
        <ele>333.02816772461</ele>
        <time>2018-04-26T09:27:49+0200</time>
      </trkpt>
      <trkpt lat="47.2167" lon="4.96267">
        <ele>333.78164672852</ele>
        <time>2018-04-26T09:27:52+0200</time>
      </trkpt>
      <trkpt lat="47.21668" lon="4.96265">
        <ele>334.33303833008</ele>
        <time>2018-04-26T09:27:55+0200</time>
      </trkpt>
      <trkpt lat="47.21665" lon="4.96263">
        <ele>334.79412841797</ele>
        <time>2018-04-26T09:27:58+0200</time>
      </trkpt>
      <trkpt lat="47.21662" lon="4.96261">
        <ele>335.15664672852</ele>
        <time>2018-04-26T09:28:01+0200</time>
      </trkpt>
      <trkpt lat="47.21664" lon="4.96257">
        <ele>335.37847900391</ele>
        <time>2018-04-26T09:28:04+0200</time>
      </trkpt>
      <trkpt lat="47.21662" lon="4.96254">
        <ele>335.41101074219</ele>
        <time>2018-04-26T09:28:07+0200</time>
      </trkpt>
      <trkpt lat="47.2166" lon="4.96252">
        <ele>335.30773925781</ele>
        <time>2018-04-26T09:28:10+0200</time>
      </trkpt>
      <trkpt lat="47.21658" lon="4.96251">
        <ele>335.19522094727</ele>
        <time>2018-04-26T09:28:13+0200</time>
      </trkpt>
      <trkpt lat="47.21657" lon="4.9625">
        <ele>335.15484619141</ele>
        <time>2018-04-26T09:28:16+0200</time>
      </trkpt>
      <trkpt lat="47.21654" lon="4.96249">
        <ele>335.17568969727</ele>
        <time>2018-04-26T09:28:19+0200</time>
      </trkpt>
      <trkpt lat="47.21651" lon="4.96248">
        <ele>335.22323608398</ele>
        <time>2018-04-26T09:28:22+0200</time>
      </trkpt>
      <trkpt lat="47.21648" lon="4.96248">
        <ele>335.38348388672</ele>
        <time>2018-04-26T09:28:25+0200</time>
      </trkpt>
      <trkpt lat="47.21646" lon="4.96248">
        <ele>335.84411621094</ele>
        <time>2018-04-26T09:28:28+0200</time>
      </trkpt>
      <trkpt lat="47.21643" lon="4.96246">
        <ele>336.57339477539</ele>
        <time>2018-04-26T09:28:31+0200</time>
      </trkpt>
      <trkpt lat="47.21641" lon="4.96246">
        <ele>337.41555786133</ele>
        <time>2018-04-26T09:28:34+0200</time>
      </trkpt>
      <trkpt lat="47.21638" lon="4.96244">
        <ele>338.23565673828</ele>
        <time>2018-04-26T09:28:37+0200</time>
      </trkpt>
      <trkpt lat="47.21634" lon="4.96243">
        <ele>338.95822143555</ele>
        <time>2018-04-26T09:28:40+0200</time>
      </trkpt>
      <trkpt lat="47.21632" lon="4.96239">
        <ele>339.38726806641</ele>
        <time>2018-04-26T09:28:43+0200</time>
      </trkpt>
      <trkpt lat="47.2162" lon="4.96239">
        <ele>339.59539794922</ele>
        <time>2018-04-26T09:28:46+0200</time>
      </trkpt>
      <trkpt lat="47.21612" lon="4.9624">
        <ele>339.62127685547</ele>
        <time>2018-04-26T09:28:49+0200</time>
      </trkpt>
      <trkpt lat="47.21608" lon="4.9624">
        <ele>339.56155395508</ele>
        <time>2018-04-26T09:28:52+0200</time>
      </trkpt>
      <trkpt lat="47.21607" lon="4.96239">
        <ele>339.48153686523</ele>
        <time>2018-04-26T09:28:55+0200</time>
      </trkpt>
      <trkpt lat="47.21604" lon="4.96237">
        <ele>339.36218261719</ele>
        <time>2018-04-26T09:28:58+0200</time>
      </trkpt>
      <trkpt lat="47.21604" lon="4.96237">
        <ele>339.33312988281</ele>
        <time>2018-04-26T09:29:01+0200</time>
      </trkpt>
      <trkpt lat="47.21604" lon="4.96236">
        <ele>339.380859375</ele>
        <time>2018-04-26T09:29:04+0200</time>
      </trkpt>
      <trkpt lat="47.21601" lon="4.96234">
        <ele>339.45458984375</ele>
        <time>2018-04-26T09:29:07+0200</time>
      </trkpt>
      <trkpt lat="47.21597" lon="4.96234">
        <ele>339.51895141602</ele>
        <time>2018-04-26T09:29:10+0200</time>
      </trkpt>
      <trkpt lat="47.21594" lon="4.96233">
        <ele>339.57907104492</ele>
        <time>2018-04-26T09:29:13+0200</time>
      </trkpt>
      <trkpt lat="47.2159" lon="4.96232">
        <ele>339.58831787109</ele>
        <time>2018-04-26T09:29:16+0200</time>
      </trkpt>
      <trkpt lat="47.21587" lon="4.96233">
        <ele>339.54583740234</ele>
        <time>2018-04-26T09:29:19+0200</time>
      </trkpt>
      <trkpt lat="47.21586" lon="4.96233">
        <ele>339.62554931641</ele>
        <time>2018-04-26T09:29:22+0200</time>
      </trkpt>
      <trkpt lat="47.21585" lon="4.96231">
        <ele>339.79013061523</ele>
        <time>2018-04-26T09:29:25+0200</time>
      </trkpt>
      <trkpt lat="47.21575" lon="4.96228">
        <ele>339.77081298828</ele>
        <time>2018-04-26T09:29:28+0200</time>
      </trkpt>
      <trkpt lat="47.2157" lon="4.96226">
        <ele>339.63000488281</ele>
        <time>2018-04-26T09:29:31+0200</time>
      </trkpt>
      <trkpt lat="47.21565" lon="4.96224">
        <ele>339.33401489258</ele>
        <time>2018-04-26T09:29:34+0200</time>
      </trkpt>
      <trkpt lat="47.21562" lon="4.96223">
        <ele>338.96923828125</ele>
        <time>2018-04-26T09:29:37+0200</time>
      </trkpt>
      <trkpt lat="47.2156" lon="4.96222">
        <ele>338.55606079102</ele>
        <time>2018-04-26T09:29:40+0200</time>
      </trkpt>
      <trkpt lat="47.2156" lon="4.9622">
        <ele>338.19961547852</ele>
        <time>2018-04-26T09:29:43+0200</time>
      </trkpt>
      <trkpt lat="47.21559" lon="4.96216">
        <ele>337.79342651367</ele>
        <time>2018-04-26T09:29:46+0200</time>
      </trkpt>
      <trkpt lat="47.21559" lon="4.96213">
        <ele>337.37576293945</ele>
        <time>2018-04-26T09:29:49+0200</time>
      </trkpt>
      <trkpt lat="47.21556" lon="4.96211">
        <ele>337.04898071289</ele>
        <time>2018-04-26T09:29:52+0200</time>
      </trkpt>
      <trkpt lat="47.21551" lon="4.9621">
        <ele>336.74331665039</ele>
        <time>2018-04-26T09:29:55+0200</time>
      </trkpt>
      <trkpt lat="47.21549" lon="4.96208">
        <ele>336.32312011719</ele>
        <time>2018-04-26T09:29:58+0200</time>
      </trkpt>
      <trkpt lat="47.21545" lon="4.96208">
        <ele>335.98913574219</ele>
        <time>2018-04-26T09:30:01+0200</time>
      </trkpt>
      <trkpt lat="47.21541" lon="4.96208">
        <ele>335.77264404297</ele>
        <time>2018-04-26T09:30:04+0200</time>
      </trkpt>
      <trkpt lat="47.21538" lon="4.96207">
        <ele>335.63629150391</ele>
        <time>2018-04-26T09:30:07+0200</time>
      </trkpt>
      <trkpt lat="47.21537" lon="4.96206">
        <ele>335.59432983398</ele>
        <time>2018-04-26T09:30:10+0200</time>
      </trkpt>
      <trkpt lat="47.21535" lon="4.96204">
        <ele>335.5744934082</ele>
        <time>2018-04-26T09:30:13+0200</time>
      </trkpt>
      <trkpt lat="47.21533" lon="4.96203">
        <ele>335.59588623047</ele>
        <time>2018-04-26T09:30:16+0200</time>
      </trkpt>
      <trkpt lat="47.21529" lon="4.96201">
        <ele>335.6252746582</ele>
        <time>2018-04-26T09:30:19+0200</time>
      </trkpt>
      <trkpt lat="47.21527" lon="4.96201">
        <ele>335.67086791992</ele>
        <time>2018-04-26T09:30:22+0200</time>
      </trkpt>
      <trkpt lat="47.21525" lon="4.96202">
        <ele>335.83758544922</ele>
        <time>2018-04-26T09:30:25+0200</time>
      </trkpt>
      <trkpt lat="47.21521" lon="4.96202">
        <ele>336.09539794922</ele>
        <time>2018-04-26T09:30:28+0200</time>
      </trkpt>
      <trkpt lat="47.2152" lon="4.96201">
        <ele>336.40774536133</ele>
        <time>2018-04-26T09:30:31+0200</time>
      </trkpt>
      <trkpt lat="47.21516" lon="4.96199">
        <ele>336.79919433594</ele>
        <time>2018-04-26T09:30:34+0200</time>
      </trkpt>
      <trkpt lat="47.21513" lon="4.96198">
        <ele>337.20092773438</ele>
        <time>2018-04-26T09:30:37+0200</time>
      </trkpt>
      <trkpt lat="47.21511" lon="4.96195">
        <ele>337.60809326172</ele>
        <time>2018-04-26T09:30:40+0200</time>
      </trkpt>
      <trkpt lat="47.21508" lon="4.96194">
        <ele>337.98715209961</ele>
        <time>2018-04-26T09:30:43+0200</time>
      </trkpt>
      <trkpt lat="47.21505" lon="4.96194">
        <ele>338.45529174805</ele>
        <time>2018-04-26T09:30:46+0200</time>
      </trkpt>
      <trkpt lat="47.21501" lon="4.96193">
        <ele>338.94149780273</ele>
        <time>2018-04-26T09:30:49+0200</time>
      </trkpt>
      <trkpt lat="47.21496" lon="4.96193">
        <ele>339.43154907227</ele>
        <time>2018-04-26T09:30:52+0200</time>
      </trkpt>
      <trkpt lat="47.21493" lon="4.96192">
        <ele>339.95953369141</ele>
        <time>2018-04-26T09:30:55+0200</time>
      </trkpt>
      <trkpt lat="47.21491" lon="4.96192">
        <ele>340.4553527832</ele>
        <time>2018-04-26T09:30:58+0200</time>
      </trkpt>
      <trkpt lat="47.21488" lon="4.96191">
        <ele>340.99468994141</ele>
        <time>2018-04-26T09:31:01+0200</time>
      </trkpt>
      <trkpt lat="47.21486" lon="4.96189">
        <ele>341.64694213867</ele>
        <time>2018-04-26T09:31:04+0200</time>
      </trkpt>
      <trkpt lat="47.21484" lon="4.96187">
        <ele>342.08203125</ele>
        <time>2018-04-26T09:31:07+0200</time>
      </trkpt>
      <trkpt lat="47.21482" lon="4.96184">
        <ele>342.67785644531</ele>
        <time>2018-04-26T09:31:10+0200</time>
      </trkpt>
      <trkpt lat="47.21476" lon="4.9618">
        <ele>343.19711303711</ele>
        <time>2018-04-26T09:31:13+0200</time>
      </trkpt>
      <trkpt lat="47.21471" lon="4.96176">
        <ele>343.61117553711</ele>
        <time>2018-04-26T09:31:16+0200</time>
      </trkpt>
      <trkpt lat="47.21465" lon="4.96174">
        <ele>343.95602416992</ele>
        <time>2018-04-26T09:31:19+0200</time>
      </trkpt>
      <trkpt lat="47.21463" lon="4.96172">
        <ele>344.21142578125</ele>
        <time>2018-04-26T09:31:22+0200</time>
      </trkpt>
      <trkpt lat="47.21462" lon="4.96171">
        <ele>344.36810302734</ele>
        <time>2018-04-26T09:31:25+0200</time>
      </trkpt>
      <trkpt lat="47.21461" lon="4.9617">
        <ele>344.54220581055</ele>
        <time>2018-04-26T09:31:28+0200</time>
      </trkpt>
      <trkpt lat="47.21459" lon="4.9617">
        <ele>344.84442138672</ele>
        <time>2018-04-26T09:31:31+0200</time>
      </trkpt>
      <trkpt lat="47.21456" lon="4.96169">
        <ele>345.31063842773</ele>
        <time>2018-04-26T09:31:34+0200</time>
      </trkpt>
      <trkpt lat="47.21453" lon="4.96168">
        <ele>345.81457519531</ele>
        <time>2018-04-26T09:31:37+0200</time>
      </trkpt>
      <trkpt lat="47.21452" lon="4.96166">
        <ele>346.34490966797</ele>
        <time>2018-04-26T09:31:40+0200</time>
      </trkpt>
      <trkpt lat="47.2145" lon="4.96164">
        <ele>346.95678710938</ele>
        <time>2018-04-26T09:31:43+0200</time>
      </trkpt>
      <trkpt lat="47.21444" lon="4.96161">
        <ele>347.56158447266</ele>
        <time>2018-04-26T09:31:46+0200</time>
      </trkpt>
      <trkpt lat="47.2144" lon="4.9616">
        <ele>347.97079467773</ele>
        <time>2018-04-26T09:31:49+0200</time>
      </trkpt>
      <trkpt lat="47.21438" lon="4.9616">
        <ele>348.38122558594</ele>
        <time>2018-04-26T09:31:52+0200</time>
      </trkpt>
      <trkpt lat="47.21436" lon="4.96159">
        <ele>348.85729980469</ele>
        <time>2018-04-26T09:31:55+0200</time>
      </trkpt>
      <trkpt lat="47.21429" lon="4.96156">
        <ele>349.17510986328</ele>
        <time>2018-04-26T09:31:59+0200</time>
      </trkpt>
      <trkpt lat="47.21427" lon="4.96154">
        <ele>349.4104309082</ele>
        <time>2018-04-26T09:32:02+0200</time>
      </trkpt>
      <trkpt lat="47.21425" lon="4.96151">
        <ele>349.60409545898</ele>
        <time>2018-04-26T09:32:05+0200</time>
      </trkpt>
      <trkpt lat="47.21422" lon="4.96147">
        <ele>349.79052734375</ele>
        <time>2018-04-26T09:32:08+0200</time>
      </trkpt>
      <trkpt lat="47.2142" lon="4.96146">
        <ele>349.94555664062</ele>
        <time>2018-04-26T09:32:11+0200</time>
      </trkpt>
      <trkpt lat="47.21418" lon="4.96146">
        <ele>350.00415039062</ele>
        <time>2018-04-26T09:32:14+0200</time>
      </trkpt>
      <trkpt lat="47.21417" lon="4.96145">
        <ele>350.04754638672</ele>
        <time>2018-04-26T09:32:17+0200</time>
      </trkpt>
      <trkpt lat="47.21415" lon="4.96144">
        <ele>350.24481201172</ele>
        <time>2018-04-26T09:32:20+0200</time>
      </trkpt>
      <trkpt lat="47.21413" lon="4.96143">
        <ele>350.72613525391</ele>
        <time>2018-04-26T09:32:23+0200</time>
      </trkpt>
      <trkpt lat="47.21409" lon="4.96143">
        <ele>351.39895629883</ele>
        <time>2018-04-26T09:32:26+0200</time>
      </trkpt>
      <trkpt lat="47.21405" lon="4.96142">
        <ele>352.09799194336</ele>
        <time>2018-04-26T09:32:29+0200</time>
      </trkpt>
      <trkpt lat="47.21402" lon="4.96141">
        <ele>352.58752441406</ele>
        <time>2018-04-26T09:32:32+0200</time>
      </trkpt>
      <trkpt lat="47.21401" lon="4.96137">
        <ele>353.16903686523</ele>
        <time>2018-04-26T09:32:35+0200</time>
      </trkpt>
      <trkpt lat="47.21401" lon="4.96132">
        <ele>353.85656738281</ele>
        <time>2018-04-26T09:32:38+0200</time>
      </trkpt>
      <trkpt lat="47.21396" lon="4.96127">
        <ele>354.44607543945</ele>
        <time>2018-04-26T09:32:41+0200</time>
      </trkpt>
      <trkpt lat="47.21384" lon="4.96123">
        <ele>354.55233764648</ele>
        <time>2018-04-26T09:32:44+0200</time>
      </trkpt>
      <trkpt lat="47.21381" lon="4.96122">
        <ele>354.22052001953</ele>
        <time>2018-04-26T09:32:47+0200</time>
      </trkpt>
      <trkpt lat="47.21378" lon="4.96121">
        <ele>353.72100830078</ele>
        <time>2018-04-26T09:32:50+0200</time>
      </trkpt>
      <trkpt lat="47.21379" lon="4.96119">
        <ele>353.2903137207</ele>
        <time>2018-04-26T09:32:53+0200</time>
      </trkpt>
      <trkpt lat="47.21374" lon="4.96115">
        <ele>353.02676391602</ele>
        <time>2018-04-26T09:32:56+0200</time>
      </trkpt>
      <trkpt lat="47.2137" lon="4.96111">
        <ele>352.72607421875</ele>
        <time>2018-04-26T09:32:59+0200</time>
      </trkpt>
      <trkpt lat="47.2137" lon="4.96109">
        <ele>352.43832397461</ele>
        <time>2018-04-26T09:33:02+0200</time>
      </trkpt>
      <trkpt lat="47.2137" lon="4.96107">
        <ele>352.18832397461</ele>
        <time>2018-04-26T09:33:05+0200</time>
      </trkpt>
      <trkpt lat="47.21369" lon="4.96104">
        <ele>351.91702270508</ele>
        <time>2018-04-26T09:33:08+0200</time>
      </trkpt>
      <trkpt lat="47.21368" lon="4.96101">
        <ele>351.75271606445</ele>
        <time>2018-04-26T09:33:11+0200</time>
      </trkpt>
      <trkpt lat="47.21367" lon="4.96098">
        <ele>351.76559448242</ele>
        <time>2018-04-26T09:33:14+0200</time>
      </trkpt>
      <trkpt lat="47.21364" lon="4.96096">
        <ele>351.93264770508</ele>
        <time>2018-04-26T09:33:17+0200</time>
      </trkpt>
      <trkpt lat="47.21361" lon="4.96094">
        <ele>352.09146118164</ele>
        <time>2018-04-26T09:33:20+0200</time>
      </trkpt>
      <trkpt lat="47.21359" lon="4.96093">
        <ele>352.31787109375</ele>
        <time>2018-04-26T09:33:23+0200</time>
      </trkpt>
      <trkpt lat="47.21357" lon="4.9609">
        <ele>352.63873291016</ele>
        <time>2018-04-26T09:33:26+0200</time>
      </trkpt>
      <trkpt lat="47.21355" lon="4.96087">
        <ele>352.92626953125</ele>
        <time>2018-04-26T09:33:29+0200</time>
      </trkpt>
      <trkpt lat="47.21353" lon="4.96086">
        <ele>353.19259643555</ele>
        <time>2018-04-26T09:33:32+0200</time>
      </trkpt>
      <trkpt lat="47.2135" lon="4.96083">
        <ele>353.46978759766</ele>
        <time>2018-04-26T09:33:35+0200</time>
      </trkpt>
      <trkpt lat="47.21346" lon="4.9608">
        <ele>353.75964355469</ele>
        <time>2018-04-26T09:33:38+0200</time>
      </trkpt>
      <trkpt lat="47.21343" lon="4.96077">
        <ele>354.02114868164</ele>
        <time>2018-04-26T09:33:41+0200</time>
      </trkpt>
      <trkpt lat="47.2134" lon="4.96075">
        <ele>354.28848266602</ele>
        <time>2018-04-26T09:33:44+0200</time>
      </trkpt>
      <trkpt lat="47.21338" lon="4.96072">
        <ele>354.48870849609</ele>
        <time>2018-04-26T09:33:47+0200</time>
      </trkpt>
      <trkpt lat="47.21335" lon="4.96069">
        <ele>354.76013183594</ele>
        <time>2018-04-26T09:33:50+0200</time>
      </trkpt>
      <trkpt lat="47.2133" lon="4.96066">
        <ele>355.06323242188</ele>
        <time>2018-04-26T09:33:53+0200</time>
      </trkpt>
      <trkpt lat="47.21325" lon="4.96062">
        <ele>355.06497192383</ele>
        <time>2018-04-26T09:33:56+0200</time>
      </trkpt>
      <trkpt lat="47.21323" lon="4.96059">
        <ele>354.95956420898</ele>
        <time>2018-04-26T09:33:59+0200</time>
      </trkpt>
      <trkpt lat="47.21318" lon="4.96051">
        <ele>354.73388671875</ele>
        <time>2018-04-26T09:34:02+0200</time>
      </trkpt>
      <trkpt lat="47.21314" lon="4.96047">
        <ele>354.30972290039</ele>
        <time>2018-04-26T09:34:05+0200</time>
      </trkpt>
      <trkpt lat="47.21311" lon="4.96045">
        <ele>353.7509765625</ele>
        <time>2018-04-26T09:34:08+0200</time>
      </trkpt>
      <trkpt lat="47.21309" lon="4.96044">
        <ele>353.16195678711</ele>
        <time>2018-04-26T09:34:11+0200</time>
      </trkpt>
      <trkpt lat="47.21307" lon="4.96042">
        <ele>352.51776123047</ele>
        <time>2018-04-26T09:34:14+0200</time>
      </trkpt>
      <trkpt lat="47.21305" lon="4.96039">
        <ele>351.8515625</ele>
        <time>2018-04-26T09:34:17+0200</time>
      </trkpt>
      <trkpt lat="47.21303" lon="4.96037">
        <ele>351.1513671875</ele>
        <time>2018-04-26T09:34:20+0200</time>
      </trkpt>
      <trkpt lat="47.213" lon="4.96034">
        <ele>350.54086303711</ele>
        <time>2018-04-26T09:34:23+0200</time>
      </trkpt>
      <trkpt lat="47.21297" lon="4.96032">
        <ele>350.00924682617</ele>
        <time>2018-04-26T09:34:26+0200</time>
      </trkpt>
      <trkpt lat="47.21291" lon="4.96028">
        <ele>349.48056030273</ele>
        <time>2018-04-26T09:34:29+0200</time>
      </trkpt>
      <trkpt lat="47.21289" lon="4.96027">
        <ele>349.01904296875</ele>
        <time>2018-04-26T09:34:32+0200</time>
      </trkpt>
      <trkpt lat="47.21286" lon="4.96024">
        <ele>348.78567504883</ele>
        <time>2018-04-26T09:34:35+0200</time>
      </trkpt>
      <trkpt lat="47.21285" lon="4.96021">
        <ele>348.74215698242</ele>
        <time>2018-04-26T09:34:38+0200</time>
      </trkpt>
      <trkpt lat="47.21285" lon="4.9602">
        <ele>348.88836669922</ele>
        <time>2018-04-26T09:34:41+0200</time>
      </trkpt>
      <trkpt lat="47.21284" lon="4.96018">
        <ele>349.19610595703</ele>
        <time>2018-04-26T09:34:44+0200</time>
      </trkpt>
      <trkpt lat="47.21282" lon="4.96015">
        <ele>349.61151123047</ele>
        <time>2018-04-26T09:34:47+0200</time>
      </trkpt>
      <trkpt lat="47.21279" lon="4.96012">
        <ele>350.06478881836</ele>
        <time>2018-04-26T09:34:50+0200</time>
      </trkpt>
      <trkpt lat="47.21277" lon="4.96009">
        <ele>350.48434448242</ele>
        <time>2018-04-26T09:34:53+0200</time>
      </trkpt>
      <trkpt lat="47.21278" lon="4.96003">
        <ele>350.89682006836</ele>
        <time>2018-04-26T09:34:56+0200</time>
      </trkpt>
      <trkpt lat="47.21277" lon="4.96">
        <ele>351.24160766602</ele>
        <time>2018-04-26T09:34:59+0200</time>
      </trkpt>
      <trkpt lat="47.21275" lon="4.95997">
        <ele>351.57788085938</ele>
        <time>2018-04-26T09:35:02+0200</time>
      </trkpt>
      <trkpt lat="47.21275" lon="4.95992">
        <ele>351.91146850586</ele>
        <time>2018-04-26T09:35:05+0200</time>
      </trkpt>
      <trkpt lat="47.21274" lon="4.95988">
        <ele>352.24111938477</ele>
        <time>2018-04-26T09:35:08+0200</time>
      </trkpt>
      <trkpt lat="47.21269" lon="4.95981">
        <ele>352.630859375</ele>
        <time>2018-04-26T09:35:11+0200</time>
      </trkpt>
      <trkpt lat="47.21261" lon="4.95978">
        <ele>352.74789428711</ele>
        <time>2018-04-26T09:35:14+0200</time>
      </trkpt>
      <trkpt lat="47.21256" lon="4.95975">
        <ele>352.61465454102</ele>
        <time>2018-04-26T09:35:17+0200</time>
      </trkpt>
      <trkpt lat="47.21253" lon="4.95973">
        <ele>352.40075683594</ele>
        <time>2018-04-26T09:35:20+0200</time>
      </trkpt>
      <trkpt lat="47.21254" lon="4.95971">
        <ele>352.18902587891</ele>
        <time>2018-04-26T09:35:23+0200</time>
      </trkpt>
      <trkpt lat="47.21252" lon="4.95969">
        <ele>351.98175048828</ele>
        <time>2018-04-26T09:35:26+0200</time>
      </trkpt>
      <trkpt lat="47.21252" lon="4.95967">
        <ele>351.74456787109</ele>
        <time>2018-04-26T09:35:29+0200</time>
      </trkpt>
      <trkpt lat="47.21249" lon="4.95963">
        <ele>351.53811645508</ele>
        <time>2018-04-26T09:35:32+0200</time>
      </trkpt>
      <trkpt lat="47.21246" lon="4.9596">
        <ele>351.3837890625</ele>
        <time>2018-04-26T09:35:35+0200</time>
      </trkpt>
      <trkpt lat="47.21244" lon="4.95958">
        <ele>351.19680786133</ele>
        <time>2018-04-26T09:35:38+0200</time>
      </trkpt>
      <trkpt lat="47.21242" lon="4.95955">
        <ele>350.95541381836</ele>
        <time>2018-04-26T09:35:41+0200</time>
      </trkpt>
      <trkpt lat="47.21239" lon="4.95952">
        <ele>350.81857299805</ele>
        <time>2018-04-26T09:35:44+0200</time>
      </trkpt>
      <trkpt lat="47.21235" lon="4.95948">
        <ele>350.80740356445</ele>
        <time>2018-04-26T09:35:47+0200</time>
      </trkpt>
      <trkpt lat="47.21233" lon="4.95944">
        <ele>350.8391418457</ele>
        <time>2018-04-26T09:35:50+0200</time>
      </trkpt>
      <trkpt lat="47.21231" lon="4.95941">
        <ele>350.81546020508</ele>
        <time>2018-04-26T09:35:53+0200</time>
      </trkpt>
      <trkpt lat="47.21229" lon="4.95934">
        <ele>350.79452514648</ele>
        <time>2018-04-26T09:35:56+0200</time>
      </trkpt>
      <trkpt lat="47.21225" lon="4.95929">
        <ele>350.7981262207</ele>
        <time>2018-04-26T09:35:59+0200</time>
      </trkpt>
      <trkpt lat="47.21223" lon="4.95928">
        <ele>350.80999755859</ele>
        <time>2018-04-26T09:36:02+0200</time>
      </trkpt>
      <trkpt lat="47.2122" lon="4.95925">
        <ele>350.80541992188</ele>
        <time>2018-04-26T09:36:05+0200</time>
      </trkpt>
      <trkpt lat="47.21219" lon="4.95923">
        <ele>350.80651855469</ele>
        <time>2018-04-26T09:36:08+0200</time>
      </trkpt>
      <trkpt lat="47.21218" lon="4.9592">
        <ele>350.85458374023</ele>
        <time>2018-04-26T09:36:11+0200</time>
      </trkpt>
      <trkpt lat="47.21216" lon="4.95917">
        <ele>350.93350219727</ele>
        <time>2018-04-26T09:36:14+0200</time>
      </trkpt>
      <trkpt lat="47.21215" lon="4.95915">
        <ele>351.09722900391</ele>
        <time>2018-04-26T09:36:17+0200</time>
      </trkpt>
      <trkpt lat="47.21214" lon="4.95913">
        <ele>351.39947509766</ele>
        <time>2018-04-26T09:36:20+0200</time>
      </trkpt>
      <trkpt lat="47.21213" lon="4.9591">
        <ele>351.65319824219</ele>
        <time>2018-04-26T09:36:23+0200</time>
      </trkpt>
      <trkpt lat="47.21213" lon="4.95906">
        <ele>351.81985473633</ele>
        <time>2018-04-26T09:36:26+0200</time>
      </trkpt>
      <trkpt lat="47.21211" lon="4.959">
        <ele>351.97991943359</ele>
        <time>2018-04-26T09:36:29+0200</time>
      </trkpt>
      <trkpt lat="47.21208" lon="4.95894">
        <ele>352.10556030273</ele>
        <time>2018-04-26T09:36:32+0200</time>
      </trkpt>
      <trkpt lat="47.21203" lon="4.95889">
        <ele>351.93878173828</ele>
        <time>2018-04-26T09:36:35+0200</time>
      </trkpt>
      <trkpt lat="47.21199" lon="4.95886">
        <ele>351.71392822266</ele>
        <time>2018-04-26T09:36:38+0200</time>
      </trkpt>
      <trkpt lat="47.21197" lon="4.95884">
        <ele>351.53378295898</ele>
        <time>2018-04-26T09:36:41+0200</time>
      </trkpt>
      <trkpt lat="47.21193" lon="4.95882">
        <ele>351.32409667969</ele>
        <time>2018-04-26T09:36:44+0200</time>
      </trkpt>
      <trkpt lat="47.21191" lon="4.9588">
        <ele>351.21856689453</ele>
        <time>2018-04-26T09:36:47+0200</time>
      </trkpt>
      <trkpt lat="47.21189" lon="4.95876">
        <ele>351.12289428711</ele>
        <time>2018-04-26T09:36:50+0200</time>
      </trkpt>
      <trkpt lat="47.21186" lon="4.95872">
        <ele>350.91030883789</ele>
        <time>2018-04-26T09:36:53+0200</time>
      </trkpt>
      <trkpt lat="47.21184" lon="4.95869">
        <ele>350.58462524414</ele>
        <time>2018-04-26T09:36:56+0200</time>
      </trkpt>
      <trkpt lat="47.21183" lon="4.95865">
        <ele>350.13012695312</ele>
        <time>2018-04-26T09:36:59+0200</time>
      </trkpt>
      <trkpt lat="47.21181" lon="4.95863">
        <ele>349.70562744141</ele>
        <time>2018-04-26T09:37:02+0200</time>
      </trkpt>
      <trkpt lat="47.21179" lon="4.95861">
        <ele>349.41851806641</ele>
        <time>2018-04-26T09:37:05+0200</time>
      </trkpt>
      <trkpt lat="47.21179" lon="4.95858">
        <ele>349.31411743164</ele>
        <time>2018-04-26T09:37:08+0200</time>
      </trkpt>
      <trkpt lat="47.21177" lon="4.95855">
        <ele>349.34625244141</ele>
        <time>2018-04-26T09:37:11+0200</time>
      </trkpt>
      <trkpt lat="47.21174" lon="4.95853">
        <ele>349.48492431641</ele>
        <time>2018-04-26T09:37:14+0200</time>
      </trkpt>
      <trkpt lat="47.21172" lon="4.9585">
        <ele>349.650390625</ele>
        <time>2018-04-26T09:37:17+0200</time>
      </trkpt>
      <trkpt lat="47.21169" lon="4.95847">
        <ele>349.83532714844</ele>
        <time>2018-04-26T09:37:20+0200</time>
      </trkpt>
      <trkpt lat="47.21167" lon="4.95845">
        <ele>350.0881652832</ele>
        <time>2018-04-26T09:37:23+0200</time>
      </trkpt>
      <trkpt lat="47.21165" lon="4.95842">
        <ele>350.40319824219</ele>
        <time>2018-04-26T09:37:26+0200</time>
      </trkpt>
      <trkpt lat="47.21162" lon="4.95838">
        <ele>350.68374633789</ele>
        <time>2018-04-26T09:37:29+0200</time>
      </trkpt>
      <trkpt lat="47.2116" lon="4.95835">
        <ele>350.93432617188</ele>
        <time>2018-04-26T09:37:32+0200</time>
      </trkpt>
      <trkpt lat="47.21157" lon="4.95832">
        <ele>351.12408447266</ele>
        <time>2018-04-26T09:37:35+0200</time>
      </trkpt>
      <trkpt lat="47.21154" lon="4.95828">
        <ele>351.20355224609</ele>
        <time>2018-04-26T09:37:38+0200</time>
      </trkpt>
      <trkpt lat="47.21152" lon="4.95824">
        <ele>351.20520019531</ele>
        <time>2018-04-26T09:37:41+0200</time>
      </trkpt>
      <trkpt lat="47.21149" lon="4.9582">
        <ele>351.16986083984</ele>
        <time>2018-04-26T09:37:44+0200</time>
      </trkpt>
      <trkpt lat="47.21147" lon="4.95818">
        <ele>351.23553466797</ele>
        <time>2018-04-26T09:37:47+0200</time>
      </trkpt>
      <trkpt lat="47.21143" lon="4.95816">
        <ele>351.47772216797</ele>
        <time>2018-04-26T09:37:50+0200</time>
      </trkpt>
      <trkpt lat="47.2114" lon="4.95814">
        <ele>351.84948730469</ele>
        <time>2018-04-26T09:37:53+0200</time>
      </trkpt>
      <trkpt lat="47.21138" lon="4.95812">
        <ele>352.35958862305</ele>
        <time>2018-04-26T09:37:56+0200</time>
      </trkpt>
      <trkpt lat="47.21136" lon="4.95811">
        <ele>353.03607177734</ele>
        <time>2018-04-26T09:37:59+0200</time>
      </trkpt>
      <trkpt lat="47.21133" lon="4.95809">
        <ele>353.77984619141</ele>
        <time>2018-04-26T09:38:02+0200</time>
      </trkpt>
      <trkpt lat="47.21132" lon="4.95806">
        <ele>354.29891967773</ele>
        <time>2018-04-26T09:38:05+0200</time>
      </trkpt>
      <trkpt lat="47.21131" lon="4.95798">
        <ele>354.88970947266</ele>
        <time>2018-04-26T09:38:08+0200</time>
      </trkpt>
      <trkpt lat="47.21131" lon="4.95792">
        <ele>355.30187988281</ele>
        <time>2018-04-26T09:38:11+0200</time>
      </trkpt>
      <trkpt lat="47.21129" lon="4.95788">
        <ele>355.59310913086</ele>
        <time>2018-04-26T09:38:14+0200</time>
      </trkpt>
      <trkpt lat="47.21128" lon="4.95783">
        <ele>355.71780395508</ele>
        <time>2018-04-26T09:38:17+0200</time>
      </trkpt>
      <trkpt lat="47.21126" lon="4.95779">
        <ele>355.75698852539</ele>
        <time>2018-04-26T09:38:20+0200</time>
      </trkpt>
      <trkpt lat="47.21123" lon="4.95778">
        <ele>355.80456542969</ele>
        <time>2018-04-26T09:38:23+0200</time>
      </trkpt>
      <trkpt lat="47.2112" lon="4.95776">
        <ele>355.94927978516</ele>
        <time>2018-04-26T09:38:26+0200</time>
      </trkpt>
      <trkpt lat="47.21117" lon="4.95774">
        <ele>356.15594482422</ele>
        <time>2018-04-26T09:38:29+0200</time>
      </trkpt>
      <trkpt lat="47.21114" lon="4.95773">
        <ele>356.49200439453</ele>
        <time>2018-04-26T09:38:32+0200</time>
      </trkpt>
      <trkpt lat="47.21112" lon="4.95768">
        <ele>356.89059448242</ele>
        <time>2018-04-26T09:38:35+0200</time>
      </trkpt>
      <trkpt lat="47.21111" lon="4.95764">
        <ele>357.18518066406</ele>
        <time>2018-04-26T09:38:38+0200</time>
      </trkpt>
      <trkpt lat="47.2111" lon="4.95757">
        <ele>357.33981323242</ele>
        <time>2018-04-26T09:38:41+0200</time>
      </trkpt>
      <trkpt lat="47.21109" lon="4.95752">
        <ele>357.34341430664</ele>
        <time>2018-04-26T09:38:44+0200</time>
      </trkpt>
      <trkpt lat="47.21107" lon="4.95747">
        <ele>357.20523071289</ele>
        <time>2018-04-26T09:38:47+0200</time>
      </trkpt>
      <trkpt lat="47.21105" lon="4.95744">
        <ele>356.97412109375</ele>
        <time>2018-04-26T09:38:50+0200</time>
      </trkpt>
      <trkpt lat="47.21102" lon="4.95741">
        <ele>356.7451171875</ele>
        <time>2018-04-26T09:38:53+0200</time>
      </trkpt>
      <trkpt lat="47.21099" lon="4.95739">
        <ele>356.48657226562</ele>
        <time>2018-04-26T09:38:56+0200</time>
      </trkpt>
      <trkpt lat="47.21098" lon="4.95738">
        <ele>356.29125976562</ele>
        <time>2018-04-26T09:38:59+0200</time>
      </trkpt>
      <trkpt lat="47.21096" lon="4.95736">
        <ele>356.2294921875</ele>
        <time>2018-04-26T09:39:02+0200</time>
      </trkpt>
      <trkpt lat="47.21094" lon="4.95735">
        <ele>356.29974365234</ele>
        <time>2018-04-26T09:39:05+0200</time>
      </trkpt>
      <trkpt lat="47.21092" lon="4.95732">
        <ele>356.61273193359</ele>
        <time>2018-04-26T09:39:08+0200</time>
      </trkpt>
      <trkpt lat="47.21088" lon="4.95725">
        <ele>356.94195556641</ele>
        <time>2018-04-26T09:39:11+0200</time>
      </trkpt>
      <trkpt lat="47.21084" lon="4.95724">
        <ele>357.07989501953</ele>
        <time>2018-04-26T09:39:14+0200</time>
      </trkpt>
      <trkpt lat="47.21082" lon="4.95723">
        <ele>357.30816650391</ele>
        <time>2018-04-26T09:39:17+0200</time>
      </trkpt>
      <trkpt lat="47.2108" lon="4.95721">
        <ele>357.53332519531</ele>
        <time>2018-04-26T09:39:20+0200</time>
      </trkpt>
      <trkpt lat="47.21078" lon="4.95717">
        <ele>357.84521484375</ele>
        <time>2018-04-26T09:39:23+0200</time>
      </trkpt>
      <trkpt lat="47.21076" lon="4.95715">
        <ele>358.15112304688</ele>
        <time>2018-04-26T09:39:26+0200</time>
      </trkpt>
      <trkpt lat="47.21073" lon="4.95711">
        <ele>358.41744995117</ele>
        <time>2018-04-26T09:39:29+0200</time>
      </trkpt>
      <trkpt lat="47.21073" lon="4.95706">
        <ele>358.7073059082</ele>
        <time>2018-04-26T09:39:32+0200</time>
      </trkpt>
      <trkpt lat="47.21073" lon="4.957">
        <ele>358.95404052734</ele>
        <time>2018-04-26T09:39:35+0200</time>
      </trkpt>
      <trkpt lat="47.21072" lon="4.95696">
        <ele>359.09698486328</ele>
        <time>2018-04-26T09:39:38+0200</time>
      </trkpt>
      <trkpt lat="47.2107" lon="4.95692">
        <ele>359.22393798828</ele>
        <time>2018-04-26T09:39:41+0200</time>
      </trkpt>
      <trkpt lat="47.21069" lon="4.95689">
        <ele>359.28219604492</ele>
        <time>2018-04-26T09:39:44+0200</time>
      </trkpt>
      <trkpt lat="47.21067" lon="4.95687">
        <ele>359.46685791016</ele>
        <time>2018-04-26T09:39:47+0200</time>
      </trkpt>
      <trkpt lat="47.21065" lon="4.95685">
        <ele>359.67166137695</ele>
        <time>2018-04-26T09:39:50+0200</time>
      </trkpt>
      <trkpt lat="47.21063" lon="4.95682">
        <ele>359.97180175781</ele>
        <time>2018-04-26T09:39:53+0200</time>
      </trkpt>
      <trkpt lat="47.21061" lon="4.95679">
        <ele>360.40811157227</ele>
        <time>2018-04-26T09:39:56+0200</time>
      </trkpt>
      <trkpt lat="47.21059" lon="4.95676">
        <ele>360.85653686523</ele>
        <time>2018-04-26T09:39:59+0200</time>
      </trkpt>
      <trkpt lat="47.21053" lon="4.95672">
        <ele>361.23931884766</ele>
        <time>2018-04-26T09:40:02+0200</time>
      </trkpt>
      <trkpt lat="47.21046" lon="4.95667">
        <ele>361.42233276367</ele>
        <time>2018-04-26T09:40:05+0200</time>
      </trkpt>
      <trkpt lat="47.21043" lon="4.95667">
        <ele>361.37283325195</ele>
        <time>2018-04-26T09:40:08+0200</time>
      </trkpt>
      <trkpt lat="47.21041" lon="4.95665">
        <ele>361.27471923828</ele>
        <time>2018-04-26T09:40:11+0200</time>
      </trkpt>
      <trkpt lat="47.2104" lon="4.95663">
        <ele>361.18432617188</ele>
        <time>2018-04-26T09:40:14+0200</time>
      </trkpt>
      <trkpt lat="47.21039" lon="4.95658">
        <ele>361.07986450195</ele>
        <time>2018-04-26T09:40:17+0200</time>
      </trkpt>
      <trkpt lat="47.21038" lon="4.95652">
        <ele>361.01129150391</ele>
        <time>2018-04-26T09:40:20+0200</time>
      </trkpt>
      <trkpt lat="47.21037" lon="4.95648">
        <ele>360.88851928711</ele>
        <time>2018-04-26T09:40:23+0200</time>
      </trkpt>
      <trkpt lat="47.21036" lon="4.95643">
        <ele>360.78454589844</ele>
        <time>2018-04-26T09:40:26+0200</time>
      </trkpt>
      <trkpt lat="47.21035" lon="4.95637">
        <ele>360.63342285156</ele>
        <time>2018-04-26T09:40:29+0200</time>
      </trkpt>
      <trkpt lat="47.21034" lon="4.95634">
        <ele>360.57070922852</ele>
        <time>2018-04-26T09:40:32+0200</time>
      </trkpt>
      <trkpt lat="47.21033" lon="4.95629">
        <ele>360.68014526367</ele>
        <time>2018-04-26T09:40:35+0200</time>
      </trkpt>
      <trkpt lat="47.21032" lon="4.95623">
        <ele>360.84982299805</ele>
        <time>2018-04-26T09:40:38+0200</time>
      </trkpt>
      <trkpt lat="47.21031" lon="4.95618">
        <ele>360.89315795898</ele>
        <time>2018-04-26T09:40:41+0200</time>
      </trkpt>
      <trkpt lat="47.21031" lon="4.95612">
        <ele>360.97186279297</ele>
        <time>2018-04-26T09:40:44+0200</time>
      </trkpt>
      <trkpt lat="47.21031" lon="4.9561">
        <ele>361.02319335938</ele>
        <time>2018-04-26T09:40:47+0200</time>
      </trkpt>
      <trkpt lat="47.21031" lon="4.9561">
        <ele>361.03039550781</ele>
        <time>2018-04-26T09:40:50+0200</time>
      </trkpt>
      <trkpt lat="47.21031" lon="4.9561">
        <ele>361.03561401367</ele>
        <time>2018-04-26T09:40:53+0200</time>
      </trkpt>
      <trkpt lat="47.2103" lon="4.9561">
        <ele>361.04776000977</ele>
        <time>2018-04-26T09:40:56+0200</time>
      </trkpt>
      <trkpt lat="47.21027" lon="4.95608">
        <ele>360.96096801758</ele>
        <time>2018-04-26T09:40:59+0200</time>
      </trkpt>
      <trkpt lat="47.21026" lon="4.95603">
        <ele>360.84466552734</ele>
        <time>2018-04-26T09:41:02+0200</time>
      </trkpt>
      <trkpt lat="47.21026" lon="4.95598">
        <ele>360.72094726562</ele>
        <time>2018-04-26T09:41:05+0200</time>
      </trkpt>
      <trkpt lat="47.21026" lon="4.9559">
        <ele>360.5442199707</ele>
        <time>2018-04-26T09:41:08+0200</time>
      </trkpt>
      <trkpt lat="47.21025" lon="4.95584">
        <ele>360.3801574707</ele>
        <time>2018-04-26T09:41:11+0200</time>
      </trkpt>
      <trkpt lat="47.21024" lon="4.95582">
        <ele>360.29321289062</ele>
        <time>2018-04-26T09:41:14+0200</time>
      </trkpt>
      <trkpt lat="47.21023" lon="4.95581">
        <ele>360.20864868164</ele>
        <time>2018-04-26T09:41:17+0200</time>
      </trkpt>
      <trkpt lat="47.21021" lon="4.95578">
        <ele>360.21560668945</ele>
        <time>2018-04-26T09:41:20+0200</time>
      </trkpt>
      <trkpt lat="47.21019" lon="4.95576">
        <ele>360.30581665039</ele>
        <time>2018-04-26T09:41:23+0200</time>
      </trkpt>
      <trkpt lat="47.21017" lon="4.95573">
        <ele>360.41091918945</ele>
        <time>2018-04-26T09:41:26+0200</time>
      </trkpt>
      <trkpt lat="47.21015" lon="4.9557">
        <ele>360.46365356445</ele>
        <time>2018-04-26T09:41:29+0200</time>
      </trkpt>
      <trkpt lat="47.21013" lon="4.95566">
        <ele>360.48889160156</ele>
        <time>2018-04-26T09:41:32+0200</time>
      </trkpt>
      <trkpt lat="47.21012" lon="4.95562">
        <ele>360.50048828125</ele>
        <time>2018-04-26T09:41:35+0200</time>
      </trkpt>
      <trkpt lat="47.21012" lon="4.95556">
        <ele>360.54132080078</ele>
        <time>2018-04-26T09:41:38+0200</time>
      </trkpt>
      <trkpt lat="47.21013" lon="4.95547">
        <ele>360.68615722656</ele>
        <time>2018-04-26T09:41:41+0200</time>
      </trkpt>
      <trkpt lat="47.21013" lon="4.95544">
        <ele>360.78747558594</ele>
        <time>2018-04-26T09:41:44+0200</time>
      </trkpt>
      <trkpt lat="47.21013" lon="4.95541">
        <ele>360.85409545898</ele>
        <time>2018-04-26T09:41:47+0200</time>
      </trkpt>
      <trkpt lat="47.21012" lon="4.9554">
        <ele>361.02185058594</ele>
        <time>2018-04-26T09:41:50+0200</time>
      </trkpt>
      <trkpt lat="47.2101" lon="4.95538">
        <ele>361.19616699219</ele>
        <time>2018-04-26T09:41:53+0200</time>
      </trkpt>
      <trkpt lat="47.21009" lon="4.95535">
        <ele>361.28741455078</ele>
        <time>2018-04-26T09:41:56+0200</time>
      </trkpt>
      <trkpt lat="47.21008" lon="4.95532">
        <ele>361.41586303711</ele>
        <time>2018-04-26T09:41:59+0200</time>
      </trkpt>
      <trkpt lat="47.21008" lon="4.95526">
        <ele>361.55386352539</ele>
        <time>2018-04-26T09:42:02+0200</time>
      </trkpt>
      <trkpt lat="47.21008" lon="4.95521">
        <ele>361.68347167969</ele>
        <time>2018-04-26T09:42:05+0200</time>
      </trkpt>
      <trkpt lat="47.21008" lon="4.95514">
        <ele>361.82479858398</ele>
        <time>2018-04-26T09:42:08+0200</time>
      </trkpt>
      <trkpt lat="47.21007" lon="4.9551">
        <ele>361.97933959961</ele>
        <time>2018-04-26T09:42:11+0200</time>
      </trkpt>
      <trkpt lat="47.21005" lon="4.95506">
        <ele>362.24212646484</ele>
        <time>2018-04-26T09:42:14+0200</time>
      </trkpt>
      <trkpt lat="47.21004" lon="4.95503">
        <ele>362.49584960938</ele>
        <time>2018-04-26T09:42:17+0200</time>
      </trkpt>
      <trkpt lat="47.21003" lon="4.95498">
        <ele>362.73004150391</ele>
        <time>2018-04-26T09:42:20+0200</time>
      </trkpt>
      <trkpt lat="47.21002" lon="4.95493">
        <ele>362.84078979492</ele>
        <time>2018-04-26T09:42:23+0200</time>
      </trkpt>
      <trkpt lat="47.20998" lon="4.95488">
        <ele>362.76266479492</ele>
        <time>2018-04-26T09:42:26+0200</time>
      </trkpt>
      <trkpt lat="47.20997" lon="4.95485">
        <ele>362.56521606445</ele>
        <time>2018-04-26T09:42:29+0200</time>
      </trkpt>
      <trkpt lat="47.20995" lon="4.95481">
        <ele>362.35833740234</ele>
        <time>2018-04-26T09:42:32+0200</time>
      </trkpt>
      <trkpt lat="47.20994" lon="4.95478">
        <ele>362.06011962891</ele>
        <time>2018-04-26T09:42:35+0200</time>
      </trkpt>
      <trkpt lat="47.20993" lon="4.95475">
        <ele>361.83239746094</ele>
        <time>2018-04-26T09:42:38+0200</time>
      </trkpt>
      <trkpt lat="47.20992" lon="4.95472">
        <ele>361.80328369141</ele>
        <time>2018-04-26T09:42:41+0200</time>
      </trkpt>
      <trkpt lat="47.20991" lon="4.95467">
        <ele>361.96185302734</ele>
        <time>2018-04-26T09:42:44+0200</time>
      </trkpt>
      <trkpt lat="47.2099" lon="4.95464">
        <ele>362.15545654297</ele>
        <time>2018-04-26T09:42:47+0200</time>
      </trkpt>
      <trkpt lat="47.2099" lon="4.95461">
        <ele>362.34362792969</ele>
        <time>2018-04-26T09:42:50+0200</time>
      </trkpt>
      <trkpt lat="47.2099" lon="4.95458">
        <ele>362.47994995117</ele>
        <time>2018-04-26T09:42:53+0200</time>
      </trkpt>
      <trkpt lat="47.20987" lon="4.95454">
        <ele>362.68313598633</ele>
        <time>2018-04-26T09:42:56+0200</time>
      </trkpt>
      <trkpt lat="47.20985" lon="4.9545">
        <ele>362.80392456055</ele>
        <time>2018-04-26T09:42:59+0200</time>
      </trkpt>
      <trkpt lat="47.20984" lon="4.95448">
        <ele>362.86001586914</ele>
        <time>2018-04-26T09:43:02+0200</time>
      </trkpt>
      <trkpt lat="47.20982" lon="4.95443">
        <ele>362.95776367188</ele>
        <time>2018-04-26T09:43:05+0200</time>
      </trkpt>
      <trkpt lat="47.20982" lon="4.9544">
        <ele>363.15036010742</ele>
        <time>2018-04-26T09:43:08+0200</time>
      </trkpt>
      <trkpt lat="47.20981" lon="4.95435">
        <ele>363.43988037109</ele>
        <time>2018-04-26T09:43:11+0200</time>
      </trkpt>
      <trkpt lat="47.2098" lon="4.95432">
        <ele>363.65023803711</ele>
        <time>2018-04-26T09:43:14+0200</time>
      </trkpt>
      <trkpt lat="47.20979" lon="4.95428">
        <ele>363.90600585938</ele>
        <time>2018-04-26T09:43:17+0200</time>
      </trkpt>
      <trkpt lat="47.20978" lon="4.95424">
        <ele>364.21929931641</ele>
        <time>2018-04-26T09:43:20+0200</time>
      </trkpt>
      <trkpt lat="47.20977" lon="4.9542">
        <ele>364.48614501953</ele>
        <time>2018-04-26T09:43:23+0200</time>
      </trkpt>
      <trkpt lat="47.20975" lon="4.95416">
        <ele>364.8327331543</ele>
        <time>2018-04-26T09:43:26+0200</time>
      </trkpt>
      <trkpt lat="47.20974" lon="4.95411">
        <ele>365.13497924805</ele>
        <time>2018-04-26T09:43:29+0200</time>
      </trkpt>
      <trkpt lat="47.20973" lon="4.95407">
        <ele>365.40289306641</ele>
        <time>2018-04-26T09:43:32+0200</time>
      </trkpt>
      <trkpt lat="47.20973" lon="4.95403">
        <ele>365.65689086914</ele>
        <time>2018-04-26T09:43:35+0200</time>
      </trkpt>
      <trkpt lat="47.20973" lon="4.95398">
        <ele>365.83901977539</ele>
        <time>2018-04-26T09:43:38+0200</time>
      </trkpt>
      <trkpt lat="47.20975" lon="4.95389">
        <ele>365.94998168945</ele>
        <time>2018-04-26T09:43:41+0200</time>
      </trkpt>
      <trkpt lat="47.20976" lon="4.95385">
        <ele>366.0563659668</ele>
        <time>2018-04-26T09:43:44+0200</time>
      </trkpt>
      <trkpt lat="47.20976" lon="4.95381">
        <ele>366.18432617188</ele>
        <time>2018-04-26T09:43:47+0200</time>
      </trkpt>
      <trkpt lat="47.20976" lon="4.95377">
        <ele>366.34274291992</ele>
        <time>2018-04-26T09:43:50+0200</time>
      </trkpt>
      <trkpt lat="47.20975" lon="4.95373">
        <ele>366.50454711914</ele>
        <time>2018-04-26T09:43:53+0200</time>
      </trkpt>
      <trkpt lat="47.20975" lon="4.95369">
        <ele>366.68090820312</ele>
        <time>2018-04-26T09:43:56+0200</time>
      </trkpt>
      <trkpt lat="47.20974" lon="4.95366">
        <ele>366.82247924805</ele>
        <time>2018-04-26T09:43:59+0200</time>
      </trkpt>
      <trkpt lat="47.20974" lon="4.9536">
        <ele>367.23336791992</ele>
        <time>2018-04-26T09:44:02+0200</time>
      </trkpt>
      <trkpt lat="47.20975" lon="4.95351">
        <ele>367.59936523438</ele>
        <time>2018-04-26T09:44:05+0200</time>
      </trkpt>
      <trkpt lat="47.20977" lon="4.95345">
        <ele>368.14831542969</ele>
        <time>2018-04-26T09:44:08+0200</time>
      </trkpt>
      <trkpt lat="47.20976" lon="4.95342">
        <ele>368.62591552734</ele>
        <time>2018-04-26T09:44:11+0200</time>
      </trkpt>
      <trkpt lat="47.20974" lon="4.95339">
        <ele>368.91101074219</ele>
        <time>2018-04-26T09:44:14+0200</time>
      </trkpt>
      <trkpt lat="47.20974" lon="4.95335">
        <ele>369.05709838867</ele>
        <time>2018-04-26T09:44:17+0200</time>
      </trkpt>
      <trkpt lat="47.20975" lon="4.95331">
        <ele>369.07815551758</ele>
        <time>2018-04-26T09:44:20+0200</time>
      </trkpt>
      <trkpt lat="47.20974" lon="4.95324">
        <ele>368.97760009766</ele>
        <time>2018-04-26T09:44:23+0200</time>
      </trkpt>
      <trkpt lat="47.20974" lon="4.95323">
        <ele>368.83929443359</ele>
        <time>2018-04-26T09:44:26+0200</time>
      </trkpt>
      <trkpt lat="47.20974" lon="4.95317">
        <ele>368.72048950195</ele>
        <time>2018-04-26T09:44:29+0200</time>
      </trkpt>
      <trkpt lat="47.20974" lon="4.95314">
        <ele>368.63150024414</ele>
        <time>2018-04-26T09:44:32+0200</time>
      </trkpt>
      <trkpt lat="47.20973" lon="4.9531">
        <ele>368.49954223633</ele>
        <time>2018-04-26T09:44:35+0200</time>
      </trkpt>
      <trkpt lat="47.20973" lon="4.95306">
        <ele>368.31036376953</ele>
        <time>2018-04-26T09:44:38+0200</time>
      </trkpt>
      <trkpt lat="47.20974" lon="4.953">
        <ele>368.23461914062</ele>
        <time>2018-04-26T09:44:41+0200</time>
      </trkpt>
      <trkpt lat="47.20976" lon="4.95294">
        <ele>368.37777709961</ele>
        <time>2018-04-26T09:44:44+0200</time>
      </trkpt>
      <trkpt lat="47.20976" lon="4.95292">
        <ele>368.45657348633</ele>
        <time>2018-04-26T09:44:47+0200</time>
      </trkpt>
      <trkpt lat="47.20976" lon="4.95289">
        <ele>368.52557373047</ele>
        <time>2018-04-26T09:44:50+0200</time>
      </trkpt>
      <trkpt lat="47.20979" lon="4.95283">
        <ele>368.65856933594</ele>
        <time>2018-04-26T09:44:53+0200</time>
      </trkpt>
      <trkpt lat="47.20978" lon="4.95281">
        <ele>368.78723144531</ele>
        <time>2018-04-26T09:44:56+0200</time>
      </trkpt>
      <trkpt lat="47.20978" lon="4.95271">
        <ele>369.03555297852</ele>
        <time>2018-04-26T09:44:59+0200</time>
      </trkpt>
      <trkpt lat="47.20977" lon="4.95271">
        <ele>369.37609863281</ele>
        <time>2018-04-26T09:45:02+0200</time>
      </trkpt>
      <trkpt lat="47.20977" lon="4.95272">
        <ele>369.61013793945</ele>
        <time>2018-04-26T09:45:05+0200</time>
      </trkpt>
      <trkpt lat="47.20977" lon="4.95272">
        <ele>371.55990600586</ele>
        <time>2018-04-26T09:45:08+0200</time>
      </trkpt>
      <trkpt lat="47.20978" lon="4.9527">
        <ele>372.51522827148</ele>
        <time>2018-04-26T09:45:13+0200</time>
      </trkpt>
      <trkpt lat="47.20978" lon="4.95268">
        <ele>372.84317016602</ele>
        <time>2018-04-26T09:45:17+0200</time>
      </trkpt>
      <trkpt lat="47.20978" lon="4.95261">
        <ele>372.93151855469</ele>
        <time>2018-04-26T09:45:20+0200</time>
      </trkpt>
      <trkpt lat="47.2098" lon="4.95239">
        <ele>373.2727355957</ele>
        <time>2018-04-26T09:45:23+0200</time>
      </trkpt>
      <trkpt lat="47.20968" lon="4.95225">
        <ele>373.58737182617</ele>
        <time>2018-04-26T09:45:25+0200</time>
      </trkpt>
      <trkpt lat="47.20967" lon="4.95225">
        <ele>373.64862060547</ele>
        <time>2018-04-26T09:45:28+0200</time>
      </trkpt>
      <trkpt lat="47.20968" lon="4.95227">
        <ele>373.90353393555</ele>
        <time>2018-04-26T09:45:31+0200</time>
      </trkpt>
      <trkpt lat="47.20968" lon="4.95227">
        <ele>373.9280090332</ele>
        <time>2018-04-26T09:45:34+0200</time>
      </trkpt>
      <trkpt lat="47.20968" lon="4.95227">
        <ele>373.94241333008</ele>
        <time>2018-04-26T09:45:37+0200</time>
      </trkpt>
      <trkpt lat="47.20968" lon="4.95226">
        <ele>373.95251464844</ele>
        <time>2018-04-26T09:45:40+0200</time>
      </trkpt>
      <trkpt lat="47.20968" lon="4.95226">
        <ele>373.95971679688</ele>
        <time>2018-04-26T09:45:43+0200</time>
      </trkpt>
      <trkpt lat="47.20968" lon="4.95225">
        <ele>373.96173095703</ele>
        <time>2018-04-26T09:45:46+0200</time>
      </trkpt>
      <trkpt lat="47.20968" lon="4.95225">
        <ele>373.95492553711</ele>
        <time>2018-04-26T09:45:49+0200</time>
      </trkpt>
      <trkpt lat="47.20968" lon="4.95224">
        <ele>373.86703491211</ele>
        <time>2018-04-26T09:45:52+0200</time>
      </trkpt>
      <trkpt lat="47.20969" lon="4.95219">
        <ele>373.78213500977</ele>
        <time>2018-04-26T09:45:55+0200</time>
      </trkpt>
      <trkpt lat="47.20969" lon="4.95219">
        <ele>373.76644897461</ele>
        <time>2018-04-26T09:45:58+0200</time>
      </trkpt>
      <trkpt lat="47.20969" lon="4.95219">
        <ele>373.75082397461</ele>
        <time>2018-04-26T09:46:01+0200</time>
      </trkpt>
      <trkpt lat="47.20969" lon="4.95219">
        <ele>373.73657226562</ele>
        <time>2018-04-26T09:46:04+0200</time>
      </trkpt>
      <trkpt lat="47.20969" lon="4.9522">
        <ele>373.72119140625</ele>
        <time>2018-04-26T09:46:07+0200</time>
      </trkpt>
      <trkpt lat="47.20969" lon="4.9522">
        <ele>373.69262695312</ele>
        <time>2018-04-26T09:46:10+0200</time>
      </trkpt>
      <trkpt lat="47.20969" lon="4.9522">
        <ele>373.69277954102</ele>
        <time>2018-04-26T09:46:13+0200</time>
      </trkpt>
      <trkpt lat="47.20969" lon="4.9522">
        <ele>373.69207763672</ele>
        <time>2018-04-26T09:46:16+0200</time>
      </trkpt>
      <trkpt lat="47.20969" lon="4.9522">
        <ele>373.69436645508</ele>
        <time>2018-04-26T09:46:19+0200</time>
      </trkpt>
      <trkpt lat="47.20969" lon="4.9522">
        <ele>373.69689941406</ele>
        <time>2018-04-26T09:46:22+0200</time>
      </trkpt>
      <trkpt lat="47.20969" lon="4.9522">
        <ele>373.6940612793</ele>
        <time>2018-04-26T09:46:25+0200</time>
      </trkpt>
      <trkpt lat="47.20969" lon="4.9522">
        <ele>373.68096923828</ele>
        <time>2018-04-26T09:46:28+0200</time>
      </trkpt>
      <trkpt lat="47.20969" lon="4.9522">
        <ele>373.67144775391</ele>
        <time>2018-04-26T09:46:31+0200</time>
      </trkpt>
      <trkpt lat="47.20969" lon="4.95217">
        <ele>373.54415893555</ele>
        <time>2018-04-26T09:46:34+0200</time>
      </trkpt>
      <trkpt lat="47.20969" lon="4.95218">
        <ele>373.5114440918</ele>
        <time>2018-04-26T09:46:37+0200</time>
      </trkpt>
      <trkpt lat="47.20969" lon="4.95218">
        <ele>373.5207824707</ele>
        <time>2018-04-26T09:46:40+0200</time>
      </trkpt>
      <trkpt lat="47.2097" lon="4.95219">
        <ele>373.60961914062</ele>
        <time>2018-04-26T09:46:43+0200</time>
      </trkpt>
      <trkpt lat="47.20969" lon="4.95219">
        <ele>373.72415161133</ele>
        <time>2018-04-26T09:46:46+0200</time>
      </trkpt>
      <trkpt lat="47.20969" lon="4.95216">
        <ele>373.82696533203</ele>
        <time>2018-04-26T09:46:49+0200</time>
      </trkpt>
      <trkpt lat="47.2097" lon="4.95216">
        <ele>373.92083740234</ele>
        <time>2018-04-26T09:46:52+0200</time>
      </trkpt>
      <trkpt lat="47.20969" lon="4.95213">
        <ele>374.09094238281</ele>
        <time>2018-04-26T09:46:55+0200</time>
      </trkpt>
      <trkpt lat="47.20968" lon="4.9521">
        <ele>374.26177978516</ele>
        <time>2018-04-26T09:46:58+0200</time>
      </trkpt>
      <trkpt lat="47.20967" lon="4.95208">
        <ele>374.40588378906</ele>
        <time>2018-04-26T09:47:01+0200</time>
      </trkpt>
      <trkpt lat="47.20965" lon="4.95205">
        <ele>374.52633666992</ele>
        <time>2018-04-26T09:47:04+0200</time>
      </trkpt>
      <trkpt lat="47.20963" lon="4.95201">
        <ele>374.59161376953</ele>
        <time>2018-04-26T09:47:07+0200</time>
      </trkpt>
      <trkpt lat="47.20961" lon="4.952">
        <ele>374.57656860352</ele>
        <time>2018-04-26T09:47:10+0200</time>
      </trkpt>
      <trkpt lat="47.20957" lon="4.95198">
        <ele>374.53268432617</ele>
        <time>2018-04-26T09:47:13+0200</time>
      </trkpt>
      <trkpt lat="47.20954" lon="4.95196">
        <ele>374.47155761719</ele>
        <time>2018-04-26T09:47:16+0200</time>
      </trkpt>
      <trkpt lat="47.20952" lon="4.95194">
        <ele>374.40243530273</ele>
        <time>2018-04-26T09:47:19+0200</time>
      </trkpt>
      <trkpt lat="47.2095" lon="4.95191">
        <ele>374.38055419922</ele>
        <time>2018-04-26T09:47:22+0200</time>
      </trkpt>
      <trkpt lat="47.20949" lon="4.95189">
        <ele>374.35992431641</ele>
        <time>2018-04-26T09:47:25+0200</time>
      </trkpt>
      <trkpt lat="47.20948" lon="4.95186">
        <ele>374.326171875</ele>
        <time>2018-04-26T09:47:28+0200</time>
      </trkpt>
      <trkpt lat="47.20946" lon="4.95184">
        <ele>374.23471069336</ele>
        <time>2018-04-26T09:47:31+0200</time>
      </trkpt>
      <trkpt lat="47.20945" lon="4.95182">
        <ele>374.12771606445</ele>
        <time>2018-04-26T09:47:34+0200</time>
      </trkpt>
      <trkpt lat="47.20945" lon="4.95181">
        <ele>374.05447387695</ele>
        <time>2018-04-26T09:47:37+0200</time>
      </trkpt>
      <trkpt lat="47.20943" lon="4.9518">
        <ele>374.06488037109</ele>
        <time>2018-04-26T09:47:40+0200</time>
      </trkpt>
      <trkpt lat="47.20942" lon="4.95179">
        <ele>374.09085083008</ele>
        <time>2018-04-26T09:47:43+0200</time>
      </trkpt>
      <trkpt lat="47.2094" lon="4.95178">
        <ele>374.16677856445</ele>
        <time>2018-04-26T09:47:46+0200</time>
      </trkpt>
      <trkpt lat="47.20938" lon="4.95178">
        <ele>374.24551391602</ele>
        <time>2018-04-26T09:47:49+0200</time>
      </trkpt>
      <trkpt lat="47.20936" lon="4.95177">
        <ele>374.37768554688</ele>
        <time>2018-04-26T09:47:52+0200</time>
      </trkpt>
      <trkpt lat="47.20935" lon="4.95177">
        <ele>374.34588623047</ele>
        <time>2018-04-26T09:47:55+0200</time>
      </trkpt>
      <trkpt lat="47.20933" lon="4.95177">
        <ele>374.29699707031</ele>
        <time>2018-04-26T09:47:58+0200</time>
      </trkpt>
      <trkpt lat="47.20932" lon="4.95178">
        <ele>374.32138061523</ele>
        <time>2018-04-26T09:48:01+0200</time>
      </trkpt>
      <trkpt lat="47.2093" lon="4.95178">
        <ele>374.28283691406</ele>
        <time>2018-04-26T09:48:04+0200</time>
      </trkpt>
      <trkpt lat="47.20928" lon="4.95179">
        <ele>374.2585144043</ele>
        <time>2018-04-26T09:48:07+0200</time>
      </trkpt>
      <trkpt lat="47.20926" lon="4.95179">
        <ele>374.35107421875</ele>
        <time>2018-04-26T09:48:10+0200</time>
      </trkpt>
      <trkpt lat="47.20925" lon="4.95179">
        <ele>374.43344116211</ele>
        <time>2018-04-26T09:48:13+0200</time>
      </trkpt>
      <trkpt lat="47.20922" lon="4.9518">
        <ele>374.56707763672</ele>
        <time>2018-04-26T09:48:16+0200</time>
      </trkpt>
      <trkpt lat="47.2092" lon="4.95181">
        <ele>374.69058227539</ele>
        <time>2018-04-26T09:48:19+0200</time>
      </trkpt>
      <trkpt lat="47.20914" lon="4.95184">
        <ele>374.93774414062</ele>
        <time>2018-04-26T09:48:22+0200</time>
      </trkpt>
      <trkpt lat="47.20913" lon="4.95185">
        <ele>375.29672241211</ele>
        <time>2018-04-26T09:48:25+0200</time>
      </trkpt>
      <trkpt lat="47.20911" lon="4.95186">
        <ele>375.65280151367</ele>
        <time>2018-04-26T09:48:28+0200</time>
      </trkpt>
      <trkpt lat="47.20909" lon="4.95189">
        <ele>376.00143432617</ele>
        <time>2018-04-26T09:48:31+0200</time>
      </trkpt>
      <trkpt lat="47.20907" lon="4.95191">
        <ele>376.33065795898</ele>
        <time>2018-04-26T09:48:34+0200</time>
      </trkpt>
      <trkpt lat="47.20905" lon="4.95194">
        <ele>376.64395141602</ele>
        <time>2018-04-26T09:48:37+0200</time>
      </trkpt>
      <trkpt lat="47.20903" lon="4.95197">
        <ele>377.03616333008</ele>
        <time>2018-04-26T09:48:40+0200</time>
      </trkpt>
      <trkpt lat="47.209" lon="4.95199">
        <ele>377.44424438477</ele>
        <time>2018-04-26T09:48:43+0200</time>
      </trkpt>
      <trkpt lat="47.20898" lon="4.95202">
        <ele>377.75064086914</ele>
        <time>2018-04-26T09:48:46+0200</time>
      </trkpt>
      <trkpt lat="47.20897" lon="4.95203">
        <ele>377.98156738281</ele>
        <time>2018-04-26T09:48:49+0200</time>
      </trkpt>
      <trkpt lat="47.20894" lon="4.95207">
        <ele>378.45141601562</ele>
        <time>2018-04-26T09:48:52+0200</time>
      </trkpt>
      <trkpt lat="47.20892" lon="4.9521">
        <ele>378.83248901367</ele>
        <time>2018-04-26T09:48:55+0200</time>
      </trkpt>
      <trkpt lat="47.2089" lon="4.95213">
        <ele>379.18936157227</ele>
        <time>2018-04-26T09:48:58+0200</time>
      </trkpt>
      <trkpt lat="47.20889" lon="4.95215">
        <ele>379.49185180664</ele>
        <time>2018-04-26T09:49:01+0200</time>
      </trkpt>
      <trkpt lat="47.20887" lon="4.95217">
        <ele>379.77935791016</ele>
        <time>2018-04-26T09:49:04+0200</time>
      </trkpt>
      <trkpt lat="47.20886" lon="4.95219">
        <ele>380.07049560547</ele>
        <time>2018-04-26T09:49:07+0200</time>
      </trkpt>
      <trkpt lat="47.20884" lon="4.95223">
        <ele>380.35397338867</ele>
        <time>2018-04-26T09:49:10+0200</time>
      </trkpt>
      <trkpt lat="47.20883" lon="4.95227">
        <ele>380.62664794922</ele>
        <time>2018-04-26T09:49:13+0200</time>
      </trkpt>
      <trkpt lat="47.20882" lon="4.95228">
        <ele>380.87567138672</ele>
        <time>2018-04-26T09:49:16+0200</time>
      </trkpt>
      <trkpt lat="47.20881" lon="4.9523">
        <ele>381.06140136719</ele>
        <time>2018-04-26T09:49:19+0200</time>
      </trkpt>
      <trkpt lat="47.20881" lon="4.95233">
        <ele>381.32968139648</ele>
        <time>2018-04-26T09:49:22+0200</time>
      </trkpt>
      <trkpt lat="47.20879" lon="4.95235">
        <ele>381.5908203125</ele>
        <time>2018-04-26T09:49:25+0200</time>
      </trkpt>
      <trkpt lat="47.20878" lon="4.95238">
        <ele>381.8203125</ele>
        <time>2018-04-26T09:49:28+0200</time>
      </trkpt>
      <trkpt lat="47.20877" lon="4.95243">
        <ele>382.01596069336</ele>
        <time>2018-04-26T09:49:31+0200</time>
      </trkpt>
      <trkpt lat="47.20876" lon="4.95247">
        <ele>382.18035888672</ele>
        <time>2018-04-26T09:49:34+0200</time>
      </trkpt>
      <trkpt lat="47.20876" lon="4.95251">
        <ele>382.30010986328</ele>
        <time>2018-04-26T09:49:37+0200</time>
      </trkpt>
      <trkpt lat="47.20875" lon="4.95253">
        <ele>382.39270019531</ele>
        <time>2018-04-26T09:49:40+0200</time>
      </trkpt>
      <trkpt lat="47.20875" lon="4.95255">
        <ele>382.45559692383</ele>
        <time>2018-04-26T09:49:43+0200</time>
      </trkpt>
      <trkpt lat="47.20874" lon="4.9526">
        <ele>382.50793457031</ele>
        <time>2018-04-26T09:49:46+0200</time>
      </trkpt>
      <trkpt lat="47.20873" lon="4.95265">
        <ele>382.58282470703</ele>
        <time>2018-04-26T09:49:49+0200</time>
      </trkpt>
      <trkpt lat="47.20871" lon="4.95271">
        <ele>382.62869262695</ele>
        <time>2018-04-26T09:49:52+0200</time>
      </trkpt>
      <trkpt lat="47.20871" lon="4.95274">
        <ele>382.69577026367</ele>
        <time>2018-04-26T09:49:55+0200</time>
      </trkpt>
      <trkpt lat="47.2087" lon="4.95275">
        <ele>382.73226928711</ele>
        <time>2018-04-26T09:49:58+0200</time>
      </trkpt>
      <trkpt lat="47.2087" lon="4.9528">
        <ele>382.77392578125</ele>
        <time>2018-04-26T09:50:01+0200</time>
      </trkpt>
      <trkpt lat="47.20869" lon="4.95283">
        <ele>382.80392456055</ele>
        <time>2018-04-26T09:50:04+0200</time>
      </trkpt>
      <trkpt lat="47.20869" lon="4.95288">
        <ele>382.86309814453</ele>
        <time>2018-04-26T09:50:07+0200</time>
      </trkpt>
      <trkpt lat="47.20868" lon="4.95292">
        <ele>382.94915771484</ele>
        <time>2018-04-26T09:50:10+0200</time>
      </trkpt>
      <trkpt lat="47.20867" lon="4.95295">
        <ele>383.03213500977</ele>
        <time>2018-04-26T09:50:13+0200</time>
      </trkpt>
      <trkpt lat="47.20866" lon="4.95298">
        <ele>383.1462097168</ele>
        <time>2018-04-26T09:50:16+0200</time>
      </trkpt>
      <trkpt lat="47.20865" lon="4.95302">
        <ele>383.27496337891</ele>
        <time>2018-04-26T09:50:19+0200</time>
      </trkpt>
      <trkpt lat="47.20864" lon="4.95305">
        <ele>383.41442871094</ele>
        <time>2018-04-26T09:50:22+0200</time>
      </trkpt>
      <trkpt lat="47.20864" lon="4.95308">
        <ele>383.5778503418</ele>
        <time>2018-04-26T09:50:25+0200</time>
      </trkpt>
      <trkpt lat="47.20863" lon="4.95312">
        <ele>383.82864379883</ele>
        <time>2018-04-26T09:50:28+0200</time>
      </trkpt>
      <trkpt lat="47.20862" lon="4.95317">
        <ele>384.08721923828</ele>
        <time>2018-04-26T09:50:31+0200</time>
      </trkpt>
      <trkpt lat="47.20861" lon="4.95322">
        <ele>384.32238769531</ele>
        <time>2018-04-26T09:50:34+0200</time>
      </trkpt>
      <trkpt lat="47.2086" lon="4.95328">
        <ele>384.55020141602</ele>
        <time>2018-04-26T09:50:37+0200</time>
      </trkpt>
      <trkpt lat="47.20859" lon="4.95332">
        <ele>384.74835205078</ele>
        <time>2018-04-26T09:50:40+0200</time>
      </trkpt>
      <trkpt lat="47.20859" lon="4.95335">
        <ele>384.96032714844</ele>
        <time>2018-04-26T09:50:43+0200</time>
      </trkpt>
      <trkpt lat="47.20858" lon="4.95338">
        <ele>385.18774414062</ele>
        <time>2018-04-26T09:50:46+0200</time>
      </trkpt>
      <trkpt lat="47.20857" lon="4.95343">
        <ele>385.36566162109</ele>
        <time>2018-04-26T09:50:49+0200</time>
      </trkpt>
      <trkpt lat="47.20856" lon="4.95348">
        <ele>385.50057983398</ele>
        <time>2018-04-26T09:50:52+0200</time>
      </trkpt>
      <trkpt lat="47.20856" lon="4.95353">
        <ele>385.59375</ele>
        <time>2018-04-26T09:50:55+0200</time>
      </trkpt>
      <trkpt lat="47.20855" lon="4.95357">
        <ele>385.62393188477</ele>
        <time>2018-04-26T09:50:58+0200</time>
      </trkpt>
      <trkpt lat="47.20854" lon="4.9536">
        <ele>385.61016845703</ele>
        <time>2018-04-26T09:51:01+0200</time>
      </trkpt>
      <trkpt lat="47.20853" lon="4.95364">
        <ele>385.59857177734</ele>
        <time>2018-04-26T09:51:04+0200</time>
      </trkpt>
      <trkpt lat="47.20853" lon="4.95367">
        <ele>385.57363891602</ele>
        <time>2018-04-26T09:51:07+0200</time>
      </trkpt>
      <trkpt lat="47.20852" lon="4.9537">
        <ele>385.56607055664</ele>
        <time>2018-04-26T09:51:10+0200</time>
      </trkpt>
      <trkpt lat="47.20851" lon="4.95373">
        <ele>385.53051757812</ele>
        <time>2018-04-26T09:51:13+0200</time>
      </trkpt>
      <trkpt lat="47.20851" lon="4.95376">
        <ele>385.51770019531</ele>
        <time>2018-04-26T09:51:16+0200</time>
      </trkpt>
      <trkpt lat="47.2085" lon="4.95378">
        <ele>385.5182800293</ele>
        <time>2018-04-26T09:51:19+0200</time>
      </trkpt>
      <trkpt lat="47.20848" lon="4.95382">
        <ele>385.51953125</ele>
        <time>2018-04-26T09:51:22+0200</time>
      </trkpt>
      <trkpt lat="47.20847" lon="4.95386">
        <ele>385.5397644043</ele>
        <time>2018-04-26T09:51:25+0200</time>
      </trkpt>
      <trkpt lat="47.20846" lon="4.95389">
        <ele>385.56106567383</ele>
        <time>2018-04-26T09:51:28+0200</time>
      </trkpt>
      <trkpt lat="47.20844" lon="4.95393">
        <ele>385.62860107422</ele>
        <time>2018-04-26T09:51:31+0200</time>
      </trkpt>
      <trkpt lat="47.20843" lon="4.95397">
        <ele>385.71746826172</ele>
        <time>2018-04-26T09:51:34+0200</time>
      </trkpt>
      <trkpt lat="47.20841" lon="4.95401">
        <ele>385.83074951172</ele>
        <time>2018-04-26T09:51:37+0200</time>
      </trkpt>
      <trkpt lat="47.2084" lon="4.95405">
        <ele>385.98178100586</ele>
        <time>2018-04-26T09:51:40+0200</time>
      </trkpt>
      <trkpt lat="47.20839" lon="4.95409">
        <ele>386.18103027344</ele>
        <time>2018-04-26T09:51:43+0200</time>
      </trkpt>
      <trkpt lat="47.20837" lon="4.95413">
        <ele>386.43759155273</ele>
        <time>2018-04-26T09:51:46+0200</time>
      </trkpt>
      <trkpt lat="47.20835" lon="4.95417">
        <ele>386.76043701172</ele>
        <time>2018-04-26T09:51:49+0200</time>
      </trkpt>
      <trkpt lat="47.20834" lon="4.95421">
        <ele>387.13372802734</ele>
        <time>2018-04-26T09:51:52+0200</time>
      </trkpt>
      <trkpt lat="47.20833" lon="4.95425">
        <ele>387.4860534668</ele>
        <time>2018-04-26T09:51:55+0200</time>
      </trkpt>
      <trkpt lat="47.20832" lon="4.95429">
        <ele>387.85217285156</ele>
        <time>2018-04-26T09:51:58+0200</time>
      </trkpt>
      <trkpt lat="47.20831" lon="4.95433">
        <ele>388.2265625</ele>
        <time>2018-04-26T09:52:01+0200</time>
      </trkpt>
      <trkpt lat="47.2083" lon="4.95437">
        <ele>388.59323120117</ele>
        <time>2018-04-26T09:52:04+0200</time>
      </trkpt>
      <trkpt lat="47.20829" lon="4.95442">
        <ele>388.94784545898</ele>
        <time>2018-04-26T09:52:07+0200</time>
      </trkpt>
      <trkpt lat="47.20828" lon="4.95445">
        <ele>389.28820800781</ele>
        <time>2018-04-26T09:52:10+0200</time>
      </trkpt>
      <trkpt lat="47.20827" lon="4.95449">
        <ele>389.62149047852</ele>
        <time>2018-04-26T09:52:13+0200</time>
      </trkpt>
      <trkpt lat="47.20826" lon="4.95452">
        <ele>389.99172973633</ele>
        <time>2018-04-26T09:52:16+0200</time>
      </trkpt>
      <trkpt lat="47.20825" lon="4.95457">
        <ele>390.36801147461</ele>
        <time>2018-04-26T09:52:19+0200</time>
      </trkpt>
      <trkpt lat="47.20824" lon="4.95462">
        <ele>390.64730834961</ele>
        <time>2018-04-26T09:52:22+0200</time>
      </trkpt>
      <trkpt lat="47.20823" lon="4.95467">
        <ele>390.82305908203</ele>
        <time>2018-04-26T09:52:25+0200</time>
      </trkpt>
      <trkpt lat="47.20821" lon="4.95471">
        <ele>391.02944946289</ele>
        <time>2018-04-26T09:52:28+0200</time>
      </trkpt>
      <trkpt lat="47.2082" lon="4.95476">
        <ele>391.17938232422</ele>
        <time>2018-04-26T09:52:31+0200</time>
      </trkpt>
      <trkpt lat="47.20819" lon="4.95479">
        <ele>391.28942871094</ele>
        <time>2018-04-26T09:52:34+0200</time>
      </trkpt>
      <trkpt lat="47.20817" lon="4.95483">
        <ele>391.37445068359</ele>
        <time>2018-04-26T09:52:37+0200</time>
      </trkpt>
      <trkpt lat="47.20816" lon="4.95486">
        <ele>391.43069458008</ele>
        <time>2018-04-26T09:52:40+0200</time>
      </trkpt>
      <trkpt lat="47.20814" lon="4.9549">
        <ele>391.47811889648</ele>
        <time>2018-04-26T09:52:43+0200</time>
      </trkpt>
      <trkpt lat="47.20812" lon="4.95493">
        <ele>391.52667236328</ele>
        <time>2018-04-26T09:52:46+0200</time>
      </trkpt>
      <trkpt lat="47.20811" lon="4.95497">
        <ele>391.58108520508</ele>
        <time>2018-04-26T09:52:49+0200</time>
      </trkpt>
      <trkpt lat="47.20808" lon="4.95501">
        <ele>391.6337890625</ele>
        <time>2018-04-26T09:52:52+0200</time>
      </trkpt>
      <trkpt lat="47.20806" lon="4.95505">
        <ele>391.66891479492</ele>
        <time>2018-04-26T09:52:55+0200</time>
      </trkpt>
      <trkpt lat="47.20805" lon="4.95508">
        <ele>391.67880249023</ele>
        <time>2018-04-26T09:52:58+0200</time>
      </trkpt>
      <trkpt lat="47.20803" lon="4.9551">
        <ele>391.6923828125</ele>
        <time>2018-04-26T09:53:01+0200</time>
      </trkpt>
      <trkpt lat="47.20802" lon="4.95512">
        <ele>391.70715332031</ele>
        <time>2018-04-26T09:53:04+0200</time>
      </trkpt>
      <trkpt lat="47.208" lon="4.95514">
        <ele>391.68630981445</ele>
        <time>2018-04-26T09:53:07+0200</time>
      </trkpt>
      <trkpt lat="47.208" lon="4.95517">
        <ele>391.64776611328</ele>
        <time>2018-04-26T09:53:10+0200</time>
      </trkpt>
      <trkpt lat="47.208" lon="4.9552">
        <ele>391.64459228516</ele>
        <time>2018-04-26T09:53:13+0200</time>
      </trkpt>
      <trkpt lat="47.20799" lon="4.95524">
        <ele>391.65390014648</ele>
        <time>2018-04-26T09:53:16+0200</time>
      </trkpt>
      <trkpt lat="47.20798" lon="4.95524">
        <ele>391.65176391602</ele>
        <time>2018-04-26T09:53:19+0200</time>
      </trkpt>
      <trkpt lat="47.20798" lon="4.95525">
        <ele>391.58422851562</ele>
        <time>2018-04-26T09:53:22+0200</time>
      </trkpt>
      <trkpt lat="47.20797" lon="4.95529">
        <ele>391.47579956055</ele>
        <time>2018-04-26T09:53:25+0200</time>
      </trkpt>
      <trkpt lat="47.20796" lon="4.95532">
        <ele>391.33734130859</ele>
        <time>2018-04-26T09:53:28+0200</time>
      </trkpt>
      <trkpt lat="47.20794" lon="4.95536">
        <ele>391.18600463867</ele>
        <time>2018-04-26T09:53:31+0200</time>
      </trkpt>
      <trkpt lat="47.20792" lon="4.9554">
        <ele>391.07476806641</ele>
        <time>2018-04-26T09:53:34+0200</time>
      </trkpt>
      <trkpt lat="47.20791" lon="4.95544">
        <ele>390.98770141602</ele>
        <time>2018-04-26T09:53:37+0200</time>
      </trkpt>
      <trkpt lat="47.2079" lon="4.95548">
        <ele>390.92797851562</ele>
        <time>2018-04-26T09:53:40+0200</time>
      </trkpt>
      <trkpt lat="47.20789" lon="4.95551">
        <ele>390.87731933594</ele>
        <time>2018-04-26T09:53:43+0200</time>
      </trkpt>
      <trkpt lat="47.20787" lon="4.95556">
        <ele>390.81842041016</ele>
        <time>2018-04-26T09:53:46+0200</time>
      </trkpt>
      <trkpt lat="47.20785" lon="4.9556">
        <ele>390.7653503418</ele>
        <time>2018-04-26T09:53:49+0200</time>
      </trkpt>
      <trkpt lat="47.20782" lon="4.95568">
        <ele>390.6120300293</ele>
        <time>2018-04-26T09:53:52+0200</time>
      </trkpt>
      <trkpt lat="47.2078" lon="4.95574">
        <ele>390.31784057617</ele>
        <time>2018-04-26T09:53:55+0200</time>
      </trkpt>
      <trkpt lat="47.20777" lon="4.95578">
        <ele>389.90063476562</ele>
        <time>2018-04-26T09:53:58+0200</time>
      </trkpt>
      <trkpt lat="47.20773" lon="4.95582">
        <ele>389.49966430664</ele>
        <time>2018-04-26T09:54:01+0200</time>
      </trkpt>
      <trkpt lat="47.20769" lon="4.95586">
        <ele>389.02502441406</ele>
        <time>2018-04-26T09:54:04+0200</time>
      </trkpt>
      <trkpt lat="47.20767" lon="4.95589">
        <ele>388.57495117188</ele>
        <time>2018-04-26T09:54:07+0200</time>
      </trkpt>
      <trkpt lat="47.20765" lon="4.9559">
        <ele>388.16317749023</ele>
        <time>2018-04-26T09:54:10+0200</time>
      </trkpt>
      <trkpt lat="47.20761" lon="4.95593">
        <ele>387.81015014648</ele>
        <time>2018-04-26T09:54:13+0200</time>
      </trkpt>
      <trkpt lat="47.2076" lon="4.95594">
        <ele>387.55187988281</ele>
        <time>2018-04-26T09:54:16+0200</time>
      </trkpt>
      <trkpt lat="47.20759" lon="4.95596">
        <ele>387.41613769531</ele>
        <time>2018-04-26T09:54:19+0200</time>
      </trkpt>
      <trkpt lat="47.20757" lon="4.95598">
        <ele>387.27816772461</ele>
        <time>2018-04-26T09:54:22+0200</time>
      </trkpt>
      <trkpt lat="47.20755" lon="4.956">
        <ele>387.18597412109</ele>
        <time>2018-04-26T09:54:25+0200</time>
      </trkpt>
      <trkpt lat="47.20754" lon="4.95602">
        <ele>387.15661621094</ele>
        <time>2018-04-26T09:54:28+0200</time>
      </trkpt>
      <trkpt lat="47.20752" lon="4.95605">
        <ele>387.2604675293</ele>
        <time>2018-04-26T09:54:31+0200</time>
      </trkpt>
      <trkpt lat="47.20751" lon="4.95605">
        <ele>387.37591552734</ele>
        <time>2018-04-26T09:54:34+0200</time>
      </trkpt>
      <trkpt lat="47.20749" lon="4.95607">
        <ele>387.51043701172</ele>
        <time>2018-04-26T09:54:37+0200</time>
      </trkpt>
      <trkpt lat="47.20743" lon="4.95606">
        <ele>387.61978149414</ele>
        <time>2018-04-26T09:54:40+0200</time>
      </trkpt>
      <trkpt lat="47.20739" lon="4.95607">
        <ele>387.65322875977</ele>
        <time>2018-04-26T09:54:43+0200</time>
      </trkpt>
      <trkpt lat="47.20736" lon="4.95607">
        <ele>387.67736816406</ele>
        <time>2018-04-26T09:54:46+0200</time>
      </trkpt>
      <trkpt lat="47.20732" lon="4.95607">
        <ele>387.56686401367</ele>
        <time>2018-04-26T09:54:49+0200</time>
      </trkpt>
      <trkpt lat="47.2073" lon="4.95608">
        <ele>387.46560668945</ele>
        <time>2018-04-26T09:54:52+0200</time>
      </trkpt>
      <trkpt lat="47.20729" lon="4.95609">
        <ele>387.36367797852</ele>
        <time>2018-04-26T09:54:55+0200</time>
      </trkpt>
      <trkpt lat="47.20729" lon="4.95609">
        <ele>387.35101318359</ele>
        <time>2018-04-26T09:54:58+0200</time>
      </trkpt>
      <trkpt lat="47.20729" lon="4.95609">
        <ele>387.33331298828</ele>
        <time>2018-04-26T09:55:01+0200</time>
      </trkpt>
      <trkpt lat="47.20728" lon="4.95609">
        <ele>387.20770263672</ele>
        <time>2018-04-26T09:55:04+0200</time>
      </trkpt>
      <trkpt lat="47.20727" lon="4.95611">
        <ele>386.96212768555</ele>
        <time>2018-04-26T09:55:07+0200</time>
      </trkpt>
      <trkpt lat="47.20725" lon="4.95612">
        <ele>386.87145996094</ele>
        <time>2018-04-26T09:55:10+0200</time>
      </trkpt>
      <trkpt lat="47.20722" lon="4.95613">
        <ele>386.93060302734</ele>
        <time>2018-04-26T09:55:13+0200</time>
      </trkpt>
      <trkpt lat="47.20717" lon="4.95613">
        <ele>387.03604125977</ele>
        <time>2018-04-26T09:55:16+0200</time>
      </trkpt>
      <trkpt lat="47.20715" lon="4.95613">
        <ele>387.16683959961</ele>
        <time>2018-04-26T09:55:19+0200</time>
      </trkpt>
      <trkpt lat="47.20715" lon="4.95613">
        <ele>387.20455932617</ele>
        <time>2018-04-26T09:55:22+0200</time>
      </trkpt>
      <trkpt lat="47.20714" lon="4.95614">
        <ele>387.25479125977</ele>
        <time>2018-04-26T09:55:25+0200</time>
      </trkpt>
      <trkpt lat="47.20713" lon="4.95614">
        <ele>387.27575683594</ele>
        <time>2018-04-26T09:55:28+0200</time>
      </trkpt>
      <trkpt lat="47.20711" lon="4.95613">
        <ele>387.26065063477</ele>
        <time>2018-04-26T09:55:31+0200</time>
      </trkpt>
      <trkpt lat="47.20709" lon="4.95613">
        <ele>387.26931762695</ele>
        <time>2018-04-26T09:55:34+0200</time>
      </trkpt>
      <trkpt lat="47.20705" lon="4.95613">
        <ele>387.24353027344</ele>
        <time>2018-04-26T09:55:37+0200</time>
      </trkpt>
      <trkpt lat="47.20699" lon="4.95613">
        <ele>387.0888671875</ele>
        <time>2018-04-26T09:55:40+0200</time>
      </trkpt>
      <trkpt lat="47.20699" lon="4.95613">
        <ele>386.80117797852</ele>
        <time>2018-04-26T09:55:43+0200</time>
      </trkpt>
      <trkpt lat="47.20697" lon="4.95614">
        <ele>386.6018371582</ele>
        <time>2018-04-26T09:55:46+0200</time>
      </trkpt>
      <trkpt lat="47.20695" lon="4.95614">
        <ele>386.51702880859</ele>
        <time>2018-04-26T09:55:49+0200</time>
      </trkpt>
      <trkpt lat="47.20691" lon="4.95614">
        <ele>386.46676635742</ele>
        <time>2018-04-26T09:55:52+0200</time>
      </trkpt>
      <trkpt lat="47.20688" lon="4.95614">
        <ele>386.41812133789</ele>
        <time>2018-04-26T09:55:55+0200</time>
      </trkpt>
      <trkpt lat="47.20685" lon="4.95612">
        <ele>386.36221313477</ele>
        <time>2018-04-26T09:55:58+0200</time>
      </trkpt>
      <trkpt lat="47.20684" lon="4.95612">
        <ele>386.34213256836</ele>
        <time>2018-04-26T09:56:01+0200</time>
      </trkpt>
      <trkpt lat="47.20682" lon="4.95613">
        <ele>386.43927001953</ele>
        <time>2018-04-26T09:56:04+0200</time>
      </trkpt>
      <trkpt lat="47.20676" lon="4.95614">
        <ele>386.54766845703</ele>
        <time>2018-04-26T09:56:07+0200</time>
      </trkpt>
      <trkpt lat="47.20673" lon="4.95615">
        <ele>386.62197875977</ele>
        <time>2018-04-26T09:56:10+0200</time>
      </trkpt>
      <trkpt lat="47.20671" lon="4.95615">
        <ele>386.63388061523</ele>
        <time>2018-04-26T09:56:13+0200</time>
      </trkpt>
      <trkpt lat="47.20668" lon="4.95616">
        <ele>386.73501586914</ele>
        <time>2018-04-26T09:56:16+0200</time>
      </trkpt>
      <trkpt lat="47.20662" lon="4.95615">
        <ele>386.86569213867</ele>
        <time>2018-04-26T09:56:19+0200</time>
      </trkpt>
      <trkpt lat="47.20657" lon="4.95615">
        <ele>387.01611328125</ele>
        <time>2018-04-26T09:56:22+0200</time>
      </trkpt>
      <trkpt lat="47.20653" lon="4.95614">
        <ele>387.15542602539</ele>
        <time>2018-04-26T09:56:25+0200</time>
      </trkpt>
      <trkpt lat="47.20653" lon="4.95612">
        <ele>387.37557983398</ele>
        <time>2018-04-26T09:56:28+0200</time>
      </trkpt>
      <trkpt lat="47.2065" lon="4.9561">
        <ele>387.57153320312</ele>
        <time>2018-04-26T09:56:31+0200</time>
      </trkpt>
      <trkpt lat="47.20651" lon="4.95609">
        <ele>387.85198974609</ele>
        <time>2018-04-26T09:56:34+0200</time>
      </trkpt>
      <trkpt lat="47.20645" lon="4.95608">
        <ele>388.0510559082</ele>
        <time>2018-04-26T09:56:37+0200</time>
      </trkpt>
      <trkpt lat="47.20642" lon="4.95607">
        <ele>388.19604492188</ele>
        <time>2018-04-26T09:56:40+0200</time>
      </trkpt>
      <trkpt lat="47.20641" lon="4.95608">
        <ele>388.35092163086</ele>
        <time>2018-04-26T09:56:43+0200</time>
      </trkpt>
      <trkpt lat="47.20636" lon="4.95607">
        <ele>388.48846435547</ele>
        <time>2018-04-26T09:56:46+0200</time>
      </trkpt>
      <trkpt lat="47.20636" lon="4.95607">
        <ele>388.46746826172</ele>
        <time>2018-04-26T09:56:49+0200</time>
      </trkpt>
      <trkpt lat="47.20634" lon="4.95606">
        <ele>388.3762512207</ele>
        <time>2018-04-26T09:56:52+0200</time>
      </trkpt>
      <trkpt lat="47.2063" lon="4.95605">
        <ele>388.26037597656</ele>
        <time>2018-04-26T09:56:55+0200</time>
      </trkpt>
      <trkpt lat="47.20627" lon="4.95604">
        <ele>388.18487548828</ele>
        <time>2018-04-26T09:56:58+0200</time>
      </trkpt>
      <trkpt lat="47.20626" lon="4.95602">
        <ele>388.10101318359</ele>
        <time>2018-04-26T09:57:01+0200</time>
      </trkpt>
      <trkpt lat="47.20624" lon="4.956">
        <ele>387.96536254883</ele>
        <time>2018-04-26T09:57:04+0200</time>
      </trkpt>
      <trkpt lat="47.2062" lon="4.95599">
        <ele>387.82308959961</ele>
        <time>2018-04-26T09:57:07+0200</time>
      </trkpt>
      <trkpt lat="47.20616" lon="4.95598">
        <ele>387.71792602539</ele>
        <time>2018-04-26T09:57:10+0200</time>
      </trkpt>
      <trkpt lat="47.20614" lon="4.95596">
        <ele>387.62045288086</ele>
        <time>2018-04-26T09:57:13+0200</time>
      </trkpt>
      <trkpt lat="47.20611" lon="4.95594">
        <ele>387.5735168457</ele>
        <time>2018-04-26T09:57:16+0200</time>
      </trkpt>
      <trkpt lat="47.20609" lon="4.95592">
        <ele>387.5481262207</ele>
        <time>2018-04-26T09:57:19+0200</time>
      </trkpt>
      <trkpt lat="47.20608" lon="4.95592">
        <ele>387.56509399414</ele>
        <time>2018-04-26T09:57:22+0200</time>
      </trkpt>
      <trkpt lat="47.20607" lon="4.9559">
        <ele>387.580078125</ele>
        <time>2018-04-26T09:57:25+0200</time>
      </trkpt>
      <trkpt lat="47.20604" lon="4.95589">
        <ele>387.60314941406</ele>
        <time>2018-04-26T09:57:28+0200</time>
      </trkpt>
      <trkpt lat="47.20599" lon="4.95588">
        <ele>387.54754638672</ele>
        <time>2018-04-26T09:57:31+0200</time>
      </trkpt>
      <trkpt lat="47.20596" lon="4.95587">
        <ele>387.46411132812</ele>
        <time>2018-04-26T09:57:34+0200</time>
      </trkpt>
      <trkpt lat="47.20593" lon="4.95587">
        <ele>387.41555786133</ele>
        <time>2018-04-26T09:57:37+0200</time>
      </trkpt>
      <trkpt lat="47.2059" lon="4.95586">
        <ele>387.41778564453</ele>
        <time>2018-04-26T09:57:40+0200</time>
      </trkpt>
      <trkpt lat="47.2059" lon="4.95586">
        <ele>387.3385925293</ele>
        <time>2018-04-26T09:57:43+0200</time>
      </trkpt>
      <trkpt lat="47.2059" lon="4.95585">
        <ele>387.31304931641</ele>
        <time>2018-04-26T09:57:46+0200</time>
      </trkpt>
      <trkpt lat="47.20588" lon="4.95584">
        <ele>387.34506225586</ele>
        <time>2018-04-26T09:57:49+0200</time>
      </trkpt>
      <trkpt lat="47.20585" lon="4.95582">
        <ele>387.34024047852</ele>
        <time>2018-04-26T09:57:52+0200</time>
      </trkpt>
      <trkpt lat="47.20583" lon="4.95582">
        <ele>387.33218383789</ele>
        <time>2018-04-26T09:57:55+0200</time>
      </trkpt>
      <trkpt lat="47.20581" lon="4.9558">
        <ele>387.38507080078</ele>
        <time>2018-04-26T09:57:58+0200</time>
      </trkpt>
      <trkpt lat="47.20579" lon="4.95578">
        <ele>387.48889160156</ele>
        <time>2018-04-26T09:58:01+0200</time>
      </trkpt>
      <trkpt lat="47.20577" lon="4.95576">
        <ele>387.66497802734</ele>
        <time>2018-04-26T09:58:04+0200</time>
      </trkpt>
      <trkpt lat="47.20574" lon="4.95574">
        <ele>387.93414306641</ele>
        <time>2018-04-26T09:58:07+0200</time>
      </trkpt>
      <trkpt lat="47.20572" lon="4.95572">
        <ele>388.24755859375</ele>
        <time>2018-04-26T09:58:10+0200</time>
      </trkpt>
      <trkpt lat="47.20571" lon="4.9557">
        <ele>388.5361328125</ele>
        <time>2018-04-26T09:58:13+0200</time>
      </trkpt>
      <trkpt lat="47.20569" lon="4.95568">
        <ele>388.81246948242</ele>
        <time>2018-04-26T09:58:16+0200</time>
      </trkpt>
      <trkpt lat="47.20566" lon="4.95566">
        <ele>389.0830078125</ele>
        <time>2018-04-26T09:58:19+0200</time>
      </trkpt>
      <trkpt lat="47.20564" lon="4.95563">
        <ele>389.29138183594</ele>
        <time>2018-04-26T09:58:22+0200</time>
      </trkpt>
      <trkpt lat="47.20563" lon="4.95561">
        <ele>389.50698852539</ele>
        <time>2018-04-26T09:58:25+0200</time>
      </trkpt>
      <trkpt lat="47.20561" lon="4.95558">
        <ele>389.56246948242</ele>
        <time>2018-04-26T09:58:28+0200</time>
      </trkpt>
      <trkpt lat="47.20559" lon="4.95555">
        <ele>389.56350708008</ele>
        <time>2018-04-26T09:58:31+0200</time>
      </trkpt>
      <trkpt lat="47.20557" lon="4.95553">
        <ele>389.66110229492</ele>
        <time>2018-04-26T09:58:34+0200</time>
      </trkpt>
      <trkpt lat="47.20554" lon="4.9555">
        <ele>389.84106445312</ele>
        <time>2018-04-26T09:58:37+0200</time>
      </trkpt>
      <trkpt lat="47.20552" lon="4.95548">
        <ele>390.01907348633</ele>
        <time>2018-04-26T09:58:40+0200</time>
      </trkpt>
      <trkpt lat="47.20551" lon="4.95546">
        <ele>390.12997436523</ele>
        <time>2018-04-26T09:58:43+0200</time>
      </trkpt>
      <trkpt lat="47.20548" lon="4.95542">
        <ele>390.20223999023</ele>
        <time>2018-04-26T09:58:46+0200</time>
      </trkpt>
      <trkpt lat="47.20546" lon="4.95539">
        <ele>390.12905883789</ele>
        <time>2018-04-26T09:58:49+0200</time>
      </trkpt>
      <trkpt lat="47.20544" lon="4.95536">
        <ele>389.90054321289</ele>
        <time>2018-04-26T09:58:53+0200</time>
      </trkpt>
      <trkpt lat="47.20542" lon="4.95534">
        <ele>389.66714477539</ele>
        <time>2018-04-26T09:58:56+0200</time>
      </trkpt>
      <trkpt lat="47.20541" lon="4.95532">
        <ele>389.50546264648</ele>
        <time>2018-04-26T09:58:59+0200</time>
      </trkpt>
      <trkpt lat="47.20539" lon="4.95529">
        <ele>389.34155273438</ele>
        <time>2018-04-26T09:59:02+0200</time>
      </trkpt>
      <trkpt lat="47.20538" lon="4.95528">
        <ele>389.27505493164</ele>
        <time>2018-04-26T09:59:05+0200</time>
      </trkpt>
      <trkpt lat="47.20537" lon="4.95528">
        <ele>389.27444458008</ele>
        <time>2018-04-26T09:59:08+0200</time>
      </trkpt>
      <trkpt lat="47.20537" lon="4.95528">
        <ele>389.28482055664</ele>
        <time>2018-04-26T09:59:11+0200</time>
      </trkpt>
      <trkpt lat="47.20536" lon="4.95527">
        <ele>389.3659362793</ele>
        <time>2018-04-26T09:59:14+0200</time>
      </trkpt>
      <trkpt lat="47.20535" lon="4.95527">
        <ele>389.44900512695</ele>
        <time>2018-04-26T09:59:17+0200</time>
      </trkpt>
      <trkpt lat="47.20536" lon="4.95526">
        <ele>389.44970703125</ele>
        <time>2018-04-26T09:59:20+0200</time>
      </trkpt>
      <trkpt lat="47.20535" lon="4.95525">
        <ele>389.43292236328</ele>
        <time>2018-04-26T09:59:23+0200</time>
      </trkpt>
      <trkpt lat="47.20535" lon="4.95525">
        <ele>389.41592407227</ele>
        <time>2018-04-26T09:59:26+0200</time>
      </trkpt>
      <trkpt lat="47.20536" lon="4.95522">
        <ele>389.37805175781</ele>
        <time>2018-04-26T09:59:29+0200</time>
      </trkpt>
      <trkpt lat="47.20535" lon="4.95521">
        <ele>389.38934326172</ele>
        <time>2018-04-26T09:59:32+0200</time>
      </trkpt>
      <trkpt lat="47.20536" lon="4.95519">
        <ele>389.4030456543</ele>
        <time>2018-04-26T09:59:35+0200</time>
      </trkpt>
      <trkpt lat="47.20536" lon="4.95519">
        <ele>389.41195678711</ele>
        <time>2018-04-26T09:59:38+0200</time>
      </trkpt>
      <trkpt lat="47.20536" lon="4.95519">
        <ele>389.40826416016</ele>
        <time>2018-04-26T09:59:41+0200</time>
      </trkpt>
      <trkpt lat="47.20536" lon="4.95519">
        <ele>389.39654541016</ele>
        <time>2018-04-26T09:59:44+0200</time>
      </trkpt>
      <trkpt lat="47.20535" lon="4.95519">
        <ele>389.28341674805</ele>
        <time>2018-04-26T09:59:47+0200</time>
      </trkpt>
      <trkpt lat="47.20535" lon="4.95517">
        <ele>389.17349243164</ele>
        <time>2018-04-26T09:59:50+0200</time>
      </trkpt>
      <trkpt lat="47.20534" lon="4.95516">
        <ele>389.12744140625</ele>
        <time>2018-04-26T09:59:53+0200</time>
      </trkpt>
      <trkpt lat="47.20533" lon="4.95513">
        <ele>389.05899047852</ele>
        <time>2018-04-26T09:59:56+0200</time>
      </trkpt>
      <trkpt lat="47.20533" lon="4.95513">
        <ele>389.07424926758</ele>
        <time>2018-04-26T09:59:59+0200</time>
      </trkpt>
      <trkpt lat="47.20533" lon="4.95513">
        <ele>389.09701538086</ele>
        <time>2018-04-26T10:00:02+0200</time>
      </trkpt>
      <trkpt lat="47.20533" lon="4.95513">
        <ele>389.13070678711</ele>
        <time>2018-04-26T10:00:05+0200</time>
      </trkpt>
      <trkpt lat="47.20533" lon="4.95513">
        <ele>389.16421508789</ele>
        <time>2018-04-26T10:00:08+0200</time>
      </trkpt>
      <trkpt lat="47.20533" lon="4.95513">
        <ele>389.19506835938</ele>
        <time>2018-04-26T10:00:11+0200</time>
      </trkpt>
      <trkpt lat="47.20533" lon="4.95513">
        <ele>389.2194519043</ele>
        <time>2018-04-26T10:00:14+0200</time>
      </trkpt>
      <trkpt lat="47.20533" lon="4.95513">
        <ele>389.24118041992</ele>
        <time>2018-04-26T10:00:17+0200</time>
      </trkpt>
      <trkpt lat="47.20532" lon="4.95513">
        <ele>389.26507568359</ele>
        <time>2018-04-26T10:00:20+0200</time>
      </trkpt>
      <trkpt lat="47.20532" lon="4.95513">
        <ele>389.2998046875</ele>
        <time>2018-04-26T10:00:23+0200</time>
      </trkpt>
      <trkpt lat="47.20532" lon="4.95513">
        <ele>389.33514404297</ele>
        <time>2018-04-26T10:00:26+0200</time>
      </trkpt>
      <trkpt lat="47.20529" lon="4.95509">
        <ele>389.46423339844</ele>
        <time>2018-04-26T10:00:29+0200</time>
      </trkpt>
      <trkpt lat="47.2053" lon="4.9551">
        <ele>389.48529052734</ele>
        <time>2018-04-26T10:00:32+0200</time>
      </trkpt>
      <trkpt lat="47.2053" lon="4.9551">
        <ele>389.51522827148</ele>
        <time>2018-04-26T10:00:35+0200</time>
      </trkpt>
      <trkpt lat="47.2053" lon="4.9551">
        <ele>389.66955566406</ele>
        <time>2018-04-26T10:00:38+0200</time>
      </trkpt>
      <trkpt lat="47.2053" lon="4.9551">
        <ele>389.70162963867</ele>
        <time>2018-04-26T10:00:41+0200</time>
      </trkpt>
      <trkpt lat="47.2053" lon="4.9551">
        <ele>389.73693847656</ele>
        <time>2018-04-26T10:00:44+0200</time>
      </trkpt>
      <trkpt lat="47.2053" lon="4.9551">
        <ele>389.77203369141</ele>
        <time>2018-04-26T10:00:47+0200</time>
      </trkpt>
      <trkpt lat="47.2053" lon="4.95511">
        <ele>390.04296875</ele>
        <time>2018-04-26T10:00:50+0200</time>
      </trkpt>
      <trkpt lat="47.20529" lon="4.95509">
        <ele>390.28198242188</ele>
        <time>2018-04-26T10:00:53+0200</time>
      </trkpt>
      <trkpt lat="47.20528" lon="4.95507">
        <ele>390.64154052734</ele>
        <time>2018-04-26T10:00:56+0200</time>
      </trkpt>
      <trkpt lat="47.20528" lon="4.95505">
        <ele>390.93182373047</ele>
        <time>2018-04-26T10:00:59+0200</time>
      </trkpt>
      <trkpt lat="47.20528" lon="4.95502">
        <ele>391.12228393555</ele>
        <time>2018-04-26T10:01:02+0200</time>
      </trkpt>
      <trkpt lat="47.20528" lon="4.95499">
        <ele>391.28964233398</ele>
        <time>2018-04-26T10:01:05+0200</time>
      </trkpt>
      <trkpt lat="47.20527" lon="4.95497">
        <ele>391.40655517578</ele>
        <time>2018-04-26T10:01:08+0200</time>
      </trkpt>
      <trkpt lat="47.20526" lon="4.95496">
        <ele>391.46051025391</ele>
        <time>2018-04-26T10:01:11+0200</time>
      </trkpt>
      <trkpt lat="47.20524" lon="4.95494">
        <ele>391.5710144043</ele>
        <time>2018-04-26T10:01:14+0200</time>
      </trkpt>
      <trkpt lat="47.20522" lon="4.95491">
        <ele>391.71530151367</ele>
        <time>2018-04-26T10:01:17+0200</time>
      </trkpt>
      <trkpt lat="47.20519" lon="4.95488">
        <ele>391.85882568359</ele>
        <time>2018-04-26T10:01:20+0200</time>
      </trkpt>
      <trkpt lat="47.20515" lon="4.95486">
        <ele>391.95370483398</ele>
        <time>2018-04-26T10:01:23+0200</time>
      </trkpt>
      <trkpt lat="47.20512" lon="4.95485">
        <ele>392.02304077148</ele>
        <time>2018-04-26T10:01:26+0200</time>
      </trkpt>
      <trkpt lat="47.20509" lon="4.95483">
        <ele>392.05249023438</ele>
        <time>2018-04-26T10:01:29+0200</time>
      </trkpt>
      <trkpt lat="47.20508" lon="4.95481">
        <ele>392.05981445312</ele>
        <time>2018-04-26T10:01:32+0200</time>
      </trkpt>
      <trkpt lat="47.20506" lon="4.95478">
        <ele>392.02297973633</ele>
        <time>2018-04-26T10:01:35+0200</time>
      </trkpt>
      <trkpt lat="47.20505" lon="4.95475">
        <ele>392.04745483398</ele>
        <time>2018-04-26T10:01:38+0200</time>
      </trkpt>
      <trkpt lat="47.20503" lon="4.95474">
        <ele>392.13012695312</ele>
        <time>2018-04-26T10:01:41+0200</time>
      </trkpt>
      <trkpt lat="47.20501" lon="4.95472">
        <ele>392.20059204102</ele>
        <time>2018-04-26T10:01:44+0200</time>
      </trkpt>
      <trkpt lat="47.20499" lon="4.95471">
        <ele>392.26348876953</ele>
        <time>2018-04-26T10:01:47+0200</time>
      </trkpt>
      <trkpt lat="47.20497" lon="4.95469">
        <ele>392.28826904297</ele>
        <time>2018-04-26T10:01:50+0200</time>
      </trkpt>
      <trkpt lat="47.20494" lon="4.95467">
        <ele>392.29336547852</ele>
        <time>2018-04-26T10:01:53+0200</time>
      </trkpt>
      <trkpt lat="47.20491" lon="4.95465">
        <ele>392.32247924805</ele>
        <time>2018-04-26T10:01:56+0200</time>
      </trkpt>
      <trkpt lat="47.20489" lon="4.95463">
        <ele>392.42218017578</ele>
        <time>2018-04-26T10:01:59+0200</time>
      </trkpt>
      <trkpt lat="47.20487" lon="4.95462">
        <ele>392.53552246094</ele>
        <time>2018-04-26T10:02:02+0200</time>
      </trkpt>
      <trkpt lat="47.20485" lon="4.95459">
        <ele>392.64495849609</ele>
        <time>2018-04-26T10:02:05+0200</time>
      </trkpt>
      <trkpt lat="47.20482" lon="4.95458">
        <ele>392.73431396484</ele>
        <time>2018-04-26T10:02:08+0200</time>
      </trkpt>
      <trkpt lat="47.2048" lon="4.95454">
        <ele>392.83416748047</ele>
        <time>2018-04-26T10:02:11+0200</time>
      </trkpt>
      <trkpt lat="47.20477" lon="4.95451">
        <ele>392.96301269531</ele>
        <time>2018-04-26T10:02:14+0200</time>
      </trkpt>
      <trkpt lat="47.20475" lon="4.95449">
        <ele>393.08828735352</ele>
        <time>2018-04-26T10:02:17+0200</time>
      </trkpt>
      <trkpt lat="47.20474" lon="4.95447">
        <ele>393.2610168457</ele>
        <time>2018-04-26T10:02:20+0200</time>
      </trkpt>
      <trkpt lat="47.20471" lon="4.95444">
        <ele>393.46420288086</ele>
        <time>2018-04-26T10:02:23+0200</time>
      </trkpt>
      <trkpt lat="47.20468" lon="4.95442">
        <ele>393.5993347168</ele>
        <time>2018-04-26T10:02:26+0200</time>
      </trkpt>
      <trkpt lat="47.20466" lon="4.9544">
        <ele>393.63397216797</ele>
        <time>2018-04-26T10:02:29+0200</time>
      </trkpt>
      <trkpt lat="47.20462" lon="4.95438">
        <ele>393.68130493164</ele>
        <time>2018-04-26T10:02:32+0200</time>
      </trkpt>
      <trkpt lat="47.20459" lon="4.95436">
        <ele>393.77850341797</ele>
        <time>2018-04-26T10:02:35+0200</time>
      </trkpt>
      <trkpt lat="47.20457" lon="4.95434">
        <ele>393.92245483398</ele>
        <time>2018-04-26T10:02:38+0200</time>
      </trkpt>
      <trkpt lat="47.20456" lon="4.95431">
        <ele>394.00952148438</ele>
        <time>2018-04-26T10:02:41+0200</time>
      </trkpt>
      <trkpt lat="47.20453" lon="4.95427">
        <ele>394.03848266602</ele>
        <time>2018-04-26T10:02:44+0200</time>
      </trkpt>
      <trkpt lat="47.20451" lon="4.95424">
        <ele>394.03283691406</ele>
        <time>2018-04-26T10:02:47+0200</time>
      </trkpt>
      <trkpt lat="47.20449" lon="4.95422">
        <ele>394.05963134766</ele>
        <time>2018-04-26T10:02:50+0200</time>
      </trkpt>
      <trkpt lat="47.20446" lon="4.95421">
        <ele>394.16470336914</ele>
        <time>2018-04-26T10:02:53+0200</time>
      </trkpt>
      <trkpt lat="47.20444" lon="4.95419">
        <ele>394.15731811523</ele>
        <time>2018-04-26T10:02:56+0200</time>
      </trkpt>
      <trkpt lat="47.20443" lon="4.95419">
        <ele>394.05322265625</ele>
        <time>2018-04-26T10:02:59+0200</time>
      </trkpt>
      <trkpt lat="47.20441" lon="4.95418">
        <ele>393.9801940918</ele>
        <time>2018-04-26T10:03:02+0200</time>
      </trkpt>
      <trkpt lat="47.20438" lon="4.95419">
        <ele>393.93218994141</ele>
        <time>2018-04-26T10:03:05+0200</time>
      </trkpt>
      <trkpt lat="47.20436" lon="4.95418">
        <ele>393.89840698242</ele>
        <time>2018-04-26T10:03:08+0200</time>
      </trkpt>
      <trkpt lat="47.20432" lon="4.95419">
        <ele>393.86538696289</ele>
        <time>2018-04-26T10:03:11+0200</time>
      </trkpt>
      <trkpt lat="47.20428" lon="4.95419">
        <ele>393.8576965332</ele>
        <time>2018-04-26T10:03:14+0200</time>
      </trkpt>
      <trkpt lat="47.20427" lon="4.95418">
        <ele>393.91012573242</ele>
        <time>2018-04-26T10:03:17+0200</time>
      </trkpt>
      <trkpt lat="47.20422" lon="4.95416">
        <ele>393.96182250977</ele>
        <time>2018-04-26T10:03:20+0200</time>
      </trkpt>
      <trkpt lat="47.20419" lon="4.95414">
        <ele>394.06625366211</ele>
        <time>2018-04-26T10:03:23+0200</time>
      </trkpt>
      <trkpt lat="47.20415" lon="4.95411">
        <ele>394.18817138672</ele>
        <time>2018-04-26T10:03:26+0200</time>
      </trkpt>
      <trkpt lat="47.20412" lon="4.95409">
        <ele>394.28689575195</ele>
        <time>2018-04-26T10:03:29+0200</time>
      </trkpt>
      <trkpt lat="47.2041" lon="4.95407">
        <ele>394.4280090332</ele>
        <time>2018-04-26T10:03:32+0200</time>
      </trkpt>
      <trkpt lat="47.20409" lon="4.95403">
        <ele>394.65777587891</ele>
        <time>2018-04-26T10:03:35+0200</time>
      </trkpt>
      <trkpt lat="47.20407" lon="4.954">
        <ele>394.93075561523</ele>
        <time>2018-04-26T10:03:38+0200</time>
      </trkpt>
      <trkpt lat="47.20405" lon="4.95398">
        <ele>395.20809936523</ele>
        <time>2018-04-26T10:03:41+0200</time>
      </trkpt>
      <trkpt lat="47.20403" lon="4.95395">
        <ele>395.47222900391</ele>
        <time>2018-04-26T10:03:44+0200</time>
      </trkpt>
      <trkpt lat="47.20403" lon="4.95394">
        <ele>395.72888183594</ele>
        <time>2018-04-26T10:03:47+0200</time>
      </trkpt>
      <trkpt lat="47.20402" lon="4.95394">
        <ele>395.82464599609</ele>
        <time>2018-04-26T10:03:50+0200</time>
      </trkpt>
      <trkpt lat="47.20402" lon="4.95394">
        <ele>395.9035949707</ele>
        <time>2018-04-26T10:03:53+0200</time>
      </trkpt>
      <trkpt lat="47.20401" lon="4.95394">
        <ele>395.92364501953</ele>
        <time>2018-04-26T10:03:56+0200</time>
      </trkpt>
      <trkpt lat="47.20401" lon="4.95393">
        <ele>396.09674072266</ele>
        <time>2018-04-26T10:03:59+0200</time>
      </trkpt>
      <trkpt lat="47.204" lon="4.95393">
        <ele>396.26565551758</ele>
        <time>2018-04-26T10:04:02+0200</time>
      </trkpt>
      <trkpt lat="47.20399" lon="4.95391">
        <ele>396.38977050781</ele>
        <time>2018-04-26T10:04:05+0200</time>
      </trkpt>
      <trkpt lat="47.20396" lon="4.95388">
        <ele>396.53628540039</ele>
        <time>2018-04-26T10:04:08+0200</time>
      </trkpt>
      <trkpt lat="47.20396" lon="4.95388">
        <ele>396.54220581055</ele>
        <time>2018-04-26T10:04:11+0200</time>
      </trkpt>
      <trkpt lat="47.20395" lon="4.95388">
        <ele>396.57382202148</ele>
        <time>2018-04-26T10:04:14+0200</time>
      </trkpt>
      <trkpt lat="47.20394" lon="4.95387">
        <ele>396.65396118164</ele>
        <time>2018-04-26T10:04:17+0200</time>
      </trkpt>
      <trkpt lat="47.20394" lon="4.95386">
        <ele>396.70944213867</ele>
        <time>2018-04-26T10:04:20+0200</time>
      </trkpt>
      <trkpt lat="47.20393" lon="4.95387">
        <ele>396.74563598633</ele>
        <time>2018-04-26T10:04:23+0200</time>
      </trkpt>
      <trkpt lat="47.20393" lon="4.95388">
        <ele>396.75964355469</ele>
        <time>2018-04-26T10:04:26+0200</time>
      </trkpt>
      <trkpt lat="47.20393" lon="4.95388">
        <ele>396.76803588867</ele>
        <time>2018-04-26T10:04:29+0200</time>
      </trkpt>
      <trkpt lat="47.20393" lon="4.95387">
        <ele>396.77816772461</ele>
        <time>2018-04-26T10:04:32+0200</time>
      </trkpt>
      <trkpt lat="47.20393" lon="4.95387">
        <ele>396.78982543945</ele>
        <time>2018-04-26T10:04:35+0200</time>
      </trkpt>
      <trkpt lat="47.20393" lon="4.95387">
        <ele>396.87197875977</ele>
        <time>2018-04-26T10:04:38+0200</time>
      </trkpt>
      <trkpt lat="47.20392" lon="4.95387">
        <ele>396.95141601562</ele>
        <time>2018-04-26T10:04:41+0200</time>
      </trkpt>
      <trkpt lat="47.20392" lon="4.95387">
        <ele>396.97744750977</ele>
        <time>2018-04-26T10:04:44+0200</time>
      </trkpt>
      <trkpt lat="47.20392" lon="4.95387">
        <ele>397.00659179688</ele>
        <time>2018-04-26T10:04:47+0200</time>
      </trkpt>
      <trkpt lat="47.20392" lon="4.95387">
        <ele>397.03521728516</ele>
        <time>2018-04-26T10:04:50+0200</time>
      </trkpt>
      <trkpt lat="47.20392" lon="4.95387">
        <ele>397.06225585938</ele>
        <time>2018-04-26T10:04:53+0200</time>
      </trkpt>
      <trkpt lat="47.20392" lon="4.95386">
        <ele>397.14489746094</ele>
        <time>2018-04-26T10:04:56+0200</time>
      </trkpt>
      <trkpt lat="47.20392" lon="4.95386">
        <ele>397.16293334961</ele>
        <time>2018-04-26T10:04:59+0200</time>
      </trkpt>
      <trkpt lat="47.20392" lon="4.95386">
        <ele>397.18423461914</ele>
        <time>2018-04-26T10:05:02+0200</time>
      </trkpt>
      <trkpt lat="47.20391" lon="4.95385">
        <ele>397.3210144043</ele>
        <time>2018-04-26T10:05:05+0200</time>
      </trkpt>
      <trkpt lat="47.20392" lon="4.95384">
        <ele>397.33660888672</ele>
        <time>2018-04-26T10:05:08+0200</time>
      </trkpt>
      <trkpt lat="47.20392" lon="4.95384">
        <ele>397.42922973633</ele>
        <time>2018-04-26T10:05:11+0200</time>
      </trkpt>
      <trkpt lat="47.20392" lon="4.95382">
        <ele>397.73825073242</ele>
        <time>2018-04-26T10:05:14+0200</time>
      </trkpt>
      <trkpt lat="47.20391" lon="4.95378">
        <ele>398.02301025391</ele>
        <time>2018-04-26T10:05:17+0200</time>
      </trkpt>
      <trkpt lat="47.20391" lon="4.95375">
        <ele>398.12026977539</ele>
        <time>2018-04-26T10:05:20+0200</time>
      </trkpt>
      <trkpt lat="47.20391" lon="4.95374">
        <ele>398.12316894531</ele>
        <time>2018-04-26T10:05:23+0200</time>
      </trkpt>
      <trkpt lat="47.2039" lon="4.95371">
        <ele>398.03051757812</ele>
        <time>2018-04-26T10:05:26+0200</time>
      </trkpt>
      <trkpt lat="47.20389" lon="4.9537">
        <ele>397.95498657227</ele>
        <time>2018-04-26T10:05:29+0200</time>
      </trkpt>
      <trkpt lat="47.20386" lon="4.95369">
        <ele>397.97265625</ele>
        <time>2018-04-26T10:05:32+0200</time>
      </trkpt>
      <trkpt lat="47.20384" lon="4.95367">
        <ele>398.04205322266</ele>
        <time>2018-04-26T10:05:35+0200</time>
      </trkpt>
      <trkpt lat="47.20382" lon="4.95364">
        <ele>398.16180419922</ele>
        <time>2018-04-26T10:05:38+0200</time>
      </trkpt>
      <trkpt lat="47.20381" lon="4.95362">
        <ele>398.28405761719</ele>
        <time>2018-04-26T10:05:41+0200</time>
      </trkpt>
      <trkpt lat="47.2038" lon="4.95361">
        <ele>398.39935302734</ele>
        <time>2018-04-26T10:05:44+0200</time>
      </trkpt>
      <trkpt lat="47.20379" lon="4.9536">
        <ele>398.56237792969</ele>
        <time>2018-04-26T10:05:47+0200</time>
      </trkpt>
      <trkpt lat="47.20378" lon="4.95359">
        <ele>398.67166137695</ele>
        <time>2018-04-26T10:05:50+0200</time>
      </trkpt>
      <trkpt lat="47.20378" lon="4.95359">
        <ele>398.66506958008</ele>
        <time>2018-04-26T10:05:53+0200</time>
      </trkpt>
      <trkpt lat="47.20378" lon="4.95359">
        <ele>398.64279174805</ele>
        <time>2018-04-26T10:05:56+0200</time>
      </trkpt>
      <trkpt lat="47.20378" lon="4.95359">
        <ele>398.61291503906</ele>
        <time>2018-04-26T10:05:59+0200</time>
      </trkpt>
      <trkpt lat="47.20378" lon="4.95359">
        <ele>398.58840942383</ele>
        <time>2018-04-26T10:06:02+0200</time>
      </trkpt>
      <trkpt lat="47.20378" lon="4.95358">
        <ele>398.56826782227</ele>
        <time>2018-04-26T10:06:05+0200</time>
      </trkpt>
      <trkpt lat="47.20378" lon="4.95358">
        <ele>398.5602722168</ele>
        <time>2018-04-26T10:06:08+0200</time>
      </trkpt>
      <trkpt lat="47.20378" lon="4.95357">
        <ele>398.54968261719</ele>
        <time>2018-04-26T10:06:11+0200</time>
      </trkpt>
      <trkpt lat="47.20378" lon="4.95357">
        <ele>398.53631591797</ele>
        <time>2018-04-26T10:06:14+0200</time>
      </trkpt>
      <trkpt lat="47.20377" lon="4.95357">
        <ele>398.51568603516</ele>
        <time>2018-04-26T10:06:17+0200</time>
      </trkpt>
      <trkpt lat="47.20377" lon="4.95357">
        <ele>398.49053955078</ele>
        <time>2018-04-26T10:06:20+0200</time>
      </trkpt>
      <trkpt lat="47.20377" lon="4.95357">
        <ele>398.46807861328</ele>
        <time>2018-04-26T10:06:23+0200</time>
      </trkpt>
      <trkpt lat="47.20377" lon="4.95357">
        <ele>398.44583129883</ele>
        <time>2018-04-26T10:06:26+0200</time>
      </trkpt>
      <trkpt lat="47.20377" lon="4.95357">
        <ele>398.42321777344</ele>
        <time>2018-04-26T10:06:29+0200</time>
      </trkpt>
      <trkpt lat="47.20377" lon="4.95357">
        <ele>398.39962768555</ele>
        <time>2018-04-26T10:06:32+0200</time>
      </trkpt>
      <trkpt lat="47.20377" lon="4.95357">
        <ele>398.37316894531</ele>
        <time>2018-04-26T10:06:35+0200</time>
      </trkpt>
      <trkpt lat="47.20377" lon="4.95357">
        <ele>398.34609985352</ele>
        <time>2018-04-26T10:06:38+0200</time>
      </trkpt>
      <trkpt lat="47.20377" lon="4.95357">
        <ele>398.31408691406</ele>
        <time>2018-04-26T10:06:41+0200</time>
      </trkpt>
      <trkpt lat="47.20376" lon="4.95357">
        <ele>398.27459716797</ele>
        <time>2018-04-26T10:06:44+0200</time>
      </trkpt>
      <trkpt lat="47.20376" lon="4.95357">
        <ele>398.20153808594</ele>
        <time>2018-04-26T10:06:47+0200</time>
      </trkpt>
      <trkpt lat="47.20376" lon="4.95357">
        <ele>397.671875</ele>
        <time>2018-04-26T10:06:50+0200</time>
      </trkpt>
      <trkpt lat="47.20375" lon="4.95356">
        <ele>397.13729858398</ele>
        <time>2018-04-26T10:06:53+0200</time>
      </trkpt>
      <trkpt lat="47.20375" lon="4.95355">
        <ele>397.09637451172</ele>
        <time>2018-04-26T10:06:56+0200</time>
      </trkpt>
      <trkpt lat="47.20375" lon="4.95355">
        <ele>397.05798339844</ele>
        <time>2018-04-26T10:06:59+0200</time>
      </trkpt>
      <trkpt lat="47.20375" lon="4.95355">
        <ele>397.02447509766</ele>
        <time>2018-04-26T10:07:02+0200</time>
      </trkpt>
      <trkpt lat="47.20375" lon="4.95355">
        <ele>396.99746704102</ele>
        <time>2018-04-26T10:07:05+0200</time>
      </trkpt>
      <trkpt lat="47.20375" lon="4.95355">
        <ele>396.97653198242</ele>
        <time>2018-04-26T10:07:08+0200</time>
      </trkpt>
      <trkpt lat="47.20375" lon="4.95355">
        <ele>396.95846557617</ele>
        <time>2018-04-26T10:07:11+0200</time>
      </trkpt>
      <trkpt lat="47.20375" lon="4.95355">
        <ele>396.93609619141</ele>
        <time>2018-04-26T10:07:14+0200</time>
      </trkpt>
      <trkpt lat="47.20374" lon="4.95355">
        <ele>396.9206237793</ele>
        <time>2018-04-26T10:07:17+0200</time>
      </trkpt>
      <trkpt lat="47.20374" lon="4.95355">
        <ele>396.91302490234</ele>
        <time>2018-04-26T10:07:20+0200</time>
      </trkpt>
      <trkpt lat="47.20374" lon="4.95355">
        <ele>396.90310668945</ele>
        <time>2018-04-26T10:07:23+0200</time>
      </trkpt>
      <trkpt lat="47.20374" lon="4.95355">
        <ele>396.88900756836</ele>
        <time>2018-04-26T10:07:26+0200</time>
      </trkpt>
      <trkpt lat="47.20374" lon="4.95355">
        <ele>396.87573242188</ele>
        <time>2018-04-26T10:07:29+0200</time>
      </trkpt>
      <trkpt lat="47.20374" lon="4.95356">
        <ele>396.85775756836</ele>
        <time>2018-04-26T10:07:32+0200</time>
      </trkpt>
      <trkpt lat="47.20374" lon="4.95356">
        <ele>396.83474731445</ele>
        <time>2018-04-26T10:07:35+0200</time>
      </trkpt>
      <trkpt lat="47.20373" lon="4.95356">
        <ele>396.82778930664</ele>
        <time>2018-04-26T10:07:38+0200</time>
      </trkpt>
      <trkpt lat="47.20373" lon="4.95356">
        <ele>396.84014892578</ele>
        <time>2018-04-26T10:07:41+0200</time>
      </trkpt>
      <trkpt lat="47.20374" lon="4.95357">
        <ele>396.95016479492</ele>
        <time>2018-04-26T10:07:44+0200</time>
      </trkpt>
      <trkpt lat="47.20373" lon="4.95358">
        <ele>397.01736450195</ele>
        <time>2018-04-26T10:07:47+0200</time>
      </trkpt>
      <trkpt lat="47.20372" lon="4.95357">
        <ele>397.16696166992</ele>
        <time>2018-04-26T10:07:50+0200</time>
      </trkpt>
      <trkpt lat="47.20372" lon="4.95356">
        <ele>397.27249145508</ele>
        <time>2018-04-26T10:07:53+0200</time>
      </trkpt>
      <trkpt lat="47.20371" lon="4.95354">
        <ele>397.33969116211</ele>
        <time>2018-04-26T10:07:56+0200</time>
      </trkpt>
      <trkpt lat="47.2037" lon="4.95353">
        <ele>397.38018798828</ele>
        <time>2018-04-26T10:07:59+0200</time>
      </trkpt>
      <trkpt lat="47.2037" lon="4.95353">
        <ele>397.3860168457</ele>
        <time>2018-04-26T10:08:02+0200</time>
      </trkpt>
      <trkpt lat="47.2037" lon="4.95353">
        <ele>397.38928222656</ele>
        <time>2018-04-26T10:08:05+0200</time>
      </trkpt>
      <trkpt lat="47.20371" lon="4.95352">
        <ele>397.42642211914</ele>
        <time>2018-04-26T10:08:08+0200</time>
      </trkpt>
      <trkpt lat="47.20371" lon="4.95351">
        <ele>397.44665527344</ele>
        <time>2018-04-26T10:08:11+0200</time>
      </trkpt>
      <trkpt lat="47.20371" lon="4.9535">
        <ele>397.42150878906</ele>
        <time>2018-04-26T10:08:14+0200</time>
      </trkpt>
      <trkpt lat="47.20371" lon="4.9535">
        <ele>397.40789794922</ele>
        <time>2018-04-26T10:08:17+0200</time>
      </trkpt>
      <trkpt lat="47.20371" lon="4.9535">
        <ele>397.3971862793</ele>
        <time>2018-04-26T10:08:20+0200</time>
      </trkpt>
      <trkpt lat="47.20371" lon="4.9535">
        <ele>397.39358520508</ele>
        <time>2018-04-26T10:08:23+0200</time>
      </trkpt>
      <trkpt lat="47.20372" lon="4.9535">
        <ele>397.39752197266</ele>
        <time>2018-04-26T10:08:26+0200</time>
      </trkpt>
      <trkpt lat="47.20372" lon="4.95349">
        <ele>397.40563964844</ele>
        <time>2018-04-26T10:08:29+0200</time>
      </trkpt>
      <trkpt lat="47.20372" lon="4.95349">
        <ele>397.40826416016</ele>
        <time>2018-04-26T10:08:32+0200</time>
      </trkpt>
      <trkpt lat="47.20372" lon="4.95349">
        <ele>397.40979003906</ele>
        <time>2018-04-26T10:08:35+0200</time>
      </trkpt>
      <trkpt lat="47.20372" lon="4.95349">
        <ele>397.41656494141</ele>
        <time>2018-04-26T10:08:38+0200</time>
      </trkpt>
      <trkpt lat="47.20372" lon="4.95349">
        <ele>397.42419433594</ele>
        <time>2018-04-26T10:08:41+0200</time>
      </trkpt>
      <trkpt lat="47.20372" lon="4.95349">
        <ele>397.43002319336</ele>
        <time>2018-04-26T10:08:44+0200</time>
      </trkpt>
      <trkpt lat="47.20372" lon="4.95349">
        <ele>397.43075561523</ele>
        <time>2018-04-26T10:08:47+0200</time>
      </trkpt>
      <trkpt lat="47.20372" lon="4.95349">
        <ele>397.42575073242</ele>
        <time>2018-04-26T10:08:50+0200</time>
      </trkpt>
      <trkpt lat="47.20372" lon="4.95349">
        <ele>397.41720581055</ele>
        <time>2018-04-26T10:08:53+0200</time>
      </trkpt>
      <trkpt lat="47.20372" lon="4.95349">
        <ele>397.40579223633</ele>
        <time>2018-04-26T10:08:56+0200</time>
      </trkpt>
      <trkpt lat="47.20372" lon="4.95349">
        <ele>397.39401245117</ele>
        <time>2018-04-26T10:08:59+0200</time>
      </trkpt>
      <trkpt lat="47.20372" lon="4.95349">
        <ele>397.39053344727</ele>
        <time>2018-04-26T10:09:02+0200</time>
      </trkpt>
      <trkpt lat="47.20372" lon="4.95349">
        <ele>397.38934326172</ele>
        <time>2018-04-26T10:09:05+0200</time>
      </trkpt>
      <trkpt lat="47.20372" lon="4.95349">
        <ele>397.38851928711</ele>
        <time>2018-04-26T10:09:08+0200</time>
      </trkpt>
      <trkpt lat="47.20371" lon="4.95349">
        <ele>397.37307739258</ele>
        <time>2018-04-26T10:09:11+0200</time>
      </trkpt>
      <trkpt lat="47.20371" lon="4.95349">
        <ele>397.35507202148</ele>
        <time>2018-04-26T10:09:14+0200</time>
      </trkpt>
      <trkpt lat="47.20371" lon="4.95349">
        <ele>397.33517456055</ele>
        <time>2018-04-26T10:09:17+0200</time>
      </trkpt>
      <trkpt lat="47.20371" lon="4.95349">
        <ele>397.31109619141</ele>
        <time>2018-04-26T10:09:20+0200</time>
      </trkpt>
      <trkpt lat="47.20371" lon="4.95349">
        <ele>397.28060913086</ele>
        <time>2018-04-26T10:09:23+0200</time>
      </trkpt>
      <trkpt lat="47.20371" lon="4.95349">
        <ele>397.24472045898</ele>
        <time>2018-04-26T10:09:26+0200</time>
      </trkpt>
      <trkpt lat="47.20371" lon="4.95349">
        <ele>397.20922851562</ele>
        <time>2018-04-26T10:09:29+0200</time>
      </trkpt>
      <trkpt lat="47.20371" lon="4.95349">
        <ele>397.17709350586</ele>
        <time>2018-04-26T10:09:32+0200</time>
      </trkpt>
      <trkpt lat="47.20371" lon="4.95349">
        <ele>397.14950561523</ele>
        <time>2018-04-26T10:09:35+0200</time>
      </trkpt>
      <trkpt lat="47.20371" lon="4.95349">
        <ele>397.13006591797</ele>
        <time>2018-04-26T10:09:38+0200</time>
      </trkpt>
      <trkpt lat="47.20371" lon="4.95349">
        <ele>397.11975097656</ele>
        <time>2018-04-26T10:09:41+0200</time>
      </trkpt>
      <trkpt lat="47.20371" lon="4.95349">
        <ele>397.06512451172</ele>
        <time>2018-04-26T10:09:44+0200</time>
      </trkpt>
      <trkpt lat="47.20371" lon="4.95349">
        <ele>397.05178833008</ele>
        <time>2018-04-26T10:09:47+0200</time>
      </trkpt>
      <trkpt lat="47.20371" lon="4.95349">
        <ele>397.04071044922</ele>
        <time>2018-04-26T10:09:50+0200</time>
      </trkpt>
      <trkpt lat="47.20372" lon="4.95349">
        <ele>397.03237915039</ele>
        <time>2018-04-26T10:09:53+0200</time>
      </trkpt>
      <trkpt lat="47.20372" lon="4.95349">
        <ele>397.0224609375</ele>
        <time>2018-04-26T10:09:56+0200</time>
      </trkpt>
      <trkpt lat="47.20372" lon="4.95349">
        <ele>397.01324462891</ele>
        <time>2018-04-26T10:09:59+0200</time>
      </trkpt>
      <trkpt lat="47.20372" lon="4.95349">
        <ele>397.00317382812</ele>
        <time>2018-04-26T10:10:02+0200</time>
      </trkpt>
      <trkpt lat="47.20372" lon="4.95349">
        <ele>396.98764038086</ele>
        <time>2018-04-26T10:10:05+0200</time>
      </trkpt>
      <trkpt lat="47.20372" lon="4.9535">
        <ele>396.97427368164</ele>
        <time>2018-04-26T10:10:08+0200</time>
      </trkpt>
      <trkpt lat="47.20371" lon="4.9535">
        <ele>396.96337890625</ele>
        <time>2018-04-26T10:10:11+0200</time>
      </trkpt>
      <trkpt lat="47.20371" lon="4.9535">
        <ele>396.94924926758</ele>
        <time>2018-04-26T10:10:14+0200</time>
      </trkpt>
      <trkpt lat="47.20371" lon="4.9535">
        <ele>396.92691040039</ele>
        <time>2018-04-26T10:10:17+0200</time>
      </trkpt>
      <trkpt lat="47.20371" lon="4.9535">
        <ele>396.89877319336</ele>
        <time>2018-04-26T10:10:20+0200</time>
      </trkpt>
      <trkpt lat="47.20371" lon="4.9535">
        <ele>396.8717956543</ele>
        <time>2018-04-26T10:10:23+0200</time>
      </trkpt>
      <trkpt lat="47.20371" lon="4.9535">
        <ele>396.84417724609</ele>
        <time>2018-04-26T10:10:26+0200</time>
      </trkpt>
      <trkpt lat="47.20371" lon="4.95351">
        <ele>396.81716918945</ele>
        <time>2018-04-26T10:10:29+0200</time>
      </trkpt>
      <trkpt lat="47.20371" lon="4.95351">
        <ele>396.78851318359</ele>
        <time>2018-04-26T10:10:32+0200</time>
      </trkpt>
      <trkpt lat="47.2037" lon="4.95351">
        <ele>396.7575378418</ele>
        <time>2018-04-26T10:10:35+0200</time>
      </trkpt>
      <trkpt lat="47.2037" lon="4.95351">
        <ele>396.72579956055</ele>
        <time>2018-04-26T10:10:38+0200</time>
      </trkpt>
      <trkpt lat="47.2037" lon="4.95351">
        <ele>396.69476318359</ele>
        <time>2018-04-26T10:10:41+0200</time>
      </trkpt>
      <trkpt lat="47.2037" lon="4.95351">
        <ele>396.66177368164</ele>
        <time>2018-04-26T10:10:44+0200</time>
      </trkpt>
      <trkpt lat="47.2037" lon="4.95351">
        <ele>396.63446044922</ele>
        <time>2018-04-26T10:10:47+0200</time>
      </trkpt>
      <trkpt lat="47.20371" lon="4.95351">
        <ele>396.61264038086</ele>
        <time>2018-04-26T10:10:50+0200</time>
      </trkpt>
      <trkpt lat="47.20371" lon="4.95351">
        <ele>396.5901184082</ele>
        <time>2018-04-26T10:10:53+0200</time>
      </trkpt>
      <trkpt lat="47.20371" lon="4.95351">
        <ele>396.56460571289</ele>
        <time>2018-04-26T10:10:56+0200</time>
      </trkpt>
      <trkpt lat="47.20371" lon="4.95351">
        <ele>396.54260253906</ele>
        <time>2018-04-26T10:10:59+0200</time>
      </trkpt>
      <trkpt lat="47.20371" lon="4.95351">
        <ele>396.51983642578</ele>
        <time>2018-04-26T10:11:02+0200</time>
      </trkpt>
      <trkpt lat="47.20371" lon="4.95351">
        <ele>396.48895263672</ele>
        <time>2018-04-26T10:11:05+0200</time>
      </trkpt>
      <trkpt lat="47.20371" lon="4.95351">
        <ele>396.45281982422</ele>
        <time>2018-04-26T10:11:08+0200</time>
      </trkpt>
      <trkpt lat="47.20371" lon="4.95351">
        <ele>396.41262817383</ele>
        <time>2018-04-26T10:11:11+0200</time>
      </trkpt>
      <trkpt lat="47.20371" lon="4.95351">
        <ele>396.37115478516</ele>
        <time>2018-04-26T10:11:14+0200</time>
      </trkpt>
      <trkpt lat="47.20371" lon="4.9535">
        <ele>396.33853149414</ele>
        <time>2018-04-26T10:11:17+0200</time>
      </trkpt>
      <trkpt lat="47.20371" lon="4.9535">
        <ele>396.31497192383</ele>
        <time>2018-04-26T10:11:20+0200</time>
      </trkpt>
      <trkpt lat="47.20371" lon="4.9535">
        <ele>396.29852294922</ele>
        <time>2018-04-26T10:11:23+0200</time>
      </trkpt>
      <trkpt lat="47.20371" lon="4.9535">
        <ele>396.28634643555</ele>
        <time>2018-04-26T10:11:26+0200</time>
      </trkpt>
      <trkpt lat="47.20371" lon="4.9535">
        <ele>396.27758789062</ele>
        <time>2018-04-26T10:11:29+0200</time>
      </trkpt>
      <trkpt lat="47.20371" lon="4.9535">
        <ele>396.26651000977</ele>
        <time>2018-04-26T10:11:32+0200</time>
      </trkpt>
      <trkpt lat="47.20371" lon="4.9535">
        <ele>396.24920654297</ele>
        <time>2018-04-26T10:11:35+0200</time>
      </trkpt>
      <trkpt lat="47.20372" lon="4.9535">
        <ele>396.23434448242</ele>
        <time>2018-04-26T10:11:38+0200</time>
      </trkpt>
      <trkpt lat="47.20372" lon="4.9535">
        <ele>396.23022460938</ele>
        <time>2018-04-26T10:11:41+0200</time>
      </trkpt>
      <trkpt lat="47.20372" lon="4.9535">
        <ele>396.22061157227</ele>
        <time>2018-04-26T10:11:44+0200</time>
      </trkpt>
      <trkpt lat="47.20372" lon="4.9535">
        <ele>396.2082824707</ele>
        <time>2018-04-26T10:11:47+0200</time>
      </trkpt>
      <trkpt lat="47.20371" lon="4.9535">
        <ele>396.12280273438</ele>
        <time>2018-04-26T10:11:50+0200</time>
      </trkpt>
      <trkpt lat="47.20371" lon="4.9535">
        <ele>396.1022644043</ele>
        <time>2018-04-26T10:11:53+0200</time>
      </trkpt>
      <trkpt lat="47.20371" lon="4.9535">
        <ele>396.0871887207</ele>
        <time>2018-04-26T10:11:56+0200</time>
      </trkpt>
      <trkpt lat="47.20371" lon="4.9535">
        <ele>396.07672119141</ele>
        <time>2018-04-26T10:11:59+0200</time>
      </trkpt>
      <trkpt lat="47.20371" lon="4.9535">
        <ele>396.06674194336</ele>
        <time>2018-04-26T10:12:02+0200</time>
      </trkpt>
      <trkpt lat="47.20371" lon="4.9535">
        <ele>396.05187988281</ele>
        <time>2018-04-26T10:12:05+0200</time>
      </trkpt>
      <trkpt lat="47.20371" lon="4.9535">
        <ele>395.91259765625</ele>
        <time>2018-04-26T10:12:08+0200</time>
      </trkpt>
      <trkpt lat="47.2037" lon="4.9535">
        <ele>395.84915161133</ele>
        <time>2018-04-26T10:12:11+0200</time>
      </trkpt>
      <trkpt lat="47.2037" lon="4.9535">
        <ele>395.83453369141</ele>
        <time>2018-04-26T10:12:14+0200</time>
      </trkpt>
      <trkpt lat="47.2037" lon="4.95351">
        <ele>395.78601074219</ele>
        <time>2018-04-26T10:12:17+0200</time>
      </trkpt>
      <trkpt lat="47.2037" lon="4.95351">
        <ele>395.77270507812</ele>
        <time>2018-04-26T10:12:20+0200</time>
      </trkpt>
      <trkpt lat="47.2037" lon="4.95351">
        <ele>395.75442504883</ele>
        <time>2018-04-26T10:12:23+0200</time>
      </trkpt>
      <trkpt lat="47.20369" lon="4.95351">
        <ele>395.7262878418</ele>
        <time>2018-04-26T10:12:25+0200</time>
      </trkpt>
      <trkpt lat="47.20369" lon="4.9535">
        <ele>395.70007324219</ele>
        <time>2018-04-26T10:12:28+0200</time>
      </trkpt>
      <trkpt lat="47.20369" lon="4.9535">
        <ele>395.66421508789</ele>
        <time>2018-04-26T10:12:31+0200</time>
      </trkpt>
      <trkpt lat="47.20369" lon="4.9535">
        <ele>395.62945556641</ele>
        <time>2018-04-26T10:12:34+0200</time>
      </trkpt>
      <trkpt lat="47.20369" lon="4.9535">
        <ele>395.48974609375</ele>
        <time>2018-04-26T10:12:37+0200</time>
      </trkpt>
      <trkpt lat="47.20369" lon="4.9535">
        <ele>395.42437744141</ele>
        <time>2018-04-26T10:12:40+0200</time>
      </trkpt>
      <trkpt lat="47.20367" lon="4.95351">
        <ele>395.32321166992</ele>
        <time>2018-04-26T10:12:43+0200</time>
      </trkpt>
      <trkpt lat="47.20367" lon="4.95351">
        <ele>395.28430175781</ele>
        <time>2018-04-26T10:12:46+0200</time>
      </trkpt>
      <trkpt lat="47.20365" lon="4.95352">
        <ele>395.24618530273</ele>
        <time>2018-04-26T10:12:49+0200</time>
      </trkpt>
      <trkpt lat="47.20361" lon="4.95352">
        <ele>395.18884277344</ele>
        <time>2018-04-26T10:12:52+0200</time>
      </trkpt>
      <trkpt lat="47.20361" lon="4.95353">
        <ele>395.10040283203</ele>
        <time>2018-04-26T10:12:55+0200</time>
      </trkpt>
      <trkpt lat="47.20357" lon="4.95355">
        <ele>394.96206665039</ele>
        <time>2018-04-26T10:12:58+0200</time>
      </trkpt>
      <trkpt lat="47.20355" lon="4.95358">
        <ele>394.81829833984</ele>
        <time>2018-04-26T10:13:01+0200</time>
      </trkpt>
      <trkpt lat="47.20355" lon="4.95361">
        <ele>394.77410888672</ele>
        <time>2018-04-26T10:13:04+0200</time>
      </trkpt>
      <trkpt lat="47.20355" lon="4.95364">
        <ele>394.76831054688</ele>
        <time>2018-04-26T10:13:07+0200</time>
      </trkpt>
      <trkpt lat="47.20355" lon="4.95366">
        <ele>394.74185180664</ele>
        <time>2018-04-26T10:13:10+0200</time>
      </trkpt>
      <trkpt lat="47.20355" lon="4.95368">
        <ele>394.75848388672</ele>
        <time>2018-04-26T10:13:13+0200</time>
      </trkpt>
      <trkpt lat="47.20355" lon="4.95371">
        <ele>394.83126831055</ele>
        <time>2018-04-26T10:13:16+0200</time>
      </trkpt>
      <trkpt lat="47.20356" lon="4.95373">
        <ele>394.90731811523</ele>
        <time>2018-04-26T10:13:19+0200</time>
      </trkpt>
      <trkpt lat="47.20356" lon="4.95377">
        <ele>394.9948425293</ele>
        <time>2018-04-26T10:13:22+0200</time>
      </trkpt>
      <trkpt lat="47.20356" lon="4.95381">
        <ele>395.03753662109</ele>
        <time>2018-04-26T10:13:25+0200</time>
      </trkpt>
      <trkpt lat="47.20357" lon="4.95384">
        <ele>395.03433227539</ele>
        <time>2018-04-26T10:13:28+0200</time>
      </trkpt>
      <trkpt lat="47.20357" lon="4.95386">
        <ele>394.87036132812</ele>
        <time>2018-04-26T10:13:31+0200</time>
      </trkpt>
      <trkpt lat="47.20357" lon="4.9539">
        <ele>394.70401000977</ele>
        <time>2018-04-26T10:13:34+0200</time>
      </trkpt>
      <trkpt lat="47.20356" lon="4.95396">
        <ele>394.5361328125</ele>
        <time>2018-04-26T10:13:37+0200</time>
      </trkpt>
      <trkpt lat="47.20355" lon="4.954">
        <ele>394.32061767578</ele>
        <time>2018-04-26T10:13:40+0200</time>
      </trkpt>
      <trkpt lat="47.20355" lon="4.95403">
        <ele>394.04138183594</ele>
        <time>2018-04-26T10:13:43+0200</time>
      </trkpt>
      <trkpt lat="47.20355" lon="4.95407">
        <ele>393.76211547852</ele>
        <time>2018-04-26T10:13:46+0200</time>
      </trkpt>
      <trkpt lat="47.20354" lon="4.9541">
        <ele>393.4905090332</ele>
        <time>2018-04-26T10:13:49+0200</time>
      </trkpt>
      <trkpt lat="47.20354" lon="4.95413">
        <ele>393.21813964844</ele>
        <time>2018-04-26T10:13:52+0200</time>
      </trkpt>
      <trkpt lat="47.20353" lon="4.95417">
        <ele>392.92654418945</ele>
        <time>2018-04-26T10:13:55+0200</time>
      </trkpt>
      <trkpt lat="47.20352" lon="4.9542">
        <ele>392.59191894531</ele>
        <time>2018-04-26T10:13:58+0200</time>
      </trkpt>
      <trkpt lat="47.20351" lon="4.95425">
        <ele>392.32806396484</ele>
        <time>2018-04-26T10:14:01+0200</time>
      </trkpt>
      <trkpt lat="47.2035" lon="4.95428">
        <ele>392.15826416016</ele>
        <time>2018-04-26T10:14:04+0200</time>
      </trkpt>
      <trkpt lat="47.20349" lon="4.95433">
        <ele>392.03939819336</ele>
        <time>2018-04-26T10:14:07+0200</time>
      </trkpt>
      <trkpt lat="47.20347" lon="4.95437">
        <ele>391.95782470703</ele>
        <time>2018-04-26T10:14:10+0200</time>
      </trkpt>
      <trkpt lat="47.20346" lon="4.95439">
        <ele>391.87069702148</ele>
        <time>2018-04-26T10:14:13+0200</time>
      </trkpt>
      <trkpt lat="47.20346" lon="4.95444">
        <ele>391.76910400391</ele>
        <time>2018-04-26T10:14:16+0200</time>
      </trkpt>
      <trkpt lat="47.20345" lon="4.95449">
        <ele>391.64083862305</ele>
        <time>2018-04-26T10:14:19+0200</time>
      </trkpt>
      <trkpt lat="47.20345" lon="4.95452">
        <ele>391.5432434082</ele>
        <time>2018-04-26T10:14:22+0200</time>
      </trkpt>
      <trkpt lat="47.20345" lon="4.95454">
        <ele>391.36337280273</ele>
        <time>2018-04-26T10:14:25+0200</time>
      </trkpt>
      <trkpt lat="47.20345" lon="4.95459">
        <ele>391.13760375977</ele>
        <time>2018-04-26T10:14:28+0200</time>
      </trkpt>
      <trkpt lat="47.20346" lon="4.95463">
        <ele>390.85348510742</ele>
        <time>2018-04-26T10:14:31+0200</time>
      </trkpt>
      <trkpt lat="47.20346" lon="4.95467">
        <ele>390.57827758789</ele>
        <time>2018-04-26T10:14:34+0200</time>
      </trkpt>
      <trkpt lat="47.20347" lon="4.95471">
        <ele>390.27969360352</ele>
        <time>2018-04-26T10:14:37+0200</time>
      </trkpt>
      <trkpt lat="47.20347" lon="4.95475">
        <ele>389.98550415039</ele>
        <time>2018-04-26T10:14:40+0200</time>
      </trkpt>
      <trkpt lat="47.20347" lon="4.9548">
        <ele>389.74444580078</ele>
        <time>2018-04-26T10:14:43+0200</time>
      </trkpt>
      <trkpt lat="47.20348" lon="4.95483">
        <ele>389.61181640625</ele>
        <time>2018-04-26T10:14:46+0200</time>
      </trkpt>
      <trkpt lat="47.20349" lon="4.95487">
        <ele>389.49914550781</ele>
        <time>2018-04-26T10:14:49+0200</time>
      </trkpt>
      <trkpt lat="47.20351" lon="4.95491">
        <ele>389.41345214844</ele>
        <time>2018-04-26T10:14:52+0200</time>
      </trkpt>
      <trkpt lat="47.20352" lon="4.95495">
        <ele>389.33160400391</ele>
        <time>2018-04-26T10:14:55+0200</time>
      </trkpt>
      <trkpt lat="47.20353" lon="4.95499">
        <ele>389.21697998047</ele>
        <time>2018-04-26T10:14:58+0200</time>
      </trkpt>
      <trkpt lat="47.20353" lon="4.95502">
        <ele>389.11135864258</ele>
        <time>2018-04-26T10:15:01+0200</time>
      </trkpt>
      <trkpt lat="47.20354" lon="4.95505">
        <ele>388.95599365234</ele>
        <time>2018-04-26T10:15:04+0200</time>
      </trkpt>
      <trkpt lat="47.20354" lon="4.95509">
        <ele>388.85501098633</ele>
        <time>2018-04-26T10:15:07+0200</time>
      </trkpt>
      <trkpt lat="47.20355" lon="4.95513">
        <ele>388.79483032227</ele>
        <time>2018-04-26T10:15:10+0200</time>
      </trkpt>
      <trkpt lat="47.20356" lon="4.95518">
        <ele>388.74493408203</ele>
        <time>2018-04-26T10:15:13+0200</time>
      </trkpt>
      <trkpt lat="47.20357" lon="4.95522">
        <ele>388.70037841797</ele>
        <time>2018-04-26T10:15:16+0200</time>
      </trkpt>
      <trkpt lat="47.20358" lon="4.95527">
        <ele>388.56900024414</ele>
        <time>2018-04-26T10:15:19+0200</time>
      </trkpt>
      <trkpt lat="47.20359" lon="4.95531">
        <ele>388.36813354492</ele>
        <time>2018-04-26T10:15:22+0200</time>
      </trkpt>
      <trkpt lat="47.2036" lon="4.95535">
        <ele>388.19369506836</ele>
        <time>2018-04-26T10:15:25+0200</time>
      </trkpt>
      <trkpt lat="47.20362" lon="4.95539">
        <ele>388.03210449219</ele>
        <time>2018-04-26T10:15:28+0200</time>
      </trkpt>
      <trkpt lat="47.20363" lon="4.95543">
        <ele>387.80810546875</ele>
        <time>2018-04-26T10:15:31+0200</time>
      </trkpt>
      <trkpt lat="47.20364" lon="4.95547">
        <ele>387.51705932617</ele>
        <time>2018-04-26T10:15:34+0200</time>
      </trkpt>
      <trkpt lat="47.20366" lon="4.95552">
        <ele>387.15396118164</ele>
        <time>2018-04-26T10:15:37+0200</time>
      </trkpt>
      <trkpt lat="47.20367" lon="4.95555">
        <ele>386.81640625</ele>
        <time>2018-04-26T10:15:40+0200</time>
      </trkpt>
      <trkpt lat="47.20368" lon="4.9556">
        <ele>386.53421020508</ele>
        <time>2018-04-26T10:15:43+0200</time>
      </trkpt>
      <trkpt lat="47.2037" lon="4.95563">
        <ele>386.25796508789</ele>
        <time>2018-04-26T10:15:46+0200</time>
      </trkpt>
      <trkpt lat="47.20372" lon="4.95568">
        <ele>385.89538574219</ele>
        <time>2018-04-26T10:15:49+0200</time>
      </trkpt>
      <trkpt lat="47.20373" lon="4.95573">
        <ele>385.42852783203</ele>
        <time>2018-04-26T10:15:52+0200</time>
      </trkpt>
      <trkpt lat="47.20372" lon="4.95576">
        <ele>384.97354125977</ele>
        <time>2018-04-26T10:15:55+0200</time>
      </trkpt>
      <trkpt lat="47.20372" lon="4.95576">
        <ele>384.53567504883</ele>
        <time>2018-04-26T10:15:58+0200</time>
      </trkpt>
      <trkpt lat="47.20372" lon="4.95579">
        <ele>384.27084350586</ele>
        <time>2018-04-26T10:16:01+0200</time>
      </trkpt>
      <trkpt lat="47.20372" lon="4.9558">
        <ele>383.9580078125</ele>
        <time>2018-04-26T10:16:04+0200</time>
      </trkpt>
      <trkpt lat="47.20372" lon="4.9558">
        <ele>383.91348266602</ele>
        <time>2018-04-26T10:16:07+0200</time>
      </trkpt>
      <trkpt lat="47.20372" lon="4.9558">
        <ele>383.85836791992</ele>
        <time>2018-04-26T10:16:10+0200</time>
      </trkpt>
      <trkpt lat="47.20372" lon="4.9558">
        <ele>383.80117797852</ele>
        <time>2018-04-26T10:16:13+0200</time>
      </trkpt>
      <trkpt lat="47.20372" lon="4.95579">
        <ele>383.31280517578</ele>
        <time>2018-04-26T10:16:16+0200</time>
      </trkpt>
      <trkpt lat="47.20372" lon="4.95582">
        <ele>382.87994384766</ele>
        <time>2018-04-26T10:16:19+0200</time>
      </trkpt>
      <trkpt lat="47.20372" lon="4.95583">
        <ele>382.79959106445</ele>
        <time>2018-04-26T10:16:22+0200</time>
      </trkpt>
      <trkpt lat="47.20373" lon="4.95583">
        <ele>382.72756958008</ele>
        <time>2018-04-26T10:16:25+0200</time>
      </trkpt>
      <trkpt lat="47.20373" lon="4.95583">
        <ele>382.66775512695</ele>
        <time>2018-04-26T10:16:28+0200</time>
      </trkpt>
      <trkpt lat="47.20372" lon="4.95583">
        <ele>382.61340332031</ele>
        <time>2018-04-26T10:16:31+0200</time>
      </trkpt>
      <trkpt lat="47.20372" lon="4.95584">
        <ele>382.56130981445</ele>
        <time>2018-04-26T10:16:34+0200</time>
      </trkpt>
      <trkpt lat="47.20372" lon="4.95584">
        <ele>382.50088500977</ele>
        <time>2018-04-26T10:16:37+0200</time>
      </trkpt>
      <trkpt lat="47.20372" lon="4.95584">
        <ele>382.43002319336</ele>
        <time>2018-04-26T10:16:40+0200</time>
      </trkpt>
      <trkpt lat="47.20373" lon="4.95584">
        <ele>382.08917236328</ele>
        <time>2018-04-26T10:16:43+0200</time>
      </trkpt>
      <trkpt lat="47.20373" lon="4.95584">
        <ele>381.51129150391</ele>
        <time>2018-04-26T10:16:46+0200</time>
      </trkpt>
      <trkpt lat="47.20372" lon="4.95584">
        <ele>381.43069458008</ele>
        <time>2018-04-26T10:16:49+0200</time>
      </trkpt>
      <trkpt lat="47.20372" lon="4.95585">
        <ele>381.3498840332</ele>
        <time>2018-04-26T10:16:52+0200</time>
      </trkpt>
      <trkpt lat="47.20372" lon="4.95584">
        <ele>381.27490234375</ele>
        <time>2018-04-26T10:16:55+0200</time>
      </trkpt>
      <trkpt lat="47.20372" lon="4.95584">
        <ele>381.19863891602</ele>
        <time>2018-04-26T10:16:58+0200</time>
      </trkpt>
      <trkpt lat="47.20372" lon="4.95584">
        <ele>381.1296081543</ele>
        <time>2018-04-26T10:17:01+0200</time>
      </trkpt>
      <trkpt lat="47.20372" lon="4.95584">
        <ele>381.06991577148</ele>
        <time>2018-04-26T10:17:04+0200</time>
      </trkpt>
      <trkpt lat="47.20372" lon="4.95584">
        <ele>381.00268554688</ele>
        <time>2018-04-26T10:17:07+0200</time>
      </trkpt>
      <trkpt lat="47.20372" lon="4.95584">
        <ele>380.91918945312</ele>
        <time>2018-04-26T10:17:10+0200</time>
      </trkpt>
      <trkpt lat="47.20372" lon="4.95584">
        <ele>380.84020996094</ele>
        <time>2018-04-26T10:17:13+0200</time>
      </trkpt>
      <trkpt lat="47.20371" lon="4.95584">
        <ele>380.7805480957</ele>
        <time>2018-04-26T10:17:16+0200</time>
      </trkpt>
      <trkpt lat="47.20371" lon="4.95587">
        <ele>380.48501586914</ele>
        <time>2018-04-26T10:17:19+0200</time>
      </trkpt>
      <trkpt lat="47.2037" lon="4.95589">
        <ele>380.19076538086</ele>
        <time>2018-04-26T10:17:22+0200</time>
      </trkpt>
      <trkpt lat="47.20368" lon="4.9559">
        <ele>379.84594726562</ele>
        <time>2018-04-26T10:17:25+0200</time>
      </trkpt>
      <trkpt lat="47.20367" lon="4.95591">
        <ele>379.48098754883</ele>
        <time>2018-04-26T10:17:28+0200</time>
      </trkpt>
      <trkpt lat="47.20366" lon="4.95593">
        <ele>379.19430541992</ele>
        <time>2018-04-26T10:17:31+0200</time>
      </trkpt>
      <trkpt lat="47.20363" lon="4.95595">
        <ele>378.93350219727</ele>
        <time>2018-04-26T10:17:34+0200</time>
      </trkpt>
      <trkpt lat="47.2036" lon="4.95595">
        <ele>378.70974731445</ele>
        <time>2018-04-26T10:17:37+0200</time>
      </trkpt>
      <trkpt lat="47.20358" lon="4.95597">
        <ele>378.4560546875</ele>
        <time>2018-04-26T10:17:40+0200</time>
      </trkpt>
      <trkpt lat="47.20353" lon="4.95598">
        <ele>378.06314086914</ele>
        <time>2018-04-26T10:17:43+0200</time>
      </trkpt>
      <trkpt lat="47.20353" lon="4.95597">
        <ele>377.63684082031</ele>
        <time>2018-04-26T10:17:46+0200</time>
      </trkpt>
      <trkpt lat="47.20348" lon="4.95597">
        <ele>377.2555847168</ele>
        <time>2018-04-26T10:17:49+0200</time>
      </trkpt>
      <trkpt lat="47.20347" lon="4.95599">
        <ele>376.88110351562</ele>
        <time>2018-04-26T10:17:52+0200</time>
      </trkpt>
      <trkpt lat="47.20343" lon="4.95598">
        <ele>376.52639770508</ele>
        <time>2018-04-26T10:17:55+0200</time>
      </trkpt>
      <trkpt lat="47.2034" lon="4.95598">
        <ele>376.28787231445</ele>
        <time>2018-04-26T10:17:58+0200</time>
      </trkpt>
      <trkpt lat="47.20339" lon="4.95597">
        <ele>376.05880737305</ele>
        <time>2018-04-26T10:18:01+0200</time>
      </trkpt>
      <trkpt lat="47.20337" lon="4.95597">
        <ele>375.86666870117</ele>
        <time>2018-04-26T10:18:04+0200</time>
      </trkpt>
      <trkpt lat="47.20333" lon="4.95598">
        <ele>375.74035644531</ele>
        <time>2018-04-26T10:18:07+0200</time>
      </trkpt>
      <trkpt lat="47.20331" lon="4.95599">
        <ele>375.60879516602</ele>
        <time>2018-04-26T10:18:10+0200</time>
      </trkpt>
      <trkpt lat="47.20328" lon="4.956">
        <ele>375.376953125</ele>
        <time>2018-04-26T10:18:13+0200</time>
      </trkpt>
      <trkpt lat="47.20325" lon="4.956">
        <ele>375.15798950195</ele>
        <time>2018-04-26T10:18:16+0200</time>
      </trkpt>
      <trkpt lat="47.20324" lon="4.956">
        <ele>375.02233886719</ele>
        <time>2018-04-26T10:18:19+0200</time>
      </trkpt>
      <trkpt lat="47.2032" lon="4.956">
        <ele>374.92858886719</ele>
        <time>2018-04-26T10:18:22+0200</time>
      </trkpt>
      <trkpt lat="47.20319" lon="4.95601">
        <ele>374.87612915039</ele>
        <time>2018-04-26T10:18:25+0200</time>
      </trkpt>
      <trkpt lat="47.20316" lon="4.95601">
        <ele>374.81311035156</ele>
        <time>2018-04-26T10:18:28+0200</time>
      </trkpt>
      <trkpt lat="47.20313" lon="4.95601">
        <ele>374.70596313477</ele>
        <time>2018-04-26T10:18:31+0200</time>
      </trkpt>
      <trkpt lat="47.20309" lon="4.95604">
        <ele>374.62426757812</ele>
        <time>2018-04-26T10:18:34+0200</time>
      </trkpt>
      <trkpt lat="47.20309" lon="4.95604">
        <ele>374.46417236328</ele>
        <time>2018-04-26T10:18:37+0200</time>
      </trkpt>
      <trkpt lat="47.20309" lon="4.95603">
        <ele>374.2375793457</ele>
        <time>2018-04-26T10:18:40+0200</time>
      </trkpt>
      <trkpt lat="47.20305" lon="4.95605">
        <ele>373.96981811523</ele>
        <time>2018-04-26T10:18:43+0200</time>
      </trkpt>
      <trkpt lat="47.20304" lon="4.95605">
        <ele>373.93664550781</ele>
        <time>2018-04-26T10:18:46+0200</time>
      </trkpt>
      <trkpt lat="47.20304" lon="4.95605">
        <ele>373.81167602539</ele>
        <time>2018-04-26T10:18:49+0200</time>
      </trkpt>
      <trkpt lat="47.20303" lon="4.95605">
        <ele>373.69256591797</ele>
        <time>2018-04-26T10:18:52+0200</time>
      </trkpt>
      <trkpt lat="47.203" lon="4.95604">
        <ele>373.52725219727</ele>
        <time>2018-04-26T10:18:55+0200</time>
      </trkpt>
      <trkpt lat="47.20297" lon="4.95603">
        <ele>373.41027832031</ele>
        <time>2018-04-26T10:18:58+0200</time>
      </trkpt>
      <trkpt lat="47.20295" lon="4.95603">
        <ele>373.39724731445</ele>
        <time>2018-04-26T10:19:01+0200</time>
      </trkpt>
      <trkpt lat="47.2029" lon="4.95602">
        <ele>373.41387939453</ele>
        <time>2018-04-26T10:19:04+0200</time>
      </trkpt>
      <trkpt lat="47.20285" lon="4.95602">
        <ele>373.39178466797</ele>
        <time>2018-04-26T10:19:07+0200</time>
      </trkpt>
      <trkpt lat="47.20282" lon="4.95604">
        <ele>373.36151123047</ele>
        <time>2018-04-26T10:19:10+0200</time>
      </trkpt>
      <trkpt lat="47.20282" lon="4.95604">
        <ele>373.31134033203</ele>
        <time>2018-04-26T10:19:13+0200</time>
      </trkpt>
      <trkpt lat="47.2028" lon="4.95602">
        <ele>373.22229003906</ele>
        <time>2018-04-26T10:19:16+0200</time>
      </trkpt>
      <trkpt lat="47.20278" lon="4.95602">
        <ele>373.01126098633</ele>
        <time>2018-04-26T10:19:19+0200</time>
      </trkpt>
      <trkpt lat="47.20274" lon="4.95602">
        <ele>372.81637573242</ele>
        <time>2018-04-26T10:19:22+0200</time>
      </trkpt>
      <trkpt lat="47.2027" lon="4.95602">
        <ele>372.69677734375</ele>
        <time>2018-04-26T10:19:25+0200</time>
      </trkpt>
      <trkpt lat="47.20268" lon="4.95604">
        <ele>372.62973022461</ele>
        <time>2018-04-26T10:19:28+0200</time>
      </trkpt>
      <trkpt lat="47.20266" lon="4.95603">
        <ele>372.66229248047</ele>
        <time>2018-04-26T10:19:31+0200</time>
      </trkpt>
      <trkpt lat="47.20263" lon="4.95604">
        <ele>372.90521240234</ele>
        <time>2018-04-26T10:19:34+0200</time>
      </trkpt>
      <trkpt lat="47.2026" lon="4.95604">
        <ele>373.25646972656</ele>
        <time>2018-04-26T10:19:37+0200</time>
      </trkpt>
      <trkpt lat="47.20258" lon="4.95604">
        <ele>373.52352905273</ele>
        <time>2018-04-26T10:19:40+0200</time>
      </trkpt>
      <trkpt lat="47.20255" lon="4.95603">
        <ele>373.76321411133</ele>
        <time>2018-04-26T10:19:43+0200</time>
      </trkpt>
      <trkpt lat="47.20253" lon="4.95604">
        <ele>373.80816650391</ele>
        <time>2018-04-26T10:19:46+0200</time>
      </trkpt>
      <trkpt lat="47.2025" lon="4.95604">
        <ele>373.72439575195</ele>
        <time>2018-04-26T10:19:49+0200</time>
      </trkpt>
      <trkpt lat="47.20247" lon="4.95603">
        <ele>373.69744873047</ele>
        <time>2018-04-26T10:19:52+0200</time>
      </trkpt>
      <trkpt lat="47.20244" lon="4.95602">
        <ele>373.71655273438</ele>
        <time>2018-04-26T10:19:55+0200</time>
      </trkpt>
      <trkpt lat="47.20242" lon="4.95602">
        <ele>373.70498657227</ele>
        <time>2018-04-26T10:19:58+0200</time>
      </trkpt>
      <trkpt lat="47.20239" lon="4.95603">
        <ele>373.71487426758</ele>
        <time>2018-04-26T10:20:01+0200</time>
      </trkpt>
      <trkpt lat="47.20235" lon="4.95601">
        <ele>373.71658325195</ele>
        <time>2018-04-26T10:20:04+0200</time>
      </trkpt>
      <trkpt lat="47.20234" lon="4.95603">
        <ele>373.59994506836</ele>
        <time>2018-04-26T10:20:07+0200</time>
      </trkpt>
      <trkpt lat="47.20234" lon="4.95604">
        <ele>373.23010253906</ele>
        <time>2018-04-26T10:20:10+0200</time>
      </trkpt>
      <trkpt lat="47.20232" lon="4.95604">
        <ele>372.83688354492</ele>
        <time>2018-04-26T10:20:13+0200</time>
      </trkpt>
      <trkpt lat="47.20229" lon="4.95604">
        <ele>372.41836547852</ele>
        <time>2018-04-26T10:20:16+0200</time>
      </trkpt>
      <trkpt lat="47.20224" lon="4.95601">
        <ele>372.08740234375</ele>
        <time>2018-04-26T10:20:19+0200</time>
      </trkpt>
      <trkpt lat="47.2022" lon="4.95601">
        <ele>371.97155761719</ele>
        <time>2018-04-26T10:20:22+0200</time>
      </trkpt>
      <trkpt lat="47.20218" lon="4.95601">
        <ele>371.91235351562</ele>
        <time>2018-04-26T10:20:25+0200</time>
      </trkpt>
      <trkpt lat="47.20216" lon="4.95603">
        <ele>371.7239074707</ele>
        <time>2018-04-26T10:20:28+0200</time>
      </trkpt>
      <trkpt lat="47.20214" lon="4.95602">
        <ele>371.29455566406</ele>
        <time>2018-04-26T10:20:31+0200</time>
      </trkpt>
      <trkpt lat="47.20213" lon="4.95604">
        <ele>370.81762695312</ele>
        <time>2018-04-26T10:20:34+0200</time>
      </trkpt>
      <trkpt lat="47.20211" lon="4.95605">
        <ele>370.44180297852</ele>
        <time>2018-04-26T10:20:37+0200</time>
      </trkpt>
      <trkpt lat="47.20207" lon="4.95604">
        <ele>370.13262939453</ele>
        <time>2018-04-26T10:20:40+0200</time>
      </trkpt>
      <trkpt lat="47.20205" lon="4.95605">
        <ele>369.79476928711</ele>
        <time>2018-04-26T10:20:43+0200</time>
      </trkpt>
      <trkpt lat="47.20202" lon="4.95606">
        <ele>369.63494873047</ele>
        <time>2018-04-26T10:20:46+0200</time>
      </trkpt>
      <trkpt lat="47.20202" lon="4.95607">
        <ele>369.53341674805</ele>
        <time>2018-04-26T10:20:49+0200</time>
      </trkpt>
      <trkpt lat="47.20198" lon="4.95606">
        <ele>369.27145385742</ele>
        <time>2018-04-26T10:20:52+0200</time>
      </trkpt>
      <trkpt lat="47.20192" lon="4.95604">
        <ele>368.74621582031</ele>
        <time>2018-04-26T10:20:55+0200</time>
      </trkpt>
      <trkpt lat="47.20188" lon="4.95605">
        <ele>368.14266967773</ele>
        <time>2018-04-26T10:20:58+0200</time>
      </trkpt>
      <trkpt lat="47.20183" lon="4.95607">
        <ele>367.58041381836</ele>
        <time>2018-04-26T10:21:01+0200</time>
      </trkpt>
      <trkpt lat="47.20181" lon="4.95608">
        <ele>367.09872436523</ele>
        <time>2018-04-26T10:21:04+0200</time>
      </trkpt>
      <trkpt lat="47.2018" lon="4.95609">
        <ele>366.70324707031</ele>
        <time>2018-04-26T10:21:07+0200</time>
      </trkpt>
      <trkpt lat="47.20176" lon="4.9561">
        <ele>366.33602905273</ele>
        <time>2018-04-26T10:21:10+0200</time>
      </trkpt>
      <trkpt lat="47.20173" lon="4.95611">
        <ele>366.00085449219</ele>
        <time>2018-04-26T10:21:13+0200</time>
      </trkpt>
      <trkpt lat="47.20169" lon="4.95611">
        <ele>365.65484619141</ele>
        <time>2018-04-26T10:21:16+0200</time>
      </trkpt>
      <trkpt lat="47.20165" lon="4.9561">
        <ele>365.29711914062</ele>
        <time>2018-04-26T10:21:19+0200</time>
      </trkpt>
      <trkpt lat="47.20162" lon="4.9561">
        <ele>364.90115356445</ele>
        <time>2018-04-26T10:21:22+0200</time>
      </trkpt>
      <trkpt lat="47.20159" lon="4.9561">
        <ele>364.44320678711</ele>
        <time>2018-04-26T10:21:25+0200</time>
      </trkpt>
      <trkpt lat="47.20155" lon="4.9561">
        <ele>363.95785522461</ele>
        <time>2018-04-26T10:21:28+0200</time>
      </trkpt>
      <trkpt lat="47.20151" lon="4.9561">
        <ele>363.39044189453</ele>
        <time>2018-04-26T10:21:31+0200</time>
      </trkpt>
      <trkpt lat="47.20148" lon="4.95609">
        <ele>362.79809570312</ele>
        <time>2018-04-26T10:21:34+0200</time>
      </trkpt>
      <trkpt lat="47.20148" lon="4.95608">
        <ele>362.27410888672</ele>
        <time>2018-04-26T10:21:37+0200</time>
      </trkpt>
      <trkpt lat="47.20145" lon="4.95606">
        <ele>361.9885559082</ele>
        <time>2018-04-26T10:21:40+0200</time>
      </trkpt>
      <trkpt lat="47.20141" lon="4.95605">
        <ele>361.45162963867</ele>
        <time>2018-04-26T10:21:43+0200</time>
      </trkpt>
      <trkpt lat="47.20137" lon="4.95604">
        <ele>360.81622314453</ele>
        <time>2018-04-26T10:21:46+0200</time>
      </trkpt>
      <trkpt lat="47.20133" lon="4.95604">
        <ele>360.1296081543</ele>
        <time>2018-04-26T10:21:49+0200</time>
      </trkpt>
      <trkpt lat="47.20129" lon="4.95604">
        <ele>359.39105224609</ele>
        <time>2018-04-26T10:21:52+0200</time>
      </trkpt>
      <trkpt lat="47.20128" lon="4.95603">
        <ele>358.70962524414</ele>
        <time>2018-04-26T10:21:55+0200</time>
      </trkpt>
      <trkpt lat="47.20128" lon="4.95601">
        <ele>358.083984375</ele>
        <time>2018-04-26T10:21:58+0200</time>
      </trkpt>
      <trkpt lat="47.20124" lon="4.95601">
        <ele>357.42367553711</ele>
        <time>2018-04-26T10:22:01+0200</time>
      </trkpt>
      <trkpt lat="47.20121" lon="4.956">
        <ele>356.69787597656</ele>
        <time>2018-04-26T10:22:04+0200</time>
      </trkpt>
      <trkpt lat="47.2012" lon="4.956">
        <ele>356.01947021484</ele>
        <time>2018-04-26T10:22:07+0200</time>
      </trkpt>
      <trkpt lat="47.20116" lon="4.95599">
        <ele>355.38998413086</ele>
        <time>2018-04-26T10:22:10+0200</time>
      </trkpt>
      <trkpt lat="47.20113" lon="4.95597">
        <ele>354.80889892578</ele>
        <time>2018-04-26T10:22:13+0200</time>
      </trkpt>
      <trkpt lat="47.2011" lon="4.95595">
        <ele>354.32562255859</ele>
        <time>2018-04-26T10:22:16+0200</time>
      </trkpt>
      <trkpt lat="47.20108" lon="4.95593">
        <ele>353.87518310547</ele>
        <time>2018-04-26T10:22:19+0200</time>
      </trkpt>
      <trkpt lat="47.20105" lon="4.9559">
        <ele>353.41934204102</ele>
        <time>2018-04-26T10:22:22+0200</time>
      </trkpt>
      <trkpt lat="47.20103" lon="4.95587">
        <ele>352.90930175781</ele>
        <time>2018-04-26T10:22:25+0200</time>
      </trkpt>
      <trkpt lat="47.20102" lon="4.95586">
        <ele>352.38494873047</ele>
        <time>2018-04-26T10:22:28+0200</time>
      </trkpt>
      <trkpt lat="47.20102" lon="4.95583">
        <ele>351.91296386719</ele>
        <time>2018-04-26T10:22:31+0200</time>
      </trkpt>
      <trkpt lat="47.20099" lon="4.95579">
        <ele>351.42929077148</ele>
        <time>2018-04-26T10:22:34+0200</time>
      </trkpt>
      <trkpt lat="47.20099" lon="4.95577">
        <ele>350.90618896484</ele>
        <time>2018-04-26T10:22:37+0200</time>
      </trkpt>
      <trkpt lat="47.20096" lon="4.95573">
        <ele>350.39038085938</ele>
        <time>2018-04-26T10:22:40+0200</time>
      </trkpt>
      <trkpt lat="47.20094" lon="4.9557">
        <ele>349.91809082031</ele>
        <time>2018-04-26T10:22:43+0200</time>
      </trkpt>
      <trkpt lat="47.20093" lon="4.95566">
        <ele>349.51028442383</ele>
        <time>2018-04-26T10:22:46+0200</time>
      </trkpt>
      <trkpt lat="47.20093" lon="4.95563">
        <ele>349.08947753906</ele>
        <time>2018-04-26T10:22:49+0200</time>
      </trkpt>
      <trkpt lat="47.20091" lon="4.95559">
        <ele>348.67291259766</ele>
        <time>2018-04-26T10:22:52+0200</time>
      </trkpt>
      <trkpt lat="47.20092" lon="4.95555">
        <ele>348.21911621094</ele>
        <time>2018-04-26T10:22:55+0200</time>
      </trkpt>
      <trkpt lat="47.20092" lon="4.95551">
        <ele>347.77969360352</ele>
        <time>2018-04-26T10:22:58+0200</time>
      </trkpt>
      <trkpt lat="47.20091" lon="4.95546">
        <ele>347.35510253906</ele>
        <time>2018-04-26T10:23:01+0200</time>
      </trkpt>
      <trkpt lat="47.2009" lon="4.95543">
        <ele>346.92007446289</ele>
        <time>2018-04-26T10:23:04+0200</time>
      </trkpt>
      <trkpt lat="47.2009" lon="4.95539">
        <ele>346.48577880859</ele>
        <time>2018-04-26T10:23:07+0200</time>
      </trkpt>
      <trkpt lat="47.2009" lon="4.95536">
        <ele>346.10272216797</ele>
        <time>2018-04-26T10:23:10+0200</time>
      </trkpt>
      <trkpt lat="47.20089" lon="4.95532">
        <ele>345.74285888672</ele>
        <time>2018-04-26T10:23:13+0200</time>
      </trkpt>
      <trkpt lat="47.20088" lon="4.95529">
        <ele>345.43817138672</ele>
        <time>2018-04-26T10:23:16+0200</time>
      </trkpt>
      <trkpt lat="47.20087" lon="4.95525">
        <ele>345.21340942383</ele>
        <time>2018-04-26T10:23:19+0200</time>
      </trkpt>
      <trkpt lat="47.20085" lon="4.95522">
        <ele>345.0036315918</ele>
        <time>2018-04-26T10:23:22+0200</time>
      </trkpt>
      <trkpt lat="47.20083" lon="4.95519">
        <ele>344.7395324707</ele>
        <time>2018-04-26T10:23:25+0200</time>
      </trkpt>
      <trkpt lat="47.20081" lon="4.95518">
        <ele>344.52059936523</ele>
        <time>2018-04-26T10:23:28+0200</time>
      </trkpt>
      <trkpt lat="47.20079" lon="4.95518">
        <ele>344.24713134766</ele>
        <time>2018-04-26T10:23:31+0200</time>
      </trkpt>
      <trkpt lat="47.20077" lon="4.95521">
        <ele>344.0032043457</ele>
        <time>2018-04-26T10:23:34+0200</time>
      </trkpt>
      <trkpt lat="47.20075" lon="4.95525">
        <ele>343.70614624023</ele>
        <time>2018-04-26T10:23:37+0200</time>
      </trkpt>
      <trkpt lat="47.20074" lon="4.95529">
        <ele>343.36477661133</ele>
        <time>2018-04-26T10:23:40+0200</time>
      </trkpt>
      <trkpt lat="47.20074" lon="4.95532">
        <ele>343.07049560547</ele>
        <time>2018-04-26T10:23:43+0200</time>
      </trkpt>
      <trkpt lat="47.20074" lon="4.95535">
        <ele>342.81723022461</ele>
        <time>2018-04-26T10:23:46+0200</time>
      </trkpt>
      <trkpt lat="47.20074" lon="4.95539">
        <ele>342.57629394531</ele>
        <time>2018-04-26T10:23:49+0200</time>
      </trkpt>
      <trkpt lat="47.20074" lon="4.95544">
        <ele>342.28106689453</ele>
        <time>2018-04-26T10:23:52+0200</time>
      </trkpt>
      <trkpt lat="47.20074" lon="4.95548">
        <ele>341.88031005859</ele>
        <time>2018-04-26T10:23:55+0200</time>
      </trkpt>
      <trkpt lat="47.20074" lon="4.95552">
        <ele>341.48373413086</ele>
        <time>2018-04-26T10:23:58+0200</time>
      </trkpt>
      <trkpt lat="47.20073" lon="4.95556">
        <ele>341.11972045898</ele>
        <time>2018-04-26T10:24:01+0200</time>
      </trkpt>
      <trkpt lat="47.20073" lon="4.9556">
        <ele>340.72866821289</ele>
        <time>2018-04-26T10:24:04+0200</time>
      </trkpt>
      <trkpt lat="47.20072" lon="4.95564">
        <ele>340.29699707031</ele>
        <time>2018-04-26T10:24:07+0200</time>
      </trkpt>
      <trkpt lat="47.20072" lon="4.95568">
        <ele>339.86825561523</ele>
        <time>2018-04-26T10:24:10+0200</time>
      </trkpt>
      <trkpt lat="47.20072" lon="4.95571">
        <ele>339.46572875977</ele>
        <time>2018-04-26T10:24:13+0200</time>
      </trkpt>
      <trkpt lat="47.2007" lon="4.95576">
        <ele>339.1640625</ele>
        <time>2018-04-26T10:24:16+0200</time>
      </trkpt>
      <trkpt lat="47.2007" lon="4.9558">
        <ele>338.86849975586</ele>
        <time>2018-04-26T10:24:19+0200</time>
      </trkpt>
      <trkpt lat="47.2007" lon="4.95583">
        <ele>338.62899780273</ele>
        <time>2018-04-26T10:24:22+0200</time>
      </trkpt>
      <trkpt lat="47.20071" lon="4.95587">
        <ele>338.40002441406</ele>
        <time>2018-04-26T10:24:25+0200</time>
      </trkpt>
      <trkpt lat="47.20071" lon="4.95591">
        <ele>338.12426757812</ele>
        <time>2018-04-26T10:24:28+0200</time>
      </trkpt>
      <trkpt lat="47.20071" lon="4.95593">
        <ele>337.85498046875</ele>
        <time>2018-04-26T10:24:31+0200</time>
      </trkpt>
      <trkpt lat="47.20071" lon="4.95595">
        <ele>337.73822021484</ele>
        <time>2018-04-26T10:24:34+0200</time>
      </trkpt>
      <trkpt lat="47.2007" lon="4.956">
        <ele>337.65621948242</ele>
        <time>2018-04-26T10:24:37+0200</time>
      </trkpt>
      <trkpt lat="47.20069" lon="4.95604">
        <ele>337.54336547852</ele>
        <time>2018-04-26T10:24:40+0200</time>
      </trkpt>
      <trkpt lat="47.20068" lon="4.9561">
        <ele>337.38619995117</ele>
        <time>2018-04-26T10:24:43+0200</time>
      </trkpt>
      <trkpt lat="47.20069" lon="4.95613">
        <ele>337.28393554688</ele>
        <time>2018-04-26T10:24:46+0200</time>
      </trkpt>
      <trkpt lat="47.20069" lon="4.95618">
        <ele>337.16223144531</ele>
        <time>2018-04-26T10:24:49+0200</time>
      </trkpt>
      <trkpt lat="47.20069" lon="4.95623">
        <ele>336.95303344727</ele>
        <time>2018-04-26T10:24:52+0200</time>
      </trkpt>
      <trkpt lat="47.20068" lon="4.95627">
        <ele>336.6770324707</ele>
        <time>2018-04-26T10:24:55+0200</time>
      </trkpt>
      <trkpt lat="47.20068" lon="4.9563">
        <ele>336.37368774414</ele>
        <time>2018-04-26T10:24:58+0200</time>
      </trkpt>
      <trkpt lat="47.20068" lon="4.95632">
        <ele>336.12966918945</ele>
        <time>2018-04-26T10:25:01+0200</time>
      </trkpt>
      <trkpt lat="47.20067" lon="4.95636">
        <ele>335.89575195312</ele>
        <time>2018-04-26T10:25:04+0200</time>
      </trkpt>
      <trkpt lat="47.20066" lon="4.95641">
        <ele>335.61965942383</ele>
        <time>2018-04-26T10:25:07+0200</time>
      </trkpt>
      <trkpt lat="47.20066" lon="4.95645">
        <ele>335.34008789062</ele>
        <time>2018-04-26T10:25:10+0200</time>
      </trkpt>
      <trkpt lat="47.20065" lon="4.95649">
        <ele>335.04528808594</ele>
        <time>2018-04-26T10:25:13+0200</time>
      </trkpt>
      <trkpt lat="47.20064" lon="4.95653">
        <ele>334.75726318359</ele>
        <time>2018-04-26T10:25:16+0200</time>
      </trkpt>
      <trkpt lat="47.20063" lon="4.95657">
        <ele>334.47775268555</ele>
        <time>2018-04-26T10:25:19+0200</time>
      </trkpt>
      <trkpt lat="47.20063" lon="4.95659">
        <ele>334.2900390625</ele>
        <time>2018-04-26T10:25:22+0200</time>
      </trkpt>
      <trkpt lat="47.20062" lon="4.95663">
        <ele>334.07797241211</ele>
        <time>2018-04-26T10:25:25+0200</time>
      </trkpt>
      <trkpt lat="47.20063" lon="4.95668">
        <ele>333.78723144531</ele>
        <time>2018-04-26T10:25:28+0200</time>
      </trkpt>
      <trkpt lat="47.20063" lon="4.95671">
        <ele>333.45129394531</ele>
        <time>2018-04-26T10:25:31+0200</time>
      </trkpt>
      <trkpt lat="47.20062" lon="4.95676">
        <ele>333.09585571289</ele>
        <time>2018-04-26T10:25:34+0200</time>
      </trkpt>
      <trkpt lat="47.20061" lon="4.95679">
        <ele>332.73471069336</ele>
        <time>2018-04-26T10:25:37+0200</time>
      </trkpt>
      <trkpt lat="47.2006" lon="4.95682">
        <ele>332.34625244141</ele>
        <time>2018-04-26T10:25:40+0200</time>
      </trkpt>
      <trkpt lat="47.2006" lon="4.95685">
        <ele>331.9895324707</ele>
        <time>2018-04-26T10:25:43+0200</time>
      </trkpt>
      <trkpt lat="47.2006" lon="4.95687">
        <ele>331.63836669922</ele>
        <time>2018-04-26T10:25:46+0200</time>
      </trkpt>
      <trkpt lat="47.2006" lon="4.95691">
        <ele>331.24975585938</ele>
        <time>2018-04-26T10:25:49+0200</time>
      </trkpt>
      <trkpt lat="47.20059" lon="4.95694">
        <ele>330.82489013672</ele>
        <time>2018-04-26T10:25:53+0200</time>
      </trkpt>
      <trkpt lat="47.20059" lon="4.95698">
        <ele>330.36010742188</ele>
        <time>2018-04-26T10:25:56+0200</time>
      </trkpt>
      <trkpt lat="47.2006" lon="4.957">
        <ele>329.86465454102</ele>
        <time>2018-04-26T10:25:59+0200</time>
      </trkpt>
      <trkpt lat="47.20061" lon="4.95702">
        <ele>329.51721191406</ele>
        <time>2018-04-26T10:26:02+0200</time>
      </trkpt>
      <trkpt lat="47.20061" lon="4.95702">
        <ele>329.46520996094</ele>
        <time>2018-04-26T10:26:05+0200</time>
      </trkpt>
      <trkpt lat="47.20061" lon="4.95704">
        <ele>329.10208129883</ele>
        <time>2018-04-26T10:26:08+0200</time>
      </trkpt>
      <trkpt lat="47.20061" lon="4.95706">
        <ele>328.63403320312</ele>
        <time>2018-04-26T10:26:11+0200</time>
      </trkpt>
      <trkpt lat="47.20062" lon="4.95708">
        <ele>328.24319458008</ele>
        <time>2018-04-26T10:26:14+0200</time>
      </trkpt>
      <trkpt lat="47.20062" lon="4.95713">
        <ele>327.9147644043</ele>
        <time>2018-04-26T10:26:17+0200</time>
      </trkpt>
      <trkpt lat="47.20061" lon="4.95716">
        <ele>327.54504394531</ele>
        <time>2018-04-26T10:26:20+0200</time>
      </trkpt>
      <trkpt lat="47.20061" lon="4.95719">
        <ele>327.1643371582</ele>
        <time>2018-04-26T10:26:23+0200</time>
      </trkpt>
      <trkpt lat="47.20062" lon="4.95722">
        <ele>326.82049560547</ele>
        <time>2018-04-26T10:26:26+0200</time>
      </trkpt>
      <trkpt lat="47.20062" lon="4.95723">
        <ele>326.53945922852</ele>
        <time>2018-04-26T10:26:29+0200</time>
      </trkpt>
      <trkpt lat="47.20063" lon="4.95725">
        <ele>326.3957824707</ele>
        <time>2018-04-26T10:26:32+0200</time>
      </trkpt>
      <trkpt lat="47.20063" lon="4.95725">
        <ele>326.37573242188</ele>
        <time>2018-04-26T10:26:35+0200</time>
      </trkpt>
      <trkpt lat="47.20063" lon="4.95726">
        <ele>326.23477172852</ele>
        <time>2018-04-26T10:26:38+0200</time>
      </trkpt>
      <trkpt lat="47.20063" lon="4.95727">
        <ele>326.10034179688</ele>
        <time>2018-04-26T10:26:41+0200</time>
      </trkpt>
      <trkpt lat="47.20062" lon="4.9573">
        <ele>326.02325439453</ele>
        <time>2018-04-26T10:26:44+0200</time>
      </trkpt>
      <trkpt lat="47.20063" lon="4.95732">
        <ele>325.97354125977</ele>
        <time>2018-04-26T10:26:47+0200</time>
      </trkpt>
      <trkpt lat="47.20064" lon="4.95736">
        <ele>325.9123840332</ele>
        <time>2018-04-26T10:26:50+0200</time>
      </trkpt>
      <trkpt lat="47.20065" lon="4.9574">
        <ele>325.75213623047</ele>
        <time>2018-04-26T10:26:53+0200</time>
      </trkpt>
      <trkpt lat="47.20066" lon="4.95741">
        <ele>325.59646606445</ele>
        <time>2018-04-26T10:26:56+0200</time>
      </trkpt>
      <trkpt lat="47.20066" lon="4.95743">
        <ele>325.52182006836</ele>
        <time>2018-04-26T10:26:59+0200</time>
      </trkpt>
      <trkpt lat="47.20067" lon="4.95746">
        <ele>325.34811401367</ele>
        <time>2018-04-26T10:27:02+0200</time>
      </trkpt>
      <trkpt lat="47.20067" lon="4.95749">
        <ele>325.05850219727</ele>
        <time>2018-04-26T10:27:05+0200</time>
      </trkpt>
      <trkpt lat="47.20068" lon="4.95752">
        <ele>324.76712036133</ele>
        <time>2018-04-26T10:27:08+0200</time>
      </trkpt>
      <trkpt lat="47.20069" lon="4.95755">
        <ele>324.48760986328</ele>
        <time>2018-04-26T10:27:11+0200</time>
      </trkpt>
      <trkpt lat="47.20069" lon="4.95758">
        <ele>324.25247192383</ele>
        <time>2018-04-26T10:27:14+0200</time>
      </trkpt>
      <trkpt lat="47.20069" lon="4.9576">
        <ele>324.09228515625</ele>
        <time>2018-04-26T10:27:17+0200</time>
      </trkpt>
      <trkpt lat="47.20068" lon="4.95761">
        <ele>324.05108642578</ele>
        <time>2018-04-26T10:27:20+0200</time>
      </trkpt>
      <trkpt lat="47.20067" lon="4.95763">
        <ele>323.990234375</ele>
        <time>2018-04-26T10:27:23+0200</time>
      </trkpt>
      <trkpt lat="47.20066" lon="4.95764">
        <ele>323.99429321289</ele>
        <time>2018-04-26T10:27:26+0200</time>
      </trkpt>
      <trkpt lat="47.20066" lon="4.95767">
        <ele>324.08551025391</ele>
        <time>2018-04-26T10:27:29+0200</time>
      </trkpt>
      <trkpt lat="47.20066" lon="4.95771">
        <ele>324.12197875977</ele>
        <time>2018-04-26T10:27:32+0200</time>
      </trkpt>
      <trkpt lat="47.20065" lon="4.95774">
        <ele>324.08773803711</ele>
        <time>2018-04-26T10:27:35+0200</time>
      </trkpt>
      <trkpt lat="47.20064" lon="4.95776">
        <ele>324.02642822266</ele>
        <time>2018-04-26T10:27:38+0200</time>
      </trkpt>
      <trkpt lat="47.20064" lon="4.95777">
        <ele>324.0094909668</ele>
        <time>2018-04-26T10:27:41+0200</time>
      </trkpt>
      <trkpt lat="47.20065" lon="4.95777">
        <ele>323.91592407227</ele>
        <time>2018-04-26T10:27:44+0200</time>
      </trkpt>
      <trkpt lat="47.20064" lon="4.95779">
        <ele>323.84567260742</ele>
        <time>2018-04-26T10:27:47+0200</time>
      </trkpt>
      <trkpt lat="47.20064" lon="4.95781">
        <ele>323.82238769531</ele>
        <time>2018-04-26T10:27:50+0200</time>
      </trkpt>
      <trkpt lat="47.20064" lon="4.95781">
        <ele>323.71423339844</ele>
        <time>2018-04-26T10:27:53+0200</time>
      </trkpt>
      <trkpt lat="47.20064" lon="4.95781">
        <ele>323.69229125977</ele>
        <time>2018-04-26T10:27:56+0200</time>
      </trkpt>
      <trkpt lat="47.20063" lon="4.95781">
        <ele>323.73901367188</ele>
        <time>2018-04-26T10:27:59+0200</time>
      </trkpt>
      <trkpt lat="47.20065" lon="4.95786">
        <ele>323.77020263672</ele>
        <time>2018-04-26T10:28:02+0200</time>
      </trkpt>
      <trkpt lat="47.20066" lon="4.95789">
        <ele>323.67379760742</ele>
        <time>2018-04-26T10:28:05+0200</time>
      </trkpt>
      <trkpt lat="47.20067" lon="4.9579">
        <ele>323.63031005859</ele>
        <time>2018-04-26T10:28:08+0200</time>
      </trkpt>
      <trkpt lat="47.20067" lon="4.95792">
        <ele>323.57824707031</ele>
        <time>2018-04-26T10:28:11+0200</time>
      </trkpt>
      <trkpt lat="47.20069" lon="4.95797">
        <ele>323.56552124023</ele>
        <time>2018-04-26T10:28:14+0200</time>
      </trkpt>
      <trkpt lat="47.2007" lon="4.95801">
        <ele>323.45471191406</ele>
        <time>2018-04-26T10:28:17+0200</time>
      </trkpt>
      <trkpt lat="47.20071" lon="4.95803">
        <ele>323.29083251953</ele>
        <time>2018-04-26T10:28:20+0200</time>
      </trkpt>
      <trkpt lat="47.20071" lon="4.95803">
        <ele>323.27780151367</ele>
        <time>2018-04-26T10:28:23+0200</time>
      </trkpt>
      <trkpt lat="47.20071" lon="4.95804">
        <ele>323.26223754883</ele>
        <time>2018-04-26T10:28:26+0200</time>
      </trkpt>
      <trkpt lat="47.20071" lon="4.95804">
        <ele>323.24264526367</ele>
        <time>2018-04-26T10:28:29+0200</time>
      </trkpt>
      <trkpt lat="47.20072" lon="4.95804">
        <ele>323.1217956543</ele>
        <time>2018-04-26T10:28:32+0200</time>
      </trkpt>
      <trkpt lat="47.20074" lon="4.95809">
        <ele>322.76473999023</ele>
        <time>2018-04-26T10:28:35+0200</time>
      </trkpt>
      <trkpt lat="47.20075" lon="4.95811">
        <ele>322.38247680664</ele>
        <time>2018-04-26T10:28:38+0200</time>
      </trkpt>
      <trkpt lat="47.20076" lon="4.95812">
        <ele>322.04141235352</ele>
        <time>2018-04-26T10:28:41+0200</time>
      </trkpt>
      <trkpt lat="47.20076" lon="4.95812">
        <ele>321.96347045898</ele>
        <time>2018-04-26T10:28:44+0200</time>
      </trkpt>
      <trkpt lat="47.20075" lon="4.95813">
        <ele>321.85778808594</ele>
        <time>2018-04-26T10:28:47+0200</time>
      </trkpt>
      <trkpt lat="47.20076" lon="4.95814">
        <ele>321.81304931641</ele>
        <time>2018-04-26T10:28:50+0200</time>
      </trkpt>
      <trkpt lat="47.20078" lon="4.95817">
        <ele>321.71185302734</ele>
        <time>2018-04-26T10:28:53+0200</time>
      </trkpt>
      <trkpt lat="47.20078" lon="4.95818">
        <ele>321.68075561523</ele>
        <time>2018-04-26T10:28:56+0200</time>
      </trkpt>
      <trkpt lat="47.20078" lon="4.95821">
        <ele>321.31958007812</ele>
        <time>2018-04-26T10:28:59+0200</time>
      </trkpt>
      <trkpt lat="47.2008" lon="4.95822">
        <ele>321.11331176758</ele>
        <time>2018-04-26T10:29:02+0200</time>
      </trkpt>
      <trkpt lat="47.20081" lon="4.95824">
        <ele>320.81784057617</ele>
        <time>2018-04-26T10:29:05+0200</time>
      </trkpt>
      <trkpt lat="47.20082" lon="4.95827">
        <ele>320.55252075195</ele>
        <time>2018-04-26T10:29:08+0200</time>
      </trkpt>
      <trkpt lat="47.20083" lon="4.95829">
        <ele>320.33868408203</ele>
        <time>2018-04-26T10:29:11+0200</time>
      </trkpt>
      <trkpt lat="47.20082" lon="4.95834">
        <ele>320.18215942383</ele>
        <time>2018-04-26T10:29:14+0200</time>
      </trkpt>
      <trkpt lat="47.20081" lon="4.95837">
        <ele>320.0361328125</ele>
        <time>2018-04-26T10:29:17+0200</time>
      </trkpt>
      <trkpt lat="47.2008" lon="4.95841">
        <ele>319.91250610352</ele>
        <time>2018-04-26T10:29:20+0200</time>
      </trkpt>
      <trkpt lat="47.20079" lon="4.95843">
        <ele>319.82418823242</ele>
        <time>2018-04-26T10:29:23+0200</time>
      </trkpt>
      <trkpt lat="47.2008" lon="4.95847">
        <ele>319.61758422852</ele>
        <time>2018-04-26T10:29:26+0200</time>
      </trkpt>
      <trkpt lat="47.20079" lon="4.95851">
        <ele>319.26782226562</ele>
        <time>2018-04-26T10:29:29+0200</time>
      </trkpt>
      <trkpt lat="47.20078" lon="4.95853">
        <ele>318.83587646484</ele>
        <time>2018-04-26T10:29:32+0200</time>
      </trkpt>
      <trkpt lat="47.20078" lon="4.95853">
        <ele>318.36923217773</ele>
        <time>2018-04-26T10:29:35+0200</time>
      </trkpt>
      <trkpt lat="47.20078" lon="4.95855">
        <ele>317.90060424805</ele>
        <time>2018-04-26T10:29:38+0200</time>
      </trkpt>
      <trkpt lat="47.20077" lon="4.95857">
        <ele>317.48162841797</ele>
        <time>2018-04-26T10:29:41+0200</time>
      </trkpt>
      <trkpt lat="47.20075" lon="4.95858">
        <ele>317.22201538086</ele>
        <time>2018-04-26T10:29:44+0200</time>
      </trkpt>
      <trkpt lat="47.20074" lon="4.95859">
        <ele>317.17987060547</ele>
        <time>2018-04-26T10:29:47+0200</time>
      </trkpt>
      <trkpt lat="47.20074" lon="4.95859">
        <ele>316.85061645508</ele>
        <time>2018-04-26T10:29:50+0200</time>
      </trkpt>
      <trkpt lat="47.20073" lon="4.95861">
        <ele>316.45697021484</ele>
        <time>2018-04-26T10:29:53+0200</time>
      </trkpt>
      <trkpt lat="47.20072" lon="4.95863">
        <ele>316.13232421875</ele>
        <time>2018-04-26T10:29:56+0200</time>
      </trkpt>
      <trkpt lat="47.2007" lon="4.95866">
        <ele>315.80578613281</ele>
        <time>2018-04-26T10:29:59+0200</time>
      </trkpt>
      <trkpt lat="47.20069" lon="4.95867">
        <ele>315.54507446289</ele>
        <time>2018-04-26T10:30:02+0200</time>
      </trkpt>
      <trkpt lat="47.20068" lon="4.95868">
        <ele>315.45007324219</ele>
        <time>2018-04-26T10:30:05+0200</time>
      </trkpt>
      <trkpt lat="47.20068" lon="4.95868">
        <ele>315.42785644531</ele>
        <time>2018-04-26T10:30:08+0200</time>
      </trkpt>
      <trkpt lat="47.20068" lon="4.95868">
        <ele>315.40542602539</ele>
        <time>2018-04-26T10:30:11+0200</time>
      </trkpt>
      <trkpt lat="47.20068" lon="4.95868">
        <ele>315.37802124023</ele>
        <time>2018-04-26T10:30:14+0200</time>
      </trkpt>
      <trkpt lat="47.20067" lon="4.95868">
        <ele>315.34356689453</ele>
        <time>2018-04-26T10:30:17+0200</time>
      </trkpt>
      <trkpt lat="47.20067" lon="4.95869">
        <ele>315.30462646484</ele>
        <time>2018-04-26T10:30:20+0200</time>
      </trkpt>
      <trkpt lat="47.20067" lon="4.95869">
        <ele>315.26638793945</ele>
        <time>2018-04-26T10:30:23+0200</time>
      </trkpt>
      <trkpt lat="47.20067" lon="4.95869">
        <ele>315.22888183594</ele>
        <time>2018-04-26T10:30:26+0200</time>
      </trkpt>
      <trkpt lat="47.20067" lon="4.95869">
        <ele>315.19186401367</ele>
        <time>2018-04-26T10:30:29+0200</time>
      </trkpt>
      <trkpt lat="47.20066" lon="4.95869">
        <ele>315.15759277344</ele>
        <time>2018-04-26T10:30:32+0200</time>
      </trkpt>
      <trkpt lat="47.20066" lon="4.95869">
        <ele>315.12066650391</ele>
        <time>2018-04-26T10:30:35+0200</time>
      </trkpt>
      <trkpt lat="47.20066" lon="4.9587">
        <ele>315.08020019531</ele>
        <time>2018-04-26T10:30:38+0200</time>
      </trkpt>
      <trkpt lat="47.20065" lon="4.9587">
        <ele>314.9140625</ele>
        <time>2018-04-26T10:30:41+0200</time>
      </trkpt>
      <trkpt lat="47.20065" lon="4.9587">
        <ele>314.87371826172</ele>
        <time>2018-04-26T10:30:44+0200</time>
      </trkpt>
      <trkpt lat="47.20065" lon="4.9587">
        <ele>314.83392333984</ele>
        <time>2018-04-26T10:30:47+0200</time>
      </trkpt>
      <trkpt lat="47.20065" lon="4.9587">
        <ele>314.43829345703</ele>
        <time>2018-04-26T10:30:50+0200</time>
      </trkpt>
      <trkpt lat="47.20064" lon="4.9587">
        <ele>314.40283203125</ele>
        <time>2018-04-26T10:30:53+0200</time>
      </trkpt>
      <trkpt lat="47.20064" lon="4.9587">
        <ele>314.3674621582</ele>
        <time>2018-04-26T10:30:56+0200</time>
      </trkpt>
      <trkpt lat="47.20064" lon="4.95871">
        <ele>314.33554077148</ele>
        <time>2018-04-26T10:30:59+0200</time>
      </trkpt>
      <trkpt lat="47.20064" lon="4.95871">
        <ele>314.3053894043</ele>
        <time>2018-04-26T10:31:02+0200</time>
      </trkpt>
      <trkpt lat="47.20064" lon="4.95871">
        <ele>314.27188110352</ele>
        <time>2018-04-26T10:31:05+0200</time>
      </trkpt>
      <trkpt lat="47.20064" lon="4.95871">
        <ele>314.23858642578</ele>
        <time>2018-04-26T10:31:08+0200</time>
      </trkpt>
      <trkpt lat="47.20064" lon="4.95871">
        <ele>314.20388793945</ele>
        <time>2018-04-26T10:31:11+0200</time>
      </trkpt>
      <trkpt lat="47.20064" lon="4.95871">
        <ele>314.17315673828</ele>
        <time>2018-04-26T10:31:14+0200</time>
      </trkpt>
      <trkpt lat="47.20063" lon="4.95874">
        <ele>314.14840698242</ele>
        <time>2018-04-26T10:31:17+0200</time>
      </trkpt>
      <trkpt lat="47.20063" lon="4.95874">
        <ele>314.1321105957</ele>
        <time>2018-04-26T10:31:20+0200</time>
      </trkpt>
      <trkpt lat="47.20063" lon="4.95874">
        <ele>314.08734130859</ele>
        <time>2018-04-26T10:31:23+0200</time>
      </trkpt>
      <trkpt lat="47.20062" lon="4.95875">
        <ele>313.97491455078</ele>
        <time>2018-04-26T10:31:26+0200</time>
      </trkpt>
      <trkpt lat="47.20061" lon="4.95876">
        <ele>313.75946044922</ele>
        <time>2018-04-26T10:31:29+0200</time>
      </trkpt>
      <trkpt lat="47.20061" lon="4.95877">
        <ele>313.50952148438</ele>
        <time>2018-04-26T10:31:32+0200</time>
      </trkpt>
      <trkpt lat="47.2006" lon="4.95877">
        <ele>313.48251342773</ele>
        <time>2018-04-26T10:31:35+0200</time>
      </trkpt>
      <trkpt lat="47.2006" lon="4.95877">
        <ele>313.36434936523</ele>
        <time>2018-04-26T10:31:38+0200</time>
      </trkpt>
      <trkpt lat="47.2006" lon="4.95878">
        <ele>313.1657409668</ele>
        <time>2018-04-26T10:31:41+0200</time>
      </trkpt>
      <trkpt lat="47.20058" lon="4.95878">
        <ele>313.13217163086</ele>
        <time>2018-04-26T10:31:44+0200</time>
      </trkpt>
      <trkpt lat="47.20058" lon="4.95878">
        <ele>313.08981323242</ele>
        <time>2018-04-26T10:31:47+0200</time>
      </trkpt>
      <trkpt lat="47.20058" lon="4.95878">
        <ele>313.04510498047</ele>
        <time>2018-04-26T10:31:50+0200</time>
      </trkpt>
      <trkpt lat="47.20058" lon="4.95878">
        <ele>312.99865722656</ele>
        <time>2018-04-26T10:31:53+0200</time>
      </trkpt>
      <trkpt lat="47.20058" lon="4.95878">
        <ele>312.94470214844</ele>
        <time>2018-04-26T10:31:56+0200</time>
      </trkpt>
      <trkpt lat="47.20058" lon="4.95878">
        <ele>312.87155151367</ele>
        <time>2018-04-26T10:31:59+0200</time>
      </trkpt>
      <trkpt lat="47.20057" lon="4.95878">
        <ele>312.6357421875</ele>
        <time>2018-04-26T10:32:02+0200</time>
      </trkpt>
      <trkpt lat="47.20055" lon="4.95878">
        <ele>312.15380859375</ele>
        <time>2018-04-26T10:32:05+0200</time>
      </trkpt>
      <trkpt lat="47.20053" lon="4.9588">
        <ele>311.78527832031</ele>
        <time>2018-04-26T10:32:08+0200</time>
      </trkpt>
      <trkpt lat="47.20052" lon="4.95882">
        <ele>311.51696777344</ele>
        <time>2018-04-26T10:32:11+0200</time>
      </trkpt>
      <trkpt lat="47.20052" lon="4.95884">
        <ele>311.30291748047</ele>
        <time>2018-04-26T10:32:14+0200</time>
      </trkpt>
      <trkpt lat="47.2005" lon="4.95886">
        <ele>311.12921142578</ele>
        <time>2018-04-26T10:32:17+0200</time>
      </trkpt>
      <trkpt lat="47.20048" lon="4.95889">
        <ele>310.96676635742</ele>
        <time>2018-04-26T10:32:20+0200</time>
      </trkpt>
      <trkpt lat="47.20047" lon="4.9589">
        <ele>310.82553100586</ele>
        <time>2018-04-26T10:32:23+0200</time>
      </trkpt>
      <trkpt lat="47.20046" lon="4.95891">
        <ele>310.61532592773</ele>
        <time>2018-04-26T10:32:26+0200</time>
      </trkpt>
      <trkpt lat="47.20044" lon="4.95893">
        <ele>310.33206176758</ele>
        <time>2018-04-26T10:32:29+0200</time>
      </trkpt>
      <trkpt lat="47.20043" lon="4.95894">
        <ele>310.06628417969</ele>
        <time>2018-04-26T10:32:32+0200</time>
      </trkpt>
      <trkpt lat="47.20041" lon="4.95897">
        <ele>309.82360839844</ele>
        <time>2018-04-26T10:32:35+0200</time>
      </trkpt>
      <trkpt lat="47.20039" lon="4.95899">
        <ele>309.57055664062</ele>
        <time>2018-04-26T10:32:38+0200</time>
      </trkpt>
      <trkpt lat="47.20037" lon="4.95901">
        <ele>309.27639770508</ele>
        <time>2018-04-26T10:32:41+0200</time>
      </trkpt>
      <trkpt lat="47.20037" lon="4.95902">
        <ele>308.98529052734</ele>
        <time>2018-04-26T10:32:44+0200</time>
      </trkpt>
      <trkpt lat="47.20035" lon="4.95905">
        <ele>308.71362304688</ele>
        <time>2018-04-26T10:32:47+0200</time>
      </trkpt>
      <trkpt lat="47.20033" lon="4.95907">
        <ele>308.41339111328</ele>
        <time>2018-04-26T10:32:50+0200</time>
      </trkpt>
      <trkpt lat="47.20032" lon="4.95908">
        <ele>308.05963134766</ele>
        <time>2018-04-26T10:32:53+0200</time>
      </trkpt>
      <trkpt lat="47.2003" lon="4.95911">
        <ele>307.67205810547</ele>
        <time>2018-04-26T10:32:56+0200</time>
      </trkpt>
      <trkpt lat="47.20028" lon="4.95913">
        <ele>307.29522705078</ele>
        <time>2018-04-26T10:32:59+0200</time>
      </trkpt>
      <trkpt lat="47.20027" lon="4.95915">
        <ele>306.88333129883</ele>
        <time>2018-04-26T10:33:02+0200</time>
      </trkpt>
      <trkpt lat="47.20026" lon="4.95918">
        <ele>306.49227905273</ele>
        <time>2018-04-26T10:33:05+0200</time>
      </trkpt>
      <trkpt lat="47.20024" lon="4.95921">
        <ele>306.06439208984</ele>
        <time>2018-04-26T10:33:08+0200</time>
      </trkpt>
      <trkpt lat="47.20022" lon="4.95923">
        <ele>305.62176513672</ele>
        <time>2018-04-26T10:33:11+0200</time>
      </trkpt>
      <trkpt lat="47.2002" lon="4.95925">
        <ele>305.1594543457</ele>
        <time>2018-04-26T10:33:14+0200</time>
      </trkpt>
      <trkpt lat="47.20019" lon="4.95926">
        <ele>304.69909667969</ele>
        <time>2018-04-26T10:33:17+0200</time>
      </trkpt>
      <trkpt lat="47.20017" lon="4.95928">
        <ele>304.2705078125</ele>
        <time>2018-04-26T10:33:20+0200</time>
      </trkpt>
      <trkpt lat="47.20016" lon="4.95931">
        <ele>303.84124755859</ele>
        <time>2018-04-26T10:33:23+0200</time>
      </trkpt>
      <trkpt lat="47.20014" lon="4.95933">
        <ele>303.38485717773</ele>
        <time>2018-04-26T10:33:26+0200</time>
      </trkpt>
      <trkpt lat="47.20011" lon="4.95935">
        <ele>302.94598388672</ele>
        <time>2018-04-26T10:33:29+0200</time>
      </trkpt>
      <trkpt lat="47.20009" lon="4.95938">
        <ele>302.65313720703</ele>
        <time>2018-04-26T10:33:32+0200</time>
      </trkpt>
      <trkpt lat="47.2001" lon="4.95939">
        <ele>302.61590576172</ele>
        <time>2018-04-26T10:33:35+0200</time>
      </trkpt>
      <trkpt lat="47.20009" lon="4.95939">
        <ele>302.40362548828</ele>
        <time>2018-04-26T10:33:38+0200</time>
      </trkpt>
      <trkpt lat="47.20009" lon="4.95939">
        <ele>302.20477294922</ele>
        <time>2018-04-26T10:33:41+0200</time>
      </trkpt>
      <trkpt lat="47.20007" lon="4.95939">
        <ele>301.91012573242</ele>
        <time>2018-04-26T10:33:44+0200</time>
      </trkpt>
      <trkpt lat="47.20006" lon="4.95939">
        <ele>301.87744140625</ele>
        <time>2018-04-26T10:33:47+0200</time>
      </trkpt>
      <trkpt lat="47.20006" lon="4.95938">
        <ele>301.837890625</ele>
        <time>2018-04-26T10:33:50+0200</time>
      </trkpt>
      <trkpt lat="47.20006" lon="4.95939">
        <ele>301.39245605469</ele>
        <time>2018-04-26T10:33:53+0200</time>
      </trkpt>
      <trkpt lat="47.20003" lon="4.9594">
        <ele>301.22186279297</ele>
        <time>2018-04-26T10:33:56+0200</time>
      </trkpt>
      <trkpt lat="47.20003" lon="4.9594">
        <ele>301.08135986328</ele>
        <time>2018-04-26T10:33:59+0200</time>
      </trkpt>
      <trkpt lat="47.20002" lon="4.95941">
        <ele>300.73822021484</ele>
        <time>2018-04-26T10:34:02+0200</time>
      </trkpt>
      <trkpt lat="47.20001" lon="4.95942">
        <ele>300.40872192383</ele>
        <time>2018-04-26T10:34:05+0200</time>
      </trkpt>
      <trkpt lat="47.19998" lon="4.95945">
        <ele>300.07943725586</ele>
        <time>2018-04-26T10:34:08+0200</time>
      </trkpt>
      <trkpt lat="47.19996" lon="4.95949">
        <ele>299.77160644531</ele>
        <time>2018-04-26T10:34:11+0200</time>
      </trkpt>
      <trkpt lat="47.19995" lon="4.9595">
        <ele>299.66195678711</ele>
        <time>2018-04-26T10:34:14+0200</time>
      </trkpt>
      <trkpt lat="47.19995" lon="4.9595">
        <ele>299.45202636719</ele>
        <time>2018-04-26T10:34:17+0200</time>
      </trkpt>
      <trkpt lat="47.19994" lon="4.95953">
        <ele>299.18728637695</ele>
        <time>2018-04-26T10:34:20+0200</time>
      </trkpt>
      <trkpt lat="47.19991" lon="4.95956">
        <ele>298.87075805664</ele>
        <time>2018-04-26T10:34:23+0200</time>
      </trkpt>
      <trkpt lat="47.1999" lon="4.95956">
        <ele>298.65173339844</ele>
        <time>2018-04-26T10:34:26+0200</time>
      </trkpt>
      <trkpt lat="47.19991" lon="4.95956">
        <ele>298.63418579102</ele>
        <time>2018-04-26T10:34:29+0200</time>
      </trkpt>
      <trkpt lat="47.19991" lon="4.95956">
        <ele>298.62258911133</ele>
        <time>2018-04-26T10:34:32+0200</time>
      </trkpt>
      <trkpt lat="47.19991" lon="4.95956">
        <ele>298.6123046875</ele>
        <time>2018-04-26T10:34:35+0200</time>
      </trkpt>
      <trkpt lat="47.19991" lon="4.95956">
        <ele>298.59948730469</ele>
        <time>2018-04-26T10:34:38+0200</time>
      </trkpt>
      <trkpt lat="47.19991" lon="4.95955">
        <ele>298.59133911133</ele>
        <time>2018-04-26T10:34:41+0200</time>
      </trkpt>
      <trkpt lat="47.19993" lon="4.95954">
        <ele>298.58596801758</ele>
        <time>2018-04-26T10:34:44+0200</time>
      </trkpt>
      <trkpt lat="47.19994" lon="4.95955">
        <ele>298.57461547852</ele>
        <time>2018-04-26T10:34:47+0200</time>
      </trkpt>
      <trkpt lat="47.19996" lon="4.95955">
        <ele>298.4426574707</ele>
        <time>2018-04-26T10:34:50+0200</time>
      </trkpt>
      <trkpt lat="47.19996" lon="4.95955">
        <ele>298.41915893555</ele>
        <time>2018-04-26T10:34:53+0200</time>
      </trkpt>
      <trkpt lat="47.19996" lon="4.95955">
        <ele>298.39297485352</ele>
        <time>2018-04-26T10:34:56+0200</time>
      </trkpt>
      <trkpt lat="47.19997" lon="4.95956">
        <ele>298.36679077148</ele>
        <time>2018-04-26T10:34:59+0200</time>
      </trkpt>
      <trkpt lat="47.19997" lon="4.95956">
        <ele>298.34118652344</ele>
        <time>2018-04-26T10:35:02+0200</time>
      </trkpt>
      <trkpt lat="47.19997" lon="4.95956">
        <ele>298.31405639648</ele>
        <time>2018-04-26T10:35:05+0200</time>
      </trkpt>
      <trkpt lat="47.19997" lon="4.95956">
        <ele>298.28656005859</ele>
        <time>2018-04-26T10:35:08+0200</time>
      </trkpt>
      <trkpt lat="47.19997" lon="4.95955">
        <ele>298.26171875</ele>
        <time>2018-04-26T10:35:11+0200</time>
      </trkpt>
      <trkpt lat="47.19995" lon="4.95956">
        <ele>298.18206787109</ele>
        <time>2018-04-26T10:35:14+0200</time>
      </trkpt>
      <trkpt lat="47.19996" lon="4.95957">
        <ele>298.12033081055</ele>
        <time>2018-04-26T10:35:17+0200</time>
      </trkpt>
      <trkpt lat="47.19997" lon="4.95959">
        <ele>298.01501464844</ele>
        <time>2018-04-26T10:35:20+0200</time>
      </trkpt>
      <trkpt lat="47.20001" lon="4.95961">
        <ele>297.91632080078</ele>
        <time>2018-04-26T10:35:23+0200</time>
      </trkpt>
      <trkpt lat="47.20002" lon="4.95961">
        <ele>297.90460205078</ele>
        <time>2018-04-26T10:35:26+0200</time>
      </trkpt>
      <trkpt lat="47.20002" lon="4.95961">
        <ele>297.88775634766</ele>
        <time>2018-04-26T10:35:29+0200</time>
      </trkpt>
      <trkpt lat="47.20003" lon="4.95961">
        <ele>297.86999511719</ele>
        <time>2018-04-26T10:35:32+0200</time>
      </trkpt>
      <trkpt lat="47.20004" lon="4.95961">
        <ele>297.85739135742</ele>
        <time>2018-04-26T10:35:35+0200</time>
      </trkpt>
      <trkpt lat="47.20003" lon="4.95959">
        <ele>297.8166809082</ele>
        <time>2018-04-26T10:35:38+0200</time>
      </trkpt>
      <trkpt lat="47.20001" lon="4.95958">
        <ele>297.78231811523</ele>
        <time>2018-04-26T10:35:41+0200</time>
      </trkpt>
      <trkpt lat="47.19998" lon="4.95958">
        <ele>297.73333740234</ele>
        <time>2018-04-26T10:35:44+0200</time>
      </trkpt>
      <trkpt lat="47.19994" lon="4.9596">
        <ele>297.7138671875</ele>
        <time>2018-04-26T10:35:47+0200</time>
      </trkpt>
      <trkpt lat="47.19993" lon="4.95961">
        <ele>297.66662597656</ele>
        <time>2018-04-26T10:35:50+0200</time>
      </trkpt>
      <trkpt lat="47.19991" lon="4.95962">
        <ele>297.64196777344</ele>
        <time>2018-04-26T10:35:53+0200</time>
      </trkpt>
      <trkpt lat="47.1999" lon="4.95965">
        <ele>297.59768676758</ele>
        <time>2018-04-26T10:35:56+0200</time>
      </trkpt>
      <trkpt lat="47.1999" lon="4.95967">
        <ele>297.45236206055</ele>
        <time>2018-04-26T10:35:59+0200</time>
      </trkpt>
      <trkpt lat="47.1999" lon="4.9597">
        <ele>297.24472045898</ele>
        <time>2018-04-26T10:36:02+0200</time>
      </trkpt>
      <trkpt lat="47.1999" lon="4.95975">
        <ele>297.01846313477</ele>
        <time>2018-04-26T10:36:05+0200</time>
      </trkpt>
      <trkpt lat="47.19989" lon="4.95979">
        <ele>296.79095458984</ele>
        <time>2018-04-26T10:36:08+0200</time>
      </trkpt>
      <trkpt lat="47.19988" lon="4.95983">
        <ele>296.53771972656</ele>
        <time>2018-04-26T10:36:11+0200</time>
      </trkpt>
      <trkpt lat="47.19988" lon="4.95987">
        <ele>296.3303527832</ele>
        <time>2018-04-26T10:36:14+0200</time>
      </trkpt>
      <trkpt lat="47.19987" lon="4.95989">
        <ele>296.14520263672</ele>
        <time>2018-04-26T10:36:17+0200</time>
      </trkpt>
      <trkpt lat="47.19987" lon="4.95991">
        <ele>295.94357299805</ele>
        <time>2018-04-26T10:36:20+0200</time>
      </trkpt>
      <trkpt lat="47.19986" lon="4.95995">
        <ele>295.72476196289</ele>
        <time>2018-04-26T10:36:23+0200</time>
      </trkpt>
      <trkpt lat="47.19985" lon="4.96">
        <ele>295.52893066406</ele>
        <time>2018-04-26T10:36:26+0200</time>
      </trkpt>
      <trkpt lat="47.19983" lon="4.96004">
        <ele>295.28921508789</ele>
        <time>2018-04-26T10:36:29+0200</time>
      </trkpt>
      <trkpt lat="47.19983" lon="4.96008">
        <ele>295.04406738281</ele>
        <time>2018-04-26T10:36:32+0200</time>
      </trkpt>
      <trkpt lat="47.19981" lon="4.96012">
        <ele>294.85848999023</ele>
        <time>2018-04-26T10:36:35+0200</time>
      </trkpt>
      <trkpt lat="47.19979" lon="4.96016">
        <ele>294.66235351562</ele>
        <time>2018-04-26T10:36:38+0200</time>
      </trkpt>
      <trkpt lat="47.19978" lon="4.96018">
        <ele>294.45114135742</ele>
        <time>2018-04-26T10:36:41+0200</time>
      </trkpt>
      <trkpt lat="47.19976" lon="4.96023">
        <ele>294.24652099609</ele>
        <time>2018-04-26T10:36:44+0200</time>
      </trkpt>
      <trkpt lat="47.19973" lon="4.96027">
        <ele>294.03854370117</ele>
        <time>2018-04-26T10:36:47+0200</time>
      </trkpt>
      <trkpt lat="47.1997" lon="4.96031">
        <ele>293.85891723633</ele>
        <time>2018-04-26T10:36:50+0200</time>
      </trkpt>
      <trkpt lat="47.1997" lon="4.96034">
        <ele>293.69281005859</ele>
        <time>2018-04-26T10:36:53+0200</time>
      </trkpt>
      <trkpt lat="47.19968" lon="4.96038">
        <ele>293.53366088867</ele>
        <time>2018-04-26T10:36:56+0200</time>
      </trkpt>
      <trkpt lat="47.1997" lon="4.96038">
        <ele>293.39077758789</ele>
        <time>2018-04-26T10:36:59+0200</time>
      </trkpt>
      <trkpt lat="47.19972" lon="4.96038">
        <ele>293.36566162109</ele>
        <time>2018-04-26T10:37:02+0200</time>
      </trkpt>
      <trkpt lat="47.19972" lon="4.96044">
        <ele>293.33337402344</ele>
        <time>2018-04-26T10:37:05+0200</time>
      </trkpt>
      <trkpt lat="47.19973" lon="4.96044">
        <ele>293.29440307617</ele>
        <time>2018-04-26T10:37:08+0200</time>
      </trkpt>
      <trkpt lat="47.19973" lon="4.96044">
        <ele>293.23965454102</ele>
        <time>2018-04-26T10:37:11+0200</time>
      </trkpt>
      <trkpt lat="47.19972" lon="4.96045">
        <ele>293.18276977539</ele>
        <time>2018-04-26T10:37:14+0200</time>
      </trkpt>
      <trkpt lat="47.19971" lon="4.96048">
        <ele>292.63293457031</ele>
        <time>2018-04-26T10:37:17+0200</time>
      </trkpt>
      <trkpt lat="47.1997" lon="4.9605">
        <ele>292.11376953125</ele>
        <time>2018-04-26T10:37:20+0200</time>
      </trkpt>
      <trkpt lat="47.19968" lon="4.96052">
        <ele>291.70077514648</ele>
        <time>2018-04-26T10:37:23+0200</time>
      </trkpt>
      <trkpt lat="47.19967" lon="4.96055">
        <ele>291.41052246094</ele>
        <time>2018-04-26T10:37:26+0200</time>
      </trkpt>
      <trkpt lat="47.19965" lon="4.96057">
        <ele>291.27029418945</ele>
        <time>2018-04-26T10:37:29+0200</time>
      </trkpt>
      <trkpt lat="47.19964" lon="4.9606">
        <ele>291.21282958984</ele>
        <time>2018-04-26T10:37:32+0200</time>
      </trkpt>
      <trkpt lat="47.19962" lon="4.96063">
        <ele>291.25802612305</ele>
        <time>2018-04-26T10:37:35+0200</time>
      </trkpt>
      <trkpt lat="47.19959" lon="4.96068">
        <ele>291.30853271484</ele>
        <time>2018-04-26T10:37:38+0200</time>
      </trkpt>
      <trkpt lat="47.19956" lon="4.96073">
        <ele>291.26861572266</ele>
        <time>2018-04-26T10:37:41+0200</time>
      </trkpt>
      <trkpt lat="47.19952" lon="4.96076">
        <ele>291.15246582031</ele>
        <time>2018-04-26T10:37:44+0200</time>
      </trkpt>
      <trkpt lat="47.1995" lon="4.96079">
        <ele>291.00369262695</ele>
        <time>2018-04-26T10:37:47+0200</time>
      </trkpt>
      <trkpt lat="47.19949" lon="4.96082">
        <ele>290.91732788086</ele>
        <time>2018-04-26T10:37:50+0200</time>
      </trkpt>
      <trkpt lat="47.19947" lon="4.96088">
        <ele>290.77749633789</ele>
        <time>2018-04-26T10:37:53+0200</time>
      </trkpt>
      <trkpt lat="47.19946" lon="4.96092">
        <ele>290.57586669922</ele>
        <time>2018-04-26T10:37:56+0200</time>
      </trkpt>
      <trkpt lat="47.19944" lon="4.96094">
        <ele>290.32119750977</ele>
        <time>2018-04-26T10:37:59+0200</time>
      </trkpt>
      <trkpt lat="47.19941" lon="4.96097">
        <ele>290.12545776367</ele>
        <time>2018-04-26T10:38:02+0200</time>
      </trkpt>
      <trkpt lat="47.19941" lon="4.96099">
        <ele>289.99212646484</ele>
        <time>2018-04-26T10:38:05+0200</time>
      </trkpt>
      <trkpt lat="47.19941" lon="4.96102">
        <ele>289.95663452148</ele>
        <time>2018-04-26T10:38:08+0200</time>
      </trkpt>
      <trkpt lat="47.19937" lon="4.96112">
        <ele>289.88073730469</ele>
        <time>2018-04-26T10:38:11+0200</time>
      </trkpt>
      <trkpt lat="47.19938" lon="4.96114">
        <ele>289.71194458008</ele>
        <time>2018-04-26T10:38:14+0200</time>
      </trkpt>
      <trkpt lat="47.19939" lon="4.96118">
        <ele>289.59661865234</ele>
        <time>2018-04-26T10:38:17+0200</time>
      </trkpt>
      <trkpt lat="47.19939" lon="4.96122">
        <ele>289.57113647461</ele>
        <time>2018-04-26T10:38:20+0200</time>
      </trkpt>
      <trkpt lat="47.19939" lon="4.96126">
        <ele>289.57266235352</ele>
        <time>2018-04-26T10:38:23+0200</time>
      </trkpt>
      <trkpt lat="47.19938" lon="4.96131">
        <ele>289.61853027344</ele>
        <time>2018-04-26T10:38:26+0200</time>
      </trkpt>
      <trkpt lat="47.19937" lon="4.96135">
        <ele>289.62692260742</ele>
        <time>2018-04-26T10:38:29+0200</time>
      </trkpt>
      <trkpt lat="47.19936" lon="4.9614">
        <ele>289.61865234375</ele>
        <time>2018-04-26T10:38:32+0200</time>
      </trkpt>
      <trkpt lat="47.19934" lon="4.96143">
        <ele>289.59045410156</ele>
        <time>2018-04-26T10:38:35+0200</time>
      </trkpt>
      <trkpt lat="47.19932" lon="4.96145">
        <ele>289.60211181641</ele>
        <time>2018-04-26T10:38:38+0200</time>
      </trkpt>
      <trkpt lat="47.1993" lon="4.96149">
        <ele>289.67385864258</ele>
        <time>2018-04-26T10:38:41+0200</time>
      </trkpt>
      <trkpt lat="47.19928" lon="4.96154">
        <ele>289.83023071289</ele>
        <time>2018-04-26T10:38:44+0200</time>
      </trkpt>
      <trkpt lat="47.19927" lon="4.96158">
        <ele>290.00161743164</ele>
        <time>2018-04-26T10:38:47+0200</time>
      </trkpt>
      <trkpt lat="47.19926" lon="4.96162">
        <ele>290.15112304688</ele>
        <time>2018-04-26T10:38:50+0200</time>
      </trkpt>
      <trkpt lat="47.19927" lon="4.96167">
        <ele>290.18112182617</ele>
        <time>2018-04-26T10:38:53+0200</time>
      </trkpt>
      <trkpt lat="47.19927" lon="4.96173">
        <ele>290.06884765625</ele>
        <time>2018-04-26T10:38:56+0200</time>
      </trkpt>
      <trkpt lat="47.19927" lon="4.96177">
        <ele>289.92846679688</ele>
        <time>2018-04-26T10:38:59+0200</time>
      </trkpt>
      <trkpt lat="47.19926" lon="4.9618">
        <ele>289.84558105469</ele>
        <time>2018-04-26T10:39:02+0200</time>
      </trkpt>
      <trkpt lat="47.19925" lon="4.96185">
        <ele>289.84283447266</ele>
        <time>2018-04-26T10:39:05+0200</time>
      </trkpt>
      <trkpt lat="47.19925" lon="4.96187">
        <ele>289.78494262695</ele>
        <time>2018-04-26T10:39:08+0200</time>
      </trkpt>
      <trkpt lat="47.19925" lon="4.96188">
        <ele>289.74752807617</ele>
        <time>2018-04-26T10:39:11+0200</time>
      </trkpt>
      <trkpt lat="47.1993" lon="4.96191">
        <ele>289.72503662109</ele>
        <time>2018-04-26T10:39:14+0200</time>
      </trkpt>
      <trkpt lat="47.19934" lon="4.96194">
        <ele>289.75778198242</ele>
        <time>2018-04-26T10:39:17+0200</time>
      </trkpt>
      <trkpt lat="47.19936" lon="4.96196">
        <ele>289.8830871582</ele>
        <time>2018-04-26T10:39:20+0200</time>
      </trkpt>
      <trkpt lat="47.19941" lon="4.96198">
        <ele>290.08450317383</ele>
        <time>2018-04-26T10:39:22+0200</time>
      </trkpt>
      <trkpt lat="47.19942" lon="4.96198">
        <ele>290.30972290039</ele>
        <time>2018-04-26T10:39:25+0200</time>
      </trkpt>
      <trkpt lat="47.19944" lon="4.96202">
        <ele>290.32452392578</ele>
        <time>2018-04-26T10:39:28+0200</time>
      </trkpt>
      <trkpt lat="47.19949" lon="4.96203">
        <ele>290.09243774414</ele>
        <time>2018-04-26T10:39:31+0200</time>
      </trkpt>
      <trkpt lat="47.19952" lon="4.96203">
        <ele>289.82269287109</ele>
        <time>2018-04-26T10:39:34+0200</time>
      </trkpt>
      <trkpt lat="47.19954" lon="4.96203">
        <ele>289.62496948242</ele>
        <time>2018-04-26T10:39:37+0200</time>
      </trkpt>
      <trkpt lat="47.19956" lon="4.96203">
        <ele>289.54708862305</ele>
        <time>2018-04-26T10:39:40+0200</time>
      </trkpt>
      <trkpt lat="47.19959" lon="4.96204">
        <ele>289.52822875977</ele>
        <time>2018-04-26T10:39:43+0200</time>
      </trkpt>
      <trkpt lat="47.19961" lon="4.96204">
        <ele>289.59808349609</ele>
        <time>2018-04-26T10:39:46+0200</time>
      </trkpt>
      <trkpt lat="47.19965" lon="4.96205">
        <ele>289.69802856445</ele>
        <time>2018-04-26T10:39:49+0200</time>
      </trkpt>
      <trkpt lat="47.19968" lon="4.96207">
        <ele>289.61370849609</ele>
        <time>2018-04-26T10:39:52+0200</time>
      </trkpt>
      <trkpt lat="47.1997" lon="4.96207">
        <ele>289.43838500977</ele>
        <time>2018-04-26T10:39:55+0200</time>
      </trkpt>
      <trkpt lat="47.19973" lon="4.96207">
        <ele>289.28637695312</ele>
        <time>2018-04-26T10:39:58+0200</time>
      </trkpt>
      <trkpt lat="47.19976" lon="4.96206">
        <ele>289.15072631836</ele>
        <time>2018-04-26T10:40:01+0200</time>
      </trkpt>
      <trkpt lat="47.19979" lon="4.96206">
        <ele>289.02465820312</ele>
        <time>2018-04-26T10:40:04+0200</time>
      </trkpt>
      <trkpt lat="47.19982" lon="4.96207">
        <ele>288.83569335938</ele>
        <time>2018-04-26T10:40:07+0200</time>
      </trkpt>
      <trkpt lat="47.19984" lon="4.96209">
        <ele>288.75238037109</ele>
        <time>2018-04-26T10:40:10+0200</time>
      </trkpt>
      <trkpt lat="47.19984" lon="4.96209">
        <ele>288.73355102539</ele>
        <time>2018-04-26T10:40:13+0200</time>
      </trkpt>
      <trkpt lat="47.19987" lon="4.96207">
        <ele>288.54428100586</ele>
        <time>2018-04-26T10:40:16+0200</time>
      </trkpt>
      <trkpt lat="47.19991" lon="4.96205">
        <ele>288.32275390625</ele>
        <time>2018-04-26T10:40:19+0200</time>
      </trkpt>
      <trkpt lat="47.19994" lon="4.96204">
        <ele>288.12796020508</ele>
        <time>2018-04-26T10:40:22+0200</time>
      </trkpt>
      <trkpt lat="47.19996" lon="4.96204">
        <ele>287.92987060547</ele>
        <time>2018-04-26T10:40:25+0200</time>
      </trkpt>
      <trkpt lat="47.19997" lon="4.96204">
        <ele>287.7507019043</ele>
        <time>2018-04-26T10:40:28+0200</time>
      </trkpt>
      <trkpt lat="47.19998" lon="4.96205">
        <ele>287.55822753906</ele>
        <time>2018-04-26T10:40:31+0200</time>
      </trkpt>
      <trkpt lat="47.2" lon="4.96204">
        <ele>287.34631347656</ele>
        <time>2018-04-26T10:40:34+0200</time>
      </trkpt>
      <trkpt lat="47.20004" lon="4.96204">
        <ele>287.1623840332</ele>
        <time>2018-04-26T10:40:37+0200</time>
      </trkpt>
      <trkpt lat="47.20007" lon="4.96205">
        <ele>286.98623657227</ele>
        <time>2018-04-26T10:40:40+0200</time>
      </trkpt>
      <trkpt lat="47.20009" lon="4.96207">
        <ele>286.82946777344</ele>
        <time>2018-04-26T10:40:43+0200</time>
      </trkpt>
      <trkpt lat="47.20011" lon="4.96207">
        <ele>286.7116394043</ele>
        <time>2018-04-26T10:40:46+0200</time>
      </trkpt>
      <trkpt lat="47.20019" lon="4.9621">
        <ele>286.63217163086</ele>
        <time>2018-04-26T10:40:49+0200</time>
      </trkpt>
      <trkpt lat="47.20025" lon="4.96213">
        <ele>286.56530761719</ele>
        <time>2018-04-26T10:40:52+0200</time>
      </trkpt>
      <trkpt lat="47.20029" lon="4.96216">
        <ele>286.45846557617</ele>
        <time>2018-04-26T10:40:55+0200</time>
      </trkpt>
      <trkpt lat="47.20034" lon="4.96217">
        <ele>286.35360717773</ele>
        <time>2018-04-26T10:40:58+0200</time>
      </trkpt>
      <trkpt lat="47.20037" lon="4.96219">
        <ele>286.24493408203</ele>
        <time>2018-04-26T10:41:01+0200</time>
      </trkpt>
      <trkpt lat="47.20042" lon="4.96221">
        <ele>286.13577270508</ele>
        <time>2018-04-26T10:41:04+0200</time>
      </trkpt>
      <trkpt lat="47.20043" lon="4.96222">
        <ele>285.97946166992</ele>
        <time>2018-04-26T10:41:07+0200</time>
      </trkpt>
      <trkpt lat="47.20045" lon="4.96223">
        <ele>285.76428222656</ele>
        <time>2018-04-26T10:41:10+0200</time>
      </trkpt>
      <trkpt lat="47.20049" lon="4.96224">
        <ele>285.56369018555</ele>
        <time>2018-04-26T10:41:13+0200</time>
      </trkpt>
      <trkpt lat="47.20052" lon="4.96226">
        <ele>285.39993286133</ele>
        <time>2018-04-26T10:41:16+0200</time>
      </trkpt>
      <trkpt lat="47.20055" lon="4.96228">
        <ele>285.25042724609</ele>
        <time>2018-04-26T10:41:19+0200</time>
      </trkpt>
      <trkpt lat="47.20057" lon="4.96229">
        <ele>285.05267333984</ele>
        <time>2018-04-26T10:41:22+0200</time>
      </trkpt>
      <trkpt lat="47.2006" lon="4.9623">
        <ele>284.86630249023</ele>
        <time>2018-04-26T10:41:25+0200</time>
      </trkpt>
      <trkpt lat="47.20063" lon="4.96232">
        <ele>284.69268798828</ele>
        <time>2018-04-26T10:41:28+0200</time>
      </trkpt>
      <trkpt lat="47.20067" lon="4.96233">
        <ele>284.50280761719</ele>
        <time>2018-04-26T10:41:31+0200</time>
      </trkpt>
      <trkpt lat="47.2007" lon="4.96234">
        <ele>284.34204101562</ele>
        <time>2018-04-26T10:41:34+0200</time>
      </trkpt>
      <trkpt lat="47.20076" lon="4.96236">
        <ele>284.23336791992</ele>
        <time>2018-04-26T10:41:37+0200</time>
      </trkpt>
      <trkpt lat="47.20077" lon="4.96237">
        <ele>284.10659790039</ele>
        <time>2018-04-26T10:41:40+0200</time>
      </trkpt>
      <trkpt lat="47.20082" lon="4.96238">
        <ele>284.0133972168</ele>
        <time>2018-04-26T10:41:43+0200</time>
      </trkpt>
      <trkpt lat="47.20084" lon="4.96238">
        <ele>283.90432739258</ele>
        <time>2018-04-26T10:41:46+0200</time>
      </trkpt>
      <trkpt lat="47.20085" lon="4.96239">
        <ele>283.76696777344</ele>
        <time>2018-04-26T10:41:49+0200</time>
      </trkpt>
      <trkpt lat="47.20088" lon="4.9624">
        <ele>283.63369750977</ele>
        <time>2018-04-26T10:41:52+0200</time>
      </trkpt>
      <trkpt lat="47.20092" lon="4.96241">
        <ele>283.51257324219</ele>
        <time>2018-04-26T10:41:55+0200</time>
      </trkpt>
      <trkpt lat="47.20098" lon="4.96242">
        <ele>283.4358215332</ele>
        <time>2018-04-26T10:41:58+0200</time>
      </trkpt>
      <trkpt lat="47.20099" lon="4.96243">
        <ele>283.33193969727</ele>
        <time>2018-04-26T10:42:01+0200</time>
      </trkpt>
      <trkpt lat="47.20102" lon="4.96243">
        <ele>283.21533203125</ele>
        <time>2018-04-26T10:42:04+0200</time>
      </trkpt>
      <trkpt lat="47.20105" lon="4.96243">
        <ele>283.02722167969</ele>
        <time>2018-04-26T10:42:07+0200</time>
      </trkpt>
      <trkpt lat="47.20107" lon="4.96242">
        <ele>282.78530883789</ele>
        <time>2018-04-26T10:42:10+0200</time>
      </trkpt>
      <trkpt lat="47.20109" lon="4.96242">
        <ele>282.52694702148</ele>
        <time>2018-04-26T10:42:13+0200</time>
      </trkpt>
      <trkpt lat="47.20112" lon="4.96242">
        <ele>282.27545166016</ele>
        <time>2018-04-26T10:42:16+0200</time>
      </trkpt>
      <trkpt lat="47.20114" lon="4.96242">
        <ele>282.02493286133</ele>
        <time>2018-04-26T10:42:19+0200</time>
      </trkpt>
      <trkpt lat="47.20117" lon="4.96242">
        <ele>281.82046508789</ele>
        <time>2018-04-26T10:42:22+0200</time>
      </trkpt>
      <trkpt lat="47.2012" lon="4.96242">
        <ele>281.65115356445</ele>
        <time>2018-04-26T10:42:25+0200</time>
      </trkpt>
      <trkpt lat="47.20121" lon="4.96242">
        <ele>281.47244262695</ele>
        <time>2018-04-26T10:42:28+0200</time>
      </trkpt>
      <trkpt lat="47.20123" lon="4.96241">
        <ele>281.34884643555</ele>
        <time>2018-04-26T10:42:31+0200</time>
      </trkpt>
      <trkpt lat="47.20126" lon="4.96241">
        <ele>281.2585144043</ele>
        <time>2018-04-26T10:42:34+0200</time>
      </trkpt>
      <trkpt lat="47.20129" lon="4.96239">
        <ele>281.20190429688</ele>
        <time>2018-04-26T10:42:37+0200</time>
      </trkpt>
      <trkpt lat="47.20133" lon="4.96238">
        <ele>281.20184326172</ele>
        <time>2018-04-26T10:42:40+0200</time>
      </trkpt>
      <trkpt lat="47.20134" lon="4.96238">
        <ele>281.16668701172</ele>
        <time>2018-04-26T10:42:43+0200</time>
      </trkpt>
      <trkpt lat="47.20135" lon="4.96236">
        <ele>281.13735961914</ele>
        <time>2018-04-26T10:42:46+0200</time>
      </trkpt>
      <trkpt lat="47.20137" lon="4.96234">
        <ele>281.1220703125</ele>
        <time>2018-04-26T10:42:49+0200</time>
      </trkpt>
      <trkpt lat="47.2014" lon="4.96233">
        <ele>281.11276245117</ele>
        <time>2018-04-26T10:42:52+0200</time>
      </trkpt>
      <trkpt lat="47.20143" lon="4.96231">
        <ele>281.12854003906</ele>
        <time>2018-04-26T10:42:55+0200</time>
      </trkpt>
      <trkpt lat="47.20146" lon="4.9623">
        <ele>281.16653442383</ele>
        <time>2018-04-26T10:42:58+0200</time>
      </trkpt>
      <trkpt lat="47.20148" lon="4.96229">
        <ele>281.23541259766</ele>
        <time>2018-04-26T10:43:01+0200</time>
      </trkpt>
      <trkpt lat="47.20151" lon="4.96229">
        <ele>281.3147277832</ele>
        <time>2018-04-26T10:43:04+0200</time>
      </trkpt>
      <trkpt lat="47.20154" lon="4.96227">
        <ele>281.44244384766</ele>
        <time>2018-04-26T10:43:07+0200</time>
      </trkpt>
      <trkpt lat="47.20156" lon="4.96226">
        <ele>281.5927734375</ele>
        <time>2018-04-26T10:43:10+0200</time>
      </trkpt>
      <trkpt lat="47.20159" lon="4.96225">
        <ele>281.74966430664</ele>
        <time>2018-04-26T10:43:13+0200</time>
      </trkpt>
      <trkpt lat="47.20161" lon="4.96225">
        <ele>281.86383056641</ele>
        <time>2018-04-26T10:43:16+0200</time>
      </trkpt>
      <trkpt lat="47.20166" lon="4.96223">
        <ele>281.93792724609</ele>
        <time>2018-04-26T10:43:19+0200</time>
      </trkpt>
      <trkpt lat="47.20169" lon="4.96221">
        <ele>282.03533935547</ele>
        <time>2018-04-26T10:43:22+0200</time>
      </trkpt>
      <trkpt lat="47.20173" lon="4.9622">
        <ele>282.17568969727</ele>
        <time>2018-04-26T10:43:25+0200</time>
      </trkpt>
      <trkpt lat="47.20176" lon="4.9622">
        <ele>282.31335449219</ele>
        <time>2018-04-26T10:43:28+0200</time>
      </trkpt>
      <trkpt lat="47.2018" lon="4.96219">
        <ele>282.41735839844</ele>
        <time>2018-04-26T10:43:31+0200</time>
      </trkpt>
      <trkpt lat="47.20183" lon="4.96219">
        <ele>282.51254272461</ele>
        <time>2018-04-26T10:43:34+0200</time>
      </trkpt>
      <trkpt lat="47.20186" lon="4.96218">
        <ele>282.61880493164</ele>
        <time>2018-04-26T10:43:37+0200</time>
      </trkpt>
      <trkpt lat="47.2019" lon="4.96217">
        <ele>282.72796630859</ele>
        <time>2018-04-26T10:43:40+0200</time>
      </trkpt>
      <trkpt lat="47.20193" lon="4.96217">
        <ele>282.82736206055</ele>
        <time>2018-04-26T10:43:43+0200</time>
      </trkpt>
      <trkpt lat="47.20196" lon="4.96217">
        <ele>282.87197875977</ele>
        <time>2018-04-26T10:43:46+0200</time>
      </trkpt>
      <trkpt lat="47.20199" lon="4.96217">
        <ele>282.8733215332</ele>
        <time>2018-04-26T10:43:49+0200</time>
      </trkpt>
      <trkpt lat="47.20201" lon="4.96216">
        <ele>282.87637329102</ele>
        <time>2018-04-26T10:43:52+0200</time>
      </trkpt>
      <trkpt lat="47.20204" lon="4.96217">
        <ele>282.822265625</ele>
        <time>2018-04-26T10:43:55+0200</time>
      </trkpt>
      <trkpt lat="47.20208" lon="4.96217">
        <ele>282.74829101562</ele>
        <time>2018-04-26T10:43:58+0200</time>
      </trkpt>
      <trkpt lat="47.20209" lon="4.96217">
        <ele>282.70031738281</ele>
        <time>2018-04-26T10:44:01+0200</time>
      </trkpt>
      <trkpt lat="47.20213" lon="4.96217">
        <ele>282.69012451172</ele>
        <time>2018-04-26T10:44:04+0200</time>
      </trkpt>
      <trkpt lat="47.20213" lon="4.96217">
        <ele>282.67590332031</ele>
        <time>2018-04-26T10:44:07+0200</time>
      </trkpt>
      <trkpt lat="47.20212" lon="4.96217">
        <ele>282.65863037109</ele>
        <time>2018-04-26T10:44:10+0200</time>
      </trkpt>
      <trkpt lat="47.20212" lon="4.96217">
        <ele>282.64712524414</ele>
        <time>2018-04-26T10:44:13+0200</time>
      </trkpt>
      <trkpt lat="47.20212" lon="4.96218">
        <ele>282.6369934082</ele>
        <time>2018-04-26T10:44:16+0200</time>
      </trkpt>
      <trkpt lat="47.20216" lon="4.96217">
        <ele>282.63201904297</ele>
        <time>2018-04-26T10:44:19+0200</time>
      </trkpt>
      <trkpt lat="47.20216" lon="4.96217">
        <ele>282.62576293945</ele>
        <time>2018-04-26T10:44:22+0200</time>
      </trkpt>
      <trkpt lat="47.20216" lon="4.96217">
        <ele>282.61700439453</ele>
        <time>2018-04-26T10:44:25+0200</time>
      </trkpt>
      <trkpt lat="47.20216" lon="4.96217">
        <ele>282.60217285156</ele>
        <time>2018-04-26T10:44:28+0200</time>
      </trkpt>
      <trkpt lat="47.20215" lon="4.96217">
        <ele>282.59274291992</ele>
        <time>2018-04-26T10:44:31+0200</time>
      </trkpt>
      <trkpt lat="47.20214" lon="4.96217">
        <ele>282.55136108398</ele>
        <time>2018-04-26T10:44:34+0200</time>
      </trkpt>
      <trkpt lat="47.20215" lon="4.96217">
        <ele>282.52142333984</ele>
        <time>2018-04-26T10:44:37+0200</time>
      </trkpt>
      <trkpt lat="47.20218" lon="4.96216">
        <ele>282.55117797852</ele>
        <time>2018-04-26T10:44:40+0200</time>
      </trkpt>
      <trkpt lat="47.20221" lon="4.96217">
        <ele>282.61663818359</ele>
        <time>2018-04-26T10:44:43+0200</time>
      </trkpt>
      <trkpt lat="47.20222" lon="4.96217">
        <ele>282.6569519043</ele>
        <time>2018-04-26T10:44:46+0200</time>
      </trkpt>
      <trkpt lat="47.20225" lon="4.96217">
        <ele>282.69912719727</ele>
        <time>2018-04-26T10:44:49+0200</time>
      </trkpt>
      <trkpt lat="47.20228" lon="4.96218">
        <ele>282.76556396484</ele>
        <time>2018-04-26T10:44:52+0200</time>
      </trkpt>
      <trkpt lat="47.20231" lon="4.96218">
        <ele>282.88821411133</ele>
        <time>2018-04-26T10:44:55+0200</time>
      </trkpt>
      <trkpt lat="47.20234" lon="4.96219">
        <ele>283.06768798828</ele>
        <time>2018-04-26T10:44:58+0200</time>
      </trkpt>
      <trkpt lat="47.20238" lon="4.96221">
        <ele>283.27847290039</ele>
        <time>2018-04-26T10:45:01+0200</time>
      </trkpt>
      <trkpt lat="47.2024" lon="4.96221">
        <ele>283.44827270508</ele>
        <time>2018-04-26T10:45:04+0200</time>
      </trkpt>
      <trkpt lat="47.20239" lon="4.96221">
        <ele>283.59637451172</ele>
        <time>2018-04-26T10:45:07+0200</time>
      </trkpt>
      <trkpt lat="47.2024" lon="4.9622">
        <ele>283.67520141602</ele>
        <time>2018-04-26T10:45:10+0200</time>
      </trkpt>
      <trkpt lat="47.20241" lon="4.9622">
        <ele>283.69073486328</ele>
        <time>2018-04-26T10:45:13+0200</time>
      </trkpt>
      <trkpt lat="47.20242" lon="4.96221">
        <ele>283.75646972656</ele>
        <time>2018-04-26T10:45:16+0200</time>
      </trkpt>
      <trkpt lat="47.20244" lon="4.96221">
        <ele>283.87344360352</ele>
        <time>2018-04-26T10:45:19+0200</time>
      </trkpt>
      <trkpt lat="47.20248" lon="4.96223">
        <ele>284.05966186523</ele>
        <time>2018-04-26T10:45:22+0200</time>
      </trkpt>
      <trkpt lat="47.20251" lon="4.96224">
        <ele>284.22058105469</ele>
        <time>2018-04-26T10:45:25+0200</time>
      </trkpt>
      <trkpt lat="47.20255" lon="4.96225">
        <ele>284.39749145508</ele>
        <time>2018-04-26T10:45:28+0200</time>
      </trkpt>
      <trkpt lat="47.20257" lon="4.96226">
        <ele>284.59729003906</ele>
        <time>2018-04-26T10:45:31+0200</time>
      </trkpt>
      <trkpt lat="47.2026" lon="4.96227">
        <ele>284.79425048828</ele>
        <time>2018-04-26T10:45:34+0200</time>
      </trkpt>
      <trkpt lat="47.20263" lon="4.96227">
        <ele>284.93243408203</ele>
        <time>2018-04-26T10:45:37+0200</time>
      </trkpt>
      <trkpt lat="47.20268" lon="4.96227">
        <ele>285.05511474609</ele>
        <time>2018-04-26T10:45:40+0200</time>
      </trkpt>
      <trkpt lat="47.20271" lon="4.96227">
        <ele>285.20547485352</ele>
        <time>2018-04-26T10:45:43+0200</time>
      </trkpt>
      <trkpt lat="47.20273" lon="4.96227">
        <ele>285.35064697266</ele>
        <time>2018-04-26T10:45:46+0200</time>
      </trkpt>
      <trkpt lat="47.20276" lon="4.96227">
        <ele>285.50051879883</ele>
        <time>2018-04-26T10:45:49+0200</time>
      </trkpt>
      <trkpt lat="47.20281" lon="4.96227">
        <ele>285.63409423828</ele>
        <time>2018-04-26T10:45:52+0200</time>
      </trkpt>
      <trkpt lat="47.20284" lon="4.96227">
        <ele>285.80703735352</ele>
        <time>2018-04-26T10:45:55+0200</time>
      </trkpt>
      <trkpt lat="47.20289" lon="4.96228">
        <ele>285.95129394531</ele>
        <time>2018-04-26T10:45:58+0200</time>
      </trkpt>
      <trkpt lat="47.20294" lon="4.96229">
        <ele>286.04870605469</ele>
        <time>2018-04-26T10:46:01+0200</time>
      </trkpt>
      <trkpt lat="47.20295" lon="4.96229">
        <ele>286.15612792969</ele>
        <time>2018-04-26T10:46:04+0200</time>
      </trkpt>
      <trkpt lat="47.20297" lon="4.96228">
        <ele>286.27096557617</ele>
        <time>2018-04-26T10:46:07+0200</time>
      </trkpt>
      <trkpt lat="47.203" lon="4.96228">
        <ele>286.39022827148</ele>
        <time>2018-04-26T10:46:10+0200</time>
      </trkpt>
      <trkpt lat="47.20304" lon="4.96229">
        <ele>286.47161865234</ele>
        <time>2018-04-26T10:46:13+0200</time>
      </trkpt>
      <trkpt lat="47.20307" lon="4.96229">
        <ele>286.52169799805</ele>
        <time>2018-04-26T10:46:16+0200</time>
      </trkpt>
      <trkpt lat="47.20309" lon="4.96229">
        <ele>286.52688598633</ele>
        <time>2018-04-26T10:46:19+0200</time>
      </trkpt>
      <trkpt lat="47.20311" lon="4.96228">
        <ele>286.50045776367</ele>
        <time>2018-04-26T10:46:22+0200</time>
      </trkpt>
      <trkpt lat="47.20312" lon="4.96228">
        <ele>286.46673583984</ele>
        <time>2018-04-26T10:46:25+0200</time>
      </trkpt>
      <trkpt lat="47.20315" lon="4.96228">
        <ele>286.42532348633</ele>
        <time>2018-04-26T10:46:28+0200</time>
      </trkpt>
      <trkpt lat="47.20316" lon="4.96228">
        <ele>286.3366394043</ele>
        <time>2018-04-26T10:46:31+0200</time>
      </trkpt>
      <trkpt lat="47.20319" lon="4.96229">
        <ele>286.27130126953</ele>
        <time>2018-04-26T10:46:34+0200</time>
      </trkpt>
      <trkpt lat="47.20324" lon="4.9623">
        <ele>286.2041015625</ele>
        <time>2018-04-26T10:46:37+0200</time>
      </trkpt>
      <trkpt lat="47.20326" lon="4.96231">
        <ele>286.13201904297</ele>
        <time>2018-04-26T10:46:40+0200</time>
      </trkpt>
      <trkpt lat="47.20331" lon="4.96232">
        <ele>286.04977416992</ele>
        <time>2018-04-26T10:46:43+0200</time>
      </trkpt>
      <trkpt lat="47.20334" lon="4.96234">
        <ele>285.93371582031</ele>
        <time>2018-04-26T10:46:46+0200</time>
      </trkpt>
      <trkpt lat="47.20338" lon="4.96237">
        <ele>285.79238891602</ele>
        <time>2018-04-26T10:46:49+0200</time>
      </trkpt>
      <trkpt lat="47.20341" lon="4.96238">
        <ele>285.62362670898</ele>
        <time>2018-04-26T10:46:52+0200</time>
      </trkpt>
      <trkpt lat="47.20343" lon="4.96238">
        <ele>285.4192199707</ele>
        <time>2018-04-26T10:46:55+0200</time>
      </trkpt>
      <trkpt lat="47.20346" lon="4.96239">
        <ele>285.22259521484</ele>
        <time>2018-04-26T10:46:58+0200</time>
      </trkpt>
      <trkpt lat="47.20351" lon="4.96239">
        <ele>285.02569580078</ele>
        <time>2018-04-26T10:47:01+0200</time>
      </trkpt>
      <trkpt lat="47.20353" lon="4.9624">
        <ele>284.83084106445</ele>
        <time>2018-04-26T10:47:04+0200</time>
      </trkpt>
      <trkpt lat="47.20357" lon="4.96242">
        <ele>284.66995239258</ele>
        <time>2018-04-26T10:47:07+0200</time>
      </trkpt>
      <trkpt lat="47.2036" lon="4.96243">
        <ele>284.57342529297</ele>
        <time>2018-04-26T10:47:10+0200</time>
      </trkpt>
      <trkpt lat="47.20365" lon="4.96244">
        <ele>284.53149414062</ele>
        <time>2018-04-26T10:47:13+0200</time>
      </trkpt>
      <trkpt lat="47.20368" lon="4.96245">
        <ele>284.51712036133</ele>
        <time>2018-04-26T10:47:16+0200</time>
      </trkpt>
      <trkpt lat="47.20371" lon="4.96246">
        <ele>284.51760864258</ele>
        <time>2018-04-26T10:47:19+0200</time>
      </trkpt>
      <trkpt lat="47.20374" lon="4.96247">
        <ele>284.52975463867</ele>
        <time>2018-04-26T10:47:22+0200</time>
      </trkpt>
      <trkpt lat="47.20377" lon="4.96248">
        <ele>284.52639770508</ele>
        <time>2018-04-26T10:47:25+0200</time>
      </trkpt>
      <trkpt lat="47.20382" lon="4.9625">
        <ele>284.53393554688</ele>
        <time>2018-04-26T10:47:28+0200</time>
      </trkpt>
      <trkpt lat="47.20385" lon="4.9625">
        <ele>284.53329467773</ele>
        <time>2018-04-26T10:47:31+0200</time>
      </trkpt>
      <trkpt lat="47.20387" lon="4.9625">
        <ele>284.52215576172</ele>
        <time>2018-04-26T10:47:34+0200</time>
      </trkpt>
      <trkpt lat="47.20389" lon="4.96251">
        <ele>284.47326660156</ele>
        <time>2018-04-26T10:47:37+0200</time>
      </trkpt>
      <trkpt lat="47.20392" lon="4.96252">
        <ele>284.38165283203</ele>
        <time>2018-04-26T10:47:40+0200</time>
      </trkpt>
      <trkpt lat="47.20395" lon="4.96252">
        <ele>284.31576538086</ele>
        <time>2018-04-26T10:47:43+0200</time>
      </trkpt>
      <trkpt lat="47.20397" lon="4.96253">
        <ele>284.27270507812</ele>
        <time>2018-04-26T10:47:46+0200</time>
      </trkpt>
      <trkpt lat="47.204" lon="4.96253">
        <ele>284.25744628906</ele>
        <time>2018-04-26T10:47:49+0200</time>
      </trkpt>
      <trkpt lat="47.20402" lon="4.96253">
        <ele>284.25161743164</ele>
        <time>2018-04-26T10:47:52+0200</time>
      </trkpt>
      <trkpt lat="47.20406" lon="4.96254">
        <ele>284.24694824219</ele>
        <time>2018-04-26T10:47:55+0200</time>
      </trkpt>
      <trkpt lat="47.20406" lon="4.96254">
        <ele>284.24664306641</ele>
        <time>2018-04-26T10:47:58+0200</time>
      </trkpt>
      <trkpt lat="47.20408" lon="4.96254">
        <ele>284.21008300781</ele>
        <time>2018-04-26T10:48:01+0200</time>
      </trkpt>
      <trkpt lat="47.20411" lon="4.96255">
        <ele>284.15606689453</ele>
        <time>2018-04-26T10:48:04+0200</time>
      </trkpt>
      <trkpt lat="47.20415" lon="4.96256">
        <ele>284.09432983398</ele>
        <time>2018-04-26T10:48:07+0200</time>
      </trkpt>
      <trkpt lat="47.20419" lon="4.96257">
        <ele>284.04287719727</ele>
        <time>2018-04-26T10:48:10+0200</time>
      </trkpt>
      <trkpt lat="47.20423" lon="4.96257">
        <ele>284.00802612305</ele>
        <time>2018-04-26T10:48:13+0200</time>
      </trkpt>
      <trkpt lat="47.20425" lon="4.96257">
        <ele>283.95040893555</ele>
        <time>2018-04-26T10:48:16+0200</time>
      </trkpt>
      <trkpt lat="47.2043" lon="4.96258">
        <ele>283.93664550781</ele>
        <time>2018-04-26T10:48:19+0200</time>
      </trkpt>
      <trkpt lat="47.20434" lon="4.96258">
        <ele>283.99224853516</ele>
        <time>2018-04-26T10:48:22+0200</time>
      </trkpt>
      <trkpt lat="47.20436" lon="4.96259">
        <ele>284.06393432617</ele>
        <time>2018-04-26T10:48:25+0200</time>
      </trkpt>
      <trkpt lat="47.2044" lon="4.9626">
        <ele>284.08215332031</ele>
        <time>2018-04-26T10:48:28+0200</time>
      </trkpt>
      <trkpt lat="47.20444" lon="4.9626">
        <ele>284.13296508789</ele>
        <time>2018-04-26T10:48:31+0200</time>
      </trkpt>
      <trkpt lat="47.20446" lon="4.96261">
        <ele>284.16360473633</ele>
        <time>2018-04-26T10:48:34+0200</time>
      </trkpt>
      <trkpt lat="47.2045" lon="4.96262">
        <ele>284.23477172852</ele>
        <time>2018-04-26T10:48:37+0200</time>
      </trkpt>
      <trkpt lat="47.20454" lon="4.96264">
        <ele>284.31884765625</ele>
        <time>2018-04-26T10:48:40+0200</time>
      </trkpt>
      <trkpt lat="47.20456" lon="4.96264">
        <ele>284.42813110352</ele>
        <time>2018-04-26T10:48:43+0200</time>
      </trkpt>
      <trkpt lat="47.20458" lon="4.96264">
        <ele>284.53814697266</ele>
        <time>2018-04-26T10:48:46+0200</time>
      </trkpt>
      <trkpt lat="47.20461" lon="4.96265">
        <ele>284.65209960938</ele>
        <time>2018-04-26T10:48:49+0200</time>
      </trkpt>
      <trkpt lat="47.20463" lon="4.96265">
        <ele>284.75323486328</ele>
        <time>2018-04-26T10:48:52+0200</time>
      </trkpt>
      <trkpt lat="47.20467" lon="4.96265">
        <ele>284.8483581543</ele>
        <time>2018-04-26T10:48:55+0200</time>
      </trkpt>
      <trkpt lat="47.20471" lon="4.96266">
        <ele>284.92935180664</ele>
        <time>2018-04-26T10:48:58+0200</time>
      </trkpt>
      <trkpt lat="47.20473" lon="4.96267">
        <ele>284.97018432617</ele>
        <time>2018-04-26T10:49:01+0200</time>
      </trkpt>
      <trkpt lat="47.20474" lon="4.96268">
        <ele>284.9567565918</ele>
        <time>2018-04-26T10:49:04+0200</time>
      </trkpt>
      <trkpt lat="47.20476" lon="4.96267">
        <ele>284.96203613281</ele>
        <time>2018-04-26T10:49:07+0200</time>
      </trkpt>
      <trkpt lat="47.20479" lon="4.96267">
        <ele>284.97351074219</ele>
        <time>2018-04-26T10:49:10+0200</time>
      </trkpt>
      <trkpt lat="47.20482" lon="4.96267">
        <ele>284.98291015625</ele>
        <time>2018-04-26T10:49:13+0200</time>
      </trkpt>
      <trkpt lat="47.20485" lon="4.96267">
        <ele>285.03460693359</ele>
        <time>2018-04-26T10:49:16+0200</time>
      </trkpt>
      <trkpt lat="47.20489" lon="4.96268">
        <ele>285.09558105469</ele>
        <time>2018-04-26T10:49:19+0200</time>
      </trkpt>
      <trkpt lat="47.20491" lon="4.96267">
        <ele>285.12826538086</ele>
        <time>2018-04-26T10:49:22+0200</time>
      </trkpt>
      <trkpt lat="47.20494" lon="4.96267">
        <ele>285.14624023438</ele>
        <time>2018-04-26T10:49:25+0200</time>
      </trkpt>
      <trkpt lat="47.20498" lon="4.96268">
        <ele>285.19351196289</ele>
        <time>2018-04-26T10:49:28+0200</time>
      </trkpt>
      <trkpt lat="47.20502" lon="4.96269">
        <ele>285.25982666016</ele>
        <time>2018-04-26T10:49:31+0200</time>
      </trkpt>
      <trkpt lat="47.20507" lon="4.96269">
        <ele>285.322265625</ele>
        <time>2018-04-26T10:49:34+0200</time>
      </trkpt>
      <trkpt lat="47.20513" lon="4.96269">
        <ele>285.3596496582</ele>
        <time>2018-04-26T10:49:37+0200</time>
      </trkpt>
      <trkpt lat="47.20516" lon="4.9627">
        <ele>285.34735107422</ele>
        <time>2018-04-26T10:49:40+0200</time>
      </trkpt>
      <trkpt lat="47.2052" lon="4.96271">
        <ele>285.27059936523</ele>
        <time>2018-04-26T10:49:43+0200</time>
      </trkpt>
      <trkpt lat="47.20524" lon="4.96271">
        <ele>285.20916748047</ele>
        <time>2018-04-26T10:49:46+0200</time>
      </trkpt>
      <trkpt lat="47.20527" lon="4.96271">
        <ele>285.1676940918</ele>
        <time>2018-04-26T10:49:49+0200</time>
      </trkpt>
      <trkpt lat="47.2053" lon="4.96271">
        <ele>285.12426757812</ele>
        <time>2018-04-26T10:49:52+0200</time>
      </trkpt>
      <trkpt lat="47.20533" lon="4.96271">
        <ele>285.08572387695</ele>
        <time>2018-04-26T10:49:55+0200</time>
      </trkpt>
      <trkpt lat="47.20536" lon="4.9627">
        <ele>285.05310058594</ele>
        <time>2018-04-26T10:49:58+0200</time>
      </trkpt>
      <trkpt lat="47.20539" lon="4.96271">
        <ele>285.01092529297</ele>
        <time>2018-04-26T10:50:01+0200</time>
      </trkpt>
      <trkpt lat="47.20541" lon="4.9627">
        <ele>284.99813842773</ele>
        <time>2018-04-26T10:50:04+0200</time>
      </trkpt>
      <trkpt lat="47.20544" lon="4.9627">
        <ele>284.98889160156</ele>
        <time>2018-04-26T10:50:07+0200</time>
      </trkpt>
      <trkpt lat="47.20546" lon="4.96269">
        <ele>285.00680541992</ele>
        <time>2018-04-26T10:50:10+0200</time>
      </trkpt>
      <trkpt lat="47.20549" lon="4.96269">
        <ele>285.00454711914</ele>
        <time>2018-04-26T10:50:13+0200</time>
      </trkpt>
      <trkpt lat="47.20552" lon="4.96268">
        <ele>284.96279907227</ele>
        <time>2018-04-26T10:50:16+0200</time>
      </trkpt>
      <trkpt lat="47.20555" lon="4.96268">
        <ele>284.88711547852</ele>
        <time>2018-04-26T10:50:19+0200</time>
      </trkpt>
      <trkpt lat="47.20558" lon="4.96266">
        <ele>284.85763549805</ele>
        <time>2018-04-26T10:50:22+0200</time>
      </trkpt>
      <trkpt lat="47.20561" lon="4.96264">
        <ele>284.90466308594</ele>
        <time>2018-04-26T10:50:25+0200</time>
      </trkpt>
      <trkpt lat="47.20563" lon="4.96263">
        <ele>285.00421142578</ele>
        <time>2018-04-26T10:50:28+0200</time>
      </trkpt>
      <trkpt lat="47.20566" lon="4.96262">
        <ele>285.14660644531</ele>
        <time>2018-04-26T10:50:31+0200</time>
      </trkpt>
      <trkpt lat="47.20569" lon="4.96261">
        <ele>285.29251098633</ele>
        <time>2018-04-26T10:50:34+0200</time>
      </trkpt>
      <trkpt lat="47.20572" lon="4.9626">
        <ele>285.39215087891</ele>
        <time>2018-04-26T10:50:37+0200</time>
      </trkpt>
      <trkpt lat="47.20572" lon="4.9626">
        <ele>285.44564819336</ele>
        <time>2018-04-26T10:50:40+0200</time>
      </trkpt>
      <trkpt lat="47.20571" lon="4.96259">
        <ele>285.41580200195</ele>
        <time>2018-04-26T10:50:43+0200</time>
      </trkpt>
      <trkpt lat="47.20571" lon="4.96259">
        <ele>285.4186706543</ele>
        <time>2018-04-26T10:50:46+0200</time>
      </trkpt>
      <trkpt lat="47.20571" lon="4.96259">
        <ele>285.42239379883</ele>
        <time>2018-04-26T10:50:49+0200</time>
      </trkpt>
      <trkpt lat="47.20571" lon="4.96259">
        <ele>285.43493652344</ele>
        <time>2018-04-26T10:50:52+0200</time>
      </trkpt>
      <trkpt lat="47.20571" lon="4.9626">
        <ele>285.45336914062</ele>
        <time>2018-04-26T10:50:55+0200</time>
      </trkpt>
      <trkpt lat="47.20571" lon="4.9626">
        <ele>285.47506713867</ele>
        <time>2018-04-26T10:50:58+0200</time>
      </trkpt>
      <trkpt lat="47.20571" lon="4.9626">
        <ele>285.5007019043</ele>
        <time>2018-04-26T10:51:01+0200</time>
      </trkpt>
      <trkpt lat="47.20571" lon="4.9626">
        <ele>285.52725219727</ele>
        <time>2018-04-26T10:51:04+0200</time>
      </trkpt>
      <trkpt lat="47.20571" lon="4.9626">
        <ele>285.55380249023</ele>
        <time>2018-04-26T10:51:07+0200</time>
      </trkpt>
      <trkpt lat="47.20571" lon="4.96261">
        <ele>285.58346557617</ele>
        <time>2018-04-26T10:51:10+0200</time>
      </trkpt>
      <trkpt lat="47.20571" lon="4.96261">
        <ele>285.60690307617</ele>
        <time>2018-04-26T10:51:13+0200</time>
      </trkpt>
      <trkpt lat="47.20571" lon="4.96261">
        <ele>285.61868286133</ele>
        <time>2018-04-26T10:51:16+0200</time>
      </trkpt>
      <trkpt lat="47.20571" lon="4.9626">
        <ele>285.65313720703</ele>
        <time>2018-04-26T10:51:19+0200</time>
      </trkpt>
      <trkpt lat="47.20573" lon="4.9626">
        <ele>285.66952514648</ele>
        <time>2018-04-26T10:51:22+0200</time>
      </trkpt>
      <trkpt lat="47.20574" lon="4.96259">
        <ele>285.75839233398</ele>
        <time>2018-04-26T10:51:25+0200</time>
      </trkpt>
      <trkpt lat="47.20574" lon="4.96259">
        <ele>285.76290893555</ele>
        <time>2018-04-26T10:51:28+0200</time>
      </trkpt>
      <trkpt lat="47.20574" lon="4.96259">
        <ele>285.76760864258</ele>
        <time>2018-04-26T10:51:31+0200</time>
      </trkpt>
      <trkpt lat="47.20574" lon="4.96259">
        <ele>285.77062988281</ele>
        <time>2018-04-26T10:51:34+0200</time>
      </trkpt>
      <trkpt lat="47.20574" lon="4.96259">
        <ele>285.76834106445</ele>
        <time>2018-04-26T10:51:37+0200</time>
      </trkpt>
      <trkpt lat="47.20574" lon="4.96258">
        <ele>285.77383422852</ele>
        <time>2018-04-26T10:51:40+0200</time>
      </trkpt>
      <trkpt lat="47.20574" lon="4.96258">
        <ele>285.7763671875</ele>
        <time>2018-04-26T10:51:43+0200</time>
      </trkpt>
      <trkpt lat="47.20574" lon="4.96258">
        <ele>285.77951049805</ele>
        <time>2018-04-26T10:51:46+0200</time>
      </trkpt>
      <trkpt lat="47.20574" lon="4.96258">
        <ele>285.78540039062</ele>
        <time>2018-04-26T10:51:49+0200</time>
      </trkpt>
      <trkpt lat="47.20573" lon="4.96257">
        <ele>285.82342529297</ele>
        <time>2018-04-26T10:51:52+0200</time>
      </trkpt>
      <trkpt lat="47.2057" lon="4.96257">
        <ele>285.88110351562</ele>
        <time>2018-04-26T10:51:55+0200</time>
      </trkpt>
      <trkpt lat="47.20571" lon="4.96256">
        <ele>285.90496826172</ele>
        <time>2018-04-26T10:51:58+0200</time>
      </trkpt>
      <trkpt lat="47.20574" lon="4.96254">
        <ele>285.91143798828</ele>
        <time>2018-04-26T10:52:01+0200</time>
      </trkpt>
      <trkpt lat="47.20578" lon="4.96252">
        <ele>285.94430541992</ele>
        <time>2018-04-26T10:52:04+0200</time>
      </trkpt>
      <trkpt lat="47.2058" lon="4.96252">
        <ele>285.99746704102</ele>
        <time>2018-04-26T10:52:07+0200</time>
      </trkpt>
      <trkpt lat="47.20583" lon="4.96252">
        <ele>286.05648803711</ele>
        <time>2018-04-26T10:52:10+0200</time>
      </trkpt>
      <trkpt lat="47.20588" lon="4.96251">
        <ele>286.18316650391</ele>
        <time>2018-04-26T10:52:13+0200</time>
      </trkpt>
      <trkpt lat="47.2059" lon="4.96251">
        <ele>286.36181640625</ele>
        <time>2018-04-26T10:52:16+0200</time>
      </trkpt>
      <trkpt lat="47.20593" lon="4.96251">
        <ele>286.55700683594</ele>
        <time>2018-04-26T10:52:19+0200</time>
      </trkpt>
      <trkpt lat="47.20599" lon="4.96251">
        <ele>286.77807617188</ele>
        <time>2018-04-26T10:52:22+0200</time>
      </trkpt>
      <trkpt lat="47.20601" lon="4.96251">
        <ele>287.01553344727</ele>
        <time>2018-04-26T10:52:25+0200</time>
      </trkpt>
      <trkpt lat="47.20605" lon="4.9625">
        <ele>287.19473266602</ele>
        <time>2018-04-26T10:52:28+0200</time>
      </trkpt>
      <trkpt lat="47.20609" lon="4.9625">
        <ele>287.42190551758</ele>
        <time>2018-04-26T10:52:31+0200</time>
      </trkpt>
      <trkpt lat="47.20613" lon="4.9625">
        <ele>287.66839599609</ele>
        <time>2018-04-26T10:52:34+0200</time>
      </trkpt>
      <trkpt lat="47.20618" lon="4.9625">
        <ele>287.96713256836</ele>
        <time>2018-04-26T10:52:37+0200</time>
      </trkpt>
      <trkpt lat="47.20621" lon="4.96249">
        <ele>288.30603027344</ele>
        <time>2018-04-26T10:52:40+0200</time>
      </trkpt>
      <trkpt lat="47.20625" lon="4.96249">
        <ele>288.59912109375</ele>
        <time>2018-04-26T10:52:44+0200</time>
      </trkpt>
      <trkpt lat="47.20628" lon="4.96249">
        <ele>288.84381103516</ele>
        <time>2018-04-26T10:52:47+0200</time>
      </trkpt>
      <trkpt lat="47.2063" lon="4.96249">
        <ele>289.04537963867</ele>
        <time>2018-04-26T10:52:50+0200</time>
      </trkpt>
      <trkpt lat="47.20633" lon="4.96248">
        <ele>289.2467956543</ele>
        <time>2018-04-26T10:52:53+0200</time>
      </trkpt>
      <trkpt lat="47.20635" lon="4.96248">
        <ele>289.4375</ele>
        <time>2018-04-26T10:52:56+0200</time>
      </trkpt>
      <trkpt lat="47.20638" lon="4.96248">
        <ele>289.60696411133</ele>
        <time>2018-04-26T10:52:59+0200</time>
      </trkpt>
      <trkpt lat="47.2064" lon="4.96248">
        <ele>289.7082824707</ele>
        <time>2018-04-26T10:53:02+0200</time>
      </trkpt>
      <trkpt lat="47.20643" lon="4.96247">
        <ele>289.82415771484</ele>
        <time>2018-04-26T10:53:05+0200</time>
      </trkpt>
      <trkpt lat="47.20645" lon="4.96247">
        <ele>289.97015380859</ele>
        <time>2018-04-26T10:53:08+0200</time>
      </trkpt>
      <trkpt lat="47.20647" lon="4.96247">
        <ele>290.10311889648</ele>
        <time>2018-04-26T10:53:11+0200</time>
      </trkpt>
      <trkpt lat="47.2065" lon="4.96247">
        <ele>290.25729370117</ele>
        <time>2018-04-26T10:53:14+0200</time>
      </trkpt>
      <trkpt lat="47.20653" lon="4.96247">
        <ele>290.42504882812</ele>
        <time>2018-04-26T10:53:17+0200</time>
      </trkpt>
      <trkpt lat="47.20655" lon="4.96247">
        <ele>290.56088256836</ele>
        <time>2018-04-26T10:53:20+0200</time>
      </trkpt>
      <trkpt lat="47.20658" lon="4.96248">
        <ele>290.63241577148</ele>
        <time>2018-04-26T10:53:23+0200</time>
      </trkpt>
      <trkpt lat="47.20658" lon="4.96248">
        <ele>290.65435791016</ele>
        <time>2018-04-26T10:53:26+0200</time>
      </trkpt>
      <trkpt lat="47.20658" lon="4.96248">
        <ele>290.64544677734</ele>
        <time>2018-04-26T10:53:29+0200</time>
      </trkpt>
      <trkpt lat="47.20658" lon="4.96248">
        <ele>290.62750244141</ele>
        <time>2018-04-26T10:53:32+0200</time>
      </trkpt>
      <trkpt lat="47.20658" lon="4.96248">
        <ele>290.61584472656</ele>
        <time>2018-04-26T10:53:35+0200</time>
      </trkpt>
      <trkpt lat="47.20658" lon="4.96248">
        <ele>290.60931396484</ele>
        <time>2018-04-26T10:53:38+0200</time>
      </trkpt>
      <trkpt lat="47.20658" lon="4.96248">
        <ele>290.60540771484</ele>
        <time>2018-04-26T10:53:41+0200</time>
      </trkpt>
      <trkpt lat="47.20658" lon="4.96248">
        <ele>290.59976196289</ele>
        <time>2018-04-26T10:53:44+0200</time>
      </trkpt>
      <trkpt lat="47.20658" lon="4.96248">
        <ele>290.58706665039</ele>
        <time>2018-04-26T10:53:47+0200</time>
      </trkpt>
      <trkpt lat="47.20658" lon="4.96247">
        <ele>290.52551269531</ele>
        <time>2018-04-26T10:53:50+0200</time>
      </trkpt>
      <trkpt lat="47.2066" lon="4.96246">
        <ele>290.40740966797</ele>
        <time>2018-04-26T10:53:53+0200</time>
      </trkpt>
      <trkpt lat="47.20663" lon="4.96246">
        <ele>290.33358764648</ele>
        <time>2018-04-26T10:53:56+0200</time>
      </trkpt>
      <trkpt lat="47.20666" lon="4.96246">
        <ele>290.30642700195</ele>
        <time>2018-04-26T10:53:59+0200</time>
      </trkpt>
      <trkpt lat="47.20668" lon="4.96245">
        <ele>290.31466674805</ele>
        <time>2018-04-26T10:54:02+0200</time>
      </trkpt>
      <trkpt lat="47.2067" lon="4.96245">
        <ele>290.36505126953</ele>
        <time>2018-04-26T10:54:05+0200</time>
      </trkpt>
      <trkpt lat="47.20674" lon="4.96245">
        <ele>290.46823120117</ele>
        <time>2018-04-26T10:54:08+0200</time>
      </trkpt>
      <trkpt lat="47.20675" lon="4.96244">
        <ele>290.60827636719</ele>
        <time>2018-04-26T10:54:11+0200</time>
      </trkpt>
      <trkpt lat="47.20678" lon="4.96245">
        <ele>290.78884887695</ele>
        <time>2018-04-26T10:54:14+0200</time>
      </trkpt>
      <trkpt lat="47.20681" lon="4.96246">
        <ele>290.94876098633</ele>
        <time>2018-04-26T10:54:17+0200</time>
      </trkpt>
      <trkpt lat="47.20684" lon="4.96246">
        <ele>291.09423828125</ele>
        <time>2018-04-26T10:54:20+0200</time>
      </trkpt>
      <trkpt lat="47.20688" lon="4.96247">
        <ele>291.23834228516</ele>
        <time>2018-04-26T10:54:23+0200</time>
      </trkpt>
      <trkpt lat="47.2069" lon="4.96248">
        <ele>291.26303100586</ele>
        <time>2018-04-26T10:54:26+0200</time>
      </trkpt>
      <trkpt lat="47.20693" lon="4.96249">
        <ele>291.23068237305</ele>
        <time>2018-04-26T10:54:29+0200</time>
      </trkpt>
      <trkpt lat="47.20695" lon="4.96249">
        <ele>291.23071289062</ele>
        <time>2018-04-26T10:54:32+0200</time>
      </trkpt>
      <trkpt lat="47.20698" lon="4.9625">
        <ele>291.25317382812</ele>
        <time>2018-04-26T10:54:35+0200</time>
      </trkpt>
      <trkpt lat="47.20701" lon="4.96251">
        <ele>291.29434204102</ele>
        <time>2018-04-26T10:54:38+0200</time>
      </trkpt>
      <trkpt lat="47.20704" lon="4.96251">
        <ele>291.32818603516</ele>
        <time>2018-04-26T10:54:41+0200</time>
      </trkpt>
      <trkpt lat="47.20708" lon="4.96251">
        <ele>291.37948608398</ele>
        <time>2018-04-26T10:54:44+0200</time>
      </trkpt>
      <trkpt lat="47.2071" lon="4.96252">
        <ele>291.43115234375</ele>
        <time>2018-04-26T10:54:47+0200</time>
      </trkpt>
      <trkpt lat="47.20713" lon="4.96252">
        <ele>291.48220825195</ele>
        <time>2018-04-26T10:54:50+0200</time>
      </trkpt>
      <trkpt lat="47.20716" lon="4.96252">
        <ele>291.55111694336</ele>
        <time>2018-04-26T10:54:53+0200</time>
      </trkpt>
      <trkpt lat="47.20719" lon="4.96253">
        <ele>291.61254882812</ele>
        <time>2018-04-26T10:54:56+0200</time>
      </trkpt>
      <trkpt lat="47.20721" lon="4.96253">
        <ele>291.60946655273</ele>
        <time>2018-04-26T10:54:59+0200</time>
      </trkpt>
      <trkpt lat="47.20724" lon="4.96253">
        <ele>291.63116455078</ele>
        <time>2018-04-26T10:55:02+0200</time>
      </trkpt>
      <trkpt lat="47.20728" lon="4.96253">
        <ele>291.65664672852</ele>
        <time>2018-04-26T10:55:05+0200</time>
      </trkpt>
      <trkpt lat="47.2073" lon="4.96253">
        <ele>291.74462890625</ele>
        <time>2018-04-26T10:55:08+0200</time>
      </trkpt>
      <trkpt lat="47.20732" lon="4.96252">
        <ele>291.85375976562</ele>
        <time>2018-04-26T10:55:11+0200</time>
      </trkpt>
      <trkpt lat="47.20735" lon="4.96252">
        <ele>291.9514465332</ele>
        <time>2018-04-26T10:55:14+0200</time>
      </trkpt>
      <trkpt lat="47.20738" lon="4.96252">
        <ele>292.04025268555</ele>
        <time>2018-04-26T10:55:17+0200</time>
      </trkpt>
      <trkpt lat="47.2074" lon="4.96252">
        <ele>292.14715576172</ele>
        <time>2018-04-26T10:55:20+0200</time>
      </trkpt>
      <trkpt lat="47.20743" lon="4.96251">
        <ele>292.27725219727</ele>
        <time>2018-04-26T10:55:23+0200</time>
      </trkpt>
      <trkpt lat="47.20746" lon="4.96251">
        <ele>292.3893737793</ele>
        <time>2018-04-26T10:55:26+0200</time>
      </trkpt>
      <trkpt lat="47.20748" lon="4.9625">
        <ele>292.49392700195</ele>
        <time>2018-04-26T10:55:29+0200</time>
      </trkpt>
      <trkpt lat="47.2075" lon="4.96249">
        <ele>292.58511352539</ele>
        <time>2018-04-26T10:55:32+0200</time>
      </trkpt>
      <trkpt lat="47.20752" lon="4.96249">
        <ele>292.67568969727</ele>
        <time>2018-04-26T10:55:35+0200</time>
      </trkpt>
      <trkpt lat="47.20754" lon="4.96248">
        <ele>292.71441650391</ele>
        <time>2018-04-26T10:55:38+0200</time>
      </trkpt>
      <trkpt lat="47.20756" lon="4.96248">
        <ele>292.74084472656</ele>
        <time>2018-04-26T10:55:41+0200</time>
      </trkpt>
      <trkpt lat="47.20759" lon="4.96247">
        <ele>292.79144287109</ele>
        <time>2018-04-26T10:55:44+0200</time>
      </trkpt>
      <trkpt lat="47.20761" lon="4.96246">
        <ele>292.82894897461</ele>
        <time>2018-04-26T10:55:47+0200</time>
      </trkpt>
      <trkpt lat="47.20764" lon="4.96246">
        <ele>292.86972045898</ele>
        <time>2018-04-26T10:55:50+0200</time>
      </trkpt>
      <trkpt lat="47.20767" lon="4.96245">
        <ele>292.94332885742</ele>
        <time>2018-04-26T10:55:53+0200</time>
      </trkpt>
      <trkpt lat="47.20768" lon="4.96246">
        <ele>293.0871887207</ele>
        <time>2018-04-26T10:55:56+0200</time>
      </trkpt>
      <trkpt lat="47.2077" lon="4.96247">
        <ele>293.27847290039</ele>
        <time>2018-04-26T10:55:59+0200</time>
      </trkpt>
      <trkpt lat="47.20772" lon="4.96248">
        <ele>293.50210571289</ele>
        <time>2018-04-26T10:56:02+0200</time>
      </trkpt>
      <trkpt lat="47.20776" lon="4.96247">
        <ele>293.73220825195</ele>
        <time>2018-04-26T10:56:05+0200</time>
      </trkpt>
      <trkpt lat="47.20778" lon="4.96247">
        <ele>293.92266845703</ele>
        <time>2018-04-26T10:56:08+0200</time>
      </trkpt>
      <trkpt lat="47.20782" lon="4.96245">
        <ele>294.05133056641</ele>
        <time>2018-04-26T10:56:11+0200</time>
      </trkpt>
      <trkpt lat="47.20784" lon="4.96246">
        <ele>294.14596557617</ele>
        <time>2018-04-26T10:56:14+0200</time>
      </trkpt>
      <trkpt lat="47.20786" lon="4.96246">
        <ele>294.3154296875</ele>
        <time>2018-04-26T10:56:17+0200</time>
      </trkpt>
      <trkpt lat="47.20787" lon="4.96248">
        <ele>294.50366210938</ele>
        <time>2018-04-26T10:56:20+0200</time>
      </trkpt>
      <trkpt lat="47.2079" lon="4.96248">
        <ele>294.83486938477</ele>
        <time>2018-04-26T10:56:23+0200</time>
      </trkpt>
      <trkpt lat="47.20793" lon="4.96249">
        <ele>295.18307495117</ele>
        <time>2018-04-26T10:56:26+0200</time>
      </trkpt>
      <trkpt lat="47.20796" lon="4.96248">
        <ele>295.56973266602</ele>
        <time>2018-04-26T10:56:29+0200</time>
      </trkpt>
      <trkpt lat="47.20798" lon="4.96248">
        <ele>295.93182373047</ele>
        <time>2018-04-26T10:56:32+0200</time>
      </trkpt>
      <trkpt lat="47.20801" lon="4.96247">
        <ele>296.1842956543</ele>
        <time>2018-04-26T10:56:35+0200</time>
      </trkpt>
      <trkpt lat="47.20803" lon="4.96245">
        <ele>296.35974121094</ele>
        <time>2018-04-26T10:56:38+0200</time>
      </trkpt>
      <trkpt lat="47.20808" lon="4.96243">
        <ele>296.46447753906</ele>
        <time>2018-04-26T10:56:41+0200</time>
      </trkpt>
      <trkpt lat="47.2081" lon="4.9624">
        <ele>296.52880859375</ele>
        <time>2018-04-26T10:56:44+0200</time>
      </trkpt>
      <trkpt lat="47.20813" lon="4.96237">
        <ele>296.52374267578</ele>
        <time>2018-04-26T10:56:47+0200</time>
      </trkpt>
      <trkpt lat="47.20815" lon="4.96234">
        <ele>296.4736328125</ele>
        <time>2018-04-26T10:56:50+0200</time>
      </trkpt>
      <trkpt lat="47.20817" lon="4.96232">
        <ele>296.38177490234</ele>
        <time>2018-04-26T10:56:53+0200</time>
      </trkpt>
      <trkpt lat="47.20818" lon="4.96229">
        <ele>296.26287841797</ele>
        <time>2018-04-26T10:56:56+0200</time>
      </trkpt>
      <trkpt lat="47.20819" lon="4.96228">
        <ele>296.13372802734</ele>
        <time>2018-04-26T10:56:59+0200</time>
      </trkpt>
      <trkpt lat="47.2082" lon="4.96227">
        <ele>295.94342041016</ele>
        <time>2018-04-26T10:57:02+0200</time>
      </trkpt>
      <trkpt lat="47.20823" lon="4.96226">
        <ele>295.65435791016</ele>
        <time>2018-04-26T10:57:05+0200</time>
      </trkpt>
      <trkpt lat="47.20826" lon="4.96225">
        <ele>295.35919189453</ele>
        <time>2018-04-26T10:57:08+0200</time>
      </trkpt>
      <trkpt lat="47.20829" lon="4.96225">
        <ele>295.08535766602</ele>
        <time>2018-04-26T10:57:11+0200</time>
      </trkpt>
      <trkpt lat="47.20833" lon="4.96226">
        <ele>294.89157104492</ele>
        <time>2018-04-26T10:57:14+0200</time>
      </trkpt>
      <trkpt lat="47.20835" lon="4.96227">
        <ele>294.85885620117</ele>
        <time>2018-04-26T10:57:17+0200</time>
      </trkpt>
      <trkpt lat="47.20838" lon="4.96228">
        <ele>294.91232299805</ele>
        <time>2018-04-26T10:57:20+0200</time>
      </trkpt>
      <trkpt lat="47.20841" lon="4.96229">
        <ele>295.10083007812</ele>
        <time>2018-04-26T10:57:23+0200</time>
      </trkpt>
      <trkpt lat="47.20844" lon="4.96229">
        <ele>295.33731079102</ele>
        <time>2018-04-26T10:57:26+0200</time>
      </trkpt>
      <trkpt lat="47.20846" lon="4.96229">
        <ele>295.55700683594</ele>
        <time>2018-04-26T10:57:29+0200</time>
      </trkpt>
      <trkpt lat="47.20849" lon="4.96229">
        <ele>295.85659790039</ele>
        <time>2018-04-26T10:57:32+0200</time>
      </trkpt>
      <trkpt lat="47.20852" lon="4.96228">
        <ele>296.20236206055</ele>
        <time>2018-04-26T10:57:35+0200</time>
      </trkpt>
      <trkpt lat="47.20854" lon="4.96227">
        <ele>296.51870727539</ele>
        <time>2018-04-26T10:57:38+0200</time>
      </trkpt>
      <trkpt lat="47.20857" lon="4.96227">
        <ele>296.78491210938</ele>
        <time>2018-04-26T10:57:41+0200</time>
      </trkpt>
      <trkpt lat="47.20859" lon="4.96226">
        <ele>296.96322631836</ele>
        <time>2018-04-26T10:57:44+0200</time>
      </trkpt>
      <trkpt lat="47.20862" lon="4.96226">
        <ele>297.16024780273</ele>
        <time>2018-04-26T10:57:47+0200</time>
      </trkpt>
      <trkpt lat="47.20864" lon="4.96226">
        <ele>297.35958862305</ele>
        <time>2018-04-26T10:57:50+0200</time>
      </trkpt>
      <trkpt lat="47.20867" lon="4.96225">
        <ele>297.58428955078</ele>
        <time>2018-04-26T10:57:53+0200</time>
      </trkpt>
      <trkpt lat="47.20869" lon="4.96225">
        <ele>297.8251953125</ele>
        <time>2018-04-26T10:57:56+0200</time>
      </trkpt>
      <trkpt lat="47.20872" lon="4.96224">
        <ele>298.07266235352</ele>
        <time>2018-04-26T10:57:59+0200</time>
      </trkpt>
      <trkpt lat="47.20872" lon="4.96228">
        <ele>298.33709716797</ele>
        <time>2018-04-26T10:58:02+0200</time>
      </trkpt>
      <trkpt lat="47.20873" lon="4.96229">
        <ele>298.43521118164</ele>
        <time>2018-04-26T10:58:05+0200</time>
      </trkpt>
      <trkpt lat="47.20873" lon="4.96229">
        <ele>298.44741821289</ele>
        <time>2018-04-26T10:58:08+0200</time>
      </trkpt>
      <trkpt lat="47.20873" lon="4.96229">
        <ele>298.45373535156</ele>
        <time>2018-04-26T10:58:11+0200</time>
      </trkpt>
      <trkpt lat="47.20873" lon="4.96229">
        <ele>298.49853515625</ele>
        <time>2018-04-26T10:58:14+0200</time>
      </trkpt>
      <trkpt lat="47.20874" lon="4.96228">
        <ele>298.50350952148</ele>
        <time>2018-04-26T10:58:17+0200</time>
      </trkpt>
      <trkpt lat="47.20874" lon="4.96228">
        <ele>298.50775146484</ele>
        <time>2018-04-26T10:58:20+0200</time>
      </trkpt>
      <trkpt lat="47.20876" lon="4.96228">
        <ele>298.49893188477</ele>
        <time>2018-04-26T10:58:23+0200</time>
      </trkpt>
      <trkpt lat="47.20877" lon="4.96228">
        <ele>298.51724243164</ele>
        <time>2018-04-26T10:58:26+0200</time>
      </trkpt>
      <trkpt lat="47.2088" lon="4.96228">
        <ele>298.54110717773</ele>
        <time>2018-04-26T10:58:29+0200</time>
      </trkpt>
      <trkpt lat="47.20882" lon="4.96228">
        <ele>298.57211303711</ele>
        <time>2018-04-26T10:58:32+0200</time>
      </trkpt>
      <trkpt lat="47.20882" lon="4.96228">
        <ele>298.58767700195</ele>
        <time>2018-04-26T10:58:35+0200</time>
      </trkpt>
      <trkpt lat="47.20882" lon="4.96227">
        <ele>298.60391235352</ele>
        <time>2018-04-26T10:58:38+0200</time>
      </trkpt>
      <trkpt lat="47.20882" lon="4.96227">
        <ele>298.62423706055</ele>
        <time>2018-04-26T10:58:41+0200</time>
      </trkpt>
      <trkpt lat="47.20882" lon="4.96227">
        <ele>298.64874267578</ele>
        <time>2018-04-26T10:58:44+0200</time>
      </trkpt>
      <trkpt lat="47.20882" lon="4.96228">
        <ele>298.84359741211</ele>
        <time>2018-04-26T10:58:47+0200</time>
      </trkpt>
      <trkpt lat="47.20883" lon="4.96227">
        <ele>299.033203125</ele>
        <time>2018-04-26T10:58:50+0200</time>
      </trkpt>
      <trkpt lat="47.20888" lon="4.96227">
        <ele>299.14248657227</ele>
        <time>2018-04-26T10:58:53+0200</time>
      </trkpt>
      <trkpt lat="47.20888" lon="4.96226">
        <ele>299.13198852539</ele>
        <time>2018-04-26T10:58:56+0200</time>
      </trkpt>
      <trkpt lat="47.20888" lon="4.96227">
        <ele>299.12210083008</ele>
        <time>2018-04-26T10:58:59+0200</time>
      </trkpt>
      <trkpt lat="47.20888" lon="4.96227">
        <ele>299.04156494141</ele>
        <time>2018-04-26T10:59:02+0200</time>
      </trkpt>
      <trkpt lat="47.20891" lon="4.96227">
        <ele>298.90005493164</ele>
        <time>2018-04-26T10:59:05+0200</time>
      </trkpt>
      <trkpt lat="47.20894" lon="4.96228">
        <ele>298.82400512695</ele>
        <time>2018-04-26T10:59:08+0200</time>
      </trkpt>
      <trkpt lat="47.20895" lon="4.96228">
        <ele>298.7734375</ele>
        <time>2018-04-26T10:59:11+0200</time>
      </trkpt>
      <trkpt lat="47.209" lon="4.9623">
        <ele>298.72476196289</ele>
        <time>2018-04-26T10:59:14+0200</time>
      </trkpt>
      <trkpt lat="47.20904" lon="4.96231">
        <ele>298.69537353516</ele>
        <time>2018-04-26T10:59:17+0200</time>
      </trkpt>
      <trkpt lat="47.20907" lon="4.96232">
        <ele>298.67617797852</ele>
        <time>2018-04-26T10:59:20+0200</time>
      </trkpt>
      <trkpt lat="47.2091" lon="4.96233">
        <ele>298.65591430664</ele>
        <time>2018-04-26T10:59:23+0200</time>
      </trkpt>
      <trkpt lat="47.20914" lon="4.96234">
        <ele>298.61395263672</ele>
        <time>2018-04-26T10:59:26+0200</time>
      </trkpt>
      <trkpt lat="47.20917" lon="4.96234">
        <ele>298.48458862305</ele>
        <time>2018-04-26T10:59:29+0200</time>
      </trkpt>
      <trkpt lat="47.20921" lon="4.96235">
        <ele>298.33587646484</ele>
        <time>2018-04-26T10:59:32+0200</time>
      </trkpt>
      <trkpt lat="47.20924" lon="4.96237">
        <ele>298.19564819336</ele>
        <time>2018-04-26T10:59:35+0200</time>
      </trkpt>
      <trkpt lat="47.20926" lon="4.96238">
        <ele>298.08410644531</ele>
        <time>2018-04-26T10:59:38+0200</time>
      </trkpt>
      <trkpt lat="47.20929" lon="4.96239">
        <ele>298.02911376953</ele>
        <time>2018-04-26T10:59:41+0200</time>
      </trkpt>
      <trkpt lat="47.20933" lon="4.96241">
        <ele>297.96817016602</ele>
        <time>2018-04-26T10:59:44+0200</time>
      </trkpt>
      <trkpt lat="47.20936" lon="4.96242">
        <ele>297.87225341797</ele>
        <time>2018-04-26T10:59:47+0200</time>
      </trkpt>
      <trkpt lat="47.20939" lon="4.96243">
        <ele>297.74447631836</ele>
        <time>2018-04-26T10:59:50+0200</time>
      </trkpt>
      <trkpt lat="47.20942" lon="4.96246">
        <ele>297.68710327148</ele>
        <time>2018-04-26T10:59:53+0200</time>
      </trkpt>
      <trkpt lat="47.20945" lon="4.96249">
        <ele>297.70959472656</ele>
        <time>2018-04-26T10:59:56+0200</time>
      </trkpt>
      <trkpt lat="47.20946" lon="4.96252">
        <ele>297.77572631836</ele>
        <time>2018-04-26T10:59:59+0200</time>
      </trkpt>
      <trkpt lat="47.20948" lon="4.96256">
        <ele>297.81600952148</ele>
        <time>2018-04-26T11:00:02+0200</time>
      </trkpt>
      <trkpt lat="47.20949" lon="4.96259">
        <ele>297.90277099609</ele>
        <time>2018-04-26T11:00:05+0200</time>
      </trkpt>
      <trkpt lat="47.20949" lon="4.96261">
        <ele>297.9912109375</ele>
        <time>2018-04-26T11:00:08+0200</time>
      </trkpt>
      <trkpt lat="47.20952" lon="4.96263">
        <ele>298.05233764648</ele>
        <time>2018-04-26T11:00:11+0200</time>
      </trkpt>
      <trkpt lat="47.20955" lon="4.96265">
        <ele>298.08972167969</ele>
        <time>2018-04-26T11:00:14+0200</time>
      </trkpt>
      <trkpt lat="47.20958" lon="4.96266">
        <ele>298.0751953125</ele>
        <time>2018-04-26T11:00:17+0200</time>
      </trkpt>
      <trkpt lat="47.2096" lon="4.96266">
        <ele>298.08615112305</ele>
        <time>2018-04-26T11:00:20+0200</time>
      </trkpt>
      <trkpt lat="47.20964" lon="4.96267">
        <ele>298.0930480957</ele>
        <time>2018-04-26T11:00:23+0200</time>
      </trkpt>
      <trkpt lat="47.20968" lon="4.96268">
        <ele>298.0725402832</ele>
        <time>2018-04-26T11:00:26+0200</time>
      </trkpt>
      <trkpt lat="47.20973" lon="4.9627">
        <ele>298.05847167969</ele>
        <time>2018-04-26T11:00:29+0200</time>
      </trkpt>
      <trkpt lat="47.20976" lon="4.96272">
        <ele>298.14273071289</ele>
        <time>2018-04-26T11:00:32+0200</time>
      </trkpt>
      <trkpt lat="47.20978" lon="4.96272">
        <ele>298.27728271484</ele>
        <time>2018-04-26T11:00:35+0200</time>
      </trkpt>
      <trkpt lat="47.2098" lon="4.96273">
        <ele>298.44940185547</ele>
        <time>2018-04-26T11:00:38+0200</time>
      </trkpt>
      <trkpt lat="47.20984" lon="4.96273">
        <ele>298.61117553711</ele>
        <time>2018-04-26T11:00:41+0200</time>
      </trkpt>
      <trkpt lat="47.20987" lon="4.96275">
        <ele>298.77572631836</ele>
        <time>2018-04-26T11:00:44+0200</time>
      </trkpt>
      <trkpt lat="47.20991" lon="4.96276">
        <ele>298.90521240234</ele>
        <time>2018-04-26T11:00:47+0200</time>
      </trkpt>
      <trkpt lat="47.20995" lon="4.96278">
        <ele>299.03851318359</ele>
        <time>2018-04-26T11:00:50+0200</time>
      </trkpt>
      <trkpt lat="47.20996" lon="4.96278">
        <ele>299.19107055664</ele>
        <time>2018-04-26T11:00:53+0200</time>
      </trkpt>
      <trkpt lat="47.20999" lon="4.96279">
        <ele>299.33828735352</ele>
        <time>2018-04-26T11:00:56+0200</time>
      </trkpt>
      <trkpt lat="47.21002" lon="4.96279">
        <ele>299.43170166016</ele>
        <time>2018-04-26T11:00:59+0200</time>
      </trkpt>
      <trkpt lat="47.21007" lon="4.96281">
        <ele>299.53387451172</ele>
        <time>2018-04-26T11:01:02+0200</time>
      </trkpt>
      <trkpt lat="47.21009" lon="4.96281">
        <ele>299.67068481445</ele>
        <time>2018-04-26T11:01:05+0200</time>
      </trkpt>
      <trkpt lat="47.21011" lon="4.96282">
        <ele>299.79751586914</ele>
        <time>2018-04-26T11:01:08+0200</time>
      </trkpt>
      <trkpt lat="47.21014" lon="4.96282">
        <ele>299.98754882812</ele>
        <time>2018-04-26T11:01:11+0200</time>
      </trkpt>
      <trkpt lat="47.21016" lon="4.96282">
        <ele>300.16247558594</ele>
        <time>2018-04-26T11:01:14+0200</time>
      </trkpt>
      <trkpt lat="47.21021" lon="4.96284">
        <ele>300.21572875977</ele>
        <time>2018-04-26T11:01:17+0200</time>
      </trkpt>
      <trkpt lat="47.21025" lon="4.96286">
        <ele>300.1745300293</ele>
        <time>2018-04-26T11:01:20+0200</time>
      </trkpt>
      <trkpt lat="47.21026" lon="4.96287">
        <ele>300.1223449707</ele>
        <time>2018-04-26T11:01:23+0200</time>
      </trkpt>
      <trkpt lat="47.2103" lon="4.96288">
        <ele>300.02590942383</ele>
        <time>2018-04-26T11:01:26+0200</time>
      </trkpt>
      <trkpt lat="47.21033" lon="4.9629">
        <ele>299.96389770508</ele>
        <time>2018-04-26T11:01:29+0200</time>
      </trkpt>
      <trkpt lat="47.21035" lon="4.96291">
        <ele>299.94555664062</ele>
        <time>2018-04-26T11:01:32+0200</time>
      </trkpt>
      <trkpt lat="47.21036" lon="4.96292">
        <ele>299.94180297852</ele>
        <time>2018-04-26T11:01:35+0200</time>
      </trkpt>
      <trkpt lat="47.21039" lon="4.96294">
        <ele>299.84899902344</ele>
        <time>2018-04-26T11:01:38+0200</time>
      </trkpt>
      <trkpt lat="47.21042" lon="4.96297">
        <ele>299.67913818359</ele>
        <time>2018-04-26T11:01:41+0200</time>
      </trkpt>
      <trkpt lat="47.21043" lon="4.96299">
        <ele>299.48834228516</ele>
        <time>2018-04-26T11:01:44+0200</time>
      </trkpt>
      <trkpt lat="47.21044" lon="4.96301">
        <ele>299.37997436523</ele>
        <time>2018-04-26T11:01:47+0200</time>
      </trkpt>
      <trkpt lat="47.21044" lon="4.96302">
        <ele>299.26373291016</ele>
        <time>2018-04-26T11:01:50+0200</time>
      </trkpt>
      <trkpt lat="47.21046" lon="4.96304">
        <ele>299.17956542969</ele>
        <time>2018-04-26T11:01:53+0200</time>
      </trkpt>
      <trkpt lat="47.21046" lon="4.96305">
        <ele>299.03863525391</ele>
        <time>2018-04-26T11:01:56+0200</time>
      </trkpt>
      <trkpt lat="47.21048" lon="4.96306">
        <ele>299.02108764648</ele>
        <time>2018-04-26T11:01:59+0200</time>
      </trkpt>
      <trkpt lat="47.21048" lon="4.96307">
        <ele>298.99722290039</ele>
        <time>2018-04-26T11:02:02+0200</time>
      </trkpt>
      <trkpt lat="47.21048" lon="4.96307">
        <ele>298.88220214844</ele>
        <time>2018-04-26T11:02:05+0200</time>
      </trkpt>
      <trkpt lat="47.21048" lon="4.96307">
        <ele>298.65426635742</ele>
        <time>2018-04-26T11:02:08+0200</time>
      </trkpt>
      <trkpt lat="47.21048" lon="4.96307">
        <ele>298.63912963867</ele>
        <time>2018-04-26T11:02:11+0200</time>
      </trkpt>
      <trkpt lat="47.21048" lon="4.96307">
        <ele>298.6286315918</ele>
        <time>2018-04-26T11:02:14+0200</time>
      </trkpt>
      <trkpt lat="47.21048" lon="4.96306">
        <ele>298.62118530273</ele>
        <time>2018-04-26T11:02:17+0200</time>
      </trkpt>
      <trkpt lat="47.21048" lon="4.96306">
        <ele>298.61700439453</ele>
        <time>2018-04-26T11:02:20+0200</time>
      </trkpt>
      <trkpt lat="47.21047" lon="4.96306">
        <ele>298.60638427734</ele>
        <time>2018-04-26T11:02:23+0200</time>
      </trkpt>
      <trkpt lat="47.21047" lon="4.96306">
        <ele>298.59286499023</ele>
        <time>2018-04-26T11:02:26+0200</time>
      </trkpt>
      <trkpt lat="47.21047" lon="4.96306">
        <ele>298.55920410156</ele>
        <time>2018-04-26T11:02:29+0200</time>
      </trkpt>
      <trkpt lat="47.21047" lon="4.96306">
        <ele>298.51422119141</ele>
        <time>2018-04-26T11:02:32+0200</time>
      </trkpt>
      <trkpt lat="47.21047" lon="4.96306">
        <ele>298.47439575195</ele>
        <time>2018-04-26T11:02:35+0200</time>
      </trkpt>
      <trkpt lat="47.21047" lon="4.96306">
        <ele>298.44836425781</ele>
        <time>2018-04-26T11:02:38+0200</time>
      </trkpt>
      <trkpt lat="47.21047" lon="4.96306">
        <ele>298.42013549805</ele>
        <time>2018-04-26T11:02:41+0200</time>
      </trkpt>
      <trkpt lat="47.21047" lon="4.96306">
        <ele>298.39566040039</ele>
        <time>2018-04-26T11:02:44+0200</time>
      </trkpt>
      <trkpt lat="47.21047" lon="4.96306">
        <ele>298.36267089844</ele>
        <time>2018-04-26T11:02:47+0200</time>
      </trkpt>
      <trkpt lat="47.21047" lon="4.96306">
        <ele>298.33013916016</ele>
        <time>2018-04-26T11:02:50+0200</time>
      </trkpt>
      <trkpt lat="47.21046" lon="4.96306">
        <ele>298.30056762695</ele>
        <time>2018-04-26T11:02:53+0200</time>
      </trkpt>
      <trkpt lat="47.21046" lon="4.96306">
        <ele>298.27435302734</ele>
        <time>2018-04-26T11:02:56+0200</time>
      </trkpt>
      <trkpt lat="47.21046" lon="4.96306">
        <ele>298.12475585938</ele>
        <time>2018-04-26T11:02:59+0200</time>
      </trkpt>
      <trkpt lat="47.21046" lon="4.96306">
        <ele>298.10992431641</ele>
        <time>2018-04-26T11:03:02+0200</time>
      </trkpt>
      <trkpt lat="47.21046" lon="4.96306">
        <ele>298.09326171875</ele>
        <time>2018-04-26T11:03:05+0200</time>
      </trkpt>
      <trkpt lat="47.21046" lon="4.96306">
        <ele>298.07415771484</ele>
        <time>2018-04-26T11:03:08+0200</time>
      </trkpt>
      <trkpt lat="47.21046" lon="4.96306">
        <ele>298.05493164062</ele>
        <time>2018-04-26T11:03:11+0200</time>
      </trkpt>
      <trkpt lat="47.21046" lon="4.96306">
        <ele>298.03378295898</ele>
        <time>2018-04-26T11:03:14+0200</time>
      </trkpt>
      <trkpt lat="47.21046" lon="4.96306">
        <ele>298.0075378418</ele>
        <time>2018-04-26T11:03:17+0200</time>
      </trkpt>
      <trkpt lat="47.21047" lon="4.96306">
        <ele>297.97634887695</ele>
        <time>2018-04-26T11:03:20+0200</time>
      </trkpt>
      <trkpt lat="47.21047" lon="4.96306">
        <ele>297.93991088867</ele>
        <time>2018-04-26T11:03:23+0200</time>
      </trkpt>
      <trkpt lat="47.21047" lon="4.96306">
        <ele>297.89880371094</ele>
        <time>2018-04-26T11:03:26+0200</time>
      </trkpt>
      <trkpt lat="47.21047" lon="4.96306">
        <ele>297.85641479492</ele>
        <time>2018-04-26T11:03:29+0200</time>
      </trkpt>
      <trkpt lat="47.21047" lon="4.96306">
        <ele>297.81536865234</ele>
        <time>2018-04-26T11:03:32+0200</time>
      </trkpt>
      <trkpt lat="47.21047" lon="4.96306">
        <ele>297.77789306641</ele>
        <time>2018-04-26T11:03:35+0200</time>
      </trkpt>
      <trkpt lat="47.21047" lon="4.96306">
        <ele>297.6432800293</ele>
        <time>2018-04-26T11:03:38+0200</time>
      </trkpt>
      <trkpt lat="47.21047" lon="4.96307">
        <ele>297.61236572266</ele>
        <time>2018-04-26T11:03:41+0200</time>
      </trkpt>
      <trkpt lat="47.21048" lon="4.96307">
        <ele>297.49633789062</ele>
        <time>2018-04-26T11:03:44+0200</time>
      </trkpt>
      <trkpt lat="47.21048" lon="4.96307">
        <ele>297.46966552734</ele>
        <time>2018-04-26T11:03:47+0200</time>
      </trkpt>
      <trkpt lat="47.21048" lon="4.96307">
        <ele>297.44393920898</ele>
        <time>2018-04-26T11:03:50+0200</time>
      </trkpt>
      <trkpt lat="47.21048" lon="4.96307">
        <ele>297.41784667969</ele>
        <time>2018-04-26T11:03:53+0200</time>
      </trkpt>
      <trkpt lat="47.21048" lon="4.96307">
        <ele>297.3913269043</ele>
        <time>2018-04-26T11:03:56+0200</time>
      </trkpt>
      <trkpt lat="47.21048" lon="4.96307">
        <ele>297.36575317383</ele>
        <time>2018-04-26T11:03:59+0200</time>
      </trkpt>
      <trkpt lat="47.21048" lon="4.96307">
        <ele>297.34399414062</ele>
        <time>2018-04-26T11:04:02+0200</time>
      </trkpt>
      <trkpt lat="47.21048" lon="4.96308">
        <ele>297.26834106445</ele>
        <time>2018-04-26T11:04:05+0200</time>
      </trkpt>
      <trkpt lat="47.21049" lon="4.96308">
        <ele>297.22418212891</ele>
        <time>2018-04-26T11:04:08+0200</time>
      </trkpt>
      <trkpt lat="47.2105" lon="4.96307">
        <ele>297.21041870117</ele>
        <time>2018-04-26T11:04:11+0200</time>
      </trkpt>
      <trkpt lat="47.21051" lon="4.96306">
        <ele>297.20758056641</ele>
        <time>2018-04-26T11:04:14+0200</time>
      </trkpt>
      <trkpt lat="47.21051" lon="4.96306">
        <ele>297.20816040039</ele>
        <time>2018-04-26T11:04:17+0200</time>
      </trkpt>
      <trkpt lat="47.21051" lon="4.96305">
        <ele>297.23168945312</ele>
        <time>2018-04-26T11:04:20+0200</time>
      </trkpt>
      <trkpt lat="47.21052" lon="4.96306">
        <ele>297.27084350586</ele>
        <time>2018-04-26T11:04:23+0200</time>
      </trkpt>
      <trkpt lat="47.21052" lon="4.96307">
        <ele>297.30499267578</ele>
        <time>2018-04-26T11:04:26+0200</time>
      </trkpt>
      <trkpt lat="47.21052" lon="4.96306">
        <ele>297.32077026367</ele>
        <time>2018-04-26T11:04:29+0200</time>
      </trkpt>
      <trkpt lat="47.21052" lon="4.96305">
        <ele>297.31970214844</ele>
        <time>2018-04-26T11:04:32+0200</time>
      </trkpt>
      <trkpt lat="47.21052" lon="4.96306">
        <ele>297.31881713867</ele>
        <time>2018-04-26T11:04:35+0200</time>
      </trkpt>
      <trkpt lat="47.21052" lon="4.96306">
        <ele>297.31329345703</ele>
        <time>2018-04-26T11:04:38+0200</time>
      </trkpt>
      <trkpt lat="47.21052" lon="4.96306">
        <ele>297.29901123047</ele>
        <time>2018-04-26T11:04:41+0200</time>
      </trkpt>
      <trkpt lat="47.21052" lon="4.96306">
        <ele>297.2873840332</ele>
        <time>2018-04-26T11:04:44+0200</time>
      </trkpt>
      <trkpt lat="47.21052" lon="4.96306">
        <ele>297.28582763672</ele>
        <time>2018-04-26T11:04:47+0200</time>
      </trkpt>
      <trkpt lat="47.21052" lon="4.96306">
        <ele>297.29110717773</ele>
        <time>2018-04-26T11:04:50+0200</time>
      </trkpt>
      <trkpt lat="47.21052" lon="4.96306">
        <ele>297.29699707031</ele>
        <time>2018-04-26T11:04:53+0200</time>
      </trkpt>
      <trkpt lat="47.21052" lon="4.96306">
        <ele>297.30474853516</ele>
        <time>2018-04-26T11:04:56+0200</time>
      </trkpt>
      <trkpt lat="47.21052" lon="4.96306">
        <ele>297.31433105469</ele>
        <time>2018-04-26T11:04:59+0200</time>
      </trkpt>
      <trkpt lat="47.21052" lon="4.96306">
        <ele>297.32043457031</ele>
        <time>2018-04-26T11:05:02+0200</time>
      </trkpt>
      <trkpt lat="47.21052" lon="4.96306">
        <ele>297.32516479492</ele>
        <time>2018-04-26T11:05:05+0200</time>
      </trkpt>
      <trkpt lat="47.21052" lon="4.96306">
        <ele>297.32110595703</ele>
        <time>2018-04-26T11:05:08+0200</time>
      </trkpt>
      <trkpt lat="47.21052" lon="4.96306">
        <ele>297.31332397461</ele>
        <time>2018-04-26T11:05:11+0200</time>
      </trkpt>
      <trkpt lat="47.21052" lon="4.96306">
        <ele>297.31884765625</ele>
        <time>2018-04-26T11:05:14+0200</time>
      </trkpt>
      <trkpt lat="47.21052" lon="4.96306">
        <ele>297.3327331543</ele>
        <time>2018-04-26T11:05:17+0200</time>
      </trkpt>
      <trkpt lat="47.21052" lon="4.96306">
        <ele>297.35000610352</ele>
        <time>2018-04-26T11:05:20+0200</time>
      </trkpt>
      <trkpt lat="47.21052" lon="4.96305">
        <ele>297.37045288086</ele>
        <time>2018-04-26T11:05:23+0200</time>
      </trkpt>
      <trkpt lat="47.21052" lon="4.96305">
        <ele>297.39318847656</ele>
        <time>2018-04-26T11:05:26+0200</time>
      </trkpt>
      <trkpt lat="47.21052" lon="4.96305">
        <ele>297.41003417969</ele>
        <time>2018-04-26T11:05:29+0200</time>
      </trkpt>
      <trkpt lat="47.21052" lon="4.96306">
        <ele>297.41275024414</ele>
        <time>2018-04-26T11:05:32+0200</time>
      </trkpt>
      <trkpt lat="47.21052" lon="4.96306">
        <ele>297.40557861328</ele>
        <time>2018-04-26T11:05:35+0200</time>
      </trkpt>
      <trkpt lat="47.21052" lon="4.96306">
        <ele>297.39559936523</ele>
        <time>2018-04-26T11:05:38+0200</time>
      </trkpt>
      <trkpt lat="47.21053" lon="4.96306">
        <ele>297.38381958008</ele>
        <time>2018-04-26T11:05:41+0200</time>
      </trkpt>
      <trkpt lat="47.21053" lon="4.96306">
        <ele>297.3671875</ele>
        <time>2018-04-26T11:05:44+0200</time>
      </trkpt>
      <trkpt lat="47.21053" lon="4.96306">
        <ele>297.3532409668</ele>
        <time>2018-04-26T11:05:47+0200</time>
      </trkpt>
      <trkpt lat="47.21053" lon="4.96306">
        <ele>297.34060668945</ele>
        <time>2018-04-26T11:05:50+0200</time>
      </trkpt>
      <trkpt lat="47.21053" lon="4.96307">
        <ele>297.33627319336</ele>
        <time>2018-04-26T11:05:52+0200</time>
      </trkpt>
      <trkpt lat="47.21053" lon="4.96307">
        <ele>297.33419799805</ele>
        <time>2018-04-26T11:05:55+0200</time>
      </trkpt>
      <trkpt lat="47.21052" lon="4.96307">
        <ele>297.33941650391</ele>
        <time>2018-04-26T11:05:58+0200</time>
      </trkpt>
      <trkpt lat="47.21052" lon="4.96307">
        <ele>297.34692382812</ele>
        <time>2018-04-26T11:06:01+0200</time>
      </trkpt>
      <trkpt lat="47.21052" lon="4.96307">
        <ele>297.35418701172</ele>
        <time>2018-04-26T11:06:04+0200</time>
      </trkpt>
      <trkpt lat="47.21052" lon="4.96307">
        <ele>297.35653686523</ele>
        <time>2018-04-26T11:06:07+0200</time>
      </trkpt>
      <trkpt lat="47.21052" lon="4.96307">
        <ele>297.35348510742</ele>
        <time>2018-04-26T11:06:10+0200</time>
      </trkpt>
      <trkpt lat="47.21051" lon="4.96307">
        <ele>297.35073852539</ele>
        <time>2018-04-26T11:06:13+0200</time>
      </trkpt>
      <trkpt lat="47.21051" lon="4.96307">
        <ele>297.35018920898</ele>
        <time>2018-04-26T11:06:16+0200</time>
      </trkpt>
      <trkpt lat="47.21051" lon="4.96307">
        <ele>297.35406494141</ele>
        <time>2018-04-26T11:06:19+0200</time>
      </trkpt>
      <trkpt lat="47.21051" lon="4.96307">
        <ele>297.36129760742</ele>
        <time>2018-04-26T11:06:22+0200</time>
      </trkpt>
      <trkpt lat="47.21051" lon="4.96307">
        <ele>297.37106323242</ele>
        <time>2018-04-26T11:06:25+0200</time>
      </trkpt>
      <trkpt lat="47.21051" lon="4.96306">
        <ele>297.38348388672</ele>
        <time>2018-04-26T11:06:28+0200</time>
      </trkpt>
      <trkpt lat="47.21051" lon="4.96306">
        <ele>297.39703369141</ele>
        <time>2018-04-26T11:06:31+0200</time>
      </trkpt>
      <trkpt lat="47.21051" lon="4.96306">
        <ele>297.40835571289</ele>
        <time>2018-04-26T11:06:34+0200</time>
      </trkpt>
      <trkpt lat="47.21051" lon="4.96306">
        <ele>297.41232299805</ele>
        <time>2018-04-26T11:06:37+0200</time>
      </trkpt>
      <trkpt lat="47.21051" lon="4.96306">
        <ele>297.41149902344</ele>
        <time>2018-04-26T11:06:40+0200</time>
      </trkpt>
      <trkpt lat="47.21051" lon="4.96307">
        <ele>297.34841918945</ele>
        <time>2018-04-26T11:06:43+0200</time>
      </trkpt>
      <trkpt lat="47.21051" lon="4.96308">
        <ele>297.34338378906</ele>
        <time>2018-04-26T11:06:46+0200</time>
      </trkpt>
      <trkpt lat="47.21051" lon="4.96308">
        <ele>297.32235717773</ele>
        <time>2018-04-26T11:06:49+0200</time>
      </trkpt>
      <trkpt lat="47.21051" lon="4.96307">
        <ele>297.28588867188</ele>
        <time>2018-04-26T11:06:52+0200</time>
      </trkpt>
      <trkpt lat="47.21051" lon="4.96307">
        <ele>297.26516723633</ele>
        <time>2018-04-26T11:06:55+0200</time>
      </trkpt>
      <trkpt lat="47.21051" lon="4.96307">
        <ele>297.23965454102</ele>
        <time>2018-04-26T11:06:58+0200</time>
      </trkpt>
      <trkpt lat="47.21051" lon="4.96307">
        <ele>297.21069335938</ele>
        <time>2018-04-26T11:07:01+0200</time>
      </trkpt>
      <trkpt lat="47.21051" lon="4.96307">
        <ele>297.18356323242</ele>
        <time>2018-04-26T11:07:04+0200</time>
      </trkpt>
      <trkpt lat="47.21051" lon="4.96306">
        <ele>297.15542602539</ele>
        <time>2018-04-26T11:07:07+0200</time>
      </trkpt>
      <trkpt lat="47.21051" lon="4.96307">
        <ele>297.13082885742</ele>
        <time>2018-04-26T11:07:10+0200</time>
      </trkpt>
      <trkpt lat="47.21051" lon="4.96306">
        <ele>297.0993347168</ele>
        <time>2018-04-26T11:07:13+0200</time>
      </trkpt>
      <trkpt lat="47.21051" lon="4.96307">
        <ele>297.07205200195</ele>
        <time>2018-04-26T11:07:16+0200</time>
      </trkpt>
      <trkpt lat="47.21051" lon="4.96307">
        <ele>297.04479980469</ele>
        <time>2018-04-26T11:07:19+0200</time>
      </trkpt>
      <trkpt lat="47.21051" lon="4.96307">
        <ele>297.02014160156</ele>
        <time>2018-04-26T11:07:22+0200</time>
      </trkpt>
      <trkpt lat="47.2105" lon="4.96307">
        <ele>297</ele>
        <time>2018-04-26T11:07:25+0200</time>
      </trkpt>
      <trkpt lat="47.2105" lon="4.96307">
        <ele>296.98471069336</ele>
        <time>2018-04-26T11:07:28+0200</time>
      </trkpt>
      <trkpt lat="47.2105" lon="4.96307">
        <ele>296.97702026367</ele>
        <time>2018-04-26T11:07:31+0200</time>
      </trkpt>
      <trkpt lat="47.2105" lon="4.96307">
        <ele>296.97564697266</ele>
        <time>2018-04-26T11:07:34+0200</time>
      </trkpt>
      <trkpt lat="47.2105" lon="4.96307">
        <ele>296.97760009766</ele>
        <time>2018-04-26T11:07:37+0200</time>
      </trkpt>
      <trkpt lat="47.2105" lon="4.96308">
        <ele>296.98043823242</ele>
        <time>2018-04-26T11:07:40+0200</time>
      </trkpt>
      <trkpt lat="47.2105" lon="4.96308">
        <ele>296.97479248047</ele>
        <time>2018-04-26T11:07:43+0200</time>
      </trkpt>
      <trkpt lat="47.2105" lon="4.96308">
        <ele>296.96667480469</ele>
        <time>2018-04-26T11:07:46+0200</time>
      </trkpt>
      <trkpt lat="47.2105" lon="4.96308">
        <ele>296.96310424805</ele>
        <time>2018-04-26T11:07:49+0200</time>
      </trkpt>
      <trkpt lat="47.2105" lon="4.96308">
        <ele>296.95724487305</ele>
        <time>2018-04-26T11:07:52+0200</time>
      </trkpt>
      <trkpt lat="47.2105" lon="4.96308">
        <ele>296.94638061523</ele>
        <time>2018-04-26T11:07:55+0200</time>
      </trkpt>
      <trkpt lat="47.2105" lon="4.96308">
        <ele>296.93353271484</ele>
        <time>2018-04-26T11:07:58+0200</time>
      </trkpt>
      <trkpt lat="47.2105" lon="4.96308">
        <ele>296.92211914062</ele>
        <time>2018-04-26T11:08:01+0200</time>
      </trkpt>
      <trkpt lat="47.2105" lon="4.96308">
        <ele>296.91491699219</ele>
        <time>2018-04-26T11:08:04+0200</time>
      </trkpt>
      <trkpt lat="47.2105" lon="4.96308">
        <ele>296.91348266602</ele>
        <time>2018-04-26T11:08:07+0200</time>
      </trkpt>
      <trkpt lat="47.2105" lon="4.96308">
        <ele>296.91009521484</ele>
        <time>2018-04-26T11:08:10+0200</time>
      </trkpt>
      <trkpt lat="47.2105" lon="4.96308">
        <ele>296.90823364258</ele>
        <time>2018-04-26T11:08:13+0200</time>
      </trkpt>
      <trkpt lat="47.2105" lon="4.96308">
        <ele>296.9130859375</ele>
        <time>2018-04-26T11:08:16+0200</time>
      </trkpt>
      <trkpt lat="47.2105" lon="4.96308">
        <ele>296.92303466797</ele>
        <time>2018-04-26T11:08:19+0200</time>
      </trkpt>
      <trkpt lat="47.2105" lon="4.96309">
        <ele>296.93829345703</ele>
        <time>2018-04-26T11:08:22+0200</time>
      </trkpt>
      <trkpt lat="47.2105" lon="4.96309">
        <ele>296.95495605469</ele>
        <time>2018-04-26T11:08:25+0200</time>
      </trkpt>
      <trkpt lat="47.2105" lon="4.96309">
        <ele>296.96621704102</ele>
        <time>2018-04-26T11:08:28+0200</time>
      </trkpt>
      <trkpt lat="47.2105" lon="4.96309">
        <ele>296.96762084961</ele>
        <time>2018-04-26T11:08:31+0200</time>
      </trkpt>
      <trkpt lat="47.2105" lon="4.96309">
        <ele>296.96166992188</ele>
        <time>2018-04-26T11:08:34+0200</time>
      </trkpt>
      <trkpt lat="47.2105" lon="4.96309">
        <ele>296.95718383789</ele>
        <time>2018-04-26T11:08:37+0200</time>
      </trkpt>
      <trkpt lat="47.2105" lon="4.96309">
        <ele>296.95690917969</ele>
        <time>2018-04-26T11:08:40+0200</time>
      </trkpt>
      <trkpt lat="47.2105" lon="4.96309">
        <ele>296.95248413086</ele>
        <time>2018-04-26T11:08:43+0200</time>
      </trkpt>
      <trkpt lat="47.2105" lon="4.96309">
        <ele>296.9465637207</ele>
        <time>2018-04-26T11:08:46+0200</time>
      </trkpt>
      <trkpt lat="47.21049" lon="4.96309">
        <ele>296.94076538086</ele>
        <time>2018-04-26T11:08:49+0200</time>
      </trkpt>
      <trkpt lat="47.21049" lon="4.96309">
        <ele>296.93676757812</ele>
        <time>2018-04-26T11:08:52+0200</time>
      </trkpt>
      <trkpt lat="47.21049" lon="4.96309">
        <ele>296.92443847656</ele>
        <time>2018-04-26T11:08:55+0200</time>
      </trkpt>
      <trkpt lat="47.21049" lon="4.96309">
        <ele>296.90927124023</ele>
        <time>2018-04-26T11:08:58+0200</time>
      </trkpt>
      <trkpt lat="47.21049" lon="4.96309">
        <ele>296.88522338867</ele>
        <time>2018-04-26T11:09:01+0200</time>
      </trkpt>
      <trkpt lat="47.21049" lon="4.96309">
        <ele>296.85250854492</ele>
        <time>2018-04-26T11:09:04+0200</time>
      </trkpt>
      <trkpt lat="47.21049" lon="4.96308">
        <ele>296.82745361328</ele>
        <time>2018-04-26T11:09:07+0200</time>
      </trkpt>
      <trkpt lat="47.21049" lon="4.96308">
        <ele>296.80221557617</ele>
        <time>2018-04-26T11:09:10+0200</time>
      </trkpt>
      <trkpt lat="47.21049" lon="4.96308">
        <ele>296.78686523438</ele>
        <time>2018-04-26T11:09:13+0200</time>
      </trkpt>
      <trkpt lat="47.21049" lon="4.96308">
        <ele>296.77349853516</ele>
        <time>2018-04-26T11:09:16+0200</time>
      </trkpt>
      <trkpt lat="47.21049" lon="4.96308">
        <ele>296.76434326172</ele>
        <time>2018-04-26T11:09:19+0200</time>
      </trkpt>
      <trkpt lat="47.21049" lon="4.96308">
        <ele>296.75827026367</ele>
        <time>2018-04-26T11:09:22+0200</time>
      </trkpt>
      <trkpt lat="47.21049" lon="4.96308">
        <ele>296.75366210938</ele>
        <time>2018-04-26T11:09:25+0200</time>
      </trkpt>
      <trkpt lat="47.2105" lon="4.96308">
        <ele>296.75378417969</ele>
        <time>2018-04-26T11:09:28+0200</time>
      </trkpt>
      <trkpt lat="47.2105" lon="4.96309">
        <ele>296.75891113281</ele>
        <time>2018-04-26T11:09:31+0200</time>
      </trkpt>
      <trkpt lat="47.2105" lon="4.96309">
        <ele>296.76089477539</ele>
        <time>2018-04-26T11:09:34+0200</time>
      </trkpt>
      <trkpt lat="47.2105" lon="4.96309">
        <ele>296.75433349609</ele>
        <time>2018-04-26T11:09:37+0200</time>
      </trkpt>
      <trkpt lat="47.21049" lon="4.96309">
        <ele>296.73886108398</ele>
        <time>2018-04-26T11:09:40+0200</time>
      </trkpt>
      <trkpt lat="47.21049" lon="4.96309">
        <ele>296.71807861328</ele>
        <time>2018-04-26T11:09:43+0200</time>
      </trkpt>
      <trkpt lat="47.21049" lon="4.96309">
        <ele>296.69454956055</ele>
        <time>2018-04-26T11:09:46+0200</time>
      </trkpt>
      <trkpt lat="47.21049" lon="4.96308">
        <ele>296.66943359375</ele>
        <time>2018-04-26T11:09:49+0200</time>
      </trkpt>
      <trkpt lat="47.21049" lon="4.96308">
        <ele>296.64614868164</ele>
        <time>2018-04-26T11:09:52+0200</time>
      </trkpt>
      <trkpt lat="47.21049" lon="4.96308">
        <ele>296.62939453125</ele>
        <time>2018-04-26T11:09:55+0200</time>
      </trkpt>
      <trkpt lat="47.21049" lon="4.96308">
        <ele>296.61840820312</ele>
        <time>2018-04-26T11:09:58+0200</time>
      </trkpt>
      <trkpt lat="47.21049" lon="4.96308">
        <ele>296.60919189453</ele>
        <time>2018-04-26T11:10:01+0200</time>
      </trkpt>
      <trkpt lat="47.21049" lon="4.96309">
        <ele>296.60104370117</ele>
        <time>2018-04-26T11:10:04+0200</time>
      </trkpt>
      <trkpt lat="47.21049" lon="4.96309">
        <ele>296.5983581543</ele>
        <time>2018-04-26T11:10:07+0200</time>
      </trkpt>
      <trkpt lat="47.21049" lon="4.96309">
        <ele>296.60250854492</ele>
        <time>2018-04-26T11:10:10+0200</time>
      </trkpt>
      <trkpt lat="47.21049" lon="4.96309">
        <ele>296.61123657227</ele>
        <time>2018-04-26T11:10:13+0200</time>
      </trkpt>
      <trkpt lat="47.21049" lon="4.96309">
        <ele>296.6217956543</ele>
        <time>2018-04-26T11:10:16+0200</time>
      </trkpt>
      <trkpt lat="47.21049" lon="4.96309">
        <ele>296.63003540039</ele>
        <time>2018-04-26T11:10:19+0200</time>
      </trkpt>
      <trkpt lat="47.21049" lon="4.96309">
        <ele>296.63464355469</ele>
        <time>2018-04-26T11:10:22+0200</time>
      </trkpt>
      <trkpt lat="47.21049" lon="4.96309">
        <ele>296.63690185547</ele>
        <time>2018-04-26T11:10:25+0200</time>
      </trkpt>
      <trkpt lat="47.21049" lon="4.96309">
        <ele>296.63385009766</ele>
        <time>2018-04-26T11:10:28+0200</time>
      </trkpt>
      <trkpt lat="47.21049" lon="4.96309">
        <ele>296.62652587891</ele>
        <time>2018-04-26T11:10:31+0200</time>
      </trkpt>
      <trkpt lat="47.21049" lon="4.96309">
        <ele>296.61752319336</ele>
        <time>2018-04-26T11:10:34+0200</time>
      </trkpt>
      <trkpt lat="47.21049" lon="4.96309">
        <ele>296.61032104492</ele>
        <time>2018-04-26T11:10:37+0200</time>
      </trkpt>
      <trkpt lat="47.21049" lon="4.96309">
        <ele>296.60803222656</ele>
        <time>2018-04-26T11:10:40+0200</time>
      </trkpt>
      <trkpt lat="47.21049" lon="4.96309">
        <ele>296.60925292969</ele>
        <time>2018-04-26T11:10:43+0200</time>
      </trkpt>
      <trkpt lat="47.21049" lon="4.96309">
        <ele>296.61419677734</ele>
        <time>2018-04-26T11:10:46+0200</time>
      </trkpt>
      <trkpt lat="47.21049" lon="4.96309">
        <ele>296.62078857422</ele>
        <time>2018-04-26T11:10:49+0200</time>
      </trkpt>
      <trkpt lat="47.21049" lon="4.96309">
        <ele>296.62609863281</ele>
        <time>2018-04-26T11:10:52+0200</time>
      </trkpt>
      <trkpt lat="47.21049" lon="4.96309">
        <ele>296.62493896484</ele>
        <time>2018-04-26T11:10:55+0200</time>
      </trkpt>
      <trkpt lat="47.21049" lon="4.96309">
        <ele>296.62576293945</ele>
        <time>2018-04-26T11:10:58+0200</time>
      </trkpt>
      <trkpt lat="47.21049" lon="4.96309">
        <ele>296.63226318359</ele>
        <time>2018-04-26T11:11:01+0200</time>
      </trkpt>
      <trkpt lat="47.21049" lon="4.96309">
        <ele>296.63995361328</ele>
        <time>2018-04-26T11:11:04+0200</time>
      </trkpt>
      <trkpt lat="47.21049" lon="4.96309">
        <ele>296.65045166016</ele>
        <time>2018-04-26T11:11:07+0200</time>
      </trkpt>
      <trkpt lat="47.21049" lon="4.96309">
        <ele>296.66137695312</ele>
        <time>2018-04-26T11:11:10+0200</time>
      </trkpt>
      <trkpt lat="47.21049" lon="4.96309">
        <ele>296.669921875</ele>
        <time>2018-04-26T11:11:13+0200</time>
      </trkpt>
      <trkpt lat="47.21049" lon="4.96309">
        <ele>296.67587280273</ele>
        <time>2018-04-26T11:11:16+0200</time>
      </trkpt>
      <trkpt lat="47.21049" lon="4.96309">
        <ele>296.68362426758</ele>
        <time>2018-04-26T11:11:19+0200</time>
      </trkpt>
      <trkpt lat="47.21049" lon="4.96309">
        <ele>296.69140625</ele>
        <time>2018-04-26T11:11:22+0200</time>
      </trkpt>
      <trkpt lat="47.21049" lon="4.96309">
        <ele>296.69805908203</ele>
        <time>2018-04-26T11:11:25+0200</time>
      </trkpt>
      <trkpt lat="47.21049" lon="4.96309">
        <ele>296.70489501953</ele>
        <time>2018-04-26T11:11:28+0200</time>
      </trkpt>
      <trkpt lat="47.21049" lon="4.96308">
        <ele>296.70504760742</ele>
        <time>2018-04-26T11:11:31+0200</time>
      </trkpt>
      <trkpt lat="47.21049" lon="4.96308">
        <ele>296.70211791992</ele>
        <time>2018-04-26T11:11:34+0200</time>
      </trkpt>
      <trkpt lat="47.21049" lon="4.96308">
        <ele>296.70248413086</ele>
        <time>2018-04-26T11:11:37+0200</time>
      </trkpt>
      <trkpt lat="47.2105" lon="4.96308">
        <ele>296.70770263672</ele>
        <time>2018-04-26T11:11:40+0200</time>
      </trkpt>
      <trkpt lat="47.2105" lon="4.96308">
        <ele>296.71661376953</ele>
        <time>2018-04-26T11:11:43+0200</time>
      </trkpt>
      <trkpt lat="47.2105" lon="4.96308">
        <ele>296.73040771484</ele>
        <time>2018-04-26T11:11:46+0200</time>
      </trkpt>
      <trkpt lat="47.2105" lon="4.96309">
        <ele>296.74990844727</ele>
        <time>2018-04-26T11:11:49+0200</time>
      </trkpt>
      <trkpt lat="47.2105" lon="4.96309">
        <ele>296.77328491211</ele>
        <time>2018-04-26T11:11:52+0200</time>
      </trkpt>
      <trkpt lat="47.2105" lon="4.96309">
        <ele>296.78842163086</ele>
        <time>2018-04-26T11:11:55+0200</time>
      </trkpt>
      <trkpt lat="47.2105" lon="4.96309">
        <ele>296.79559326172</ele>
        <time>2018-04-26T11:11:58+0200</time>
      </trkpt>
      <trkpt lat="47.2105" lon="4.96309">
        <ele>296.79965209961</ele>
        <time>2018-04-26T11:12:01+0200</time>
      </trkpt>
      <trkpt lat="47.2105" lon="4.96309">
        <ele>296.80294799805</ele>
        <time>2018-04-26T11:12:04+0200</time>
      </trkpt>
      <trkpt lat="47.2105" lon="4.96309">
        <ele>296.80648803711</ele>
        <time>2018-04-26T11:12:07+0200</time>
      </trkpt>
      <trkpt lat="47.2105" lon="4.96309">
        <ele>296.81564331055</ele>
        <time>2018-04-26T11:12:10+0200</time>
      </trkpt>
      <trkpt lat="47.2105" lon="4.96309">
        <ele>296.82733154297</ele>
        <time>2018-04-26T11:12:13+0200</time>
      </trkpt>
      <trkpt lat="47.2105" lon="4.96309">
        <ele>296.83990478516</ele>
        <time>2018-04-26T11:12:16+0200</time>
      </trkpt>
      <trkpt lat="47.2105" lon="4.96309">
        <ele>296.85494995117</ele>
        <time>2018-04-26T11:12:19+0200</time>
      </trkpt>
      <trkpt lat="47.2105" lon="4.96309">
        <ele>296.86636352539</ele>
        <time>2018-04-26T11:12:22+0200</time>
      </trkpt>
      <trkpt lat="47.2105" lon="4.96309">
        <ele>296.87539672852</ele>
        <time>2018-04-26T11:12:25+0200</time>
      </trkpt>
      <trkpt lat="47.2105" lon="4.96309">
        <ele>296.88409423828</ele>
        <time>2018-04-26T11:12:28+0200</time>
      </trkpt>
      <trkpt lat="47.2105" lon="4.96309">
        <ele>296.89093017578</ele>
        <time>2018-04-26T11:12:31+0200</time>
      </trkpt>
      <trkpt lat="47.2105" lon="4.96309">
        <ele>296.89535522461</ele>
        <time>2018-04-26T11:12:34+0200</time>
      </trkpt>
      <trkpt lat="47.21049" lon="4.96309">
        <ele>296.90179443359</ele>
        <time>2018-04-26T11:12:37+0200</time>
      </trkpt>
      <trkpt lat="47.21049" lon="4.96309">
        <ele>296.90905761719</ele>
        <time>2018-04-26T11:12:40+0200</time>
      </trkpt>
      <trkpt lat="47.21049" lon="4.96309">
        <ele>296.92163085938</ele>
        <time>2018-04-26T11:12:43+0200</time>
      </trkpt>
      <trkpt lat="47.21049" lon="4.96309">
        <ele>296.94061279297</ele>
        <time>2018-04-26T11:12:46+0200</time>
      </trkpt>
      <trkpt lat="47.21049" lon="4.96309">
        <ele>296.96286010742</ele>
        <time>2018-04-26T11:12:49+0200</time>
      </trkpt>
      <trkpt lat="47.21049" lon="4.96309">
        <ele>296.98336791992</ele>
        <time>2018-04-26T11:12:52+0200</time>
      </trkpt>
      <trkpt lat="47.21049" lon="4.96309">
        <ele>297.00030517578</ele>
        <time>2018-04-26T11:12:55+0200</time>
      </trkpt>
      <trkpt lat="47.21049" lon="4.96309">
        <ele>297.01684570312</ele>
        <time>2018-04-26T11:12:58+0200</time>
      </trkpt>
      <trkpt lat="47.21049" lon="4.96309">
        <ele>297.03793334961</ele>
        <time>2018-04-26T11:13:01+0200</time>
      </trkpt>
      <trkpt lat="47.21049" lon="4.96309">
        <ele>297.05380249023</ele>
        <time>2018-04-26T11:13:04+0200</time>
      </trkpt>
      <trkpt lat="47.21049" lon="4.9631">
        <ele>297.07498168945</ele>
        <time>2018-04-26T11:13:07+0200</time>
      </trkpt>
      <trkpt lat="47.2105" lon="4.9631">
        <ele>297.10018920898</ele>
        <time>2018-04-26T11:13:10+0200</time>
      </trkpt>
      <trkpt lat="47.2105" lon="4.9631">
        <ele>297.11981201172</ele>
        <time>2018-04-26T11:13:13+0200</time>
      </trkpt>
      <trkpt lat="47.2105" lon="4.9631">
        <ele>297.14129638672</ele>
        <time>2018-04-26T11:13:16+0200</time>
      </trkpt>
      <trkpt lat="47.2105" lon="4.9631">
        <ele>297.16265869141</ele>
        <time>2018-04-26T11:13:19+0200</time>
      </trkpt>
      <trkpt lat="47.2105" lon="4.9631">
        <ele>297.17742919922</ele>
        <time>2018-04-26T11:13:22+0200</time>
      </trkpt>
      <trkpt lat="47.2105" lon="4.9631">
        <ele>297.1877746582</ele>
        <time>2018-04-26T11:13:25+0200</time>
      </trkpt>
      <trkpt lat="47.2105" lon="4.9631">
        <ele>297.2048034668</ele>
        <time>2018-04-26T11:13:28+0200</time>
      </trkpt>
      <trkpt lat="47.2105" lon="4.96311">
        <ele>297.22439575195</ele>
        <time>2018-04-26T11:13:31+0200</time>
      </trkpt>
      <trkpt lat="47.2105" lon="4.96311">
        <ele>297.24957275391</ele>
        <time>2018-04-26T11:13:34+0200</time>
      </trkpt>
      <trkpt lat="47.2105" lon="4.96311">
        <ele>297.26641845703</ele>
        <time>2018-04-26T11:13:37+0200</time>
      </trkpt>
      <trkpt lat="47.2105" lon="4.96311">
        <ele>297.27639770508</ele>
        <time>2018-04-26T11:13:40+0200</time>
      </trkpt>
      <trkpt lat="47.2105" lon="4.96311">
        <ele>297.27954101562</ele>
        <time>2018-04-26T11:13:43+0200</time>
      </trkpt>
      <trkpt lat="47.2105" lon="4.96311">
        <ele>297.28295898438</ele>
        <time>2018-04-26T11:13:46+0200</time>
      </trkpt>
      <trkpt lat="47.2105" lon="4.96311">
        <ele>297.29684448242</ele>
        <time>2018-04-26T11:13:49+0200</time>
      </trkpt>
      <trkpt lat="47.2105" lon="4.96311">
        <ele>297.30996704102</ele>
        <time>2018-04-26T11:13:52+0200</time>
      </trkpt>
      <trkpt lat="47.2105" lon="4.96311">
        <ele>297.32162475586</ele>
        <time>2018-04-26T11:13:55+0200</time>
      </trkpt>
      <trkpt lat="47.2105" lon="4.96311">
        <ele>297.33123779297</ele>
        <time>2018-04-26T11:13:58+0200</time>
      </trkpt>
      <trkpt lat="47.2105" lon="4.96311">
        <ele>297.35003662109</ele>
        <time>2018-04-26T11:14:01+0200</time>
      </trkpt>
      <trkpt lat="47.2105" lon="4.96312">
        <ele>297.36093139648</ele>
        <time>2018-04-26T11:14:04+0200</time>
      </trkpt>
      <trkpt lat="47.2105" lon="4.96312">
        <ele>297.36975097656</ele>
        <time>2018-04-26T11:14:07+0200</time>
      </trkpt>
      <trkpt lat="47.2105" lon="4.96312">
        <ele>297.37631225586</ele>
        <time>2018-04-26T11:14:10+0200</time>
      </trkpt>
      <trkpt lat="47.2105" lon="4.96312">
        <ele>297.38241577148</ele>
        <time>2018-04-26T11:14:13+0200</time>
      </trkpt>
      <trkpt lat="47.2105" lon="4.96312">
        <ele>297.38314819336</ele>
        <time>2018-04-26T11:14:16+0200</time>
      </trkpt>
      <trkpt lat="47.2105" lon="4.96312">
        <ele>297.38638305664</ele>
        <time>2018-04-26T11:14:19+0200</time>
      </trkpt>
      <trkpt lat="47.2105" lon="4.96312">
        <ele>297.38095092773</ele>
        <time>2018-04-26T11:14:22+0200</time>
      </trkpt>
      <trkpt lat="47.2105" lon="4.96312">
        <ele>297.37966918945</ele>
        <time>2018-04-26T11:14:25+0200</time>
      </trkpt>
      <trkpt lat="47.2105" lon="4.96312">
        <ele>297.38366699219</ele>
        <time>2018-04-26T11:14:28+0200</time>
      </trkpt>
      <trkpt lat="47.2105" lon="4.96312">
        <ele>297.39395141602</ele>
        <time>2018-04-26T11:14:31+0200</time>
      </trkpt>
      <trkpt lat="47.2105" lon="4.96312">
        <ele>297.404296875</ele>
        <time>2018-04-26T11:14:34+0200</time>
      </trkpt>
      <trkpt lat="47.2105" lon="4.96312">
        <ele>297.41149902344</ele>
        <time>2018-04-26T11:14:37+0200</time>
      </trkpt>
      <trkpt lat="47.2105" lon="4.96312">
        <ele>297.41754150391</ele>
        <time>2018-04-26T11:14:40+0200</time>
      </trkpt>
      <trkpt lat="47.2105" lon="4.96312">
        <ele>297.43020629883</ele>
        <time>2018-04-26T11:14:43+0200</time>
      </trkpt>
      <trkpt lat="47.2105" lon="4.96312">
        <ele>297.44384765625</ele>
        <time>2018-04-26T11:14:46+0200</time>
      </trkpt>
      <trkpt lat="47.2105" lon="4.96312">
        <ele>297.45300292969</ele>
        <time>2018-04-26T11:14:49+0200</time>
      </trkpt>
      <trkpt lat="47.2105" lon="4.96312">
        <ele>297.45916748047</ele>
        <time>2018-04-26T11:14:52+0200</time>
      </trkpt>
      <trkpt lat="47.2105" lon="4.96312">
        <ele>297.46426391602</ele>
        <time>2018-04-26T11:14:55+0200</time>
      </trkpt>
      <trkpt lat="47.2105" lon="4.96312">
        <ele>297.47085571289</ele>
        <time>2018-04-26T11:14:58+0200</time>
      </trkpt>
      <trkpt lat="47.2105" lon="4.96312">
        <ele>297.47659301758</ele>
        <time>2018-04-26T11:15:01+0200</time>
      </trkpt>
      <trkpt lat="47.2105" lon="4.96312">
        <ele>297.48452758789</ele>
        <time>2018-04-26T11:15:04+0200</time>
      </trkpt>
      <trkpt lat="47.2105" lon="4.96312">
        <ele>297.48904418945</ele>
        <time>2018-04-26T11:15:07+0200</time>
      </trkpt>
      <trkpt lat="47.2105" lon="4.96311">
        <ele>297.49273681641</ele>
        <time>2018-04-26T11:15:10+0200</time>
      </trkpt>
      <trkpt lat="47.2105" lon="4.96311">
        <ele>297.49765014648</ele>
        <time>2018-04-26T11:15:13+0200</time>
      </trkpt>
      <trkpt lat="47.2105" lon="4.96311">
        <ele>297.50189208984</ele>
        <time>2018-04-26T11:15:16+0200</time>
      </trkpt>
      <trkpt lat="47.2105" lon="4.96311">
        <ele>297.50228881836</ele>
        <time>2018-04-26T11:15:19+0200</time>
      </trkpt>
      <trkpt lat="47.2105" lon="4.96311">
        <ele>297.50286865234</ele>
        <time>2018-04-26T11:15:22+0200</time>
      </trkpt>
      <trkpt lat="47.2105" lon="4.96311">
        <ele>297.50427246094</ele>
        <time>2018-04-26T11:15:25+0200</time>
      </trkpt>
      <trkpt lat="47.21051" lon="4.96311">
        <ele>297.50399780273</ele>
        <time>2018-04-26T11:15:28+0200</time>
      </trkpt>
      <trkpt lat="47.2105" lon="4.96311">
        <ele>297.50134277344</ele>
        <time>2018-04-26T11:15:31+0200</time>
      </trkpt>
      <trkpt lat="47.2105" lon="4.96311">
        <ele>297.49826049805</ele>
        <time>2018-04-26T11:15:34+0200</time>
      </trkpt>
      <trkpt lat="47.2105" lon="4.96311">
        <ele>297.49298095703</ele>
        <time>2018-04-26T11:15:37+0200</time>
      </trkpt>
      <trkpt lat="47.2105" lon="4.96311">
        <ele>297.48526000977</ele>
        <time>2018-04-26T11:15:40+0200</time>
      </trkpt>
      <trkpt lat="47.2105" lon="4.96311">
        <ele>297.47598266602</ele>
        <time>2018-04-26T11:15:43+0200</time>
      </trkpt>
      <trkpt lat="47.2105" lon="4.96311">
        <ele>297.46633911133</ele>
        <time>2018-04-26T11:15:46+0200</time>
      </trkpt>
      <trkpt lat="47.2105" lon="4.96311">
        <ele>297.45474243164</ele>
        <time>2018-04-26T11:15:49+0200</time>
      </trkpt>
      <trkpt lat="47.2105" lon="4.9631">
        <ele>297.44134521484</ele>
        <time>2018-04-26T11:15:52+0200</time>
      </trkpt>
      <trkpt lat="47.2105" lon="4.9631">
        <ele>297.43170166016</ele>
        <time>2018-04-26T11:15:55+0200</time>
      </trkpt>
      <trkpt lat="47.2105" lon="4.9631">
        <ele>297.42492675781</ele>
        <time>2018-04-26T11:15:58+0200</time>
      </trkpt>
      <trkpt lat="47.2105" lon="4.9631">
        <ele>297.41906738281</ele>
        <time>2018-04-26T11:16:01+0200</time>
      </trkpt>
      <trkpt lat="47.2105" lon="4.9631">
        <ele>297.41421508789</ele>
        <time>2018-04-26T11:16:04+0200</time>
      </trkpt>
      <trkpt lat="47.2105" lon="4.9631">
        <ele>297.40600585938</ele>
        <time>2018-04-26T11:16:07+0200</time>
      </trkpt>
      <trkpt lat="47.2105" lon="4.9631">
        <ele>297.39733886719</ele>
        <time>2018-04-26T11:16:10+0200</time>
      </trkpt>
      <trkpt lat="47.2105" lon="4.9631">
        <ele>297.3899230957</ele>
        <time>2018-04-26T11:16:13+0200</time>
      </trkpt>
      <trkpt lat="47.2105" lon="4.9631">
        <ele>297.38485717773</ele>
        <time>2018-04-26T11:16:16+0200</time>
      </trkpt>
      <trkpt lat="47.2105" lon="4.9631">
        <ele>297.38143920898</ele>
        <time>2018-04-26T11:16:19+0200</time>
      </trkpt>
      <trkpt lat="47.2105" lon="4.9631">
        <ele>297.37542724609</ele>
        <time>2018-04-26T11:16:22+0200</time>
      </trkpt>
      <trkpt lat="47.2105" lon="4.9631">
        <ele>297.36999511719</ele>
        <time>2018-04-26T11:16:25+0200</time>
      </trkpt>
      <trkpt lat="47.2105" lon="4.9631">
        <ele>297.35995483398</ele>
        <time>2018-04-26T11:16:28+0200</time>
      </trkpt>
      <trkpt lat="47.2105" lon="4.9631">
        <ele>297.34490966797</ele>
        <time>2018-04-26T11:16:31+0200</time>
      </trkpt>
      <trkpt lat="47.2105" lon="4.9631">
        <ele>297.33126831055</ele>
        <time>2018-04-26T11:16:34+0200</time>
      </trkpt>
      <trkpt lat="47.2105" lon="4.9631">
        <ele>297.32028198242</ele>
        <time>2018-04-26T11:16:37+0200</time>
      </trkpt>
      <trkpt lat="47.2105" lon="4.9631">
        <ele>297.31195068359</ele>
        <time>2018-04-26T11:16:40+0200</time>
      </trkpt>
      <trkpt lat="47.2105" lon="4.9631">
        <ele>297.31109619141</ele>
        <time>2018-04-26T11:16:43+0200</time>
      </trkpt>
      <trkpt lat="47.2105" lon="4.9631">
        <ele>297.31036376953</ele>
        <time>2018-04-26T11:16:46+0200</time>
      </trkpt>
      <trkpt lat="47.2105" lon="4.9631">
        <ele>297.30493164062</ele>
        <time>2018-04-26T11:16:49+0200</time>
      </trkpt>
      <trkpt lat="47.2105" lon="4.9631">
        <ele>297.29776000977</ele>
        <time>2018-04-26T11:16:52+0200</time>
      </trkpt>
      <trkpt lat="47.2105" lon="4.9631">
        <ele>297.29159545898</ele>
        <time>2018-04-26T11:16:55+0200</time>
      </trkpt>
      <trkpt lat="47.2105" lon="4.9631">
        <ele>297.28359985352</ele>
        <time>2018-04-26T11:16:58+0200</time>
      </trkpt>
      <trkpt lat="47.2105" lon="4.9631">
        <ele>297.27548217773</ele>
        <time>2018-04-26T11:17:01+0200</time>
      </trkpt>
      <trkpt lat="47.2105" lon="4.9631">
        <ele>297.26873779297</ele>
        <time>2018-04-26T11:17:04+0200</time>
      </trkpt>
      <trkpt lat="47.2105" lon="4.9631">
        <ele>297.26190185547</ele>
        <time>2018-04-26T11:17:07+0200</time>
      </trkpt>
      <trkpt lat="47.2105" lon="4.9631">
        <ele>297.25518798828</ele>
        <time>2018-04-26T11:17:10+0200</time>
      </trkpt>
      <trkpt lat="47.2105" lon="4.9631">
        <ele>297.24963378906</ele>
        <time>2018-04-26T11:17:13+0200</time>
      </trkpt>
      <trkpt lat="47.2105" lon="4.9631">
        <ele>297.24026489258</ele>
        <time>2018-04-26T11:17:16+0200</time>
      </trkpt>
      <trkpt lat="47.2105" lon="4.9631">
        <ele>297.22845458984</ele>
        <time>2018-04-26T11:17:19+0200</time>
      </trkpt>
      <trkpt lat="47.2105" lon="4.9631">
        <ele>297.21539306641</ele>
        <time>2018-04-26T11:17:22+0200</time>
      </trkpt>
      <trkpt lat="47.2105" lon="4.9631">
        <ele>297.20443725586</ele>
        <time>2018-04-26T11:17:25+0200</time>
      </trkpt>
      <trkpt lat="47.2105" lon="4.9631">
        <ele>297.19540405273</ele>
        <time>2018-04-26T11:17:28+0200</time>
      </trkpt>
      <trkpt lat="47.2105" lon="4.9631">
        <ele>297.1872253418</ele>
        <time>2018-04-26T11:17:31+0200</time>
      </trkpt>
      <trkpt lat="47.2105" lon="4.9631">
        <ele>297.17907714844</ele>
        <time>2018-04-26T11:17:34+0200</time>
      </trkpt>
      <trkpt lat="47.2105" lon="4.9631">
        <ele>297.17184448242</ele>
        <time>2018-04-26T11:17:37+0200</time>
      </trkpt>
      <trkpt lat="47.2105" lon="4.9631">
        <ele>297.166015625</ele>
        <time>2018-04-26T11:17:40+0200</time>
      </trkpt>
      <trkpt lat="47.2105" lon="4.9631">
        <ele>297.1545715332</ele>
        <time>2018-04-26T11:17:43+0200</time>
      </trkpt>
      <trkpt lat="47.2105" lon="4.9631">
        <ele>297.14196777344</ele>
        <time>2018-04-26T11:17:46+0200</time>
      </trkpt>
      <trkpt lat="47.2105" lon="4.9631">
        <ele>297.12954711914</ele>
        <time>2018-04-26T11:17:49+0200</time>
      </trkpt>
      <trkpt lat="47.2105" lon="4.9631">
        <ele>297.11947631836</ele>
        <time>2018-04-26T11:17:52+0200</time>
      </trkpt>
      <trkpt lat="47.2105" lon="4.96309">
        <ele>297.10571289062</ele>
        <time>2018-04-26T11:17:55+0200</time>
      </trkpt>
      <trkpt lat="47.2105" lon="4.96309">
        <ele>297.08432006836</ele>
        <time>2018-04-26T11:17:58+0200</time>
      </trkpt>
      <trkpt lat="47.2105" lon="4.96309">
        <ele>297.06134033203</ele>
        <time>2018-04-26T11:18:01+0200</time>
      </trkpt>
      <trkpt lat="47.2105" lon="4.96309">
        <ele>297.02505493164</ele>
        <time>2018-04-26T11:18:04+0200</time>
      </trkpt>
      <trkpt lat="47.2105" lon="4.96308">
        <ele>296.97875976562</ele>
        <time>2018-04-26T11:18:07+0200</time>
      </trkpt>
      <trkpt lat="47.2105" lon="4.96308">
        <ele>296.92590332031</ele>
        <time>2018-04-26T11:18:10+0200</time>
      </trkpt>
      <trkpt lat="47.2105" lon="4.96308">
        <ele>296.87466430664</ele>
        <time>2018-04-26T11:18:13+0200</time>
      </trkpt>
      <trkpt lat="47.2105" lon="4.96308">
        <ele>296.83297729492</ele>
        <time>2018-04-26T11:18:16+0200</time>
      </trkpt>
      <trkpt lat="47.2105" lon="4.96308">
        <ele>296.80114746094</ele>
        <time>2018-04-26T11:18:19+0200</time>
      </trkpt>
      <trkpt lat="47.2105" lon="4.96308">
        <ele>296.77313232422</ele>
        <time>2018-04-26T11:18:22+0200</time>
      </trkpt>
      <trkpt lat="47.2105" lon="4.96308">
        <ele>296.74847412109</ele>
        <time>2018-04-26T11:18:25+0200</time>
      </trkpt>
      <trkpt lat="47.2105" lon="4.96308">
        <ele>296.72344970703</ele>
        <time>2018-04-26T11:18:28+0200</time>
      </trkpt>
      <trkpt lat="47.2105" lon="4.96308">
        <ele>296.69955444336</ele>
        <time>2018-04-26T11:18:31+0200</time>
      </trkpt>
      <trkpt lat="47.2105" lon="4.96308">
        <ele>296.6796875</ele>
        <time>2018-04-26T11:18:34+0200</time>
      </trkpt>
      <trkpt lat="47.2105" lon="4.96308">
        <ele>296.66516113281</ele>
        <time>2018-04-26T11:18:37+0200</time>
      </trkpt>
      <trkpt lat="47.2105" lon="4.96308">
        <ele>296.64776611328</ele>
        <time>2018-04-26T11:18:40+0200</time>
      </trkpt>
      <trkpt lat="47.2105" lon="4.96308">
        <ele>296.64019775391</ele>
        <time>2018-04-26T11:18:43+0200</time>
      </trkpt>
      <trkpt lat="47.2105" lon="4.96308">
        <ele>296.6344909668</ele>
        <time>2018-04-26T11:18:47+0200</time>
      </trkpt>
      <trkpt lat="47.2105" lon="4.96309">
        <ele>296.63452148438</ele>
        <time>2018-04-26T11:18:50+0200</time>
      </trkpt>
      <trkpt lat="47.2105" lon="4.96309">
        <ele>296.63397216797</ele>
        <time>2018-04-26T11:18:53+0200</time>
      </trkpt>
      <trkpt lat="47.2105" lon="4.96309">
        <ele>296.62994384766</ele>
        <time>2018-04-26T11:18:56+0200</time>
      </trkpt>
      <trkpt lat="47.2105" lon="4.96309">
        <ele>296.62326049805</ele>
        <time>2018-04-26T11:18:59+0200</time>
      </trkpt>
      <trkpt lat="47.2105" lon="4.96309">
        <ele>296.61553955078</ele>
        <time>2018-04-26T11:19:02+0200</time>
      </trkpt>
      <trkpt lat="47.2105" lon="4.96309">
        <ele>296.61218261719</ele>
        <time>2018-04-26T11:19:05+0200</time>
      </trkpt>
      <trkpt lat="47.2105" lon="4.96309">
        <ele>296.61154174805</ele>
        <time>2018-04-26T11:19:08+0200</time>
      </trkpt>
      <trkpt lat="47.2105" lon="4.96309">
        <ele>296.61059570312</ele>
        <time>2018-04-26T11:19:11+0200</time>
      </trkpt>
      <trkpt lat="47.2105" lon="4.96309">
        <ele>296.61264038086</ele>
        <time>2018-04-26T11:19:14+0200</time>
      </trkpt>
      <trkpt lat="47.2105" lon="4.96309">
        <ele>296.61068725586</ele>
        <time>2018-04-26T11:19:17+0200</time>
      </trkpt>
      <trkpt lat="47.2105" lon="4.96309">
        <ele>296.60217285156</ele>
        <time>2018-04-26T11:19:20+0200</time>
      </trkpt>
      <trkpt lat="47.2105" lon="4.96309">
        <ele>296.60104370117</ele>
        <time>2018-04-26T11:19:23+0200</time>
      </trkpt>
      <trkpt lat="47.2105" lon="4.96309">
        <ele>296.60092163086</ele>
        <time>2018-04-26T11:19:26+0200</time>
      </trkpt>
      <trkpt lat="47.2105" lon="4.96309">
        <ele>296.59613037109</ele>
        <time>2018-04-26T11:19:29+0200</time>
      </trkpt>
      <trkpt lat="47.2105" lon="4.96309">
        <ele>296.59115600586</ele>
        <time>2018-04-26T11:19:32+0200</time>
      </trkpt>
      <trkpt lat="47.2105" lon="4.96309">
        <ele>296.58511352539</ele>
        <time>2018-04-26T11:19:35+0200</time>
      </trkpt>
      <trkpt lat="47.2105" lon="4.96309">
        <ele>296.5758972168</ele>
        <time>2018-04-26T11:19:38+0200</time>
      </trkpt>
      <trkpt lat="47.2105" lon="4.96309">
        <ele>296.56637573242</ele>
        <time>2018-04-26T11:19:41+0200</time>
      </trkpt>
      <trkpt lat="47.2105" lon="4.96309">
        <ele>296.56274414062</ele>
        <time>2018-04-26T11:19:44+0200</time>
      </trkpt>
      <trkpt lat="47.2105" lon="4.96309">
        <ele>296.56271362305</ele>
        <time>2018-04-26T11:19:47+0200</time>
      </trkpt>
      <trkpt lat="47.2105" lon="4.96309">
        <ele>296.56439208984</ele>
        <time>2018-04-26T11:19:50+0200</time>
      </trkpt>
      <trkpt lat="47.21049" lon="4.96308">
        <ele>296.52282714844</ele>
        <time>2018-04-26T11:19:53+0200</time>
      </trkpt>
      <trkpt lat="47.21049" lon="4.96308">
        <ele>296.51187133789</ele>
        <time>2018-04-26T11:19:56+0200</time>
      </trkpt>
      <trkpt lat="47.21049" lon="4.96309">
        <ele>296.49227905273</ele>
        <time>2018-04-26T11:19:59+0200</time>
      </trkpt>
      <trkpt lat="47.21049" lon="4.96309">
        <ele>296.49356079102</ele>
        <time>2018-04-26T11:20:02+0200</time>
      </trkpt>
      <trkpt lat="47.21049" lon="4.96309">
        <ele>296.49633789062</ele>
        <time>2018-04-26T11:20:05+0200</time>
      </trkpt>
      <trkpt lat="47.21049" lon="4.96309">
        <ele>296.51486206055</ele>
        <time>2018-04-26T11:20:08+0200</time>
      </trkpt>
      <trkpt lat="47.21049" lon="4.96309">
        <ele>296.58734130859</ele>
        <time>2018-04-26T11:20:11+0200</time>
      </trkpt>
      <trkpt lat="47.21048" lon="4.96308">
        <ele>296.5989074707</ele>
        <time>2018-04-26T11:20:14+0200</time>
      </trkpt>
      <trkpt lat="47.21048" lon="4.96309">
        <ele>296.79376220703</ele>
        <time>2018-04-26T11:20:17+0200</time>
      </trkpt>
      <trkpt lat="47.21049" lon="4.96312">
        <ele>297.0751953125</ele>
        <time>2018-04-26T11:20:20+0200</time>
      </trkpt>
      <trkpt lat="47.21051" lon="4.96314">
        <ele>297.32211303711</ele>
        <time>2018-04-26T11:20:23+0200</time>
      </trkpt>
      <trkpt lat="47.21053" lon="4.96316">
        <ele>297.50659179688</ele>
        <time>2018-04-26T11:20:26+0200</time>
      </trkpt>
      <trkpt lat="47.21056" lon="4.96317">
        <ele>297.65594482422</ele>
        <time>2018-04-26T11:20:29+0200</time>
      </trkpt>
      <trkpt lat="47.21058" lon="4.96318">
        <ele>297.76974487305</ele>
        <time>2018-04-26T11:20:32+0200</time>
      </trkpt>
      <trkpt lat="47.2106" lon="4.9632">
        <ele>297.81985473633</ele>
        <time>2018-04-26T11:20:35+0200</time>
      </trkpt>
      <trkpt lat="47.21063" lon="4.96321">
        <ele>297.83099365234</ele>
        <time>2018-04-26T11:20:38+0200</time>
      </trkpt>
      <trkpt lat="47.21065" lon="4.96323">
        <ele>297.86090087891</ele>
        <time>2018-04-26T11:20:41+0200</time>
      </trkpt>
      <trkpt lat="47.21069" lon="4.96324">
        <ele>297.93231201172</ele>
        <time>2018-04-26T11:20:44+0200</time>
      </trkpt>
      <trkpt lat="47.21073" lon="4.96326">
        <ele>298.02157592773</ele>
        <time>2018-04-26T11:20:47+0200</time>
      </trkpt>
      <trkpt lat="47.21076" lon="4.96327">
        <ele>298.11080932617</ele>
        <time>2018-04-26T11:20:50+0200</time>
      </trkpt>
      <trkpt lat="47.21078" lon="4.96328">
        <ele>298.25064086914</ele>
        <time>2018-04-26T11:20:53+0200</time>
      </trkpt>
      <trkpt lat="47.21082" lon="4.9633">
        <ele>298.37268066406</ele>
        <time>2018-04-26T11:20:56+0200</time>
      </trkpt>
      <trkpt lat="47.21085" lon="4.96331">
        <ele>298.4938659668</ele>
        <time>2018-04-26T11:20:59+0200</time>
      </trkpt>
      <trkpt lat="47.21088" lon="4.96332">
        <ele>298.61953735352</ele>
        <time>2018-04-26T11:21:02+0200</time>
      </trkpt>
      <trkpt lat="47.21091" lon="4.96334">
        <ele>298.7278137207</ele>
        <time>2018-04-26T11:21:05+0200</time>
      </trkpt>
      <trkpt lat="47.21094" lon="4.96334">
        <ele>298.81317138672</ele>
        <time>2018-04-26T11:21:08+0200</time>
      </trkpt>
      <trkpt lat="47.21096" lon="4.96334">
        <ele>298.88909912109</ele>
        <time>2018-04-26T11:21:11+0200</time>
      </trkpt>
      <trkpt lat="47.211" lon="4.96335">
        <ele>298.95010375977</ele>
        <time>2018-04-26T11:21:14+0200</time>
      </trkpt>
      <trkpt lat="47.21101" lon="4.96335">
        <ele>298.96820068359</ele>
        <time>2018-04-26T11:21:17+0200</time>
      </trkpt>
      <trkpt lat="47.21104" lon="4.96336">
        <ele>298.93530273438</ele>
        <time>2018-04-26T11:21:20+0200</time>
      </trkpt>
      <trkpt lat="47.21107" lon="4.96337">
        <ele>298.88204956055</ele>
        <time>2018-04-26T11:21:23+0200</time>
      </trkpt>
      <trkpt lat="47.2111" lon="4.96338">
        <ele>298.81103515625</ele>
        <time>2018-04-26T11:21:26+0200</time>
      </trkpt>
      <trkpt lat="47.21113" lon="4.96339">
        <ele>298.73745727539</ele>
        <time>2018-04-26T11:21:29+0200</time>
      </trkpt>
      <trkpt lat="47.21115" lon="4.96339">
        <ele>298.69787597656</ele>
        <time>2018-04-26T11:21:32+0200</time>
      </trkpt>
      <trkpt lat="47.21118" lon="4.9634">
        <ele>298.68890380859</ele>
        <time>2018-04-26T11:21:35+0200</time>
      </trkpt>
      <trkpt lat="47.2112" lon="4.9634">
        <ele>298.69445800781</ele>
        <time>2018-04-26T11:21:38+0200</time>
      </trkpt>
      <trkpt lat="47.21123" lon="4.96341">
        <ele>298.74404907227</ele>
        <time>2018-04-26T11:21:41+0200</time>
      </trkpt>
      <trkpt lat="47.21125" lon="4.96341">
        <ele>298.81451416016</ele>
        <time>2018-04-26T11:21:44+0200</time>
      </trkpt>
      <trkpt lat="47.21128" lon="4.96342">
        <ele>298.89566040039</ele>
        <time>2018-04-26T11:21:47+0200</time>
      </trkpt>
      <trkpt lat="47.2113" lon="4.96342">
        <ele>298.96203613281</ele>
        <time>2018-04-26T11:21:50+0200</time>
      </trkpt>
      <trkpt lat="47.21133" lon="4.96343">
        <ele>299.03353881836</ele>
        <time>2018-04-26T11:21:53+0200</time>
      </trkpt>
      <trkpt lat="47.21135" lon="4.96343">
        <ele>299.09130859375</ele>
        <time>2018-04-26T11:21:56+0200</time>
      </trkpt>
      <trkpt lat="47.21137" lon="4.96343">
        <ele>299.12380981445</ele>
        <time>2018-04-26T11:21:59+0200</time>
      </trkpt>
      <trkpt lat="47.21139" lon="4.96344">
        <ele>299.14895629883</ele>
        <time>2018-04-26T11:22:02+0200</time>
      </trkpt>
      <trkpt lat="47.2114" lon="4.96344">
        <ele>299.14953613281</ele>
        <time>2018-04-26T11:22:05+0200</time>
      </trkpt>
      <trkpt lat="47.2114" lon="4.96344">
        <ele>299.14205932617</ele>
        <time>2018-04-26T11:22:08+0200</time>
      </trkpt>
      <trkpt lat="47.21143" lon="4.96344">
        <ele>299.03125</ele>
        <time>2018-04-26T11:22:11+0200</time>
      </trkpt>
      <trkpt lat="47.21147" lon="4.96344">
        <ele>298.95724487305</ele>
        <time>2018-04-26T11:22:14+0200</time>
      </trkpt>
      <trkpt lat="47.2115" lon="4.96342">
        <ele>298.91949462891</ele>
        <time>2018-04-26T11:22:17+0200</time>
      </trkpt>
      <trkpt lat="47.21152" lon="4.96339">
        <ele>298.88265991211</ele>
        <time>2018-04-26T11:22:20+0200</time>
      </trkpt>
      <trkpt lat="47.21153" lon="4.96335">
        <ele>298.82693481445</ele>
        <time>2018-04-26T11:22:23+0200</time>
      </trkpt>
      <trkpt lat="47.21154" lon="4.96334">
        <ele>298.77087402344</ele>
        <time>2018-04-26T11:22:26+0200</time>
      </trkpt>
      <trkpt lat="47.21154" lon="4.96333">
        <ele>298.74038696289</ele>
        <time>2018-04-26T11:22:29+0200</time>
      </trkpt>
      <trkpt lat="47.21155" lon="4.96333">
        <ele>298.72445678711</ele>
        <time>2018-04-26T11:22:32+0200</time>
      </trkpt>
      <trkpt lat="47.21154" lon="4.96334">
        <ele>298.70684814453</ele>
        <time>2018-04-26T11:22:35+0200</time>
      </trkpt>
      <trkpt lat="47.21154" lon="4.96332">
        <ele>298.45883178711</ele>
        <time>2018-04-26T11:22:38+0200</time>
      </trkpt>
      <trkpt lat="47.21155" lon="4.9633">
        <ele>298.26052856445</ele>
        <time>2018-04-26T11:22:41+0200</time>
      </trkpt>
      <trkpt lat="47.21156" lon="4.96328">
        <ele>298.09686279297</ele>
        <time>2018-04-26T11:22:44+0200</time>
      </trkpt>
      <trkpt lat="47.21156" lon="4.96325">
        <ele>297.9367980957</ele>
        <time>2018-04-26T11:22:47+0200</time>
      </trkpt>
      <trkpt lat="47.21157" lon="4.96322">
        <ele>297.8645324707</ele>
        <time>2018-04-26T11:22:50+0200</time>
      </trkpt>
      <trkpt lat="47.21157" lon="4.96321">
        <ele>297.86642456055</ele>
        <time>2018-04-26T11:22:53+0200</time>
      </trkpt>
      <trkpt lat="47.21157" lon="4.96319">
        <ele>297.92376708984</ele>
        <time>2018-04-26T11:22:56+0200</time>
      </trkpt>
      <trkpt lat="47.21157" lon="4.96319">
        <ele>297.92407226562</ele>
        <time>2018-04-26T11:22:59+0200</time>
      </trkpt>
      <trkpt lat="47.21157" lon="4.96319">
        <ele>297.91879272461</ele>
        <time>2018-04-26T11:23:02+0200</time>
      </trkpt>
      <trkpt lat="47.21157" lon="4.96319">
        <ele>297.91262817383</ele>
        <time>2018-04-26T11:23:05+0200</time>
      </trkpt>
      <trkpt lat="47.21157" lon="4.96319">
        <ele>297.91445922852</ele>
        <time>2018-04-26T11:23:08+0200</time>
      </trkpt>
      <trkpt lat="47.21157" lon="4.96319">
        <ele>297.92919921875</ele>
        <time>2018-04-26T11:23:11+0200</time>
      </trkpt>
      <trkpt lat="47.21157" lon="4.9632">
        <ele>297.9508972168</ele>
        <time>2018-04-26T11:23:14+0200</time>
      </trkpt>
      <trkpt lat="47.21157" lon="4.9632">
        <ele>297.96658325195</ele>
        <time>2018-04-26T11:23:17+0200</time>
      </trkpt>
      <trkpt lat="47.21157" lon="4.9632">
        <ele>297.98352050781</ele>
        <time>2018-04-26T11:23:20+0200</time>
      </trkpt>
      <trkpt lat="47.21157" lon="4.9632">
        <ele>298.00079345703</ele>
        <time>2018-04-26T11:23:23+0200</time>
      </trkpt>
      <trkpt lat="47.21157" lon="4.9632">
        <ele>298.0126953125</ele>
        <time>2018-04-26T11:23:26+0200</time>
      </trkpt>
      <trkpt lat="47.21157" lon="4.9632">
        <ele>298.02359008789</ele>
        <time>2018-04-26T11:23:29+0200</time>
      </trkpt>
      <trkpt lat="47.21157" lon="4.9632">
        <ele>298.03460693359</ele>
        <time>2018-04-26T11:23:32+0200</time>
      </trkpt>
      <trkpt lat="47.21157" lon="4.9632">
        <ele>298.04583740234</ele>
        <time>2018-04-26T11:23:35+0200</time>
      </trkpt>
      <trkpt lat="47.21157" lon="4.9632">
        <ele>298.0595703125</ele>
        <time>2018-04-26T11:23:38+0200</time>
      </trkpt>
      <trkpt lat="47.21157" lon="4.9632">
        <ele>298.07421875</ele>
        <time>2018-04-26T11:23:41+0200</time>
      </trkpt>
      <trkpt lat="47.21157" lon="4.9632">
        <ele>298.08871459961</ele>
        <time>2018-04-26T11:23:44+0200</time>
      </trkpt>
      <trkpt lat="47.21157" lon="4.96321">
        <ele>298.10025024414</ele>
        <time>2018-04-26T11:23:47+0200</time>
      </trkpt>
      <trkpt lat="47.21157" lon="4.96321">
        <ele>298.17706298828</ele>
        <time>2018-04-26T11:23:50+0200</time>
      </trkpt>
      <trkpt lat="47.21157" lon="4.96321">
        <ele>298.24670410156</ele>
        <time>2018-04-26T11:23:53+0200</time>
      </trkpt>
      <trkpt lat="47.21157" lon="4.96323">
        <ele>298.28527832031</ele>
        <time>2018-04-26T11:23:56+0200</time>
      </trkpt>
      <trkpt lat="47.21157" lon="4.96327">
        <ele>298.3229675293</ele>
        <time>2018-04-26T11:23:59+0200</time>
      </trkpt>
      <trkpt lat="47.21157" lon="4.96328">
        <ele>298.32788085938</ele>
        <time>2018-04-26T11:24:02+0200</time>
      </trkpt>
      <trkpt lat="47.21157" lon="4.96329">
        <ele>298.33404541016</ele>
        <time>2018-04-26T11:24:05+0200</time>
      </trkpt>
      <trkpt lat="47.21157" lon="4.96329">
        <ele>298.31439208984</ele>
        <time>2018-04-26T11:24:08+0200</time>
      </trkpt>
      <trkpt lat="47.21157" lon="4.9633">
        <ele>298.31085205078</ele>
        <time>2018-04-26T11:24:11+0200</time>
      </trkpt>
      <trkpt lat="47.21157" lon="4.9633">
        <ele>298.30212402344</ele>
        <time>2018-04-26T11:24:14+0200</time>
      </trkpt>
      <trkpt lat="47.21157" lon="4.96332">
        <ele>298.28839111328</ele>
        <time>2018-04-26T11:24:17+0200</time>
      </trkpt>
      <trkpt lat="47.21157" lon="4.96333">
        <ele>298.26028442383</ele>
        <time>2018-04-26T11:24:20+0200</time>
      </trkpt>
      <trkpt lat="47.21158" lon="4.96337">
        <ele>298.26342773438</ele>
        <time>2018-04-26T11:24:23+0200</time>
      </trkpt>
      <trkpt lat="47.21157" lon="4.96339">
        <ele>298.31945800781</ele>
        <time>2018-04-26T11:24:26+0200</time>
      </trkpt>
      <trkpt lat="47.21157" lon="4.96343">
        <ele>298.31103515625</ele>
        <time>2018-04-26T11:24:29+0200</time>
      </trkpt>
      <trkpt lat="47.21163" lon="4.96344">
        <ele>298.22830200195</ele>
        <time>2018-04-26T11:24:32+0200</time>
      </trkpt>
      <trkpt lat="47.21166" lon="4.96346">
        <ele>298.15377807617</ele>
        <time>2018-04-26T11:24:35+0200</time>
      </trkpt>
      <trkpt lat="47.21169" lon="4.96347">
        <ele>298.06289672852</ele>
        <time>2018-04-26T11:24:38+0200</time>
      </trkpt>
      <trkpt lat="47.21171" lon="4.96348">
        <ele>297.96243286133</ele>
        <time>2018-04-26T11:24:41+0200</time>
      </trkpt>
      <trkpt lat="47.21175" lon="4.9635">
        <ele>297.88687133789</ele>
        <time>2018-04-26T11:24:44+0200</time>
      </trkpt>
      <trkpt lat="47.21176" lon="4.9635">
        <ele>297.79290771484</ele>
        <time>2018-04-26T11:24:47+0200</time>
      </trkpt>
      <trkpt lat="47.2118" lon="4.96351">
        <ele>297.73220825195</ele>
        <time>2018-04-26T11:24:50+0200</time>
      </trkpt>
      <trkpt lat="47.21181" lon="4.96352">
        <ele>297.68792724609</ele>
        <time>2018-04-26T11:24:53+0200</time>
      </trkpt>
      <trkpt lat="47.21184" lon="4.96352">
        <ele>297.63583374023</ele>
        <time>2018-04-26T11:24:56+0200</time>
      </trkpt>
      <trkpt lat="47.21189" lon="4.96353">
        <ele>297.64465332031</ele>
        <time>2018-04-26T11:24:59+0200</time>
      </trkpt>
      <trkpt lat="47.21192" lon="4.96355">
        <ele>297.73443603516</ele>
        <time>2018-04-26T11:25:02+0200</time>
      </trkpt>
      <trkpt lat="47.21194" lon="4.96355">
        <ele>297.85119628906</ele>
        <time>2018-04-26T11:25:05+0200</time>
      </trkpt>
      <trkpt lat="47.21196" lon="4.96355">
        <ele>297.98849487305</ele>
        <time>2018-04-26T11:25:08+0200</time>
      </trkpt>
      <trkpt lat="47.21197" lon="4.96355">
        <ele>298.14111328125</ele>
        <time>2018-04-26T11:25:11+0200</time>
      </trkpt>
      <trkpt lat="47.21198" lon="4.96355">
        <ele>298.27825927734</ele>
        <time>2018-04-26T11:25:14+0200</time>
      </trkpt>
      <trkpt lat="47.212" lon="4.96355">
        <ele>298.39862060547</ele>
        <time>2018-04-26T11:25:17+0200</time>
      </trkpt>
      <trkpt lat="47.21202" lon="4.96355">
        <ele>298.51229858398</ele>
        <time>2018-04-26T11:25:20+0200</time>
      </trkpt>
      <trkpt lat="47.21205" lon="4.96354">
        <ele>298.65808105469</ele>
        <time>2018-04-26T11:25:23+0200</time>
      </trkpt>
      <trkpt lat="47.21207" lon="4.96353">
        <ele>298.79815673828</ele>
        <time>2018-04-26T11:25:26+0200</time>
      </trkpt>
      <trkpt lat="47.21209" lon="4.96353">
        <ele>298.87109375</ele>
        <time>2018-04-26T11:25:29+0200</time>
      </trkpt>
      <trkpt lat="47.2121" lon="4.96353">
        <ele>298.89450073242</ele>
        <time>2018-04-26T11:25:32+0200</time>
      </trkpt>
      <trkpt lat="47.2121" lon="4.96353">
        <ele>298.89514160156</ele>
        <time>2018-04-26T11:25:35+0200</time>
      </trkpt>
      <trkpt lat="47.21213" lon="4.96354">
        <ele>298.9072265625</ele>
        <time>2018-04-26T11:25:38+0200</time>
      </trkpt>
      <trkpt lat="47.21216" lon="4.96354">
        <ele>298.89361572266</ele>
        <time>2018-04-26T11:25:41+0200</time>
      </trkpt>
      <trkpt lat="47.21217" lon="4.96353">
        <ele>298.90463256836</ele>
        <time>2018-04-26T11:25:44+0200</time>
      </trkpt>
      <trkpt lat="47.21219" lon="4.96351">
        <ele>299.02432250977</ele>
        <time>2018-04-26T11:25:47+0200</time>
      </trkpt>
      <trkpt lat="47.21222" lon="4.9635">
        <ele>299.25076293945</ele>
        <time>2018-04-26T11:25:50+0200</time>
      </trkpt>
      <trkpt lat="47.21224" lon="4.96349">
        <ele>299.50894165039</ele>
        <time>2018-04-26T11:25:53+0200</time>
      </trkpt>
      <trkpt lat="47.21227" lon="4.96348">
        <ele>299.7734375</ele>
        <time>2018-04-26T11:25:56+0200</time>
      </trkpt>
      <trkpt lat="47.21228" lon="4.96348">
        <ele>300.02597045898</ele>
        <time>2018-04-26T11:25:59+0200</time>
      </trkpt>
      <trkpt lat="47.2123" lon="4.96347">
        <ele>300.2463684082</ele>
        <time>2018-04-26T11:26:02+0200</time>
      </trkpt>
      <trkpt lat="47.21233" lon="4.96347">
        <ele>300.41705322266</ele>
        <time>2018-04-26T11:26:05+0200</time>
      </trkpt>
      <trkpt lat="47.21236" lon="4.96346">
        <ele>300.41607666016</ele>
        <time>2018-04-26T11:26:08+0200</time>
      </trkpt>
      <trkpt lat="47.21238" lon="4.96345">
        <ele>300.34548950195</ele>
        <time>2018-04-26T11:26:11+0200</time>
      </trkpt>
      <trkpt lat="47.21238" lon="4.96344">
        <ele>300.26818847656</ele>
        <time>2018-04-26T11:26:14+0200</time>
      </trkpt>
      <trkpt lat="47.21241" lon="4.96343">
        <ele>300.21319580078</ele>
        <time>2018-04-26T11:26:17+0200</time>
      </trkpt>
      <trkpt lat="47.21243" lon="4.96343">
        <ele>300.15966796875</ele>
        <time>2018-04-26T11:26:20+0200</time>
      </trkpt>
      <trkpt lat="47.21245" lon="4.96342">
        <ele>300.09634399414</ele>
        <time>2018-04-26T11:26:23+0200</time>
      </trkpt>
      <trkpt lat="47.21246" lon="4.96341">
        <ele>300.06286621094</ele>
        <time>2018-04-26T11:26:26+0200</time>
      </trkpt>
      <trkpt lat="47.21247" lon="4.96341">
        <ele>300.0625</ele>
        <time>2018-04-26T11:26:29+0200</time>
      </trkpt>
      <trkpt lat="47.21247" lon="4.96341">
        <ele>300.0608215332</ele>
        <time>2018-04-26T11:26:32+0200</time>
      </trkpt>
      <trkpt lat="47.21247" lon="4.96341">
        <ele>300.05718994141</ele>
        <time>2018-04-26T11:26:35+0200</time>
      </trkpt>
      <trkpt lat="47.21248" lon="4.96341">
        <ele>300.04776000977</ele>
        <time>2018-04-26T11:26:38+0200</time>
      </trkpt>
      <trkpt lat="47.21248" lon="4.96341">
        <ele>300.04608154297</ele>
        <time>2018-04-26T11:26:41+0200</time>
      </trkpt>
      <trkpt lat="47.21248" lon="4.96341">
        <ele>300.04595947266</ele>
        <time>2018-04-26T11:26:44+0200</time>
      </trkpt>
      <trkpt lat="47.21248" lon="4.96341">
        <ele>300.04772949219</ele>
        <time>2018-04-26T11:26:47+0200</time>
      </trkpt>
      <trkpt lat="47.21249" lon="4.96342">
        <ele>300.07363891602</ele>
        <time>2018-04-26T11:26:50+0200</time>
      </trkpt>
      <trkpt lat="47.21248" lon="4.96342">
        <ele>300.07238769531</ele>
        <time>2018-04-26T11:26:53+0200</time>
      </trkpt>
      <trkpt lat="47.21248" lon="4.96342">
        <ele>300.06341552734</ele>
        <time>2018-04-26T11:26:56+0200</time>
      </trkpt>
      <trkpt lat="47.21248" lon="4.96342">
        <ele>300.05117797852</ele>
        <time>2018-04-26T11:26:59+0200</time>
      </trkpt>
      <trkpt lat="47.21248" lon="4.96342">
        <ele>300.04141235352</ele>
        <time>2018-04-26T11:27:02+0200</time>
      </trkpt>
      <trkpt lat="47.21248" lon="4.96342">
        <ele>300.0341796875</ele>
        <time>2018-04-26T11:27:05+0200</time>
      </trkpt>
      <trkpt lat="47.21248" lon="4.96343">
        <ele>300.03015136719</ele>
        <time>2018-04-26T11:27:08+0200</time>
      </trkpt>
      <trkpt lat="47.21249" lon="4.96343">
        <ele>300.05056762695</ele>
        <time>2018-04-26T11:27:11+0200</time>
      </trkpt>
      <trkpt lat="47.2125" lon="4.96343">
        <ele>300.0680847168</ele>
        <time>2018-04-26T11:27:14+0200</time>
      </trkpt>
      <trkpt lat="47.21249" lon="4.96343">
        <ele>300.07562255859</ele>
        <time>2018-04-26T11:27:17+0200</time>
      </trkpt>
      <trkpt lat="47.21249" lon="4.96343">
        <ele>300.08676147461</ele>
        <time>2018-04-26T11:27:20+0200</time>
      </trkpt>
      <trkpt lat="47.21249" lon="4.96343">
        <ele>300.09829711914</ele>
        <time>2018-04-26T11:27:23+0200</time>
      </trkpt>
      <trkpt lat="47.21249" lon="4.96343">
        <ele>300.10958862305</ele>
        <time>2018-04-26T11:27:26+0200</time>
      </trkpt>
      <trkpt lat="47.21249" lon="4.96343">
        <ele>300.11999511719</ele>
        <time>2018-04-26T11:27:29+0200</time>
      </trkpt>
      <trkpt lat="47.21249" lon="4.96344">
        <ele>300.12936401367</ele>
        <time>2018-04-26T11:27:32+0200</time>
      </trkpt>
      <trkpt lat="47.21249" lon="4.96344">
        <ele>300.13940429688</ele>
        <time>2018-04-26T11:27:35+0200</time>
      </trkpt>
      <trkpt lat="47.21249" lon="4.96344">
        <ele>300.15100097656</ele>
        <time>2018-04-26T11:27:38+0200</time>
      </trkpt>
      <trkpt lat="47.21249" lon="4.96344">
        <ele>300.16467285156</ele>
        <time>2018-04-26T11:27:41+0200</time>
      </trkpt>
      <trkpt lat="47.21249" lon="4.96344">
        <ele>300.17840576172</ele>
        <time>2018-04-26T11:27:44+0200</time>
      </trkpt>
      <trkpt lat="47.21249" lon="4.96344">
        <ele>300.19326782227</ele>
        <time>2018-04-26T11:27:47+0200</time>
      </trkpt>
      <trkpt lat="47.21249" lon="4.96343">
        <ele>300.20294189453</ele>
        <time>2018-04-26T11:27:50+0200</time>
      </trkpt>
      <trkpt lat="47.21249" lon="4.96343">
        <ele>300.21453857422</ele>
        <time>2018-04-26T11:27:53+0200</time>
      </trkpt>
      <trkpt lat="47.21249" lon="4.96343">
        <ele>300.22451782227</ele>
        <time>2018-04-26T11:27:56+0200</time>
      </trkpt>
      <trkpt lat="47.21249" lon="4.96343">
        <ele>300.23013305664</ele>
        <time>2018-04-26T11:27:59+0200</time>
      </trkpt>
      <trkpt lat="47.21249" lon="4.96343">
        <ele>300.23760986328</ele>
        <time>2018-04-26T11:28:02+0200</time>
      </trkpt>
      <trkpt lat="47.21249" lon="4.96343">
        <ele>300.24691772461</ele>
        <time>2018-04-26T11:28:05+0200</time>
      </trkpt>
      <trkpt lat="47.21249" lon="4.96343">
        <ele>300.25982666016</ele>
        <time>2018-04-26T11:28:08+0200</time>
      </trkpt>
      <trkpt lat="47.21249" lon="4.96343">
        <ele>300.27545166016</ele>
        <time>2018-04-26T11:28:11+0200</time>
      </trkpt>
      <trkpt lat="47.21249" lon="4.96343">
        <ele>300.29385375977</ele>
        <time>2018-04-26T11:28:14+0200</time>
      </trkpt>
      <trkpt lat="47.21249" lon="4.96343">
        <ele>300.31167602539</ele>
        <time>2018-04-26T11:28:17+0200</time>
      </trkpt>
      <trkpt lat="47.21249" lon="4.96343">
        <ele>300.32870483398</ele>
        <time>2018-04-26T11:28:20+0200</time>
      </trkpt>
      <trkpt lat="47.21249" lon="4.96343">
        <ele>300.34252929688</ele>
        <time>2018-04-26T11:28:23+0200</time>
      </trkpt>
      <trkpt lat="47.21249" lon="4.96343">
        <ele>300.35528564453</ele>
        <time>2018-04-26T11:28:26+0200</time>
      </trkpt>
      <trkpt lat="47.21249" lon="4.96343">
        <ele>300.36721801758</ele>
        <time>2018-04-26T11:28:29+0200</time>
      </trkpt>
      <trkpt lat="47.21249" lon="4.96343">
        <ele>300.3779296875</ele>
        <time>2018-04-26T11:28:32+0200</time>
      </trkpt>
      <trkpt lat="47.21249" lon="4.96343">
        <ele>300.38833618164</ele>
        <time>2018-04-26T11:28:35+0200</time>
      </trkpt>
      <trkpt lat="47.21249" lon="4.96343">
        <ele>300.39727783203</ele>
        <time>2018-04-26T11:28:38+0200</time>
      </trkpt>
      <trkpt lat="47.21249" lon="4.96343">
        <ele>300.40417480469</ele>
        <time>2018-04-26T11:28:41+0200</time>
      </trkpt>
      <trkpt lat="47.21249" lon="4.96343">
        <ele>300.40759277344</ele>
        <time>2018-04-26T11:28:44+0200</time>
      </trkpt>
      <trkpt lat="47.2125" lon="4.96343">
        <ele>300.40933227539</ele>
        <time>2018-04-26T11:28:47+0200</time>
      </trkpt>
      <trkpt lat="47.2125" lon="4.96343">
        <ele>300.41027832031</ele>
        <time>2018-04-26T11:28:50+0200</time>
      </trkpt>
      <trkpt lat="47.2125" lon="4.96343">
        <ele>300.40951538086</ele>
        <time>2018-04-26T11:28:53+0200</time>
      </trkpt>
      <trkpt lat="47.2125" lon="4.96343">
        <ele>300.40670776367</ele>
        <time>2018-04-26T11:28:56+0200</time>
      </trkpt>
      <trkpt lat="47.2125" lon="4.96343">
        <ele>300.40518188477</ele>
        <time>2018-04-26T11:28:59+0200</time>
      </trkpt>
      <trkpt lat="47.2125" lon="4.96343">
        <ele>300.40679931641</ele>
        <time>2018-04-26T11:29:02+0200</time>
      </trkpt>
      <trkpt lat="47.2125" lon="4.96343">
        <ele>300.41052246094</ele>
        <time>2018-04-26T11:29:05+0200</time>
      </trkpt>
      <trkpt lat="47.2125" lon="4.96343">
        <ele>300.41369628906</ele>
        <time>2018-04-26T11:29:08+0200</time>
      </trkpt>
      <trkpt lat="47.2125" lon="4.96343">
        <ele>300.41680908203</ele>
        <time>2018-04-26T11:29:11+0200</time>
      </trkpt>
      <trkpt lat="47.2125" lon="4.96343">
        <ele>300.42065429688</ele>
        <time>2018-04-26T11:29:14+0200</time>
      </trkpt>
      <trkpt lat="47.2125" lon="4.96343">
        <ele>300.43048095703</ele>
        <time>2018-04-26T11:29:17+0200</time>
      </trkpt>
      <trkpt lat="47.2125" lon="4.96343">
        <ele>300.44635009766</ele>
        <time>2018-04-26T11:29:20+0200</time>
      </trkpt>
      <trkpt lat="47.2125" lon="4.96343">
        <ele>300.46273803711</ele>
        <time>2018-04-26T11:29:23+0200</time>
      </trkpt>
      <trkpt lat="47.2125" lon="4.96343">
        <ele>300.4787902832</ele>
        <time>2018-04-26T11:29:26+0200</time>
      </trkpt>
      <trkpt lat="47.2125" lon="4.96343">
        <ele>300.4948425293</ele>
        <time>2018-04-26T11:29:29+0200</time>
      </trkpt>
      <trkpt lat="47.2125" lon="4.96343">
        <ele>300.5110168457</ele>
        <time>2018-04-26T11:29:32+0200</time>
      </trkpt>
      <trkpt lat="47.2125" lon="4.96343">
        <ele>300.52691650391</ele>
        <time>2018-04-26T11:29:35+0200</time>
      </trkpt>
      <trkpt lat="47.2125" lon="4.96343">
        <ele>300.54312133789</ele>
        <time>2018-04-26T11:29:38+0200</time>
      </trkpt>
      <trkpt lat="47.2125" lon="4.96342">
        <ele>300.55953979492</ele>
        <time>2018-04-26T11:29:41+0200</time>
      </trkpt>
      <trkpt lat="47.2125" lon="4.96342">
        <ele>300.57507324219</ele>
        <time>2018-04-26T11:29:44+0200</time>
      </trkpt>
      <trkpt lat="47.2125" lon="4.96342">
        <ele>300.58901977539</ele>
        <time>2018-04-26T11:29:47+0200</time>
      </trkpt>
      <trkpt lat="47.2125" lon="4.96342">
        <ele>300.60067749023</ele>
        <time>2018-04-26T11:29:50+0200</time>
      </trkpt>
      <trkpt lat="47.2125" lon="4.96342">
        <ele>300.61123657227</ele>
        <time>2018-04-26T11:29:53+0200</time>
      </trkpt>
      <trkpt lat="47.2125" lon="4.96342">
        <ele>300.62115478516</ele>
        <time>2018-04-26T11:29:56+0200</time>
      </trkpt>
      <trkpt lat="47.2125" lon="4.96342">
        <ele>300.62799072266</ele>
        <time>2018-04-26T11:29:59+0200</time>
      </trkpt>
      <trkpt lat="47.2125" lon="4.96343">
        <ele>300.63150024414</ele>
        <time>2018-04-26T11:30:02+0200</time>
      </trkpt>
      <trkpt lat="47.2125" lon="4.96343">
        <ele>300.6357421875</ele>
        <time>2018-04-26T11:30:05+0200</time>
      </trkpt>
      <trkpt lat="47.2125" lon="4.96343">
        <ele>300.64163208008</ele>
        <time>2018-04-26T11:30:08+0200</time>
      </trkpt>
      <trkpt lat="47.2125" lon="4.96343">
        <ele>300.64743041992</ele>
        <time>2018-04-26T11:30:11+0200</time>
      </trkpt>
      <trkpt lat="47.2125" lon="4.96343">
        <ele>300.65399169922</ele>
        <time>2018-04-26T11:30:14+0200</time>
      </trkpt>
      <trkpt lat="47.2125" lon="4.96343">
        <ele>300.66030883789</ele>
        <time>2018-04-26T11:30:17+0200</time>
      </trkpt>
      <trkpt lat="47.2125" lon="4.96343">
        <ele>300.66653442383</ele>
        <time>2018-04-26T11:30:20+0200</time>
      </trkpt>
      <trkpt lat="47.2125" lon="4.96343">
        <ele>300.67181396484</ele>
        <time>2018-04-26T11:30:23+0200</time>
      </trkpt>
      <trkpt lat="47.2125" lon="4.96343">
        <ele>300.67578125</ele>
        <time>2018-04-26T11:30:26+0200</time>
      </trkpt>
      <trkpt lat="47.2125" lon="4.96343">
        <ele>300.6787109375</ele>
        <time>2018-04-26T11:30:29+0200</time>
      </trkpt>
      <trkpt lat="47.2125" lon="4.96343">
        <ele>300.68139648438</ele>
        <time>2018-04-26T11:30:32+0200</time>
      </trkpt>
      <trkpt lat="47.2125" lon="4.96343">
        <ele>300.68258666992</ele>
        <time>2018-04-26T11:30:35+0200</time>
      </trkpt>
      <trkpt lat="47.21251" lon="4.96343">
        <ele>300.68798828125</ele>
        <time>2018-04-26T11:30:38+0200</time>
      </trkpt>
      <trkpt lat="47.21251" lon="4.96343">
        <ele>300.69018554688</ele>
        <time>2018-04-26T11:30:41+0200</time>
      </trkpt>
      <trkpt lat="47.21251" lon="4.96343">
        <ele>300.69174194336</ele>
        <time>2018-04-26T11:30:44+0200</time>
      </trkpt>
      <trkpt lat="47.21251" lon="4.96343">
        <ele>300.69424438477</ele>
        <time>2018-04-26T11:30:47+0200</time>
      </trkpt>
      <trkpt lat="47.21251" lon="4.96343">
        <ele>300.6962890625</ele>
        <time>2018-04-26T11:30:50+0200</time>
      </trkpt>
      <trkpt lat="47.21251" lon="4.96343">
        <ele>300.70156860352</ele>
        <time>2018-04-26T11:30:53+0200</time>
      </trkpt>
      <trkpt lat="47.21251" lon="4.96343">
        <ele>300.70791625977</ele>
        <time>2018-04-26T11:30:56+0200</time>
      </trkpt>
      <trkpt lat="47.21251" lon="4.96343">
        <ele>300.70989990234</ele>
        <time>2018-04-26T11:30:59+0200</time>
      </trkpt>
      <trkpt lat="47.21251" lon="4.96343">
        <ele>300.71432495117</ele>
        <time>2018-04-26T11:31:02+0200</time>
      </trkpt>
      <trkpt lat="47.21251" lon="4.96343">
        <ele>300.72048950195</ele>
        <time>2018-04-26T11:31:05+0200</time>
      </trkpt>
      <trkpt lat="47.21251" lon="4.96343">
        <ele>300.72482299805</ele>
        <time>2018-04-26T11:31:08+0200</time>
      </trkpt>
      <trkpt lat="47.21251" lon="4.96343">
        <ele>300.72534179688</ele>
        <time>2018-04-26T11:31:11+0200</time>
      </trkpt>
      <trkpt lat="47.21251" lon="4.96343">
        <ele>300.72457885742</ele>
        <time>2018-04-26T11:31:14+0200</time>
      </trkpt>
      <trkpt lat="47.21251" lon="4.96343">
        <ele>300.72406005859</ele>
        <time>2018-04-26T11:31:17+0200</time>
      </trkpt>
      <trkpt lat="47.21251" lon="4.96343">
        <ele>300.72256469727</ele>
        <time>2018-04-26T11:31:20+0200</time>
      </trkpt>
      <trkpt lat="47.21251" lon="4.96343">
        <ele>300.72171020508</ele>
        <time>2018-04-26T11:31:23+0200</time>
      </trkpt>
      <trkpt lat="47.21251" lon="4.96343">
        <ele>300.7223815918</ele>
        <time>2018-04-26T11:31:26+0200</time>
      </trkpt>
      <trkpt lat="47.21251" lon="4.96343">
        <ele>300.72436523438</ele>
        <time>2018-04-26T11:31:29+0200</time>
      </trkpt>
      <trkpt lat="47.21251" lon="4.96343">
        <ele>300.72451782227</ele>
        <time>2018-04-26T11:31:32+0200</time>
      </trkpt>
      <trkpt lat="47.21251" lon="4.96343">
        <ele>300.7243347168</ele>
        <time>2018-04-26T11:31:34+0200</time>
      </trkpt>
      <trkpt lat="47.21251" lon="4.96343">
        <ele>300.72631835938</ele>
        <time>2018-04-26T11:31:37+0200</time>
      </trkpt>
      <trkpt lat="47.21251" lon="4.96343">
        <ele>300.73147583008</ele>
        <time>2018-04-26T11:31:40+0200</time>
      </trkpt>
      <trkpt lat="47.21251" lon="4.96343">
        <ele>300.73669433594</ele>
        <time>2018-04-26T11:31:43+0200</time>
      </trkpt>
      <trkpt lat="47.21251" lon="4.96343">
        <ele>300.74163818359</ele>
        <time>2018-04-26T11:31:46+0200</time>
      </trkpt>
      <trkpt lat="47.21251" lon="4.96343">
        <ele>300.74737548828</ele>
        <time>2018-04-26T11:31:49+0200</time>
      </trkpt>
      <trkpt lat="47.21251" lon="4.96343">
        <ele>300.75253295898</ele>
        <time>2018-04-26T11:31:52+0200</time>
      </trkpt>
      <trkpt lat="47.21251" lon="4.96343">
        <ele>300.75729370117</ele>
        <time>2018-04-26T11:31:55+0200</time>
      </trkpt>
      <trkpt lat="47.21251" lon="4.96343">
        <ele>300.76058959961</ele>
        <time>2018-04-26T11:31:58+0200</time>
      </trkpt>
      <trkpt lat="47.21251" lon="4.96343">
        <ele>300.76370239258</ele>
        <time>2018-04-26T11:32:01+0200</time>
      </trkpt>
      <trkpt lat="47.21251" lon="4.96343">
        <ele>300.76629638672</ele>
        <time>2018-04-26T11:32:04+0200</time>
      </trkpt>
      <trkpt lat="47.21251" lon="4.96343">
        <ele>300.76788330078</ele>
        <time>2018-04-26T11:32:07+0200</time>
      </trkpt>
      <trkpt lat="47.21251" lon="4.96343">
        <ele>300.76809692383</ele>
        <time>2018-04-26T11:32:10+0200</time>
      </trkpt>
      <trkpt lat="47.21251" lon="4.96343">
        <ele>300.76715087891</ele>
        <time>2018-04-26T11:32:13+0200</time>
      </trkpt>
      <trkpt lat="47.21251" lon="4.96343">
        <ele>300.76452636719</ele>
        <time>2018-04-26T11:32:16+0200</time>
      </trkpt>
      <trkpt lat="47.21251" lon="4.96343">
        <ele>300.759765625</ele>
        <time>2018-04-26T11:32:19+0200</time>
      </trkpt>
      <trkpt lat="47.21251" lon="4.96343">
        <ele>300.75250244141</ele>
        <time>2018-04-26T11:32:22+0200</time>
      </trkpt>
      <trkpt lat="47.21251" lon="4.96343">
        <ele>300.74417114258</ele>
        <time>2018-04-26T11:32:25+0200</time>
      </trkpt>
      <trkpt lat="47.21251" lon="4.96343">
        <ele>300.73599243164</ele>
        <time>2018-04-26T11:32:28+0200</time>
      </trkpt>
      <trkpt lat="47.21251" lon="4.96343">
        <ele>300.72848510742</ele>
        <time>2018-04-26T11:32:31+0200</time>
      </trkpt>
      <trkpt lat="47.21251" lon="4.96343">
        <ele>300.71990966797</ele>
        <time>2018-04-26T11:32:34+0200</time>
      </trkpt>
      <trkpt lat="47.21251" lon="4.96343">
        <ele>300.71008300781</ele>
        <time>2018-04-26T11:32:37+0200</time>
      </trkpt>
      <trkpt lat="47.21251" lon="4.96343">
        <ele>300.70007324219</ele>
        <time>2018-04-26T11:32:40+0200</time>
      </trkpt>
      <trkpt lat="47.21251" lon="4.96343">
        <ele>300.68966674805</ele>
        <time>2018-04-26T11:32:43+0200</time>
      </trkpt>
      <trkpt lat="47.21251" lon="4.96342">
        <ele>300.67971801758</ele>
        <time>2018-04-26T11:32:46+0200</time>
      </trkpt>
      <trkpt lat="47.21251" lon="4.96342">
        <ele>300.67047119141</ele>
        <time>2018-04-26T11:32:49+0200</time>
      </trkpt>
      <trkpt lat="47.21251" lon="4.96342">
        <ele>300.66143798828</ele>
        <time>2018-04-26T11:32:52+0200</time>
      </trkpt>
      <trkpt lat="47.21251" lon="4.96342">
        <ele>300.65365600586</ele>
        <time>2018-04-26T11:32:55+0200</time>
      </trkpt>
      <trkpt lat="47.21251" lon="4.96342">
        <ele>300.64581298828</ele>
        <time>2018-04-26T11:32:58+0200</time>
      </trkpt>
      <trkpt lat="47.21251" lon="4.96342">
        <ele>300.63760375977</ele>
        <time>2018-04-26T11:33:01+0200</time>
      </trkpt>
      <trkpt lat="47.21251" lon="4.96342">
        <ele>300.6296081543</ele>
        <time>2018-04-26T11:33:04+0200</time>
      </trkpt>
      <trkpt lat="47.21251" lon="4.96342">
        <ele>300.6217956543</ele>
        <time>2018-04-26T11:33:07+0200</time>
      </trkpt>
      <trkpt lat="47.21251" lon="4.96342">
        <ele>300.61337280273</ele>
        <time>2018-04-26T11:33:10+0200</time>
      </trkpt>
      <trkpt lat="47.21251" lon="4.96342">
        <ele>300.60388183594</ele>
        <time>2018-04-26T11:33:13+0200</time>
      </trkpt>
      <trkpt lat="47.21251" lon="4.96342">
        <ele>300.59490966797</ele>
        <time>2018-04-26T11:33:16+0200</time>
      </trkpt>
      <trkpt lat="47.21251" lon="4.96342">
        <ele>300.5859375</ele>
        <time>2018-04-26T11:33:19+0200</time>
      </trkpt>
      <trkpt lat="47.21251" lon="4.96342">
        <ele>300.57733154297</ele>
        <time>2018-04-26T11:33:22+0200</time>
      </trkpt>
      <trkpt lat="47.21251" lon="4.96342">
        <ele>300.56790161133</ele>
        <time>2018-04-26T11:33:25+0200</time>
      </trkpt>
      <trkpt lat="47.21251" lon="4.96342">
        <ele>300.56042480469</ele>
        <time>2018-04-26T11:33:28+0200</time>
      </trkpt>
      <trkpt lat="47.21251" lon="4.96342">
        <ele>300.55297851562</ele>
        <time>2018-04-26T11:33:31+0200</time>
      </trkpt>
      <trkpt lat="47.21251" lon="4.96342">
        <ele>300.54489135742</ele>
        <time>2018-04-26T11:33:34+0200</time>
      </trkpt>
      <trkpt lat="47.21251" lon="4.96342">
        <ele>300.53817749023</ele>
        <time>2018-04-26T11:33:37+0200</time>
      </trkpt>
      <trkpt lat="47.21251" lon="4.96342">
        <ele>300.53268432617</ele>
        <time>2018-04-26T11:33:40+0200</time>
      </trkpt>
      <trkpt lat="47.21251" lon="4.96342">
        <ele>300.52777099609</ele>
        <time>2018-04-26T11:33:43+0200</time>
      </trkpt>
      <trkpt lat="47.21251" lon="4.96342">
        <ele>300.52243041992</ele>
        <time>2018-04-26T11:33:46+0200</time>
      </trkpt>
      <trkpt lat="47.21252" lon="4.96341">
        <ele>300.51675415039</ele>
        <time>2018-04-26T11:33:49+0200</time>
      </trkpt>
      <trkpt lat="47.21252" lon="4.96341">
        <ele>300.51089477539</ele>
        <time>2018-04-26T11:33:52+0200</time>
      </trkpt>
      <trkpt lat="47.21252" lon="4.96341">
        <ele>300.50283813477</ele>
        <time>2018-04-26T11:33:55+0200</time>
      </trkpt>
      <trkpt lat="47.21252" lon="4.96341">
        <ele>300.49377441406</ele>
        <time>2018-04-26T11:33:58+0200</time>
      </trkpt>
      <trkpt lat="47.21252" lon="4.96341">
        <ele>300.48837280273</ele>
        <time>2018-04-26T11:34:01+0200</time>
      </trkpt>
      <trkpt lat="47.21252" lon="4.96341">
        <ele>300.48718261719</ele>
        <time>2018-04-26T11:34:04+0200</time>
      </trkpt>
      <trkpt lat="47.21252" lon="4.96341">
        <ele>300.48791503906</ele>
        <time>2018-04-26T11:34:07+0200</time>
      </trkpt>
      <trkpt lat="47.21252" lon="4.96341">
        <ele>300.48983764648</ele>
        <time>2018-04-26T11:34:10+0200</time>
      </trkpt>
      <trkpt lat="47.21252" lon="4.96341">
        <ele>300.49139404297</ele>
        <time>2018-04-26T11:34:13+0200</time>
      </trkpt>
      <trkpt lat="47.21252" lon="4.96341">
        <ele>300.49307250977</ele>
        <time>2018-04-26T11:34:16+0200</time>
      </trkpt>
      <trkpt lat="47.21252" lon="4.96341">
        <ele>300.49450683594</ele>
        <time>2018-04-26T11:34:19+0200</time>
      </trkpt>
      <trkpt lat="47.21252" lon="4.96341">
        <ele>300.49185180664</ele>
        <time>2018-04-26T11:34:22+0200</time>
      </trkpt>
      <trkpt lat="47.21252" lon="4.96341">
        <ele>300.47592163086</ele>
        <time>2018-04-26T11:34:25+0200</time>
      </trkpt>
      <trkpt lat="47.21252" lon="4.96341">
        <ele>300.46838378906</ele>
        <time>2018-04-26T11:34:28+0200</time>
      </trkpt>
      <trkpt lat="47.21252" lon="4.96341">
        <ele>300.46127319336</ele>
        <time>2018-04-26T11:34:31+0200</time>
      </trkpt>
      <trkpt lat="47.21252" lon="4.96341">
        <ele>300.45361328125</ele>
        <time>2018-04-26T11:34:34+0200</time>
      </trkpt>
      <trkpt lat="47.21253" lon="4.96341">
        <ele>300.42352294922</ele>
        <time>2018-04-26T11:34:37+0200</time>
      </trkpt>
      <trkpt lat="47.21254" lon="4.96341">
        <ele>300.40582275391</ele>
        <time>2018-04-26T11:34:40+0200</time>
      </trkpt>
      <trkpt lat="47.21255" lon="4.96341">
        <ele>300.37698364258</ele>
        <time>2018-04-26T11:34:43+0200</time>
      </trkpt>
      <trkpt lat="47.21255" lon="4.96341">
        <ele>300.3752746582</ele>
        <time>2018-04-26T11:34:46+0200</time>
      </trkpt>
      <trkpt lat="47.21255" lon="4.96341">
        <ele>300.37600708008</ele>
        <time>2018-04-26T11:34:49+0200</time>
      </trkpt>
      <trkpt lat="47.21255" lon="4.96341">
        <ele>300.37847900391</ele>
        <time>2018-04-26T11:34:52+0200</time>
      </trkpt>
      <trkpt lat="47.21255" lon="4.96341">
        <ele>300.38427734375</ele>
        <time>2018-04-26T11:34:55+0200</time>
      </trkpt>
      <trkpt lat="47.21255" lon="4.96341">
        <ele>300.40466308594</ele>
        <time>2018-04-26T11:34:58+0200</time>
      </trkpt>
      <trkpt lat="47.21255" lon="4.96341">
        <ele>300.40875244141</ele>
        <time>2018-04-26T11:35:01+0200</time>
      </trkpt>
      <trkpt lat="47.21256" lon="4.96341">
        <ele>300.4714050293</ele>
        <time>2018-04-26T11:35:04+0200</time>
      </trkpt>
      <trkpt lat="47.21257" lon="4.96341">
        <ele>300.6015625</ele>
        <time>2018-04-26T11:35:07+0200</time>
      </trkpt>
      <trkpt lat="47.21259" lon="4.96341">
        <ele>300.72592163086</ele>
        <time>2018-04-26T11:35:10+0200</time>
      </trkpt>
      <trkpt lat="47.2126" lon="4.9634">
        <ele>300.90414428711</ele>
        <time>2018-04-26T11:35:13+0200</time>
      </trkpt>
      <trkpt lat="47.21262" lon="4.9634">
        <ele>301.08807373047</ele>
        <time>2018-04-26T11:35:16+0200</time>
      </trkpt>
      <trkpt lat="47.21264" lon="4.9634">
        <ele>301.25930786133</ele>
        <time>2018-04-26T11:35:19+0200</time>
      </trkpt>
      <trkpt lat="47.21267" lon="4.9634">
        <ele>301.38186645508</ele>
        <time>2018-04-26T11:35:22+0200</time>
      </trkpt>
      <trkpt lat="47.21268" lon="4.96341">
        <ele>301.47662353516</ele>
        <time>2018-04-26T11:35:25+0200</time>
      </trkpt>
      <trkpt lat="47.2127" lon="4.96341">
        <ele>301.6005859375</ele>
        <time>2018-04-26T11:35:28+0200</time>
      </trkpt>
      <trkpt lat="47.21272" lon="4.96341">
        <ele>301.70950317383</ele>
        <time>2018-04-26T11:35:31+0200</time>
      </trkpt>
      <trkpt lat="47.21274" lon="4.96343">
        <ele>301.89291381836</ele>
        <time>2018-04-26T11:35:34+0200</time>
      </trkpt>
      <trkpt lat="47.21276" lon="4.96344">
        <ele>302.12411499023</ele>
        <time>2018-04-26T11:35:37+0200</time>
      </trkpt>
      <trkpt lat="47.21278" lon="4.96344">
        <ele>302.33416748047</ele>
        <time>2018-04-26T11:35:40+0200</time>
      </trkpt>
      <trkpt lat="47.21281" lon="4.96346">
        <ele>302.54611206055</ele>
        <time>2018-04-26T11:35:43+0200</time>
      </trkpt>
      <trkpt lat="47.21282" lon="4.96347">
        <ele>302.75634765625</ele>
        <time>2018-04-26T11:35:46+0200</time>
      </trkpt>
      <trkpt lat="47.21284" lon="4.96348">
        <ele>302.97644042969</ele>
        <time>2018-04-26T11:35:49+0200</time>
      </trkpt>
      <trkpt lat="47.21286" lon="4.96349">
        <ele>303.21426391602</ele>
        <time>2018-04-26T11:35:52+0200</time>
      </trkpt>
      <trkpt lat="47.21287" lon="4.9635">
        <ele>303.41705322266</ele>
        <time>2018-04-26T11:35:55+0200</time>
      </trkpt>
      <trkpt lat="47.2129" lon="4.96351">
        <ele>303.56781005859</ele>
        <time>2018-04-26T11:35:58+0200</time>
      </trkpt>
      <trkpt lat="47.21292" lon="4.96353">
        <ele>303.71432495117</ele>
        <time>2018-04-26T11:36:01+0200</time>
      </trkpt>
      <trkpt lat="47.21294" lon="4.96354">
        <ele>303.81539916992</ele>
        <time>2018-04-26T11:36:04+0200</time>
      </trkpt>
      <trkpt lat="47.21296" lon="4.96356">
        <ele>303.91232299805</ele>
        <time>2018-04-26T11:36:07+0200</time>
      </trkpt>
      <trkpt lat="47.21299" lon="4.96357">
        <ele>304.02203369141</ele>
        <time>2018-04-26T11:36:10+0200</time>
      </trkpt>
      <trkpt lat="47.21302" lon="4.96358">
        <ele>304.0491027832</ele>
        <time>2018-04-26T11:36:13+0200</time>
      </trkpt>
      <trkpt lat="47.21303" lon="4.96359">
        <ele>304.08187866211</ele>
        <time>2018-04-26T11:36:16+0200</time>
      </trkpt>
      <trkpt lat="47.21305" lon="4.96359">
        <ele>304.07754516602</ele>
        <time>2018-04-26T11:36:19+0200</time>
      </trkpt>
      <trkpt lat="47.21307" lon="4.9636">
        <ele>304.06423950195</ele>
        <time>2018-04-26T11:36:22+0200</time>
      </trkpt>
      <trkpt lat="47.2131" lon="4.96361">
        <ele>304.03762817383</ele>
        <time>2018-04-26T11:36:25+0200</time>
      </trkpt>
      <trkpt lat="47.21313" lon="4.96362">
        <ele>304.02288818359</ele>
        <time>2018-04-26T11:36:28+0200</time>
      </trkpt>
      <trkpt lat="47.21316" lon="4.96362">
        <ele>304.03189086914</ele>
        <time>2018-04-26T11:36:31+0200</time>
      </trkpt>
      <trkpt lat="47.21319" lon="4.96363">
        <ele>304.07495117188</ele>
        <time>2018-04-26T11:36:34+0200</time>
      </trkpt>
      <trkpt lat="47.21322" lon="4.96364">
        <ele>304.11614990234</ele>
        <time>2018-04-26T11:36:37+0200</time>
      </trkpt>
      <trkpt lat="47.21324" lon="4.96364">
        <ele>304.27267456055</ele>
        <time>2018-04-26T11:36:40+0200</time>
      </trkpt>
      <trkpt lat="47.21327" lon="4.96365">
        <ele>304.4216003418</ele>
        <time>2018-04-26T11:36:43+0200</time>
      </trkpt>
      <trkpt lat="47.21331" lon="4.96366">
        <ele>304.48028564453</ele>
        <time>2018-04-26T11:36:46+0200</time>
      </trkpt>
      <trkpt lat="47.21333" lon="4.96366">
        <ele>304.45791625977</ele>
        <time>2018-04-26T11:36:49+0200</time>
      </trkpt>
      <trkpt lat="47.21336" lon="4.96366">
        <ele>304.36672973633</ele>
        <time>2018-04-26T11:36:52+0200</time>
      </trkpt>
      <trkpt lat="47.2134" lon="4.96368">
        <ele>304.28875732422</ele>
        <time>2018-04-26T11:36:55+0200</time>
      </trkpt>
      <trkpt lat="47.21343" lon="4.96368">
        <ele>304.25189208984</ele>
        <time>2018-04-26T11:36:58+0200</time>
      </trkpt>
      <trkpt lat="47.21345" lon="4.96368">
        <ele>304.1676940918</ele>
        <time>2018-04-26T11:37:01+0200</time>
      </trkpt>
      <trkpt lat="47.21347" lon="4.96368">
        <ele>304.0862121582</ele>
        <time>2018-04-26T11:37:04+0200</time>
      </trkpt>
      <trkpt lat="47.21349" lon="4.96369">
        <ele>304.03369140625</ele>
        <time>2018-04-26T11:37:07+0200</time>
      </trkpt>
      <trkpt lat="47.21352" lon="4.9637">
        <ele>303.99993896484</ele>
        <time>2018-04-26T11:37:10+0200</time>
      </trkpt>
      <trkpt lat="47.21355" lon="4.96371">
        <ele>303.98446655273</ele>
        <time>2018-04-26T11:37:13+0200</time>
      </trkpt>
      <trkpt lat="47.21357" lon="4.96372">
        <ele>303.95565795898</ele>
        <time>2018-04-26T11:37:16+0200</time>
      </trkpt>
      <trkpt lat="47.2136" lon="4.96372">
        <ele>303.92053222656</ele>
        <time>2018-04-26T11:37:19+0200</time>
      </trkpt>
      <trkpt lat="47.21361" lon="4.96372">
        <ele>303.87133789062</ele>
        <time>2018-04-26T11:37:22+0200</time>
      </trkpt>
      <trkpt lat="47.21364" lon="4.96374">
        <ele>303.91754150391</ele>
        <time>2018-04-26T11:37:25+0200</time>
      </trkpt>
      <trkpt lat="47.21366" lon="4.96374">
        <ele>304.01348876953</ele>
        <time>2018-04-26T11:37:28+0200</time>
      </trkpt>
      <trkpt lat="47.21368" lon="4.96375">
        <ele>304.14984130859</ele>
        <time>2018-04-26T11:37:31+0200</time>
      </trkpt>
      <trkpt lat="47.21371" lon="4.96376">
        <ele>304.31072998047</ele>
        <time>2018-04-26T11:37:34+0200</time>
      </trkpt>
      <trkpt lat="47.21373" lon="4.96377">
        <ele>304.44155883789</ele>
        <time>2018-04-26T11:37:37+0200</time>
      </trkpt>
      <trkpt lat="47.21376" lon="4.96377">
        <ele>304.57360839844</ele>
        <time>2018-04-26T11:37:40+0200</time>
      </trkpt>
      <trkpt lat="47.21379" lon="4.96378">
        <ele>304.68493652344</ele>
        <time>2018-04-26T11:37:43+0200</time>
      </trkpt>
      <trkpt lat="47.21382" lon="4.96379">
        <ele>304.763671875</ele>
        <time>2018-04-26T11:37:46+0200</time>
      </trkpt>
      <trkpt lat="47.21384" lon="4.96379">
        <ele>304.84680175781</ele>
        <time>2018-04-26T11:37:49+0200</time>
      </trkpt>
      <trkpt lat="47.21387" lon="4.96381">
        <ele>304.89318847656</ele>
        <time>2018-04-26T11:37:52+0200</time>
      </trkpt>
      <trkpt lat="47.2139" lon="4.96382">
        <ele>304.9231262207</ele>
        <time>2018-04-26T11:37:55+0200</time>
      </trkpt>
      <trkpt lat="47.21393" lon="4.96383">
        <ele>304.9216003418</ele>
        <time>2018-04-26T11:37:58+0200</time>
      </trkpt>
      <trkpt lat="47.21396" lon="4.96384">
        <ele>304.90612792969</ele>
        <time>2018-04-26T11:38:01+0200</time>
      </trkpt>
      <trkpt lat="47.21398" lon="4.96385">
        <ele>304.89886474609</ele>
        <time>2018-04-26T11:38:04+0200</time>
      </trkpt>
      <trkpt lat="47.21401" lon="4.96386">
        <ele>304.89849853516</ele>
        <time>2018-04-26T11:38:07+0200</time>
      </trkpt>
      <trkpt lat="47.21404" lon="4.96387">
        <ele>304.87902832031</ele>
        <time>2018-04-26T11:38:10+0200</time>
      </trkpt>
      <trkpt lat="47.21407" lon="4.96388">
        <ele>304.77792358398</ele>
        <time>2018-04-26T11:38:13+0200</time>
      </trkpt>
      <trkpt lat="47.2141" lon="4.96388">
        <ele>304.6809387207</ele>
        <time>2018-04-26T11:38:16+0200</time>
      </trkpt>
      <trkpt lat="47.21412" lon="4.96389">
        <ele>304.63256835938</ele>
        <time>2018-04-26T11:38:19+0200</time>
      </trkpt>
      <trkpt lat="47.21414" lon="4.9639">
        <ele>304.59909057617</ele>
        <time>2018-04-26T11:38:22+0200</time>
      </trkpt>
      <trkpt lat="47.21417" lon="4.96391">
        <ele>304.61459350586</ele>
        <time>2018-04-26T11:38:25+0200</time>
      </trkpt>
      <trkpt lat="47.2142" lon="4.96391">
        <ele>304.66571044922</ele>
        <time>2018-04-26T11:38:28+0200</time>
      </trkpt>
      <trkpt lat="47.21424" lon="4.96393">
        <ele>304.73025512695</ele>
        <time>2018-04-26T11:38:31+0200</time>
      </trkpt>
      <trkpt lat="47.21427" lon="4.96392">
        <ele>304.79467773438</ele>
        <time>2018-04-26T11:38:34+0200</time>
      </trkpt>
      <trkpt lat="47.21429" lon="4.96389">
        <ele>304.86239624023</ele>
        <time>2018-04-26T11:38:37+0200</time>
      </trkpt>
      <trkpt lat="47.21431" lon="4.96388">
        <ele>304.9010925293</ele>
        <time>2018-04-26T11:38:40+0200</time>
      </trkpt>
      <trkpt lat="47.21433" lon="4.96388">
        <ele>304.9592590332</ele>
        <time>2018-04-26T11:38:43+0200</time>
      </trkpt>
      <trkpt lat="47.21436" lon="4.96389">
        <ele>305.02236938477</ele>
        <time>2018-04-26T11:38:46+0200</time>
      </trkpt>
      <trkpt lat="47.21439" lon="4.9639">
        <ele>305.11770629883</ele>
        <time>2018-04-26T11:38:49+0200</time>
      </trkpt>
      <trkpt lat="47.21442" lon="4.96391">
        <ele>305.24353027344</ele>
        <time>2018-04-26T11:38:52+0200</time>
      </trkpt>
      <trkpt lat="47.21446" lon="4.96392">
        <ele>305.43572998047</ele>
        <time>2018-04-26T11:38:55+0200</time>
      </trkpt>
      <trkpt lat="47.21448" lon="4.96392">
        <ele>305.55206298828</ele>
        <time>2018-04-26T11:38:58+0200</time>
      </trkpt>
      <trkpt lat="47.21451" lon="4.96393">
        <ele>305.67630004883</ele>
        <time>2018-04-26T11:39:01+0200</time>
      </trkpt>
      <trkpt lat="47.21454" lon="4.96394">
        <ele>305.80068969727</ele>
        <time>2018-04-26T11:39:04+0200</time>
      </trkpt>
      <trkpt lat="47.21457" lon="4.96395">
        <ele>305.88885498047</ele>
        <time>2018-04-26T11:39:07+0200</time>
      </trkpt>
      <trkpt lat="47.2146" lon="4.96396">
        <ele>305.9108581543</ele>
        <time>2018-04-26T11:39:10+0200</time>
      </trkpt>
      <trkpt lat="47.21462" lon="4.96396">
        <ele>305.95748901367</ele>
        <time>2018-04-26T11:39:13+0200</time>
      </trkpt>
      <trkpt lat="47.21465" lon="4.96398">
        <ele>305.96392822266</ele>
        <time>2018-04-26T11:39:16+0200</time>
      </trkpt>
      <trkpt lat="47.21468" lon="4.96398">
        <ele>305.93063354492</ele>
        <time>2018-04-26T11:39:19+0200</time>
      </trkpt>
      <trkpt lat="47.21471" lon="4.96399">
        <ele>305.8889465332</ele>
        <time>2018-04-26T11:39:22+0200</time>
      </trkpt>
      <trkpt lat="47.21475" lon="4.964">
        <ele>305.84603881836</ele>
        <time>2018-04-26T11:39:25+0200</time>
      </trkpt>
      <trkpt lat="47.21478" lon="4.96402">
        <ele>305.77584838867</ele>
        <time>2018-04-26T11:39:28+0200</time>
      </trkpt>
      <trkpt lat="47.21481" lon="4.96404">
        <ele>305.7301940918</ele>
        <time>2018-04-26T11:39:31+0200</time>
      </trkpt>
      <trkpt lat="47.21484" lon="4.96405">
        <ele>305.69644165039</ele>
        <time>2018-04-26T11:39:34+0200</time>
      </trkpt>
      <trkpt lat="47.21486" lon="4.96405">
        <ele>305.69714355469</ele>
        <time>2018-04-26T11:39:37+0200</time>
      </trkpt>
      <trkpt lat="47.21489" lon="4.96406">
        <ele>305.69735717773</ele>
        <time>2018-04-26T11:39:40+0200</time>
      </trkpt>
      <trkpt lat="47.21492" lon="4.96407">
        <ele>305.68438720703</ele>
        <time>2018-04-26T11:39:43+0200</time>
      </trkpt>
      <trkpt lat="47.21495" lon="4.96407">
        <ele>305.66311645508</ele>
        <time>2018-04-26T11:39:46+0200</time>
      </trkpt>
      <trkpt lat="47.21499" lon="4.96408">
        <ele>305.63897705078</ele>
        <time>2018-04-26T11:39:49+0200</time>
      </trkpt>
      <trkpt lat="47.21501" lon="4.96408">
        <ele>305.62158203125</ele>
        <time>2018-04-26T11:39:52+0200</time>
      </trkpt>
      <trkpt lat="47.21502" lon="4.96409">
        <ele>305.62915039062</ele>
        <time>2018-04-26T11:39:55+0200</time>
      </trkpt>
      <trkpt lat="47.21505" lon="4.96409">
        <ele>305.70053100586</ele>
        <time>2018-04-26T11:39:58+0200</time>
      </trkpt>
      <trkpt lat="47.21509" lon="4.96411">
        <ele>305.75405883789</ele>
        <time>2018-04-26T11:40:01+0200</time>
      </trkpt>
      <trkpt lat="47.21511" lon="4.96412">
        <ele>305.830078125</ele>
        <time>2018-04-26T11:40:04+0200</time>
      </trkpt>
      <trkpt lat="47.21514" lon="4.96413">
        <ele>305.87390136719</ele>
        <time>2018-04-26T11:40:07+0200</time>
      </trkpt>
      <trkpt lat="47.21518" lon="4.96415">
        <ele>305.92001342773</ele>
        <time>2018-04-26T11:40:10+0200</time>
      </trkpt>
      <trkpt lat="47.21521" lon="4.96415">
        <ele>305.92886352539</ele>
        <time>2018-04-26T11:40:13+0200</time>
      </trkpt>
      <trkpt lat="47.21524" lon="4.96415">
        <ele>305.94964599609</ele>
        <time>2018-04-26T11:40:16+0200</time>
      </trkpt>
      <trkpt lat="47.21526" lon="4.96416">
        <ele>305.962890625</ele>
        <time>2018-04-26T11:40:19+0200</time>
      </trkpt>
      <trkpt lat="47.21529" lon="4.96416">
        <ele>306.01202392578</ele>
        <time>2018-04-26T11:40:22+0200</time>
      </trkpt>
      <trkpt lat="47.21532" lon="4.96417">
        <ele>306.0901184082</ele>
        <time>2018-04-26T11:40:25+0200</time>
      </trkpt>
      <trkpt lat="47.21535" lon="4.96418">
        <ele>306.20138549805</ele>
        <time>2018-04-26T11:40:28+0200</time>
      </trkpt>
      <trkpt lat="47.21538" lon="4.96417">
        <ele>306.29647827148</ele>
        <time>2018-04-26T11:40:31+0200</time>
      </trkpt>
      <trkpt lat="47.21539" lon="4.96417">
        <ele>306.38705444336</ele>
        <time>2018-04-26T11:40:34+0200</time>
      </trkpt>
      <trkpt lat="47.21542" lon="4.96418">
        <ele>306.48587036133</ele>
        <time>2018-04-26T11:40:37+0200</time>
      </trkpt>
      <trkpt lat="47.21543" lon="4.96418">
        <ele>306.62881469727</ele>
        <time>2018-04-26T11:40:40+0200</time>
      </trkpt>
      <trkpt lat="47.21547" lon="4.96419">
        <ele>306.76290893555</ele>
        <time>2018-04-26T11:40:43+0200</time>
      </trkpt>
      <trkpt lat="47.2155" lon="4.96419">
        <ele>306.84539794922</ele>
        <time>2018-04-26T11:40:46+0200</time>
      </trkpt>
      <trkpt lat="47.21551" lon="4.96418">
        <ele>306.90277099609</ele>
        <time>2018-04-26T11:40:49+0200</time>
      </trkpt>
      <trkpt lat="47.21555" lon="4.96418">
        <ele>306.93014526367</ele>
        <time>2018-04-26T11:40:52+0200</time>
      </trkpt>
      <trkpt lat="47.21558" lon="4.96418">
        <ele>306.89996337891</ele>
        <time>2018-04-26T11:40:55+0200</time>
      </trkpt>
      <trkpt lat="47.21561" lon="4.96418">
        <ele>306.85186767578</ele>
        <time>2018-04-26T11:40:58+0200</time>
      </trkpt>
      <trkpt lat="47.21565" lon="4.96419">
        <ele>306.81042480469</ele>
        <time>2018-04-26T11:41:01+0200</time>
      </trkpt>
      <trkpt lat="47.21567" lon="4.9642">
        <ele>306.78186035156</ele>
        <time>2018-04-26T11:41:04+0200</time>
      </trkpt>
      <trkpt lat="47.2157" lon="4.96419">
        <ele>306.75268554688</ele>
        <time>2018-04-26T11:41:07+0200</time>
      </trkpt>
      <trkpt lat="47.21572" lon="4.96419">
        <ele>306.69348144531</ele>
        <time>2018-04-26T11:41:10+0200</time>
      </trkpt>
      <trkpt lat="47.21576" lon="4.96419">
        <ele>306.55654907227</ele>
        <time>2018-04-26T11:41:13+0200</time>
      </trkpt>
      <trkpt lat="47.21579" lon="4.96419">
        <ele>306.36901855469</ele>
        <time>2018-04-26T11:41:16+0200</time>
      </trkpt>
      <trkpt lat="47.21582" lon="4.9642">
        <ele>306.17327880859</ele>
        <time>2018-04-26T11:41:19+0200</time>
      </trkpt>
      <trkpt lat="47.21584" lon="4.9642">
        <ele>306.04040527344</ele>
        <time>2018-04-26T11:41:22+0200</time>
      </trkpt>
      <trkpt lat="47.21588" lon="4.96421">
        <ele>305.98587036133</ele>
        <time>2018-04-26T11:41:25+0200</time>
      </trkpt>
      <trkpt lat="47.21591" lon="4.96421">
        <ele>305.94537353516</ele>
        <time>2018-04-26T11:41:28+0200</time>
      </trkpt>
      <trkpt lat="47.21593" lon="4.96421">
        <ele>305.93106079102</ele>
        <time>2018-04-26T11:41:31+0200</time>
      </trkpt>
      <trkpt lat="47.21595" lon="4.96421">
        <ele>305.91763305664</ele>
        <time>2018-04-26T11:41:34+0200</time>
      </trkpt>
      <trkpt lat="47.21598" lon="4.96422">
        <ele>305.92880249023</ele>
        <time>2018-04-26T11:41:37+0200</time>
      </trkpt>
      <trkpt lat="47.216" lon="4.96423">
        <ele>305.95092773438</ele>
        <time>2018-04-26T11:41:40+0200</time>
      </trkpt>
      <trkpt lat="47.21604" lon="4.96424">
        <ele>305.94152832031</ele>
        <time>2018-04-26T11:41:43+0200</time>
      </trkpt>
      <trkpt lat="47.21608" lon="4.96424">
        <ele>305.81875610352</ele>
        <time>2018-04-26T11:41:46+0200</time>
      </trkpt>
      <trkpt lat="47.2161" lon="4.96424">
        <ele>305.69229125977</ele>
        <time>2018-04-26T11:41:49+0200</time>
      </trkpt>
      <trkpt lat="47.21613" lon="4.96424">
        <ele>305.59817504883</ele>
        <time>2018-04-26T11:41:52+0200</time>
      </trkpt>
      <trkpt lat="47.21615" lon="4.96424">
        <ele>305.50347900391</ele>
        <time>2018-04-26T11:41:55+0200</time>
      </trkpt>
      <trkpt lat="47.21618" lon="4.96424">
        <ele>305.4416809082</ele>
        <time>2018-04-26T11:41:58+0200</time>
      </trkpt>
      <trkpt lat="47.21622" lon="4.96424">
        <ele>305.39682006836</ele>
        <time>2018-04-26T11:42:01+0200</time>
      </trkpt>
      <trkpt lat="47.21624" lon="4.96423">
        <ele>305.35189819336</ele>
        <time>2018-04-26T11:42:04+0200</time>
      </trkpt>
      <trkpt lat="47.21626" lon="4.96423">
        <ele>305.32553100586</ele>
        <time>2018-04-26T11:42:07+0200</time>
      </trkpt>
      <trkpt lat="47.21629" lon="4.96423">
        <ele>305.3108215332</ele>
        <time>2018-04-26T11:42:10+0200</time>
      </trkpt>
      <trkpt lat="47.21631" lon="4.96423">
        <ele>305.26864624023</ele>
        <time>2018-04-26T11:42:13+0200</time>
      </trkpt>
      <trkpt lat="47.21634" lon="4.96423">
        <ele>305.22637939453</ele>
        <time>2018-04-26T11:42:16+0200</time>
      </trkpt>
      <trkpt lat="47.21636" lon="4.96424">
        <ele>305.20962524414</ele>
        <time>2018-04-26T11:42:19+0200</time>
      </trkpt>
      <trkpt lat="47.21638" lon="4.96424">
        <ele>305.23315429688</ele>
        <time>2018-04-26T11:42:22+0200</time>
      </trkpt>
      <trkpt lat="47.2164" lon="4.96424">
        <ele>305.30212402344</ele>
        <time>2018-04-26T11:42:25+0200</time>
      </trkpt>
      <trkpt lat="47.21643" lon="4.96424">
        <ele>305.40298461914</ele>
        <time>2018-04-26T11:42:28+0200</time>
      </trkpt>
      <trkpt lat="47.21646" lon="4.96424">
        <ele>305.49798583984</ele>
        <time>2018-04-26T11:42:31+0200</time>
      </trkpt>
      <trkpt lat="47.21648" lon="4.96424">
        <ele>305.60659790039</ele>
        <time>2018-04-26T11:42:34+0200</time>
      </trkpt>
      <trkpt lat="47.21651" lon="4.96425">
        <ele>305.75244140625</ele>
        <time>2018-04-26T11:42:37+0200</time>
      </trkpt>
      <trkpt lat="47.21654" lon="4.96425">
        <ele>305.92593383789</ele>
        <time>2018-04-26T11:42:40+0200</time>
      </trkpt>
      <trkpt lat="47.21657" lon="4.96426">
        <ele>306.16705322266</ele>
        <time>2018-04-26T11:42:43+0200</time>
      </trkpt>
      <trkpt lat="47.2166" lon="4.96426">
        <ele>306.45199584961</ele>
        <time>2018-04-26T11:42:46+0200</time>
      </trkpt>
      <trkpt lat="47.21663" lon="4.96427">
        <ele>306.76321411133</ele>
        <time>2018-04-26T11:42:49+0200</time>
      </trkpt>
      <trkpt lat="47.21666" lon="4.96428">
        <ele>307.0852355957</ele>
        <time>2018-04-26T11:42:52+0200</time>
      </trkpt>
      <trkpt lat="47.21669" lon="4.96429">
        <ele>307.3671875</ele>
        <time>2018-04-26T11:42:55+0200</time>
      </trkpt>
      <trkpt lat="47.21671" lon="4.96429">
        <ele>307.63745117188</ele>
        <time>2018-04-26T11:42:58+0200</time>
      </trkpt>
      <trkpt lat="47.21673" lon="4.96429">
        <ele>307.86508178711</ele>
        <time>2018-04-26T11:43:01+0200</time>
      </trkpt>
      <trkpt lat="47.21675" lon="4.96427">
        <ele>308.07702636719</ele>
        <time>2018-04-26T11:43:04+0200</time>
      </trkpt>
      <trkpt lat="47.21677" lon="4.96426">
        <ele>308.25213623047</ele>
        <time>2018-04-26T11:43:07+0200</time>
      </trkpt>
      <trkpt lat="47.2168" lon="4.96425">
        <ele>308.35629272461</ele>
        <time>2018-04-26T11:43:10+0200</time>
      </trkpt>
      <trkpt lat="47.21682" lon="4.96424">
        <ele>308.46508789062</ele>
        <time>2018-04-26T11:43:13+0200</time>
      </trkpt>
      <trkpt lat="47.21685" lon="4.96423">
        <ele>308.60940551758</ele>
        <time>2018-04-26T11:43:16+0200</time>
      </trkpt>
      <trkpt lat="47.21688" lon="4.96422">
        <ele>308.75567626953</ele>
        <time>2018-04-26T11:43:19+0200</time>
      </trkpt>
      <trkpt lat="47.21691" lon="4.96421">
        <ele>308.76635742188</ele>
        <time>2018-04-26T11:43:22+0200</time>
      </trkpt>
      <trkpt lat="47.2169" lon="4.96422">
        <ele>308.89990234375</ele>
        <time>2018-04-26T11:43:25+0200</time>
      </trkpt>
      <trkpt lat="47.21692" lon="4.96421">
        <ele>309.09719848633</ele>
        <time>2018-04-26T11:43:28+0200</time>
      </trkpt>
      <trkpt lat="47.21693" lon="4.96421">
        <ele>309.26010131836</ele>
        <time>2018-04-26T11:43:31+0200</time>
      </trkpt>
      <trkpt lat="47.21695" lon="4.96419">
        <ele>309.29528808594</ele>
        <time>2018-04-26T11:43:34+0200</time>
      </trkpt>
      <trkpt lat="47.21695" lon="4.96419">
        <ele>309.23211669922</ele>
        <time>2018-04-26T11:43:37+0200</time>
      </trkpt>
      <trkpt lat="47.21696" lon="4.96419">
        <ele>309.15115356445</ele>
        <time>2018-04-26T11:43:40+0200</time>
      </trkpt>
      <trkpt lat="47.21697" lon="4.96419">
        <ele>309.07064819336</ele>
        <time>2018-04-26T11:43:43+0200</time>
      </trkpt>
      <trkpt lat="47.217" lon="4.96419">
        <ele>308.98416137695</ele>
        <time>2018-04-26T11:43:46+0200</time>
      </trkpt>
      <trkpt lat="47.21702" lon="4.9642">
        <ele>308.90493774414</ele>
        <time>2018-04-26T11:43:49+0200</time>
      </trkpt>
      <trkpt lat="47.21704" lon="4.96422">
        <ele>308.84896850586</ele>
        <time>2018-04-26T11:43:52+0200</time>
      </trkpt>
      <trkpt lat="47.21707" lon="4.96422">
        <ele>308.78854370117</ele>
        <time>2018-04-26T11:43:55+0200</time>
      </trkpt>
      <trkpt lat="47.21709" lon="4.96423">
        <ele>308.71087646484</ele>
        <time>2018-04-26T11:43:58+0200</time>
      </trkpt>
      <trkpt lat="47.21711" lon="4.96424">
        <ele>308.65295410156</ele>
        <time>2018-04-26T11:44:01+0200</time>
      </trkpt>
      <trkpt lat="47.21714" lon="4.96425">
        <ele>308.61486816406</ele>
        <time>2018-04-26T11:44:04+0200</time>
      </trkpt>
      <trkpt lat="47.21715" lon="4.96425">
        <ele>308.58267211914</ele>
        <time>2018-04-26T11:44:07+0200</time>
      </trkpt>
      <trkpt lat="47.21717" lon="4.96426">
        <ele>308.54470825195</ele>
        <time>2018-04-26T11:44:10+0200</time>
      </trkpt>
      <trkpt lat="47.21719" lon="4.96428">
        <ele>308.50384521484</ele>
        <time>2018-04-26T11:44:13+0200</time>
      </trkpt>
      <trkpt lat="47.21721" lon="4.96428">
        <ele>308.47436523438</ele>
        <time>2018-04-26T11:44:16+0200</time>
      </trkpt>
      <trkpt lat="47.21723" lon="4.96428">
        <ele>308.43072509766</ele>
        <time>2018-04-26T11:44:19+0200</time>
      </trkpt>
      <trkpt lat="47.21725" lon="4.96429">
        <ele>308.40216064453</ele>
        <time>2018-04-26T11:44:22+0200</time>
      </trkpt>
      <trkpt lat="47.21727" lon="4.96429">
        <ele>308.39068603516</ele>
        <time>2018-04-26T11:44:25+0200</time>
      </trkpt>
      <trkpt lat="47.2173" lon="4.96431">
        <ele>308.36444091797</ele>
        <time>2018-04-26T11:44:28+0200</time>
      </trkpt>
      <trkpt lat="47.21732" lon="4.96431">
        <ele>308.33813476562</ele>
        <time>2018-04-26T11:44:32+0200</time>
      </trkpt>
      <trkpt lat="47.21735" lon="4.96431">
        <ele>308.32571411133</ele>
        <time>2018-04-26T11:44:35+0200</time>
      </trkpt>
      <trkpt lat="47.21737" lon="4.96433">
        <ele>308.29241943359</ele>
        <time>2018-04-26T11:44:38+0200</time>
      </trkpt>
      <trkpt lat="47.2174" lon="4.96434">
        <ele>308.22998046875</ele>
        <time>2018-04-26T11:44:41+0200</time>
      </trkpt>
      <trkpt lat="47.21743" lon="4.96435">
        <ele>308.16729736328</ele>
        <time>2018-04-26T11:44:44+0200</time>
      </trkpt>
      <trkpt lat="47.21745" lon="4.96436">
        <ele>308.02069091797</ele>
        <time>2018-04-26T11:44:47+0200</time>
      </trkpt>
      <trkpt lat="47.21748" lon="4.96436">
        <ele>307.78155517578</ele>
        <time>2018-04-26T11:44:50+0200</time>
      </trkpt>
      <trkpt lat="47.2175" lon="4.96435">
        <ele>307.50219726562</ele>
        <time>2018-04-26T11:44:53+0200</time>
      </trkpt>
      <trkpt lat="47.21753" lon="4.96433">
        <ele>307.19155883789</ele>
        <time>2018-04-26T11:44:56+0200</time>
      </trkpt>
      <trkpt lat="47.21756" lon="4.96431">
        <ele>306.75720214844</ele>
        <time>2018-04-26T11:44:59+0200</time>
      </trkpt>
      <trkpt lat="47.21759" lon="4.9643">
        <ele>306.32299804688</ele>
        <time>2018-04-26T11:45:02+0200</time>
      </trkpt>
      <trkpt lat="47.21762" lon="4.96429">
        <ele>305.95806884766</ele>
        <time>2018-04-26T11:45:05+0200</time>
      </trkpt>
      <trkpt lat="47.21765" lon="4.96429">
        <ele>305.66711425781</ele>
        <time>2018-04-26T11:45:08+0200</time>
      </trkpt>
      <trkpt lat="47.21767" lon="4.96428">
        <ele>305.42224121094</ele>
        <time>2018-04-26T11:45:11+0200</time>
      </trkpt>
      <trkpt lat="47.2177" lon="4.96427">
        <ele>305.19659423828</ele>
        <time>2018-04-26T11:45:14+0200</time>
      </trkpt>
      <trkpt lat="47.21772" lon="4.96427">
        <ele>304.99340820312</ele>
        <time>2018-04-26T11:45:17+0200</time>
      </trkpt>
      <trkpt lat="47.21776" lon="4.96427">
        <ele>304.78356933594</ele>
        <time>2018-04-26T11:45:20+0200</time>
      </trkpt>
      <trkpt lat="47.21778" lon="4.96427">
        <ele>304.58551025391</ele>
        <time>2018-04-26T11:45:23+0200</time>
      </trkpt>
      <trkpt lat="47.21781" lon="4.96429">
        <ele>304.42352294922</ele>
        <time>2018-04-26T11:45:26+0200</time>
      </trkpt>
      <trkpt lat="47.21783" lon="4.9643">
        <ele>304.28625488281</ele>
        <time>2018-04-26T11:45:29+0200</time>
      </trkpt>
      <trkpt lat="47.21786" lon="4.96432">
        <ele>304.24606323242</ele>
        <time>2018-04-26T11:45:32+0200</time>
      </trkpt>
      <trkpt lat="47.21788" lon="4.96434">
        <ele>304.23754882812</ele>
        <time>2018-04-26T11:45:35+0200</time>
      </trkpt>
      <trkpt lat="47.21791" lon="4.96435">
        <ele>304.2336730957</ele>
        <time>2018-04-26T11:45:38+0200</time>
      </trkpt>
      <trkpt lat="47.21794" lon="4.96437">
        <ele>304.27276611328</ele>
        <time>2018-04-26T11:45:41+0200</time>
      </trkpt>
      <trkpt lat="47.21796" lon="4.96439">
        <ele>304.32641601562</ele>
        <time>2018-04-26T11:45:44+0200</time>
      </trkpt>
      <trkpt lat="47.21798" lon="4.9644">
        <ele>304.39782714844</ele>
        <time>2018-04-26T11:45:47+0200</time>
      </trkpt>
      <trkpt lat="47.21801" lon="4.96441">
        <ele>304.48297119141</ele>
        <time>2018-04-26T11:45:50+0200</time>
      </trkpt>
      <trkpt lat="47.21804" lon="4.96442">
        <ele>304.5710144043</ele>
        <time>2018-04-26T11:45:53+0200</time>
      </trkpt>
      <trkpt lat="47.21806" lon="4.96443">
        <ele>304.65277099609</ele>
        <time>2018-04-26T11:45:56+0200</time>
      </trkpt>
      <trkpt lat="47.21811" lon="4.96443">
        <ele>304.69906616211</ele>
        <time>2018-04-26T11:45:59+0200</time>
      </trkpt>
      <trkpt lat="47.21813" lon="4.96444">
        <ele>304.71075439453</ele>
        <time>2018-04-26T11:46:02+0200</time>
      </trkpt>
      <trkpt lat="47.21815" lon="4.96445">
        <ele>304.79312133789</ele>
        <time>2018-04-26T11:46:05+0200</time>
      </trkpt>
      <trkpt lat="47.21817" lon="4.96444">
        <ele>304.94705200195</ele>
        <time>2018-04-26T11:46:08+0200</time>
      </trkpt>
      <trkpt lat="47.21819" lon="4.96443">
        <ele>305.18008422852</ele>
        <time>2018-04-26T11:46:11+0200</time>
      </trkpt>
      <trkpt lat="47.21823" lon="4.96443">
        <ele>305.40808105469</ele>
        <time>2018-04-26T11:46:14+0200</time>
      </trkpt>
      <trkpt lat="47.21826" lon="4.96443">
        <ele>305.53890991211</ele>
        <time>2018-04-26T11:46:17+0200</time>
      </trkpt>
      <trkpt lat="47.21829" lon="4.96443">
        <ele>305.62161254883</ele>
        <time>2018-04-26T11:46:20+0200</time>
      </trkpt>
      <trkpt lat="47.21833" lon="4.96443">
        <ele>305.65979003906</ele>
        <time>2018-04-26T11:46:23+0200</time>
      </trkpt>
      <trkpt lat="47.21836" lon="4.96443">
        <ele>305.66796875</ele>
        <time>2018-04-26T11:46:26+0200</time>
      </trkpt>
      <trkpt lat="47.21839" lon="4.96443">
        <ele>305.63034057617</ele>
        <time>2018-04-26T11:46:29+0200</time>
      </trkpt>
      <trkpt lat="47.21844" lon="4.96442">
        <ele>305.53692626953</ele>
        <time>2018-04-26T11:46:32+0200</time>
      </trkpt>
      <trkpt lat="47.21848" lon="4.96442">
        <ele>305.35549926758</ele>
        <time>2018-04-26T11:46:35+0200</time>
      </trkpt>
      <trkpt lat="47.21851" lon="4.96441">
        <ele>305.15496826172</ele>
        <time>2018-04-26T11:46:38+0200</time>
      </trkpt>
      <trkpt lat="47.21854" lon="4.9644">
        <ele>304.93563842773</ele>
        <time>2018-04-26T11:46:41+0200</time>
      </trkpt>
      <trkpt lat="47.21857" lon="4.96439">
        <ele>304.70706176758</ele>
        <time>2018-04-26T11:46:44+0200</time>
      </trkpt>
      <trkpt lat="47.21859" lon="4.96439">
        <ele>304.48101806641</ele>
        <time>2018-04-26T11:46:47+0200</time>
      </trkpt>
      <trkpt lat="47.21862" lon="4.96438">
        <ele>304.25592041016</ele>
        <time>2018-04-26T11:46:50+0200</time>
      </trkpt>
      <trkpt lat="47.21865" lon="4.96438">
        <ele>304.03848266602</ele>
        <time>2018-04-26T11:46:53+0200</time>
      </trkpt>
      <trkpt lat="47.21868" lon="4.96437">
        <ele>303.85150146484</ele>
        <time>2018-04-26T11:46:56+0200</time>
      </trkpt>
      <trkpt lat="47.2187" lon="4.96436">
        <ele>303.71301269531</ele>
        <time>2018-04-26T11:46:59+0200</time>
      </trkpt>
      <trkpt lat="47.21874" lon="4.96436">
        <ele>303.60055541992</ele>
        <time>2018-04-26T11:47:02+0200</time>
      </trkpt>
      <trkpt lat="47.21877" lon="4.96435">
        <ele>303.52658081055</ele>
        <time>2018-04-26T11:47:05+0200</time>
      </trkpt>
      <trkpt lat="47.2188" lon="4.96435">
        <ele>303.40515136719</ele>
        <time>2018-04-26T11:47:08+0200</time>
      </trkpt>
      <trkpt lat="47.21883" lon="4.96435">
        <ele>303.25424194336</ele>
        <time>2018-04-26T11:47:11+0200</time>
      </trkpt>
      <trkpt lat="47.21886" lon="4.96434">
        <ele>303.10009765625</ele>
        <time>2018-04-26T11:47:14+0200</time>
      </trkpt>
      <trkpt lat="47.21889" lon="4.96434">
        <ele>302.94479370117</ele>
        <time>2018-04-26T11:47:17+0200</time>
      </trkpt>
      <trkpt lat="47.21893" lon="4.96434">
        <ele>302.79064941406</ele>
        <time>2018-04-26T11:47:20+0200</time>
      </trkpt>
      <trkpt lat="47.21896" lon="4.96435">
        <ele>302.66506958008</ele>
        <time>2018-04-26T11:47:23+0200</time>
      </trkpt>
      <trkpt lat="47.21899" lon="4.96435">
        <ele>302.54208374023</ele>
        <time>2018-04-26T11:47:26+0200</time>
      </trkpt>
      <trkpt lat="47.21903" lon="4.96436">
        <ele>302.45016479492</ele>
        <time>2018-04-26T11:47:29+0200</time>
      </trkpt>
      <trkpt lat="47.21906" lon="4.96437">
        <ele>302.35400390625</ele>
        <time>2018-04-26T11:47:32+0200</time>
      </trkpt>
      <trkpt lat="47.21908" lon="4.96438">
        <ele>302.24432373047</ele>
        <time>2018-04-26T11:47:35+0200</time>
      </trkpt>
      <trkpt lat="47.21911" lon="4.96438">
        <ele>302.14059448242</ele>
        <time>2018-04-26T11:47:38+0200</time>
      </trkpt>
      <trkpt lat="47.21914" lon="4.96439">
        <ele>302.07116699219</ele>
        <time>2018-04-26T11:47:41+0200</time>
      </trkpt>
      <trkpt lat="47.21917" lon="4.96439">
        <ele>302.07608032227</ele>
        <time>2018-04-26T11:47:44+0200</time>
      </trkpt>
      <trkpt lat="47.2192" lon="4.96441">
        <ele>302.08721923828</ele>
        <time>2018-04-26T11:47:47+0200</time>
      </trkpt>
      <trkpt lat="47.21923" lon="4.96441">
        <ele>302.09414672852</ele>
        <time>2018-04-26T11:47:50+0200</time>
      </trkpt>
      <trkpt lat="47.21926" lon="4.96442">
        <ele>302.10067749023</ele>
        <time>2018-04-26T11:47:53+0200</time>
      </trkpt>
      <trkpt lat="47.21929" lon="4.96442">
        <ele>302.08004760742</ele>
        <time>2018-04-26T11:47:56+0200</time>
      </trkpt>
      <trkpt lat="47.21931" lon="4.96443">
        <ele>302.05395507812</ele>
        <time>2018-04-26T11:47:59+0200</time>
      </trkpt>
      <trkpt lat="47.21933" lon="4.96443">
        <ele>302.04495239258</ele>
        <time>2018-04-26T11:48:02+0200</time>
      </trkpt>
      <trkpt lat="47.21936" lon="4.96444">
        <ele>302.04586791992</ele>
        <time>2018-04-26T11:48:05+0200</time>
      </trkpt>
      <trkpt lat="47.21939" lon="4.96443">
        <ele>302.08401489258</ele>
        <time>2018-04-26T11:48:08+0200</time>
      </trkpt>
      <trkpt lat="47.21942" lon="4.96443">
        <ele>302.16055297852</ele>
        <time>2018-04-26T11:48:11+0200</time>
      </trkpt>
      <trkpt lat="47.21945" lon="4.96444">
        <ele>302.25119018555</ele>
        <time>2018-04-26T11:48:14+0200</time>
      </trkpt>
      <trkpt lat="47.21947" lon="4.96444">
        <ele>302.33831787109</ele>
        <time>2018-04-26T11:48:17+0200</time>
      </trkpt>
      <trkpt lat="47.2195" lon="4.96443">
        <ele>302.43984985352</ele>
        <time>2018-04-26T11:48:20+0200</time>
      </trkpt>
      <trkpt lat="47.21953" lon="4.96443">
        <ele>302.53567504883</ele>
        <time>2018-04-26T11:48:23+0200</time>
      </trkpt>
      <trkpt lat="47.21956" lon="4.96442">
        <ele>302.56784057617</ele>
        <time>2018-04-26T11:48:26+0200</time>
      </trkpt>
      <trkpt lat="47.21958" lon="4.96443">
        <ele>302.53961181641</ele>
        <time>2018-04-26T11:48:29+0200</time>
      </trkpt>
      <trkpt lat="47.2196" lon="4.96442">
        <ele>302.43588256836</ele>
        <time>2018-04-26T11:48:32+0200</time>
      </trkpt>
      <trkpt lat="47.21962" lon="4.96441">
        <ele>302.33813476562</ele>
        <time>2018-04-26T11:48:35+0200</time>
      </trkpt>
      <trkpt lat="47.21963" lon="4.96439">
        <ele>302.3117980957</ele>
        <time>2018-04-26T11:48:38+0200</time>
      </trkpt>
      <trkpt lat="47.21963" lon="4.96435">
        <ele>302.34307861328</ele>
        <time>2018-04-26T11:48:41+0200</time>
      </trkpt>
      <trkpt lat="47.21963" lon="4.96432">
        <ele>302.41397094727</ele>
        <time>2018-04-26T11:48:44+0200</time>
      </trkpt>
      <trkpt lat="47.21962" lon="4.9643">
        <ele>302.52328491211</ele>
        <time>2018-04-26T11:48:47+0200</time>
      </trkpt>
      <trkpt lat="47.21961" lon="4.96428">
        <ele>302.78918457031</ele>
        <time>2018-04-26T11:48:50+0200</time>
      </trkpt>
      <trkpt lat="47.21961" lon="4.96424">
        <ele>303.16864013672</ele>
        <time>2018-04-26T11:48:53+0200</time>
      </trkpt>
      <trkpt lat="47.21961" lon="4.96421">
        <ele>303.57550048828</ele>
        <time>2018-04-26T11:48:56+0200</time>
      </trkpt>
      <trkpt lat="47.21961" lon="4.96418">
        <ele>303.99307250977</ele>
        <time>2018-04-26T11:48:59+0200</time>
      </trkpt>
      <trkpt lat="47.21962" lon="4.96415">
        <ele>304.36599731445</ele>
        <time>2018-04-26T11:49:02+0200</time>
      </trkpt>
      <trkpt lat="47.21964" lon="4.96411">
        <ele>304.65133666992</ele>
        <time>2018-04-26T11:49:05+0200</time>
      </trkpt>
      <trkpt lat="47.21965" lon="4.96408">
        <ele>304.81634521484</ele>
        <time>2018-04-26T11:49:08+0200</time>
      </trkpt>
      <trkpt lat="47.21965" lon="4.96405">
        <ele>304.93896484375</ele>
        <time>2018-04-26T11:49:11+0200</time>
      </trkpt>
      <trkpt lat="47.21966" lon="4.96401">
        <ele>305.048828125</ele>
        <time>2018-04-26T11:49:14+0200</time>
      </trkpt>
      <trkpt lat="47.21966" lon="4.96399">
        <ele>305.150390625</ele>
        <time>2018-04-26T11:49:17+0200</time>
      </trkpt>
      <trkpt lat="47.21967" lon="4.96395">
        <ele>305.28659057617</ele>
        <time>2018-04-26T11:49:20+0200</time>
      </trkpt>
      <trkpt lat="47.21967" lon="4.96392">
        <ele>305.53176879883</ele>
        <time>2018-04-26T11:49:23+0200</time>
      </trkpt>
      <trkpt lat="47.21967" lon="4.9639">
        <ele>305.84356689453</ele>
        <time>2018-04-26T11:49:26+0200</time>
      </trkpt>
      <trkpt lat="47.21967" lon="4.96386">
        <ele>306.18664550781</ele>
        <time>2018-04-26T11:49:29+0200</time>
      </trkpt>
      <trkpt lat="47.21967" lon="4.96383">
        <ele>306.54742431641</ele>
        <time>2018-04-26T11:49:32+0200</time>
      </trkpt>
      <trkpt lat="47.21967" lon="4.96381">
        <ele>306.91815185547</ele>
        <time>2018-04-26T11:49:35+0200</time>
      </trkpt>
      <trkpt lat="47.21967" lon="4.9638">
        <ele>307.17205810547</ele>
        <time>2018-04-26T11:49:38+0200</time>
      </trkpt>
      <trkpt lat="47.21967" lon="4.96378">
        <ele>307.53436279297</ele>
        <time>2018-04-26T11:49:41+0200</time>
      </trkpt>
      <trkpt lat="47.21967" lon="4.96375">
        <ele>307.89697265625</ele>
        <time>2018-04-26T11:49:44+0200</time>
      </trkpt>
      <trkpt lat="47.21967" lon="4.96372">
        <ele>308.26403808594</ele>
        <time>2018-04-26T11:49:47+0200</time>
      </trkpt>
      <trkpt lat="47.21967" lon="4.9637">
        <ele>308.62728881836</ele>
        <time>2018-04-26T11:49:50+0200</time>
      </trkpt>
      <trkpt lat="47.21966" lon="4.96367">
        <ele>308.95565795898</ele>
        <time>2018-04-26T11:49:53+0200</time>
      </trkpt>
      <trkpt lat="47.21967" lon="4.96364">
        <ele>309.25607299805</ele>
        <time>2018-04-26T11:49:56+0200</time>
      </trkpt>
      <trkpt lat="47.21967" lon="4.96361">
        <ele>309.54022216797</ele>
        <time>2018-04-26T11:49:59+0200</time>
      </trkpt>
      <trkpt lat="47.21967" lon="4.96359">
        <ele>309.80853271484</ele>
        <time>2018-04-26T11:50:02+0200</time>
      </trkpt>
      <trkpt lat="47.21967" lon="4.96356">
        <ele>310.0632019043</ele>
        <time>2018-04-26T11:50:05+0200</time>
      </trkpt>
      <trkpt lat="47.21968" lon="4.96353">
        <ele>310.32293701172</ele>
        <time>2018-04-26T11:50:08+0200</time>
      </trkpt>
      <trkpt lat="47.21968" lon="4.9635">
        <ele>310.59857177734</ele>
        <time>2018-04-26T11:50:11+0200</time>
      </trkpt>
      <trkpt lat="47.21968" lon="4.96347">
        <ele>310.89459228516</ele>
        <time>2018-04-26T11:50:14+0200</time>
      </trkpt>
      <trkpt lat="47.21969" lon="4.96345">
        <ele>311.23181152344</ele>
        <time>2018-04-26T11:50:17+0200</time>
      </trkpt>
      <trkpt lat="47.2197" lon="4.96342">
        <ele>311.623046875</ele>
        <time>2018-04-26T11:50:20+0200</time>
      </trkpt>
      <trkpt lat="47.2197" lon="4.96341">
        <ele>312.04797363281</ele>
        <time>2018-04-26T11:50:23+0200</time>
      </trkpt>
      <trkpt lat="47.2197" lon="4.96339">
        <ele>312.53402709961</ele>
        <time>2018-04-26T11:50:26+0200</time>
      </trkpt>
      <trkpt lat="47.21969" lon="4.96338">
        <ele>312.92340087891</ele>
        <time>2018-04-26T11:50:29+0200</time>
      </trkpt>
      <trkpt lat="47.2197" lon="4.96336">
        <ele>313.56378173828</ele>
        <time>2018-04-26T11:50:32+0200</time>
      </trkpt>
      <trkpt lat="47.21972" lon="4.96335">
        <ele>314.24871826172</ele>
        <time>2018-04-26T11:50:35+0200</time>
      </trkpt>
      <trkpt lat="47.21972" lon="4.96331">
        <ele>314.88360595703</ele>
        <time>2018-04-26T11:50:38+0200</time>
      </trkpt>
      <trkpt lat="47.21974" lon="4.96329">
        <ele>315.45724487305</ele>
        <time>2018-04-26T11:50:41+0200</time>
      </trkpt>
      <trkpt lat="47.21974" lon="4.96329">
        <ele>316.00814819336</ele>
        <time>2018-04-26T11:50:44+0200</time>
      </trkpt>
      <trkpt lat="47.21975" lon="4.96327">
        <ele>316.49774169922</ele>
        <time>2018-04-26T11:50:47+0200</time>
      </trkpt>
      <trkpt lat="47.21975" lon="4.96328">
        <ele>316.55795288086</ele>
        <time>2018-04-26T11:50:50+0200</time>
      </trkpt>
      <trkpt lat="47.21975" lon="4.96328">
        <ele>316.63464355469</ele>
        <time>2018-04-26T11:50:53+0200</time>
      </trkpt>
      <trkpt lat="47.21975" lon="4.96327">
        <ele>316.71966552734</ele>
        <time>2018-04-26T11:50:56+0200</time>
      </trkpt>
      <trkpt lat="47.21975" lon="4.96328">
        <ele>316.80905151367</ele>
        <time>2018-04-26T11:50:59+0200</time>
      </trkpt>
      <trkpt lat="47.21975" lon="4.96328">
        <ele>316.90087890625</ele>
        <time>2018-04-26T11:51:02+0200</time>
      </trkpt>
      <trkpt lat="47.21975" lon="4.96327">
        <ele>316.99273681641</ele>
        <time>2018-04-26T11:51:05+0200</time>
      </trkpt>
      <trkpt lat="47.21975" lon="4.96327">
        <ele>317.09494018555</ele>
        <time>2018-04-26T11:51:08+0200</time>
      </trkpt>
      <trkpt lat="47.21975" lon="4.96327">
        <ele>317.20083618164</ele>
        <time>2018-04-26T11:51:11+0200</time>
      </trkpt>
      <trkpt lat="47.21975" lon="4.96328">
        <ele>317.29293823242</ele>
        <time>2018-04-26T11:51:14+0200</time>
      </trkpt>
      <trkpt lat="47.21975" lon="4.96328">
        <ele>317.37420654297</ele>
        <time>2018-04-26T11:51:17+0200</time>
      </trkpt>
      <trkpt lat="47.21975" lon="4.96328">
        <ele>317.45446777344</ele>
        <time>2018-04-26T11:51:20+0200</time>
      </trkpt>
      <trkpt lat="47.21975" lon="4.96328">
        <ele>317.52981567383</ele>
        <time>2018-04-26T11:51:23+0200</time>
      </trkpt>
      <trkpt lat="47.21975" lon="4.96327">
        <ele>317.60641479492</ele>
        <time>2018-04-26T11:51:26+0200</time>
      </trkpt>
      <trkpt lat="47.21974" lon="4.96327">
        <ele>317.95648193359</ele>
        <time>2018-04-26T11:51:29+0200</time>
      </trkpt>
      <trkpt lat="47.21974" lon="4.96327">
        <ele>318.04382324219</ele>
        <time>2018-04-26T11:51:32+0200</time>
      </trkpt>
      <trkpt lat="47.21974" lon="4.96327">
        <ele>318.12490844727</ele>
        <time>2018-04-26T11:51:35+0200</time>
      </trkpt>
      <trkpt lat="47.21974" lon="4.96327">
        <ele>318.19836425781</ele>
        <time>2018-04-26T11:51:38+0200</time>
      </trkpt>
      <trkpt lat="47.21974" lon="4.96327">
        <ele>318.27767944336</ele>
        <time>2018-04-26T11:51:41+0200</time>
      </trkpt>
      <trkpt lat="47.21974" lon="4.96327">
        <ele>318.36212158203</ele>
        <time>2018-04-26T11:51:44+0200</time>
      </trkpt>
      <trkpt lat="47.21974" lon="4.96327">
        <ele>318.44589233398</ele>
        <time>2018-04-26T11:51:47+0200</time>
      </trkpt>
      <trkpt lat="47.21974" lon="4.96327">
        <ele>318.52462768555</ele>
        <time>2018-04-26T11:51:50+0200</time>
      </trkpt>
      <trkpt lat="47.21974" lon="4.96328">
        <ele>318.96612548828</ele>
        <time>2018-04-26T11:51:53+0200</time>
      </trkpt>
      <trkpt lat="47.21974" lon="4.96326">
        <ele>319.55389404297</ele>
        <time>2018-04-26T11:51:56+0200</time>
      </trkpt>
      <trkpt lat="47.21973" lon="4.96323">
        <ele>320.21911621094</ele>
        <time>2018-04-26T11:51:59+0200</time>
      </trkpt>
      <trkpt lat="47.21975" lon="4.96323">
        <ele>320.927734375</ele>
        <time>2018-04-26T11:52:02+0200</time>
      </trkpt>
      <trkpt lat="47.21975" lon="4.96323">
        <ele>320.99258422852</ele>
        <time>2018-04-26T11:52:05+0200</time>
      </trkpt>
      <trkpt lat="47.21975" lon="4.96323">
        <ele>321.05450439453</ele>
        <time>2018-04-26T11:52:08+0200</time>
      </trkpt>
      <trkpt lat="47.21975" lon="4.96322">
        <ele>321.11871337891</ele>
        <time>2018-04-26T11:52:11+0200</time>
      </trkpt>
      <trkpt lat="47.21979" lon="4.96318">
        <ele>321.55355834961</ele>
        <time>2018-04-26T11:52:14+0200</time>
      </trkpt>
      <trkpt lat="47.21981" lon="4.96317">
        <ele>322.11972045898</ele>
        <time>2018-04-26T11:52:17+0200</time>
      </trkpt>
      <trkpt lat="47.21982" lon="4.96319">
        <ele>322.55505371094</ele>
        <time>2018-04-26T11:52:20+0200</time>
      </trkpt>
      <trkpt lat="47.21984" lon="4.9632">
        <ele>322.82797241211</ele>
        <time>2018-04-26T11:52:23+0200</time>
      </trkpt>
      <trkpt lat="47.21986" lon="4.9632">
        <ele>322.89935302734</ele>
        <time>2018-04-26T11:52:26+0200</time>
      </trkpt>
      <trkpt lat="47.21989" lon="4.9632">
        <ele>322.82257080078</ele>
        <time>2018-04-26T11:52:29+0200</time>
      </trkpt>
      <trkpt lat="47.2199" lon="4.96319">
        <ele>322.74105834961</ele>
        <time>2018-04-26T11:52:32+0200</time>
      </trkpt>
      <trkpt lat="47.21993" lon="4.96321">
        <ele>322.63052368164</ele>
        <time>2018-04-26T11:52:35+0200</time>
      </trkpt>
      <trkpt lat="47.21992" lon="4.9632">
        <ele>322.61883544922</ele>
        <time>2018-04-26T11:52:38+0200</time>
      </trkpt>
      <trkpt lat="47.21992" lon="4.9632">
        <ele>322.61553955078</ele>
        <time>2018-04-26T11:52:41+0200</time>
      </trkpt>
      <trkpt lat="47.21992" lon="4.9632">
        <ele>322.61325073242</ele>
        <time>2018-04-26T11:52:44+0200</time>
      </trkpt>
      <trkpt lat="47.21993" lon="4.96319">
        <ele>322.61267089844</ele>
        <time>2018-04-26T11:52:47+0200</time>
      </trkpt>
      <trkpt lat="47.21993" lon="4.96319">
        <ele>322.61566162109</ele>
        <time>2018-04-26T11:52:50+0200</time>
      </trkpt>
      <trkpt lat="47.21994" lon="4.96319">
        <ele>322.72381591797</ele>
        <time>2018-04-26T11:52:53+0200</time>
      </trkpt>
      <trkpt lat="47.21998" lon="4.9632">
        <ele>322.86361694336</ele>
        <time>2018-04-26T11:52:56+0200</time>
      </trkpt>
      <trkpt lat="47.21999" lon="4.96321">
        <ele>322.95190429688</ele>
        <time>2018-04-26T11:52:59+0200</time>
      </trkpt>
      <trkpt lat="47.22001" lon="4.96321">
        <ele>323.05792236328</ele>
        <time>2018-04-26T11:53:02+0200</time>
      </trkpt>
      <trkpt lat="47.22004" lon="4.96322">
        <ele>323.13488769531</ele>
        <time>2018-04-26T11:53:05+0200</time>
      </trkpt>
      <trkpt lat="47.22008" lon="4.96323">
        <ele>323.14279174805</ele>
        <time>2018-04-26T11:53:08+0200</time>
      </trkpt>
      <trkpt lat="47.22009" lon="4.96323">
        <ele>323.185546875</ele>
        <time>2018-04-26T11:53:11+0200</time>
      </trkpt>
      <trkpt lat="47.22011" lon="4.96324">
        <ele>323.27932739258</ele>
        <time>2018-04-26T11:53:14+0200</time>
      </trkpt>
      <trkpt lat="47.22013" lon="4.96324">
        <ele>323.41772460938</ele>
        <time>2018-04-26T11:53:17+0200</time>
      </trkpt>
      <trkpt lat="47.22016" lon="4.96323">
        <ele>323.5598449707</ele>
        <time>2018-04-26T11:53:20+0200</time>
      </trkpt>
      <trkpt lat="47.22017" lon="4.96323">
        <ele>323.73196411133</ele>
        <time>2018-04-26T11:53:23+0200</time>
      </trkpt>
      <trkpt lat="47.22019" lon="4.96324">
        <ele>323.91342163086</ele>
        <time>2018-04-26T11:53:26+0200</time>
      </trkpt>
      <trkpt lat="47.22021" lon="4.96324">
        <ele>324.13534545898</ele>
        <time>2018-04-26T11:53:29+0200</time>
      </trkpt>
      <trkpt lat="47.22024" lon="4.96325">
        <ele>324.27847290039</ele>
        <time>2018-04-26T11:53:32+0200</time>
      </trkpt>
      <trkpt lat="47.22025" lon="4.96324">
        <ele>324.39709472656</ele>
        <time>2018-04-26T11:53:35+0200</time>
      </trkpt>
      <trkpt lat="47.22027" lon="4.96325">
        <ele>324.50723266602</ele>
        <time>2018-04-26T11:53:38+0200</time>
      </trkpt>
      <trkpt lat="47.22029" lon="4.96325">
        <ele>324.52127075195</ele>
        <time>2018-04-26T11:53:41+0200</time>
      </trkpt>
      <trkpt lat="47.22029" lon="4.96325">
        <ele>324.51843261719</ele>
        <time>2018-04-26T11:53:44+0200</time>
      </trkpt>
      <trkpt lat="47.2203" lon="4.96326">
        <ele>324.482421875</ele>
        <time>2018-04-26T11:53:47+0200</time>
      </trkpt>
      <trkpt lat="47.2203" lon="4.96326">
        <ele>324.47744750977</ele>
        <time>2018-04-26T11:53:50+0200</time>
      </trkpt>
      <trkpt lat="47.2203" lon="4.96326">
        <ele>324.50085449219</ele>
        <time>2018-04-26T11:53:53+0200</time>
      </trkpt>
      <trkpt lat="47.2203" lon="4.96327">
        <ele>324.50924682617</ele>
        <time>2018-04-26T11:53:56+0200</time>
      </trkpt>
      <trkpt lat="47.2203" lon="4.96326">
        <ele>324.51846313477</ele>
        <time>2018-04-26T11:53:59+0200</time>
      </trkpt>
      <trkpt lat="47.2203" lon="4.96326">
        <ele>324.5373840332</ele>
        <time>2018-04-26T11:54:02+0200</time>
      </trkpt>
      <trkpt lat="47.2203" lon="4.96326">
        <ele>324.54742431641</ele>
        <time>2018-04-26T11:54:05+0200</time>
      </trkpt>
      <trkpt lat="47.2203" lon="4.96326">
        <ele>324.54763793945</ele>
        <time>2018-04-26T11:54:08+0200</time>
      </trkpt>
      <trkpt lat="47.2203" lon="4.96326">
        <ele>324.55010986328</ele>
        <time>2018-04-26T11:54:11+0200</time>
      </trkpt>
      <trkpt lat="47.2203" lon="4.96326">
        <ele>324.56066894531</ele>
        <time>2018-04-26T11:54:14+0200</time>
      </trkpt>
      <trkpt lat="47.2203" lon="4.96327">
        <ele>324.58297729492</ele>
        <time>2018-04-26T11:54:17+0200</time>
      </trkpt>
      <trkpt lat="47.22029" lon="4.96329">
        <ele>324.71594238281</ele>
        <time>2018-04-26T11:54:20+0200</time>
      </trkpt>
      <trkpt lat="47.2203" lon="4.9633">
        <ele>324.83602905273</ele>
        <time>2018-04-26T11:54:23+0200</time>
      </trkpt>
      <trkpt lat="47.2203" lon="4.9633">
        <ele>324.85775756836</ele>
        <time>2018-04-26T11:54:26+0200</time>
      </trkpt>
      <trkpt lat="47.2203" lon="4.9633">
        <ele>324.8879699707</ele>
        <time>2018-04-26T11:54:29+0200</time>
      </trkpt>
      <trkpt lat="47.22031" lon="4.96331">
        <ele>324.90542602539</ele>
        <time>2018-04-26T11:54:32+0200</time>
      </trkpt>
      <trkpt lat="47.22034" lon="4.9633">
        <ele>324.98010253906</ele>
        <time>2018-04-26T11:54:35+0200</time>
      </trkpt>
      <trkpt lat="47.22038" lon="4.96329">
        <ele>324.99703979492</ele>
        <time>2018-04-26T11:54:38+0200</time>
      </trkpt>
      <trkpt lat="47.22041" lon="4.96328">
        <ele>325.00772094727</ele>
        <time>2018-04-26T11:54:41+0200</time>
      </trkpt>
      <trkpt lat="47.22044" lon="4.96326">
        <ele>325.01287841797</ele>
        <time>2018-04-26T11:54:44+0200</time>
      </trkpt>
      <trkpt lat="47.22047" lon="4.96324">
        <ele>324.84533691406</ele>
        <time>2018-04-26T11:54:47+0200</time>
      </trkpt>
      <trkpt lat="47.22047" lon="4.96325">
        <ele>324.75506591797</ele>
        <time>2018-04-26T11:54:50+0200</time>
      </trkpt>
      <trkpt lat="47.22047" lon="4.96324">
        <ele>324.7262878418</ele>
        <time>2018-04-26T11:54:53+0200</time>
      </trkpt>
      <trkpt lat="47.22048" lon="4.96324">
        <ele>324.55242919922</ele>
        <time>2018-04-26T11:54:56+0200</time>
      </trkpt>
      <trkpt lat="47.22048" lon="4.96323">
        <ele>324.38818359375</ele>
        <time>2018-04-26T11:54:59+0200</time>
      </trkpt>
      <trkpt lat="47.22048" lon="4.96323">
        <ele>324.34939575195</ele>
        <time>2018-04-26T11:55:02+0200</time>
      </trkpt>
      <trkpt lat="47.22048" lon="4.96324">
        <ele>323.97430419922</ele>
        <time>2018-04-26T11:55:05+0200</time>
      </trkpt>
      <trkpt lat="47.22048" lon="4.96324">
        <ele>323.84307861328</ele>
        <time>2018-04-26T11:55:08+0200</time>
      </trkpt>
      <trkpt lat="47.22047" lon="4.96326">
        <ele>323.67596435547</ele>
        <time>2018-04-26T11:55:11+0200</time>
      </trkpt>
      <trkpt lat="47.22045" lon="4.96328">
        <ele>323.42245483398</ele>
        <time>2018-04-26T11:55:14+0200</time>
      </trkpt>
      <trkpt lat="47.22043" lon="4.96331">
        <ele>323.13757324219</ele>
        <time>2018-04-26T11:55:17+0200</time>
      </trkpt>
      <trkpt lat="47.2204" lon="4.96334">
        <ele>322.84228515625</ele>
        <time>2018-04-26T11:55:20+0200</time>
      </trkpt>
      <trkpt lat="47.22039" lon="4.96336">
        <ele>322.73751831055</ele>
        <time>2018-04-26T11:55:23+0200</time>
      </trkpt>
      <trkpt lat="47.22039" lon="4.96336">
        <ele>322.57122802734</ele>
        <time>2018-04-26T11:55:27+0200</time>
      </trkpt>
      <trkpt lat="47.22038" lon="4.9634">
        <ele>322.40670776367</ele>
        <time>2018-04-26T11:55:30+0200</time>
      </trkpt>
    </trkseg>
  </trk>
</gpx>